# Wetter Temperatur Luftdruck Luftfeuchtigkeit Sichtweite Windgeschwindigkeit Windrichtung Zeit
1 Mist 10 1025 106 10000 1 10 20:39 17.10.2019
2 Mist 10 1026 93 6000 1 70 20:19 17.10.2019
3 Mist 10 1026 93 4800 4.94 92.147 19:59 17.10.2019
4 Clouds 10 1025 106 10000 1.5 40 19:39 17.10.2019
5 Clouds 10 1026 93 4800 0.5 50 19:19 17.10.2019
6 Clear 10 1026 93 6000 1 100 18:58 17.10.2019
7 Clear 10 1026 93 6000 1 100 18:58 17.10.2019
8 Clear 10 1025 107 10000 0.5 150 18:38 17.10.2019
9 Clear 10 1026 93 6000 1 40 18:19 17.10.2019
10 Clouds 11 1025 100 10000 1.518 97 17:42 17.10.2019
11 Clouds 11 1026 87 10000 1 60 17:23 17.10.2019
12 Clear 11 1026 87 10000 0.5 70 16:57 17.10.2019
13 Clear 11 1025 100 10000 0.5 150 16:38 17.10.2019
14 Clouds 11 1026 87 10000 0.5 70 16:18 17.10.2019
15 Clouds 11 1026 81 10000 0.5 360 15:55 17.10.2019
16 Clear 12 1025 100 10000 0.5 170 15:37 17.10.2019
17 Clear 12 1026 87 10000 0.5 140 15:19 17.10.2019
18 Clear 12 1025 100 10000 0.5 140 14:42 17.10.2019
19 Clear 12 1026 81 10000 0.5 260 14:24 17.10.2019
20 Clear 13 1026 81 10000 1 70 13:56 17.10.2019
21 Clear 13 1024 93 10000 0.5 160 13:38 17.10.2019
22 Clear 13 1026 76 10000 0.721 84 13:19 17.10.2019
23 Clouds 14 1024 87 10000 0.5 180 12:41 17.10.2019
24 Clouds 14 1025 62 10000 1 60 12:21 17.10.2019
25 Clouds 15 1025 58 10000 1.79 118 11:59 17.10.2019
26 Clouds 15 1025 58 10000 1.79 118 11:59 17.10.2019
27 Clouds 16 1024 82 10000 1.79 118 11:40 17.10.2019
28 Clear 16 1025 48 10000 0.5 120 11:19 17.10.2019
29 Clouds 18 1024 42 10000 1 120 10:55 17.10.2019
30 Clouds 18 1023 67 10000 0.5 300 10:36 17.10.2019
31 Clear 19 1025 34 10000 1.5 140 10:18 17.10.2019
32 Clear 19 1025 34 10000 1.5 140 10:18 17.10.2019
33 Clear 20 1023 55 10000 0.5 220 09:42 17.10.2019
34 Clouds 21 1024 37 10000 1.5 160 09:22 17.10.2019
35 Clouds 20 1024 37 10000 1.5 140 08:58 17.10.2019
36 Clouds 20 1023 43 10000 1 270 08:39 17.10.2019
37 Clouds 20 1024 37 10000 1 10 08:21 17.10.2019
38 Clouds 20 1024 37 10000 0.5 110 07:55 17.10.2019
39 Clouds 20 1024 37 10000 0.5 110 07:55 17.10.2019
40 Clouds 19 1023 48 10000 1.5 330 07:36 17.10.2019
41 Clouds 19 1025 42 10000 2.6 360 07:18 17.10.2019
42 Clouds 19 1024 48 10000 2.1 330 06:39 17.10.2019
43 Clouds 19 1025 39 10000 0.5 70 06:20 17.10.2019
44 Clouds 18 1026 42 10000 1 30 05:51 17.10.2019
45 Clouds 17 1026 48 10000 1 60 05:31 17.10.2019
46 Clouds 17 1026 55 10000 1 80 04:52 17.10.2019
47 Clouds 15 1027 62 10000 2.1 360 03:54 17.10.2019
48 Clouds 12 1025 87 10000 1 20 02:36 17.10.2019
49 Mist 9 1026 100 4000 1 10 00:56 17.10.2019
50 Clouds 9 1025 100 10000 1 40 00:38 17.10.2019
51 Mist 9 1026 100 4000 0.5 350 00:18 17.10.2019
52 Clouds 10 1025 100 10000 0.5 70 23:42 16.10.2019
53 Mist 10 1026 100 2800 0.5 10 23:20 16.10.2019
54 Mist 10 1026 100 2400 2.1 50 22:55 16.10.2019
55 Clouds 9 1024 100 10000 0.5 40 22:36 16.10.2019
56 Mist 10 1026 100 1200 2.1 20 22:18 16.10.2019
57 Mist 10 1026 100 2800 0.5 350 21:55 16.10.2019
58 Clouds 10 1024 100 10000 0.5 120 21:37 16.10.2019
59 Mist 10 1026 100 2400 1 40 21:18 16.10.2019
60 Mist 10 1026 100 2400 1 40 21:18 16.10.2019
61 Mist 11 1026 100 2800 1 20 20:56 16.10.2019
62 Clouds 11 1025 93 10000 0.5 30 20:38 16.10.2019
63 Mist 11 1026 100 3200 0.5 330 20:20 16.10.2019
64 Mist 11 1026 100 3200 0.5 330 20:20 16.10.2019
65 Clouds 11 1025 100 10000 1 30 19:42 16.10.2019
66 Clouds 12 1026 100 6000 0.5 180 19:21 16.10.2019
67 Clouds 12 1026 100 6000 1.5 30 18:59 16.10.2019
68 Clouds 12 1026 93 10000 0.5 170 18:39 16.10.2019
69 Clouds 11 1027 93 6000 1.762 323 18:19 16.10.2019
70 -273 0 0 0 0 0 17:56 16.10.2019
71 Clouds 12 1025 93 10000 1.762 323 17:37 16.10.2019
72 Clouds 12 1027 93 10000 1.762 323 17:19 16.10.2019
73 Clouds 12 1027 93 9000 0.5 120 16:57 16.10.2019
74 Clouds 12 1025 100 10000 0.5 170 16:38 16.10.2019
75 Clouds 12 1027 93 9000 0.5 10 16:20 16.10.2019
76 -273 0 0 0 0 0 15:42 16.10.2019
77 Clouds 13 1025 87 10000 0.5 20 15:41 16.10.2019
78 Clouds 13 1025 87 10000 0.5 20 15:41 16.10.2019
79 Clouds 13 1026 93 10000 0.5 30 15:20 16.10.2019
80 Clouds 13 1026 93 10000 0.5 30 14:59 16.10.2019
81 Clouds 13 1026 93 10000 0.5 30 14:41 16.10.2019
82 Clouds 13 1025 93 10000 2.992 315 14:23 16.10.2019
83 Clouds 13 1025 87 10000 2.992 315 13:59 16.10.2019
84 Clouds 13 1027 81 10000 1 140 13:41 16.10.2019
85 Clouds 14 1025 87 10000 0.5 30 13:22 16.10.2019
86 Clouds 14 1026 81 10000 1 110 12:44 16.10.2019
87 Clouds 14 1025 87 10000 0.5 60 12:20 16.10.2019
88 Clear 15 1024 76 10000 2.791 300 11:58 16.10.2019
89 Clouds 15 1026 76 10000 0.5 90 11:40 16.10.2019
90 Clear 15 1024 72 10000 0.5 50 11:18 16.10.2019
91 Clouds 17 1024 67 10000 0.5 30 10:37 16.10.2019
92 Clouds 17 1024 63 10000 0.5 20 10:19 16.10.2019
93 Clear 18 1026 48 10000 1 230 09:41 16.10.2019
94 Clear 19 1024 42 10000 1 230 09:22 16.10.2019
95 Clouds 19 1024 42 10000 0.5 290 08:58 16.10.2019
96 Clear 19 1026 45 10000 2.6 220 08:40 16.10.2019
97 Clear 19 1024 42 10000 1.5 210 08:20 16.10.2019
98 Clear 19 1026 48 10000 3.1 240 07:43 16.10.2019
99 Clear 19 1024 45 10000 2.1 220 07:24 16.10.2019
100 Clouds 19 1025 52 10000 1 210 06:55 16.10.2019
101 Clouds 18 1027 42 10000 1.5 190 06:31 16.10.2019
102 Clear 18 1026 63 10000 1 310 05:22 16.10.2019
103 Clouds 12 1028 93 10000 1.5 30 02:53 16.10.2019
104 Mist 9 1029 100 1200 0.5 130 01:38 16.10.2019
105 Clouds 9 1028 100 10000 1.5 30 01:18 16.10.2019
106 Clouds 8 1028 100 10000 1.5 40 00:42 16.10.2019
107 Clouds 8 1028 100 10000 0.5 350 23:59 15.10.2019
108 Mist 8 1029 100 1200 0.5 40 23:39 15.10.2019
109 Clouds 8 1028 100 10000 1 290 23:21 15.10.2019
110 Clouds 8 1028 100 10000 1 50 22:55 15.10.2019
111 Clouds 8 1028 100 10000 1 50 22:55 15.10.2019
112 Clouds 8 1028 100 10000 1 40 22:37 15.10.2019
113 Clouds 8 1028 100 10000 0.5 10 22:19 15.10.2019
114 Clouds 9 1028 100 10000 0.5 340 21:55 15.10.2019
115 Clouds 8 1028 100 10000 1.5 10 21:36 15.10.2019
116 Clouds 9 1028 100 10000 1 30 21:18 15.10.2019
117 Clouds 9 1028 100 10000 1 40 20:55 15.10.2019
118 Clouds 9 1028 100 10000 1 30 20:37 15.10.2019
119 Clouds 9 1028 100 10000 0.5 140 20:19 15.10.2019
120 Mist 9 1030 100 4000 0.5 200 19:55 15.10.2019
121 Mist 9 1030 100 4000 0.5 200 19:55 15.10.2019
122 Mist 9 1030 100 4000 0.5 200 19:55 15.10.2019
123 Clouds 9 1028 100 10000 0.5 110 19:36 15.10.2019
124 Clouds 9 1028 100 10000 0.5 180 19:18 15.10.2019
125 Clouds 9 1028 100 10000 0.5 180 19:18 15.10.2019
126 Clear 9 1030 100 4800 0.5 160 18:43 15.10.2019
127 Clouds 9 1028 100 10000 1 160 18:25 15.10.2019
128 Clouds 10 1028 100 10000 0.5 180 17:55 15.10.2019
129 Clear 9 1028 100 10000 0.5 250 17:37 15.10.2019
130 Clear 9 1028 100 10000 0.5 250 17:37 15.10.2019
131 Clear 9 1028 100 10000 0.5 190 17:18 15.10.2019
132 Clear 10 1029 100 8000 0.5 50 16:43 15.10.2019
133 Clear 10 1028 100 10000 0.5 160 16:22 15.10.2019
134 -273 0 0 0 0 0 15:57 15.10.2019
135 Clear 10 1028 100 10000 0.5 170 15:57 15.10.2019
136 Clear 10 1029 100 10000 1 100 15:39 15.10.2019
137 Clear 10 1029 100 10000 1 100 15:39 15.10.2019
138 Clear 11 1028 100 10000 0.5 180 15:19 15.10.2019
139 Clear 11 1028 100 10000 0.5 160 14:55 15.10.2019
140 Clear 11 1028 100 10000 0.5 160 14:55 15.10.2019
141 Clear 11 1028 93 10000 0.5 150 14:36 15.10.2019
142 Clear 11 1027 100 10000 0.5 150 14:18 15.10.2019
143 Clear 12 1029 81 10000 0.5 90 13:43 15.10.2019
144 Clear 12 1027 93 10000 0.5 170 13:20 15.10.2019
145 Clear 13 1028 87 10000 1 130 12:46 15.10.2019
146 Clear 14 1028 76 10000 0.5 120 12:23 15.10.2019
147 Clear 15 1028 67 10000 0.5 90 11:59 15.10.2019
148 Clear 15 1026 76 10000 0.5 130 11:41 15.10.2019
149 Clear 16 1026 72 10000 0.5 110 11:20 15.10.2019
150 Clear 17 1026 67 10000 0.5 50 10:46 15.10.2019
151 Clear 17 1026 67 10000 0.5 50 10:46 15.10.2019
152 Clear 18 1026 55 10000 0.5 250 10:24 15.10.2019
153 Clear 19 1026 55 10000 1.5 260 09:59 15.10.2019
154 Clear 19 1026 49 10000 1.5 180 09:40 15.10.2019
155 Clear 19 1026 45 10000 0.5 200 09:21 15.10.2019
156 Clear 19 1026 45 10000 0.5 200 09:21 15.10.2019
157 Clear 19 1026 45 10000 1 230 08:57 15.10.2019
158 Clear 19 1026 48 10000 1 190 08:39 15.10.2019
159 Clouds 19 1026 48 10000 1.5 250 08:19 15.10.2019
160 -273 0 0 0 0 0 07:43 15.10.2019
161 Clouds 19 1028 48 10000 0.5 20 07:22 15.10.2019
162 -273 0 0 0 0 0 06:55 15.10.2019
163 Clouds 19 1027 48 10000 1 10 06:37 15.10.2019
164 Clouds 18 1028 52 10000 1 40 05:56 15.10.2019
165 Clouds 17 1028 55 10000 1.5 360 05:36 15.10.2019
166 Clouds 17 1030 51 10000 2.1 100 04:40 15.10.2019
167 Haze 16 1029 55 10000 2.6 10 03:59 15.10.2019
168 Haze 16 1029 55 10000 2.6 10 03:30 15.10.2019
169 Haze 11 1030 62 10000 1 20 01:51 15.10.2019
170 Haze 10 1029 71 10000 1 10 01:26 15.10.2019
171 Haze 9 1029 76 10000 0.5 10 00:58 15.10.2019
172 Clouds 8 1030 75 10000 3.1 40 00:24 15.10.2019
173 Haze 8 1029 81 10000 1 50 23:55 14.10.2019
174 Haze 8 1029 87 10000 0.5 20 23:36 14.10.2019
175 Haze 8 1029 87 10000 0.5 20 23:18 14.10.2019
176 Haze 9 1028 87 10000 0.5 20 22:39 14.10.2019
177 Haze 8 1028 87 10000 1 10 22:19 14.10.2019
178 Haze 9 1028 87 10000 1 30 21:56 14.10.2019
179 Haze 8 1029 100 10000 1 230 21:38 14.10.2019
180 Haze 8 1028 93 10000 1 20 21:20 14.10.2019
181 Haze 8 1028 93 10000 1 20 21:20 14.10.2019
182 Haze 8 1028 81 10000 0.5 350 20:56 14.10.2019
183 Haze 8 1027 87 10000 1.5 10 20:37 14.10.2019
184 Haze 8 1028 81 10000 0.5 20 20:18 14.10.2019
185 Clouds 8 1030 70 10000 1.5 50 19:42 14.10.2019
186 Clouds 8 1028 87 10000 0.5 20 19:23 14.10.2019
187 Haze 9 1028 87 10000 0.5 260 18:59 14.10.2019
188 Haze 8 1028 93 10000 4.15 20.887 18:39 14.10.2019
189 Haze 8 1030 81 10000 1.5 60 18:19 14.10.2019
190 Haze 8 1030 81 10000 1.5 60 18:19 14.10.2019
191 Haze 8 1030 81 10000 1.5 60 18:19 14.10.2019
192 Haze 9 1030 70 10000 1 70 17:57 14.10.2019
193 Haze 9 1030 70 10000 1 70 17:57 14.10.2019
194 Haze 8 1028 93 10000 0.5 40 17:39 14.10.2019
195 Haze 9 1029 48 10000 0.5 30 17:20 14.10.2019
196 Clear 9 1029 52 10000 0.5 40 16:44 14.10.2019
197 Clouds 9 1029 65 10000 0.5 360 16:21 14.10.2019
198 Clear 10 1029 48 10000 0.5 60 15:44 14.10.2019
199 Clear 10 1029 49 10000 2.1 40 15:26 14.10.2019
200 Clear 10 1029 46 10000 2.1 30 14:58 14.10.2019
201 Clear 10 1027 87 10000 0.5 180 14:39 14.10.2019
202 Clear 11 1029 61 10000 1.5 50 14:20 14.10.2019
203 Clear 11 1026 81 10000 1 160 13:44 14.10.2019
204 Clear 11 1028 66 10000 0.5 160 13:22 14.10.2019
205 -273 0 0 0 0 0 12:56 14.10.2019
206 Clear 12 1028 57 10000 0.5 10 12:56 14.10.2019
207 Clear 13 1026 71 10000 1 160 12:37 14.10.2019
208 Clear 12 1028 53 10000 1 330 12:18 14.10.2019
209 Clear 14 1025 58 10000 1 170 11:44 14.10.2019
210 Clear 14 1027 50 10000 1.5 300 11:26 14.10.2019
211 Clear 16 1027 47 10000 1.5 350 10:57 14.10.2019
212 Clear 16 1024 48 10000 1 20 10:38 14.10.2019
213 Clear 17 1026 41 10000 1.5 340 10:19 14.10.2019
214 Clear 18 1023 39 10000 1 260 09:42 14.10.2019
215 Clear 18 1024 39 10000 5.1 330 09:21 14.10.2019
216 Haze 19 1026 39 10000 3.1 310 08:51 14.10.2019
217 Haze 18 1025 31 10000 3.1 360 08:23 14.10.2019
218 Haze 18 1025 34 10000 3.6 330 07:47 14.10.2019
219 Haze 18 1025 39 10000 3.1 330 07:26 14.10.2019
220 -273 0 0 0 0 0 06:59 14.10.2019
221 Haze 18 1026 39 10000 2.1 30 06:28 14.10.2019
222 Haze 18 1026 45 10000 3.1 320 05:57 14.10.2019
223 Haze 18 1026 51 10000 3.1 320 05:27 14.10.2019
224 Haze 16 1025 87 10000 1.5 190 03:51 14.10.2019
225 Haze 16 1027 72 10000 1.5 300 03:26 14.10.2019
226 Mist 13 1027 93 6000 6.03 332.682 02:34 14.10.2019
227 Fog 11 1026 100 4000 0.5 350 01:22 14.10.2019
228 Mist 11 1024 106 800 0.5 50 00:44 14.10.2019
229 Mist 11 1026 100 4000 0.5 10 00:19 14.10.2019
230 Fog 10 1025 106 0 1 150 23:43 13.10.2019
231 Fog 10 1025 100 800 1 80 23:20 13.10.2019
232 Mist 11 1025 100 1600 0.5 360 22:57 13.10.2019
233 -273 0 0 0 0 0 22:39 13.10.2019
234 Mist 11 1023 100 9000 1.5 350 22:20 13.10.2019
235 Mist 11 1025 100 1600 0.5 10 21:57 13.10.2019
236 Mist 11 1025 100 2800 0.5 130 21:36 13.10.2019
237 Mist 11 1025 100 2800 0.5 130 21:36 13.10.2019
238 Mist 11 1025 100 2800 0.5 130 21:18 13.10.2019
239 Mist 11 1025 100 3200 0.5 110 20:57 13.10.2019
240 Mist 11 1025 100 3200 0.5 110 20:56 13.10.2019
241 Mist 11 1023 106 9000 1 30 20:37 13.10.2019
242 Mist 12 1023 93 9000 0.5 320 20:19 13.10.2019
243 Mist 12 1025 100 3200 0.5 70 19:55 13.10.2019
244 Haze 12 1025 100 4800 0.5 50 19:36 13.10.2019
245 Haze 12 1025 100 4800 0.5 50 19:18 13.10.2019
246 Mist 12 1025 100 4000 0.5 340 18:54 13.10.2019
247 Haze 12 1025 100 6000 0.5 180 18:36 13.10.2019
248 Haze 12 1025 100 6000 0.5 180 18:18 13.10.2019
249 Haze 13 1023 106 10000 0.5 10 17:41 13.10.2019
250 Haze 13 1025 100 6000 0.5 100 17:23 13.10.2019
251 Haze 14 1024 100 10000 0.5 190 16:44 13.10.2019
252 Haze 14 1024 100 10000 0.5 190 16:44 13.10.2019
253 Haze 14 1025 100 10000 4.22 317.988 16:20 13.10.2019
254 Haze 14 1025 100 10000 4.22 317.988 16:20 13.10.2019
255 Clouds 13 1025 100 9000 0.5 140 15:58 13.10.2019
256 Clouds 14 1023 93 10000 4.22 317.988 15:39 13.10.2019
257 Clouds 14 1025 93 8000 0.5 140 15:21 13.10.2019
258 Haze 14 1025 93 10000 2.84 340.883 14:58 13.10.2019
259 Haze 14 1023 93 10000 0.5 180 14:39 13.10.2019
260 Haze 14 1023 93 10000 0.5 180 14:39 13.10.2019
261 Haze 14 1024 93 10000 0.5 130 14:21 13.10.2019
262 Haze 15 1024 87 10000 0.5 30 13:56 13.10.2019
263 Haze 15 1023 93 10000 2.84 340.883 13:37 13.10.2019
264 Haze 15 1024 87 10000 0.5 150 13:19 13.10.2019
265 Haze 16 1024 82 10000 2.88 344.47 12:55 13.10.2019
266 Haze 16 1024 82 10000 2.88 344.47 12:55 13.10.2019
267 Haze 16 1023 82 10000 2.88 344.47 12:37 13.10.2019
268 Haze 17 1024 77 10000 0.5 100 12:18 13.10.2019
269 Clear 17 1023 67 10000 3.7 304.969 11:55 13.10.2019
270 Haze 18 1023 67 10000 3.7 304.969 11:37 13.10.2019
271 Haze 18 1023 67 10000 3.7 304.969 11:18 13.10.2019
272 Haze 20 1021 63 10000 1 30 10:41 13.10.2019
273 Haze 21 1023 46 10000 1 320 10:22 13.10.2019
274 Haze 21 1023 46 10000 1 320 10:22 13.10.2019
275 Haze 22 1021 53 10000 1 270 09:41 13.10.2019
276 Haze 22 1023 43 10000 1 280 09:21 13.10.2019
277 Haze 22 1023 43 10000 0.5 330 08:58 13.10.2019
278 Haze 22 1021 46 10000 1 260 08:38 13.10.2019
279 Haze 22 1023 43 10000 0.5 290 08:19 13.10.2019
280 Haze 22 1021 43 10000 1 310 07:46 13.10.2019
281 Haze 21 1023 46 10000 1 70 06:59 13.10.2019
282 Haze 21 1022 46 10000 2.1 330 06:40 13.10.2019
283 Haze 19 1024 52 10000 1.5 50 05:34 13.10.2019
284 Haze 20 1022 52 10000 2.6 330 05:34 13.10.2019
285 Haze 19 1024 52 10000 2.6 10 04:46 13.10.2019
286 Haze 17 1023 52 10000 1.5 10 03:40 13.10.2019
287 Haze 15 1024 63 10000 1.5 330 02:39 13.10.2019
288 Haze 13 1025 81 10000 1.5 30 01:53 13.10.2019
289 Haze 12 1025 87 10000 0.5 30 01:22 13.10.2019
290 Haze 10 1023 100 10000 0.5 130 00:44 13.10.2019
291 Haze 10 1024 100 10000 1 50 00:21 13.10.2019
292 Haze 10 1024 100 10000 0.5 90 23:55 12.10.2019
293 Haze 10 1024 100 10000 0.5 170 23:36 12.10.2019
294 Clear 10 1024 100 10000 0.5 170 23:18 12.10.2019
295 Clouds 10 1024 93 10000 0.5 90 22:55 12.10.2019
296 Clouds 10 1024 87 10000 2.6 40 22:36 12.10.2019
297 Clouds 10 1024 87 10000 2.6 40 22:18 12.10.2019
298 Clear 10 1022 93 10000 0.5 170 21:41 12.10.2019
299 Clear 10 1023 93 10000 2.1 60 21:23 12.10.2019
300 Haze 11 1023 93 10000 0.5 340 20:56 12.10.2019
301 Haze 11 1022 93 10000 3.62 54.727 20:38 12.10.2019
302 Haze 11 1023 93 10000 1.5 50 20:20 12.10.2019
303 Haze 11 1023 81 10000 1.5 40 19:37 12.10.2019
304 Haze 11 1023 81 10000 1.5 40 19:19 12.10.2019
305 Haze 12 1021 81 10000 3.62 54.727 18:46 12.10.2019
306 Haze 12 1023 81 10000 2.1 40 18:27 12.10.2019
307 Haze 12 1022 81 10000 2.6 50 17:58 12.10.2019
308 Haze 13 1021 62 10000 1.5 70 17:40 12.10.2019
309 Haze 13 1022 81 10000 1.5 40 17:18 12.10.2019
310 Haze 13 1021 62 10000 0.5 80 16:41 12.10.2019
311 Haze 13 1022 81 10000 1.5 40 16:21 12.10.2019
312 Haze 14 1022 76 10000 2.1 40 15:58 12.10.2019
313 Haze 14 1021 62 10000 0.5 50 15:38 12.10.2019
314 Haze 14 1022 76 10000 1 60 15:19 12.10.2019
315 Haze 15 1020 58 10000 0.5 30 14:41 12.10.2019
316 Haze 15 1022 71 10000 1.5 30 14:21 12.10.2019
317 Haze 15 1022 67 10000 1 40 13:52 12.10.2019
318 Haze 16 1022 67 10000 1.5 20 13:33 12.10.2019
319 Clear 16 1021 62 10000 1 10 12:57 12.10.2019
320 Clouds 16 1020 58 10000 0.5 320 12:38 12.10.2019
321 Clear 16 1021 62 10000 1.5 10 12:20 12.10.2019
322 Haze 17 1020 59 10000 2.6 40 11:47 12.10.2019
323 Haze 18 1020 51 10000 3.1 50 11:24 12.10.2019
324 Haze 19 1020 52 10000 3.1 50 10:59 12.10.2019
325 Haze 19 1018 52 10000 1.5 10 10:40 12.10.2019
326 Haze 20 1020 48 10000 3.1 50 10:21 12.10.2019
327 -273 0 0 0 0 0 09:57 12.10.2019
328 Haze 21 1018 52 10000 1.5 30 09:38 12.10.2019
329 Haze 21 1019 45 10000 3.1 50 09:20 12.10.2019
330 Haze 21 1019 45 10000 3.1 50 09:20 12.10.2019
331 Haze 21 1018 49 10000 2.6 40 08:45 12.10.2019
332 Haze 21 1019 43 10000 6.7 50 08:25 12.10.2019
333 Haze 22 1019 45 10000 3.6 30 07:59 12.10.2019
334 Haze 22 1019 43 10000 4.6 40 07:31 12.10.2019
335 Haze 22 1019 43 10000 6.2 40 06:37 12.10.2019
336 Clouds 22 1018 46 10000 4.6 40 05:44 12.10.2019
337 Haze 21 1018 46 10000 4.6 350 04:43 12.10.2019
338 Haze 20 1020 45 10000 6.2 50 03:54 12.10.2019
339 Haze 19 1020 52 10000 5.7 50 02:50 12.10.2019
340 Clear 17 1020 67 10000 1.5 60 01:33 12.10.2019
341 Haze 15 1020 67 10000 2.1 40 00:56 12.10.2019
342 Mist 14 1019 76 10000 0.5 110 00:37 12.10.2019
343 Mist 15 1019 67 10000 1.5 40 23:55 11.10.2019
344 Mist 14 1019 93 10000 0.5 200 23:36 11.10.2019
345 Mist 14 1019 67 10000 2.1 40 23:18 11.10.2019
346 Mist 14 1017 63 10000 0.5 60 22:38 11.10.2019
347 Mist 14 1019 71 10000 2.1 30 22:19 11.10.2019
348 Mist 15 1017 63 10000 1 40 21:42 11.10.2019
349 Mist 15 1019 76 10000 2.1 30 21:21 11.10.2019
350 Mist 15 1019 76 10000 2.1 30 21:21 11.10.2019
351 Mist 15 1019 76 10000 1.5 10 20:57 11.10.2019
352 Mist 15 1016 77 10000 0.5 20 20:38 11.10.2019
353 Mist 14 1019 76 10000 1.5 30 20:20 11.10.2019
354 Mist 14 1019 76 10000 1.5 50 19:55 11.10.2019
355 Mist 14 1019 76 10000 1.5 50 19:36 11.10.2019
356 Mist 14 1019 76 10000 1.5 50 19:18 11.10.2019
357 Mist 15 1016 72 10000 3.6 10 19:18 11.10.2019
358 Mist 14 1019 76 10000 1.5 50 19:18 11.10.2019
359 Mist 15 1016 72 10000 3.6 10 19:18 11.10.2019
360 Mist 15 1019 87 10000 0.5 20 18:54 11.10.2019
361 Haze 15 1019 77 10000 1.5 40 18:36 11.10.2019
362 Haze 15 1019 77 10000 1.5 40 18:36 11.10.2019
363 Mist 16 1016 72 10000 3.6 10 18:18 11.10.2019
364 Haze 16 1019 77 10000 1.5 20 17:54 11.10.2019
365 Haze 16 1017 82 10000 1 30 17:36 11.10.2019
366 Haze 16 1019 77 10000 1.5 10 17:18 11.10.2019
367 Haze 17 1017 77 10000 0.5 20 16:39 11.10.2019
368 Haze 17 1019 67 10000 1 360 16:19 11.10.2019
369 Haze 17 1019 67 10000 1.5 350 15:57 11.10.2019
370 Haze 17 1017 68 10000 0.5 90 15:37 11.10.2019
371 Haze 18 1019 72 10000 1.5 10 15:18 11.10.2019
372 Clear 18 1016 72 10000 0.5 70 14:43 11.10.2019
373 Clear 18 1016 72 10000 0.5 70 14:43 11.10.2019
374 Clear 18 1018 67 10000 2.1 50 14:23 11.10.2019
375 Haze 19 1016 63 10000 0.5 30 13:47 11.10.2019
376 Haze 19 1017 59 10000 2.6 50 13:27 11.10.2019
377 Haze 20 1017 59 10000 3.6 40 12:58 11.10.2019
378 Haze 20 1017 59 10000 3.6 40 12:58 11.10.2019
379 Haze 20 1016 60 10000 1 350 12:40 11.10.2019
380 Haze 20 1017 60 10000 3.1 40 12:21 11.10.2019
381 Haze 20 1016 60 10000 2.1 30 11:59 11.10.2019
382 Haze 21 1015 56 10000 0.5 40 11:39 11.10.2019
383 Haze 21 1016 56 10000 1.5 20 11:21 11.10.2019
384 Haze 23 1016 53 10000 2.6 20 10:56 11.10.2019
385 Haze 24 1016 46 10000 3.6 30 10:37 11.10.2019
386 Haze 24 1016 46 10000 3.6 30 10:18 11.10.2019
387 Haze 24 1014 47 10000 1 330 09:43 11.10.2019
388 Haze 25 1014 44 10000 4.6 30 09:21 11.10.2019
389 Haze 24 1015 31 10000 3.1 50 08:59 11.10.2019
390 Haze 24 1014 44 10000 1 50 08:39 11.10.2019
391 Haze 24 1014 44 10000 1 50 08:39 11.10.2019
392 Haze 24 1015 33 10000 3.1 40 08:20 11.10.2019
393 Haze 24 1015 38 10000 1.5 70 07:57 11.10.2019
394 Haze 24 1013 44 10000 1 310 07:38 11.10.2019
395 Haze 23 1015 41 10000 2.6 360 07:19 11.10.2019
396 Clear 22 1014 49 10000 3.1 340 06:43 11.10.2019
397 Haze 22 1016 49 10000 2.6 70 06:19 11.10.2019
398 Haze 21 1017 60 10000 2.1 60 05:32 11.10.2019
399 Haze 20 1017 64 10000 1 40 04:58 11.10.2019
400 Haze 18 1016 77 10000 2.6 340 03:45 11.10.2019
401 Fog 13 1018 100 400 1 50 01:28 11.10.2019
402 Fog 11 1016 106 10000 2.1 30 00:41 11.10.2019
403 Fog 11 1017 100 0 1 10 00:20 11.10.2019
404 Fog 11 1017 100 0 1 10 00:20 11.10.2019
405 Fog 11 1016 106 10000 0.5 10 23:41 10.10.2019
406 Fog 11 1017 100 0 0.5 100 23:20 10.10.2019
407 Fog 12 1017 100 800 1 80 22:56 10.10.2019
408 Mist 12 1016 106 10000 1.5 30 22:36 10.10.2019
409 Mist 12 1017 100 2400 0.5 60 22:18 10.10.2019
410 Mist 12 1015 106 10000 0.5 220 21:42 10.10.2019
411 Mist 12 1015 106 10000 0.5 220 21:42 10.10.2019
412 Mist 11 1017 100 2000 0.5 40 21:22 10.10.2019
413 Mist 12 1017 100 3200 1 170 20:59 10.10.2019
414 Mist 12 1017 100 3200 1 170 20:59 10.10.2019
415 Mist 12 1015 106 10000 1 40 20:40 10.10.2019
416 Mist 12 1017 100 4000 1 180 20:20 10.10.2019
417 Mist 12 1017 100 3200 1 50 19:57 10.10.2019
418 Mist 12 1016 106 10000 0.5 90 19:39 10.10.2019
419 Mist 12 1017 100 4800 4.28 3.602 19:19 10.10.2019
420 Mist 12 1016 106 10000 4.28 3.602 18:42 10.10.2019
421 Mist 13 1017 100 6000 0.5 60 18:21 10.10.2019
422 Haze 13 1017 100 10000 1.5 140 17:59 10.10.2019
423 Haze 13 1016 100 10000 0.5 160 17:40 10.10.2019
424 Haze 13 1018 100 10000 0.5 60 17:19 10.10.2019
425 Clear 13 1016 100 10000 0.5 160 16:56 10.10.2019
426 Clear 13 1016 100 10000 0.5 160 16:37 10.10.2019
427 Haze 14 1016 87 10000 1 10 16:19 10.10.2019
428 Haze 14 1016 100 10000 0.5 170 15:40 10.10.2019
429 Haze 14 1018 87 10000 0.5 230 15:22 10.10.2019
430 Haze 14 1018 87 10000 1 110 14:58 10.10.2019
431 Haze 14 1016 82 10000 1.5 320 14:37 10.10.2019
432 Haze 14 1016 82 10000 1.5 320 14:19 10.10.2019
433 Haze 15 1017 82 10000 0.5 340 13:57 10.10.2019
434 Haze 15 1016 87 10000 0.5 170 13:39 10.10.2019
435 Haze 15 1018 82 10000 0.5 140 13:18 10.10.2019
436 Haze 16 1016 82 10000 0.5 150 12:42 10.10.2019
437 Haze 16 1017 82 10000 0.5 230 12:21 10.10.2019
438 Haze 17 1017 82 10000 1 160 11:58 10.10.2019
439 Haze 17 1015 77 10000 0.5 40 11:39 10.10.2019
440 Haze 17 1017 77 10000 0.5 160 11:19 10.10.2019
441 Haze 18 1016 63 10000 0.5 200 10:46 10.10.2019
442 Haze 18 1017 59 10000 1 220 10:27 10.10.2019
443 Haze 18 1016 59 10000 1 230 09:58 10.10.2019
444 Haze 18 1015 59 10000 0.5 180 09:40 10.10.2019
445 Haze 18 1016 55 10000 1.5 250 09:22 10.10.2019
446 Haze 18 1016 52 10000 1 210 08:58 10.10.2019
447 Haze 18 1015 48 10000 1 340 08:38 10.10.2019
448 Haze 18 1015 48 10000 1 340 08:38 10.10.2019
449 Haze 19 1017 52 10000 0.5 270 08:19 10.10.2019
450 Haze 18 1015 48 10000 1 330 07:46 10.10.2019
451 Haze 18 1017 55 10000 0.5 340 07:23 10.10.2019
452 Haze 18 1017 55 10000 0.5 50 06:49 10.10.2019
453 Haze 17 1017 45 10000 1 330 06:29 10.10.2019
454 Haze 15 1018 72 10000 1.5 320 05:28 10.10.2019
455 Haze 15 1019 76 10000 0.5 20 04:55 10.10.2019
456 Haze 14 1018 76 10000 1.5 40 04:33 10.10.2019
457 Mist 12 1020 87 10000 2.59 32.498 02:19 10.10.2019
458 Mist 12 1020 87 10000 2.59 32.498 02:19 10.10.2019
459 Mist 10 1018 87 10000 1.5 360 01:36 10.10.2019
460 Mist 10 1020 93 10000 0.5 50 01:18 10.10.2019
461 Mist 10 1019 100 6000 0.5 30 00:24 10.10.2019
462 Mist 10 1018 100 10000 1 40 23:41 09.10.2019
463 Mist 10 1019 100 4800 1 30 23:23 09.10.2019
464 Mist 10 1019 100 3200 0.5 10 22:59 09.10.2019
465 Clouds 10 1018 100 10000 1 40 22:40 09.10.2019
466 Mist 9 1019 100 6000 0.5 310 22:22 09.10.2019
467 Mist 9 1018 100 10000 1 20 21:41 09.10.2019
468 Mist 9 1019 93 3200 0.5 350 21:21 09.10.2019
469 Mist 9 1019 93 4000 0.5 350 20:56 09.10.2019
470 Clear 9 1017 93 10000 0.5 320 20:38 09.10.2019
471 Clear 9 1017 93 10000 0.5 320 20:19 09.10.2019
472 Clear 9 1017 93 10000 0.5 320 20:19 09.10.2019
473 Clear 9 1017 93 10000 0.5 320 20:19 09.10.2019
474 Clear 10 1017 58 10000 1.5 50 19:58 09.10.2019
475 Clear 10 1017 58 10000 1.5 50 19:58 09.10.2019
476 Clear 9 1017 87 10000 1.5 360 19:40 09.10.2019
477 Clear 11 1017 87 10000 1.5 360 19:21 09.10.2019
478 Clear 9 1018 87 10000 1.5 330 18:38 09.10.2019
479 -273 0 0 0 0 0 18:20 09.10.2019
480 Clear 9 1019 100 10000 1.12 356.763 17:57 09.10.2019
481 Clear 9 1020 100 10000 1 60 17:37 09.10.2019
482 Clear 9 1020 100 10000 1 60 17:19 09.10.2019
483 Clear 10 1020 100 10000 0.5 140 16:55 09.10.2019
484 Clear 10 1019 100 10000 1.12 356.763 16:36 09.10.2019
485 Clear 10 1018 87 10000 1 330 16:18 09.10.2019
486 Clear 10 1020 93 10000 1.12 356.763 15:55 09.10.2019
487 Clear 10 1020 93 10000 1.12 356.763 15:55 09.10.2019
488 Clear 10 1019 93 10000 0.5 160 15:36 09.10.2019
489 Clear 10 1020 87 10000 0.5 30 15:36 09.10.2019
490 Clear 10 1020 87 10000 0.5 30 15:18 09.10.2019
491 Clear 11 1019 100 10000 0.5 150 14:42 09.10.2019
492 Clear 11 1019 100 10000 0.5 150 14:42 09.10.2019
493 Clear 11 1020 81 10000 0.5 90 14:18 09.10.2019
494 Clear 12 1020 81 10000 1 140 13:55 09.10.2019
495 Clear 12 1018 81 10000 0.5 210 13:36 09.10.2019
496 Clear 12 1018 71 10000 1 290 13:18 09.10.2019
497 Clear 14 1018 76 10000 2.18 307.359 12:42 09.10.2019
498 Clear 14 1019 71 10000 0.5 90 12:22 09.10.2019
499 Clear 15 1020 66 10000 1 130 11:57 09.10.2019
500 Clear 15 1018 71 10000 1 160 11:37 09.10.2019
501 Clear 16 1019 54 10000 0.5 230 11:19 09.10.2019
502 Clear 18 1017 51 10000 0.5 40 10:45 09.10.2019
503 Clear 18 1019 39 10000 1 230 10:22 09.10.2019
504 Clear 19 1019 39 10000 1 210 09:59 09.10.2019
505 Clouds 19 1017 28 10000 1 180 09:41 09.10.2019
506 Clouds 19 1017 28 10000 1 180 09:41 09.10.2019
507 Clear 19 1019 39 10000 2.1 220 09:19 09.10.2019
508 Clear 19 1018 30 10000 1.5 220 08:43 09.10.2019
509 Clear 19 1019 34 10000 1.5 240 08:23 09.10.2019
510 Clear 19 1020 37 10000 1.5 220 07:59 09.10.2019
511 Clear 19 1018 34 10000 1 200 07:39 09.10.2019
512 Clear 19 1020 37 10000 1.5 190 07:21 09.10.2019
513 Clear 19 1020 39 10000 1 310 06:52 09.10.2019
514 Clear 18 1021 31 10000 2.6 210 06:19 09.10.2019
515 Clear 18 1019 36 10000 0.5 160 05:44 09.10.2019
516 Clear 16 1022 36 10000 1 290 04:25 09.10.2019
517 Haze 11 1023 71 10000 1 310 02:53 09.10.2019
518 Fog 8 1023 71 10000 1 140 01:43 09.10.2019
519 Fog 7 1023 100 0 1 320 01:20 09.10.2019
520 Fog 6 1023 100 0 0.5 340 00:57 09.10.2019
521 Fog 6 1023 100 0 0.5 90 00:38 09.10.2019
522 Fog 6 1023 100 0 0.5 90 00:20 09.10.2019
523 Mist 5 1021 100 10000 0.5 170 23:39 08.10.2019
524 Mist 5 1023 100 800 1 80 23:19 08.10.2019
525 Fog 6 1023 100 0 1 110 22:56 08.10.2019
526 Mist 5 1021 100 10000 1 170 22:38 08.10.2019
527 Mist 5 1022 100 4800 0.5 120 22:19 08.10.2019
528 Mist 6 1023 100 4800 1 50 21:57 08.10.2019
529 Haze 6 1021 100 10000 0.5 200 21:39 08.10.2019
530 Haze 6 1023 100 8000 1 50 21:19 08.10.2019
531 Haze 6 1023 100 8000 1 50 21:19 08.10.2019
532 Haze 6 1023 100 9000 0.5 20 20:56 08.10.2019
533 Haze 6 1023 93 10000 0.5 170 20:37 08.10.2019
534 Haze 6 1023 93 10000 0.5 170 20:19 08.10.2019
535 Haze 7 1023 100 10000 0.5 90 19:56 08.10.2019
536 Haze 7 1023 100 10000 1 30 19:37 08.10.2019
537 Haze 7 1022 93 10000 0.5 230 19:18 08.10.2019
538 Mist 7 1023 93 10000 0.5 120 18:46 08.10.2019
539 Mist 8 1023 93 10000 1 310 18:25 08.10.2019
540 Haze 9 1024 87 10000 0.5 120 17:58 08.10.2019
541 Haze 9 1022 93 10000 0.5 180 17:39 08.10.2019
542 Haze 9 1022 93 10000 0.5 180 17:39 08.10.2019
543 Haze 8 1023 87 10000 0.5 150 17:20 08.10.2019
544 Clear 9 1023 87 10000 1 160 16:56 08.10.2019
545 Clear 9 1023 87 10000 1 160 16:56 08.10.2019
546 Clear 8 1022 87 10000 0.5 160 16:37 08.10.2019
547 Clear 9 1023 81 10000 1 120 16:18 08.10.2019
548 Clear 11 1022 71 10000 0.5 40 15:39 08.10.2019
549 Clear 11 1022 71 10000 0.5 40 15:39 08.10.2019
550 Clear 10 1023 75 10000 1 140 15:20 08.10.2019
551 Clear 11 1023 75 10000 0.5 190 14:56 08.10.2019
552 Clear 11 1021 71 10000 0.5 180 14:38 08.10.2019
553 Clear 11 1023 61 10000 1 260 14:19 08.10.2019
554 Clear 12 1023 53 10000 0.5 250 13:55 08.10.2019
555 Clear 12 1020 33 10000 2.6 210 13:37 08.10.2019
556 Clear 13 1022 53 10000 1.5 330 13:18 08.10.2019
557 Clear 14 1020 50 10000 1 270 12:41 08.10.2019
558 Clear 14 1022 50 10000 1 40 12:20 08.10.2019
559 Clear 14 1022 50 10000 1 40 12:20 08.10.2019
560 Clear 15 1021 47 10000 1.5 130 11:58 08.10.2019
561 Clear 15 1019 54 10000 1 350 11:39 08.10.2019
562 Clear 16 1019 44 10000 4.1 310 11:21 08.10.2019
563 Clear 15 1021 41 10000 1.5 290 11:21 08.10.2019
564 Clear 17 1018 48 10000 1 300 10:42 08.10.2019
565 Clear 18 1020 51 10000 3.1 310 10:23 08.10.2019
566 Clear 18 1020 51 10000 2.6 310 09:59 08.10.2019
567 Clear 19 1017 24 10000 1.5 350 09:40 08.10.2019
568 Clear 19 1018 29 10000 5.7 320 09:22 08.10.2019
569 Haze 19 1018 37 10000 4.1 260 08:45 08.10.2019
570 Haze 20 1019 31 10000 3.1 330 08:25 08.10.2019
571 Haze 19 1019 25 10000 1.5 270 07:57 08.10.2019
572 Clear 19 1016 30 10000 2.1 310 07:38 08.10.2019
573 Clear 20 1019 34 10000 3.1 320 07:19 08.10.2019
574 Clear 20 1016 28 10000 2.6 10 06:45 08.10.2019
575 Clear 20 1019 34 10000 4.1 310 06:21 08.10.2019
576 Haze 19 1017 49 10000 1.5 10 05:43 08.10.2019
577 Haze 19 1017 49 10000 1.5 10 05:43 08.10.2019
578 Haze 19 1019 36 10000 3.6 350 05:19 08.10.2019
579 Mist 17 1019 72 10000 2.6 330 03:31 08.10.2019
580 Mist 16 1017 100 4800 2.1 180 02:42 08.10.2019
581 Mist 14 1017 106 4000 2.1 170 01:58 08.10.2019
582 Mist 14 1017 106 4000 2.1 170 01:40 08.10.2019
583 Mist 12 1018 100 400 0.5 40 00:55 08.10.2019
584 Mist 12 1018 100 800 8.38 300.485 00:23 08.10.2019
585 Mist 12 1017 106 9000 0.5 120 23:46 07.10.2019
586 Mist 12 1018 93 2000 0.5 170 23:21 07.10.2019
587 Mist 12 1018 93 2000 0.5 170 23:21 07.10.2019
588 Fog 12 1018 100 0 0.5 150 22:59 07.10.2019
589 Fog 12 1017 106 10000 0.5 170 22:41 07.10.2019
590 Fog 12 1018 100 0 0.5 270 22:23 07.10.2019
591 Fog 12 1016 100 4500 0.5 150 21:59 07.10.2019
592 Fog 12 1016 100 4500 0.5 150 21:40 07.10.2019
593 Fog 12 1018 100 0 0.5 300 21:20 07.10.2019
594 Fog 12 1018 100 0 0.5 300 21:20 07.10.2019
595 Mist 12 1016 100 5000 2.1 30 20:59 07.10.2019
596 Mist 12 1016 100 5000 2.1 30 20:39 07.10.2019
597 Mist 12 1016 100 5000 2.1 30 20:39 07.10.2019
598 Mist 12 1016 100 5000 2.1 30 20:39 07.10.2019
599 Fog 12 1018 100 0 1 180 20:21 07.10.2019
600 Mist 13 1017 100 0 1.5 160 19:59 07.10.2019
601 Mist 13 1016 106 9000 1 160 19:41 07.10.2019
602 Mist 13 1016 106 9000 1 160 19:41 07.10.2019
603 Mist 13 1018 100 0 1 190 19:20 07.10.2019
604 Mist 13 1016 100 2000 1.5 120 18:58 07.10.2019
605 Fog 13 1016 106 8000 1 180 18:38 07.10.2019
606 Fog 13 1018 100 0 1 190 18:19 07.10.2019
607 Fog 14 1017 93 1200 0.5 340 17:43 07.10.2019
608 Fog 13 1018 100 0 1 180 17:23 07.10.2019
609 Fog 13 1018 100 0 1 180 17:23 07.10.2019
610 Fog 14 1018 100 0 0.5 210 16:58 07.10.2019
611 Fog 14 1018 100 0 0.5 210 16:58 07.10.2019
612 Mist 14 1016 106 1600 1 130 16:39 07.10.2019
613 Fog 14 1018 100 0 5.78 321.283 16:20 07.10.2019
614 Fog 14 1017 100 7000 1.5 340 15:45 07.10.2019
615 Mist 14 1018 100 0 0.5 130 15:26 07.10.2019
616 Mist 14 1018 100 0 0.5 130 15:26 07.10.2019
617 Mist 14 1018 100 0 0.5 130 15:26 07.10.2019
618 Mist 15 1017 100 10000 1.5 310 14:56 07.10.2019
619 Mist 15 1016 106 10000 5.52 327.825 14:38 07.10.2019
620 Rain 15 1017 93 10000 1.5 320 14:20 07.10.2019
621 Rain 15 1016 106 10000 0.5 130 13:43 07.10.2019
622 Rain 15 1016 93 10000 2.1 300 13:20 07.10.2019
623 Rain 15 1017 100 10000 1.5 330 12:56 07.10.2019
624 Rain 15 1016 106 10000 0.5 50 12:38 07.10.2019
625 Rain 15 1018 100 10000 0.5 80 12:19 07.10.2019
626 Rain 15 1018 100 10000 1 40 11:57 07.10.2019
627 Rain 15 1017 100 10000 1 20 11:37 07.10.2019
628 Rain 15 1017 100 10000 1 20 11:18 07.10.2019
629 -273 0 0 0 0 0 10:41 07.10.2019
630 Rain 15 1016 106 10000 0.5 60 10:41 07.10.2019
631 Rain 15 1018 100 10000 1.5 30 10:20 07.10.2019
632 Rain 15 1016 93 6000 2.6 340 09:42 07.10.2019
633 Rain 15 1018 100 9000 2.1 20 09:23 07.10.2019
634 Rain 15 1016 93 2800 2.1 360 08:57 07.10.2019
635 Rain 15 1016 93 2800 2.1 360 08:57 07.10.2019
636 Rain 15 1016 93 2800 2.1 360 08:38 07.10.2019
637 Rain 15 1018 100 9000 2.1 30 08:19 07.10.2019
638 Rain 15 1016 93 6000 0.5 180 07:41 07.10.2019
639 Rain 15 1018 100 4800 1.5 350 07:22 07.10.2019
640 Rain 15 1018 100 8000 2.1 360 06:54 07.10.2019
641 Rain 15 1019 100 8000 1.5 10 06:34 07.10.2019
642 Rain 15 1018 106 6000 0.5 200 05:47 07.10.2019
643 Rain 15 1020 100 4800 1.5 10 05:22 07.10.2019
644 Rain 15 1021 100 4800 2.1 50 04:25 07.10.2019
645 Rain 15 1020 106 4800 1 350 03:44 07.10.2019
646 Rain 15 1021 100 4800 1 50 03:20 07.10.2019
647 Rain 14 1022 100 3200 1 20 02:21 07.10.2019
648 Rain 14 1022 100 4000 1.5 40 01:50 07.10.2019
649 Rain 14 1022 100 3200 1.5 50 01:21 07.10.2019
650 Rain 14 1020 106 6000 1.5 10 00:39 07.10.2019
651 Rain 14 1022 100 2400 1.5 40 00:20 07.10.2019
652 Rain 14 1020 106 8000 1 30 23:42 06.10.2019
653 Rain 15 1022 100 3200 0.5 350 23:22 06.10.2019
654 Rain 15 1021 100 3200 2.1 50 22:59 06.10.2019
655 Rain 15 1020 106 10000 0.5 30 22:41 06.10.2019
656 Rain 15 1021 100 3200 1.5 40 22:22 06.10.2019
657 Rain 15 1021 100 6000 0.5 60 21:57 06.10.2019
658 Rain 15 1020 93 10000 1 320 21:38 06.10.2019
659 Rain 15 1020 93 10000 1 320 21:38 06.10.2019
660 Rain 15 1021 100 6000 1.5 70 21:19 06.10.2019
661 Rain 16 1022 100 4800 1 30 20:58 06.10.2019
662 Rain 16 1020 87 10000 1 30 20:39 06.10.2019
663 Rain 16 1020 87 10000 1 30 20:39 06.10.2019
664 Rain 16 1022 100 6000 1 30 20:20 06.10.2019
665 Rain 16 1022 100 8000 1.5 10 19:57 06.10.2019
666 Rain 16 1022 100 8000 1.5 10 19:57 06.10.2019
667 Rain 16 1021 87 10000 1 30 19:37 06.10.2019
668 Rain 17 1022 93 10000 3.1 40 19:19 06.10.2019
669 Clouds 16 1022 100 10000 1.5 10 18:56 06.10.2019
670 Clouds 17 1021 93 10000 1 30 18:38 06.10.2019
671 Clouds 17 1023 87 10000 1 300 18:19 06.10.2019
672 Clouds 17 1023 87 10000 1 300 18:19 06.10.2019
673 Clouds 17 1022 93 10000 1 30 17:43 06.10.2019
674 Clouds 17 1022 93 10000 1 30 17:43 06.10.2019
675 Clouds 17 1022 87 10000 1 50 17:20 06.10.2019
676 Clouds 17 1023 87 10000 1 50 16:58 06.10.2019
677 Clouds 17 1022 87 10000 0.5 350 16:40 06.10.2019
678 Clouds 17 1023 93 10000 1 60 16:22 06.10.2019
679 Clouds 17 1022 93 10000 0.5 30 15:44 06.10.2019
680 Clouds 17 1022 93 10000 0.5 30 15:44 06.10.2019
681 Clouds 17 1023 87 10000 1 50 15:22 06.10.2019
682 Clouds 17 1023 87 10000 1.5 50 14:57 06.10.2019
683 Clouds 17 1022 82 10000 0.5 10 14:39 06.10.2019
684 Clouds 17 1023 82 10000 6.63 167.046 14:20 06.10.2019
685 Clouds 17 1023 82 10000 0.5 100 13:54 06.10.2019
686 Clouds 17 1023 82 10000 0.5 100 13:54 06.10.2019
687 Clouds 18 1022 82 10000 1 40 13:36 06.10.2019
688 Clouds 18 1022 82 10000 1 40 13:36 06.10.2019
689 Clear 18 1023 77 10000 0.5 320 13:18 06.10.2019
690 Clear 18 1023 77 10000 0.5 320 13:18 06.10.2019
691 Clouds 18 1023 77 10000 0.5 140 12:55 06.10.2019
692 Clouds 18 1023 77 10000 0.5 140 12:55 06.10.2019
693 Clouds 18 1023 67 10000 0.5 100 12:36 06.10.2019
694 Clouds 18 1022 77 10000 0.5 310 12:36 06.10.2019
695 Clouds 18 1023 67 10000 0.5 100 12:18 06.10.2019
696 Clouds 19 1022 72 10000 0.5 10 11:42 06.10.2019
697 Clouds 19 1023 59 10000 1 100 11:24 06.10.2019
698 Clouds 19 1023 59 10000 1 100 11:24 06.10.2019
699 Clouds 20 1022 68 10000 1 40 10:56 06.10.2019
700 Clouds 21 1023 56 10000 1 130 10:37 06.10.2019
701 Clouds 21 1023 56 10000 1 130 10:19 06.10.2019
702 Clouds 21 1022 52 10000 1 190 09:41 06.10.2019
703 Clouds 21 1023 46 10000 2.1 140 09:20 06.10.2019
704 Clouds 21 1023 46 10000 2.1 140 09:20 06.10.2019
705 Clouds 22 1023 46 10000 1 180 08:49 06.10.2019
706 Clouds 21 1023 46 10000 1.5 160 08:24 06.10.2019
707 Clouds 21 1023 46 10000 1.5 120 07:58 06.10.2019
708 Clouds 22 1022 46 10000 1 350 07:39 06.10.2019
709 Clear 21 1023 49 10000 1 20 06:50 06.10.2019
710 Clear 20 1023 52 10000 1.5 350 05:41 06.10.2019
711 Clear 20 1023 52 10000 1.5 350 05:41 06.10.2019
712 Clouds 19 1024 52 10000 1.5 10 04:35 06.10.2019
713 Clear 17 1026 67 10000 2.6 10 02:53 06.10.2019
714 Clouds 16 1026 71 10000 3.1 50 02:30 06.10.2019
715 Clouds 15 1026 76 10000 2.6 20 01:48 06.10.2019
716 Clouds 14 1026 76 10000 2.1 20 01:30 06.10.2019
717 Haze 12 1026 87 10000 2.1 30 00:59 06.10.2019
718 Haze 12 1026 87 10000 2.1 30 00:59 06.10.2019
719 Haze 12 1026 81 10000 2.1 30 00:33 06.10.2019
720 Clear 11 1025 81 10000 2.1 20 23:58 05.10.2019
721 Clear 11 1024 87 10000 1.5 10 23:40 05.10.2019
722 Haze 12 1025 81 10000 2.1 10 23:19 05.10.2019
723 Haze 12 1025 81 10000 1 20 22:54 05.10.2019
724 Clear 12 1025 81 10000 2.1 10 22:36 05.10.2019
725 Haze 12 1025 81 10000 2.1 10 22:18 05.10.2019
726 Haze 13 1023 71 10000 1.5 20 21:41 05.10.2019
727 Haze 13 1025 81 10000 2.1 10 21:22 05.10.2019
728 Haze 13 1024 81 10000 2.1 20 20:57 05.10.2019
729 Clouds 12 1023 71 10000 1.5 30 20:39 05.10.2019
730 Haze 13 1024 81 10000 2.1 10 20:19 05.10.2019
731 Clouds 13 1022 67 10000 1.5 20 19:40 05.10.2019
732 Haze 14 1024 81 10000 2.1 20 19:22 05.10.2019
733 Haze 14 1024 81 10000 2.1 10 18:57 05.10.2019
734 Haze 14 1022 67 10000 1.5 30 18:39 05.10.2019
735 Haze 14 1024 81 10000 2.1 10 18:21 05.10.2019
736 Clouds 14 1023 76 10000 2.1 40 17:56 05.10.2019
737 Clouds 14 1023 76 10000 2.6 40 17:37 05.10.2019
738 Haze 14 1023 76 10000 2.6 40 17:19 05.10.2019
739 Haze 14 1022 67 10000 1 30 16:42 05.10.2019
740 Haze 14 1023 81 10000 2.6 30 16:21 05.10.2019
741 Haze 15 1023 81 10000 1.5 30 15:57 05.10.2019
742 Haze 15 1021 72 10000 1 30 15:39 05.10.2019
743 Haze 15 1023 76 10000 1.5 10 15:21 05.10.2019
744 Clear 15 1022 76 10000 3.1 40 14:57 05.10.2019
745 Clear 15 1021 67 10000 1 10 14:38 05.10.2019
746 Clear 15 1022 76 10000 3.1 50 14:20 05.10.2019
747 Clear 15 1022 76 10000 3.1 50 14:20 05.10.2019
748 Haze 16 1020 67 10000 2.1 10 13:41 05.10.2019
749 Haze 16 1021 76 10000 3.1 50 13:22 05.10.2019
750 Haze 16 1019 63 10000 1.5 30 12:46 05.10.2019
751 Haze 17 1020 72 10000 3.1 50 12:21 05.10.2019
752 Haze 17 1020 72 10000 2.1 30 11:58 05.10.2019
753 Clouds 17 1018 67 10000 1.5 30 11:37 05.10.2019
754 Clouds 17 1020 67 10000 3.1 50 11:18 05.10.2019
755 Clouds 18 1017 63 10000 1.5 10 10:44 05.10.2019
756 Clouds 18 1019 63 10000 4.1 40 10:25 05.10.2019
757 Clouds 18 1018 67 10000 3.6 30 09:58 05.10.2019
758 Clouds 18 1016 68 10000 2.1 20 09:38 05.10.2019
759 Clouds 19 1018 67 10000 3.6 30 09:20 05.10.2019
760 Clouds 19 1016 68 10000 3.1 10 08:39 05.10.2019
761 Clouds 19 1017 68 10000 3.1 20 08:19 05.10.2019
762 Clouds 19 1017 68 10000 4.6 20 07:57 05.10.2019
763 Mist 20 1017 64 10000 4.6 20 07:34 05.10.2019
764 Mist 20 1017 72 10000 2.6 10 06:58 05.10.2019
765 Mist 19 1017 77 10000 3.6 20 06:27 05.10.2019
766 Mist 20 1015 83 6000 2.1 250 05:40 05.10.2019
767 Mist 20 1017 77 10000 1 340 03:57 05.10.2019
768 Mist 19 1017 82 10000 1.5 300 03:28 05.10.2019
769 Mist 19 1015 88 4800 0.5 170 01:41 05.10.2019
770 Mist 19 1016 93 8000 2.1 10 01:18 05.10.2019
771 Mist 19 1014 93 4800 1.5 160 00:41 05.10.2019
772 Mist 19 1014 93 6000 4.6 340 00:23 05.10.2019
773 Mist 19 1013 93 4000 1.5 180 23:44 04.10.2019
774 Mist 19 1013 93 6000 2.1 190 23:25 04.10.2019
775 Mist 19 1013 93 6000 2.1 190 23:25 04.10.2019
776 Mist 19 1015 93 4800 2.6 20 22:59 04.10.2019
777 Mist 19 1014 94 3200 1 160 22:39 04.10.2019
778 Mist 19 1015 93 3200 2.1 40 22:19 04.10.2019
779 Mist 19 1014 100 2000 3.1 60 21:55 04.10.2019
780 Mist 20 1013 94 4000 1 160 21:36 04.10.2019
781 Mist 20 1015 100 1600 1 20 21:18 04.10.2019
782 Mist 20 1013 100 4000 0.5 150 20:42 04.10.2019
783 Mist 20 1014 100 2000 0.5 120 20:23 04.10.2019
784 Mist 20 1015 100 1600 1.5 190 19:58 04.10.2019
785 Mist 20 1014 100 3200 0.5 170 19:39 04.10.2019
786 Mist 20 1015 94 2400 1 350 19:21 04.10.2019
787 Mist 20 1015 94 4000 2.1 240 18:56 04.10.2019
788 Mist 20 1015 94 3200 1.5 200 18:37 04.10.2019
789 Mist 20 1015 94 3200 1.5 200 18:18 04.10.2019
790 Mist 20 1013 106 6000 0.5 180 17:41 04.10.2019
791 Mist 20 1014 94 2400 1 200 17:22 04.10.2019
792 Mist 20 1015 94 2400 0.5 190 16:58 04.10.2019
793 Mist 20 1013 106 8000 1 160 16:40 04.10.2019
794 Mist 20 1015 94 2400 0.5 280 16:19 04.10.2019
795 Mist 20 1014 100 1600 1 170 15:56 04.10.2019
796 Mist 21 1013 106 9000 0.5 150 15:38 04.10.2019
797 Mist 21 1013 106 9000 0.5 150 15:38 04.10.2019
798 Mist 20 1015 100 2000 0.5 200 15:19 04.10.2019
799 Mist 21 1015 100 2000 1 230 14:55 04.10.2019
800 Mist 21 1015 100 2000 1.5 250 14:37 04.10.2019
801 Mist 21 1015 100 2000 1.5 250 14:19 04.10.2019
802 Mist 21 1013 106 10000 0.5 150 13:44 04.10.2019
803 Mist 21 1015 94 2800 1.5 220 13:21 04.10.2019
804 Mist 22 1014 94 6000 0.5 130 12:47 04.10.2019
805 Mist 22 1014 83 6000 1 220 12:29 04.10.2019
806 Haze 23 1014 83 9000 2.1 230 11:59 04.10.2019
807 Haze 23 1014 83 9000 2.1 230 11:59 04.10.2019
808 Haze 23 1012 94 10000 1 180 11:41 04.10.2019
809 Haze 23 1013 78 10000 2.1 230 11:20 04.10.2019
810 Haze 23 1013 78 10000 2.1 230 11:20 04.10.2019
811 Haze 25 1012 78 10000 0.5 170 10:41 04.10.2019
812 Haze 26 1013 69 10000 2.6 210 10:21 04.10.2019
813 Haze 26 1013 65 10000 2.6 200 09:48 04.10.2019
814 Haze 27 1013 65 10000 1.5 220 09:30 04.10.2019
815 Haze 27 1013 65 10000 2.6 230 08:57 04.10.2019
816 Haze 27 1012 65 10000 1.5 210 08:38 04.10.2019
817 Haze 27 1013 65 10000 3.1 250 08:19 04.10.2019
818 Haze 26 1012 61 10000 1.5 200 07:44 04.10.2019
819 Haze 26 1013 65 8000 1.5 180 07:22 04.10.2019
820 Haze 26 1012 61 10000 1.5 210 06:44 04.10.2019
821 Haze 26 1012 61 10000 1.5 210 06:44 04.10.2019
822 Haze 25 1014 69 6000 2.6 250 06:25 04.10.2019
823 Haze 25 1013 65 10000 1.5 190 05:38 04.10.2019
824 Haze 24 1014 73 9000 3.1 220 05:18 04.10.2019
825 Mist 23 1015 64 10000 1 220 03:47 04.10.2019
826 Mist 23 1015 64 10000 1 220 03:47 04.10.2019
827 Mist 20 1015 77 10000 0.5 130 02:53 04.10.2019
828 Mist 20 1015 77 10000 0.5 130 02:53 04.10.2019
829 Mist 18 1014 93 9000 1 30 01:55 04.10.2019
830 Mist 18 1014 93 6000 0.5 60 01:29 04.10.2019
831 Mist 17 1014 100 6000 0.5 50 00:56 04.10.2019
832 Mist 16 1013 100 3200 4.9 157.571 23:55 03.10.2019
833 Mist 16 1013 106 10000 0.5 190 23:36 03.10.2019
834 Mist 17 1013 100 3200 0.5 360 23:18 03.10.2019
835 Mist 17 1011 100 10000 1 200 23:18 03.10.2019
836 Mist 17 1013 100 2800 1 20 22:55 03.10.2019
837 Mist 17 1013 100 3200 0.5 40 22:36 03.10.2019
838 Mist 17 1013 100 3200 0.5 40 22:18 03.10.2019
839 Mist 17 1012 106 10000 1 20 21:54 03.10.2019
840 Mist 18 1013 100 2400 0.5 50 21:36 03.10.2019
841 Mist 17 1013 100 2400 0.5 50 21:18 03.10.2019
842 Mist 18 1012 106 10000 1 30 20:41 03.10.2019
843 Mist 18 1013 100 3200 1 50 20:23 03.10.2019
844 Mist 18 1013 100 4000 0.5 300 19:59 03.10.2019
845 Mist 18 1012 113 9000 1 20 19:41 03.10.2019
846 Mist 18 1013 100 4800 0.5 60 19:22 03.10.2019
847 Clear 18 1013 100 4800 5.93 165.354 18:58 03.10.2019
848 Clear 18 1013 100 4800 0.5 60 18:38 03.10.2019
849 Clouds 19 1011 93 10000 2.6 160 18:19 03.10.2019
850 Clear 18 1013 100 4800 0.5 60 18:19 03.10.2019
851 Clouds 18 1011 88 10000 1 140 17:43 03.10.2019
852 Clouds 19 1011 88 10000 1 140 17:23 03.10.2019
853 Clouds 19 1011 88 10000 1 140 17:23 03.10.2019
854 Clouds 19 1011 106 10000 0.5 10 16:59 03.10.2019
855 Clouds 19 1011 106 10000 0.5 10 16:40 03.10.2019
856 Clear 19 1012 100 10000 2.69 164.807 16:22 03.10.2019
857 Clear 19 1012 100 10000 1 50 15:55 03.10.2019
858 Clouds 20 1011 106 10000 0.5 20 15:37 03.10.2019
859 Clouds 20 1012 100 10000 0.5 160 15:18 03.10.2019
860 Clear 20 1011 106 10000 0.5 30 14:39 03.10.2019
861 Clear 20 1011 93 10000 1 50 14:20 03.10.2019
862 Clear 21 1011 82 10000 0.5 140 13:55 03.10.2019
863 Clear 21 1011 88 10000 1 180 13:36 03.10.2019
864 Clear 21 1011 88 10000 1 180 13:18 03.10.2019
865 Clear 22 1009 88 10000 4.17 253.741 12:40 03.10.2019
866 Clear 22 1010 77 10000 1 120 12:20 03.10.2019
867 Clear 23 1009 73 10000 1 100 11:59 03.10.2019
868 Clear 23 1009 73 10000 1 100 11:59 03.10.2019
869 Clear 24 1008 73 10000 1 40 11:40 03.10.2019
870 Clear 25 1009 64 10000 1 90 11:21 03.10.2019
871 Clear 26 1009 61 10000 1.5 70 10:58 03.10.2019
872 Clear 26 1007 65 10000 1.5 290 10:39 03.10.2019
873 Clear 26 1009 57 10000 2.1 80 10:18 03.10.2019
874 Clear 26 1009 57 10000 2.1 80 10:18 03.10.2019
875 Clear 26 1008 57 10000 1.5 70 09:56 03.10.2019
876 Clear 26 1008 57 10000 1.5 70 09:56 03.10.2019
877 Clouds 26 1007 57 10000 2.6 340 09:38 03.10.2019
878 Clear 26 1008 57 10000 2.1 20 09:19 03.10.2019
879 Clouds 27 1006 54 10000 2.6 360 08:43 03.10.2019
880 Clouds 27 1006 54 10000 2.6 360 08:43 03.10.2019
881 Clouds 27 1008 54 10000 2.6 50 08:25 03.10.2019
882 Clouds 27 1007 61 10000 3.1 280 07:45 03.10.2019
883 Clouds 27 1007 54 10000 3.1 10 07:20 03.10.2019
884 Clouds 27 1007 57 10000 2.1 30 06:56 03.10.2019
885 Clouds 27 1007 54 10000 3.1 10 06:27 03.10.2019
886 Mist 26 1007 57 10000 3.6 360 05:49 03.10.2019
887 Mist 25 1007 65 10000 2.1 10 05:29 03.10.2019
888 Mist 25 1005 69 10000 1.5 350 04:45 03.10.2019
889 Mist 24 1007 69 10000 2.1 10 03:55 03.10.2019
890 Mist 23 1007 73 10000 1.5 350 03:19 03.10.2019
891 Rain 21 1006 78 10000 1.5 320 02:27 03.10.2019
892 Rain 21 1003 106 10000 0.5 150 01:40 03.10.2019
893 Rain 20 1005 88 10000 0.5 180 00:53 03.10.2019
894 Rain 21 1005 73 10000 1 350 00:32 03.10.2019
895 Rain 21 1005 73 10000 1 350 00:32 03.10.2019
896 Rain 20 1003 100 10000 2.6 270 23:57 02.10.2019
897 Rain 21 1002 100 10000 1 40 23:37 02.10.2019
898 Rain 21 1005 78 10000 1 350 23:18 02.10.2019
899 Rain 20 1003 68 10000 6.2 350 22:42 02.10.2019
900 Rain 21 1004 78 10000 3.1 10 22:20 02.10.2019
901 Rain 21 1001 106 10000 1.5 20 21:55 02.10.2019
902 Rain 20 1001 106 10000 1.5 20 21:37 02.10.2019
903 Rain 20 1002 94 10000 4.1 340 21:18 02.10.2019
904 Rain 20 1002 77 10000 5.7 10 20:55 02.10.2019
905 Rain 20 1002 77 10000 5.7 10 20:55 02.10.2019
906 -273 0 0 0 0 0 20:55 02.10.2019
907 Rain 21 1002 94 10000 5.7 350 20:37 02.10.2019
908 Rain 21 1002 94 10000 5.7 350 20:19 02.10.2019
909 Rain 21 1003 77 10000 5.7 10 19:44 02.10.2019
910 Rain 21 1003 100 10000 4.1 360 19:23 02.10.2019
911 Rain 20 1003 82 10000 6.7 20 18:58 02.10.2019
912 Rain 20 1003 82 10000 6.7 20 18:58 02.10.2019
913 Rain 20 1003 82 10000 6.7 20 18:39 02.10.2019
914 Rain 20 1003 100 10000 3.1 10 18:21 02.10.2019
915 Rain 20 1003 82 6000 7.2 40 17:57 02.10.2019
916 Rain 20 1003 82 6000 7.2 40 17:57 02.10.2019
917 Rain 20 1003 82 6000 7.2 40 17:57 02.10.2019
918 Rain 20 1003 82 6000 7.2 40 17:38 02.10.2019
919 Rain 21 1004 88 10000 4.6 20 17:38 02.10.2019
920 Rain 21 1004 88 10000 4.6 20 17:20 02.10.2019
921 Rain 21 1005 106 10000 1.5 20 16:56 02.10.2019
922 Rain 20 1005 106 10000 1.5 20 16:36 02.10.2019
923 Rain 20 1008 100 6000 2.6 40 16:18 02.10.2019
924 Rain 21 1008 100 4800 2.6 30 15:41 02.10.2019
925 Rain 21 1008 100 4800 2.6 30 15:23 02.10.2019
926 Rain 21 1007 113 10000 0.5 290 14:58 02.10.2019
927 Rain 21 1008 113 4800 1.5 10 14:40 02.10.2019
928 Rain 21 1008 113 4800 1.5 10 14:21 02.10.2019
929 Rain 21 1008 106 4000 2.1 340 13:45 02.10.2019
930 Rain 21 1010 100 8000 0.5 10 13:26 02.10.2019
931 Rain 21 1010 94 10000 2.6 50 12:59 02.10.2019
932 Rain 21 1010 94 10000 2.6 40 12:38 02.10.2019
933 Rain 21 1009 106 6000 1 350 12:20 02.10.2019
934 Rain 21 1010 106 10000 1 20 11:44 02.10.2019
935 Rain 21 1010 106 10000 1 20 11:23 02.10.2019
936 Rain 21 1011 106 6000 1 30 10:42 02.10.2019
937 Rain 21 1011 106 6000 1 30 10:20 02.10.2019
938 Rain 22 1011 106 8000 1 40 09:59 02.10.2019
939 Rain 22 1011 106 9000 1 30 09:38 02.10.2019
940 Rain 22 1011 106 9000 1 30 09:19 02.10.2019
941 Rain 22 1011 106 10000 2.1 10 08:44 02.10.2019
942 Rain 22 1012 113 6000 0.5 10 08:24 02.10.2019
943 Rain 22 1012 113 6000 1 330 07:58 02.10.2019
944 Rain 22 1012 113 6000 1.5 340 07:38 02.10.2019
945 Rain 22 1014 73 10000 2.6 110 07:20 02.10.2019
946 Rain 22 1012 113 6000 1.5 340 07:20 02.10.2019
947 Rain 23 1013 106 6000 0.5 330 06:31 02.10.2019
948 Rain 23 1014 78 9000 2.1 50 05:54 02.10.2019
949 Rain 23 1014 100 8000 1 340 05:54 02.10.2019
950 Rain 23 1014 100 10000 0.5 330 05:23 02.10.2019
951 Rain 23 1015 94 10000 1 320 04:47 02.10.2019
952 Rain 23 1015 88 10000 1 350 03:52 02.10.2019
953 Mist 22 1016 94 10000 1 10 02:40 02.10.2019
954 Mist 22 1016 94 10000 1 10 02:22 02.10.2019
955 Mist 22 1017 94 4800 2.6 50 01:21 02.10.2019
956 Mist 21 1017 100 3200 3.1 40 00:43 02.10.2019
957 Mist 21 1017 100 3200 3.1 40 00:23 02.10.2019
958 Mist 21 1016 106 6000 1.5 30 23:42 01.10.2019
959 Mist 21 1016 106 6000 1.5 30 23:24 01.10.2019
960 Mist 21 1016 106 6000 1.5 30 22:58 01.10.2019
961 Mist 21 1016 106 6000 1.5 20 22:39 01.10.2019
962 Mist 21 1016 106 6000 1.5 20 22:18 01.10.2019
963 Mist 21 1017 106 6000 2.99 55.975 21:44 01.10.2019
964 Mist 21 1017 106 6000 0.51 186.565 21:25 01.10.2019
965 Rain 21 1016 88 2800 1.5 70 20:59 01.10.2019
966 Mist 21 1017 106 4800 0.5 10 20:39 01.10.2019
967 Mist 21 1017 106 4800 0.5 10 20:21 01.10.2019
968 Mist 21 1017 106 4800 0.5 130 19:59 01.10.2019
969 Mist 21 1018 100 800 1 10 19:41 01.10.2019
970 Mist 21 1018 100 800 1 10 19:23 01.10.2019
971 Mist 21 1019 100 800 1.09 68.736 18:58 01.10.2019
972 Mist 21 1019 100 1600 0.5 280 18:38 01.10.2019
973 Mist 21 1019 106 4000 0.5 120 18:19 01.10.2019
974 -273 0 0 0 0 0 17:55 01.10.2019
975 Mist 21 1017 94 2500 2.1 290 17:36 01.10.2019
976 Mist 21 1017 94 2500 2.1 290 17:36 01.10.2019
977 Mist 21 1017 94 2500 2.1 290 17:18 01.10.2019
978 Mist 22 1017 113 6000 0.5 350 16:41 01.10.2019
979 Mist 22 1017 113 6000 0.5 350 16:41 01.10.2019
980 Mist 22 1017 113 6000 0.5 350 16:22 01.10.2019
981 Mist 22 1019 88 4000 0.5 210 15:55 01.10.2019
982 Mist 22 1018 106 6000 0.5 20 15:37 01.10.2019
983 Mist 22 1018 106 6000 0.5 20 15:18 01.10.2019
984 Mist 22 1018 106 6000 0.5 20 15:18 01.10.2019
985 Haze 23 1019 83 6000 1.5 230 14:40 01.10.2019
986 Haze 22 1018 78 6000 2.6 250 14:20 01.10.2019
987 Haze 23 1019 94 6000 0.5 170 13:57 01.10.2019
988 Haze 23 1018 78 6000 3.1 240 13:37 01.10.2019
989 Mist 24 1018 100 8000 0.5 350 13:18 01.10.2019
990 Mist 24 1018 100 8000 0.5 350 13:18 01.10.2019
991 Mist 24 1017 73 4200 5.1 220 12:55 01.10.2019
992 Mist 24 1017 73 4200 5.1 220 12:55 01.10.2019
993 Mist 24 1018 94 10000 0.5 40 12:37 01.10.2019
994 Mist 24 1018 94 10000 0.5 40 12:18 01.10.2019
995 Haze 24 1018 88 8000 0.5 40 11:55 01.10.2019
996 Haze 25 1018 83 10000 1 20 11:36 01.10.2019
997 Haze 25 1018 83 10000 1 20 11:18 01.10.2019
998 Haze 26 1018 78 10000 0.5 160 10:45 01.10.2019
999 Haze 26 1019 69 10000 0.5 330 10:27 01.10.2019
1000 Haze 27 1018 69 10000 1 350 09:45 01.10.2019
1001 Haze 27 1019 54 10000 1.5 200 09:26 01.10.2019
1002 Haze 27 1019 51 10000 1.5 180 08:44 01.10.2019
1003 Haze 27 1019 51 10000 1.5 180 08:25 01.10.2019
1004 Haze 27 1018 61 10000 1 270 07:50 01.10.2019
1005 Haze 27 1018 61 10000 1 340 07:26 01.10.2019
1006 Haze 27 1019 54 9000 1 170 06:51 01.10.2019
1007 Haze 27 1019 54 9000 1 170 06:25 01.10.2019
1008 Haze 26 1020 57 9000 1 340 05:59 01.10.2019
1009 Haze 25 1020 61 9000 1.5 360 05:38 01.10.2019
1010 Haze 24 1020 69 9000 0.5 120 04:40 01.10.2019
1011 Mist 21 1019 69 5000 1.5 20 03:32 01.10.2019
1012 Mist 19 1020 82 10000 1.5 10 02:19 01.10.2019
1013 Mist 17 1019 88 3200 2.6 10 01:41 01.10.2019
1014 Mist 15 1020 100 4000 1 60 00:42 01.10.2019
1015 Mist 15 1020 100 4000 1 60 00:24 01.10.2019
1016 Fog 16 1018 106 10000 2.1 10 23:41 30.09.2019
1017 Fog 16 1018 106 10000 2.1 10 23:41 30.09.2019
1018 Fog 16 1018 106 10000 2.1 10 23:22 30.09.2019
1019 Mist 17 1018 100 10000 1 20 22:46 30.09.2019
1020 Mist 16 1019 100 2400 1 80 22:27 30.09.2019
1021 Fog 17 1018 100 10000 1.5 30 21:58 30.09.2019
1022 Fog 17 1019 100 2400 1 30 21:40 30.09.2019
1023 Fog 17 1019 100 2400 1 30 21:20 30.09.2019
1024 Mist 17 1018 100 10000 1.5 30 20:58 30.09.2019
1025 Mist 17 1018 106 10000 1.5 20 20:39 30.09.2019
1026 Mist 17 1018 106 10000 1.5 20 20:20 30.09.2019
1027 Fog 17 1018 100 9000 1.5 30 19:58 30.09.2019
1028 Fog 17 1019 100 1600 0.5 70 19:40 30.09.2019
1029 Fog 17 1019 100 1600 0.5 70 19:19 30.09.2019
1030 Mist 17 1018 100 10000 2.1 30 18:58 30.09.2019
1031 Mist 17 1018 100 10000 2.1 30 18:58 30.09.2019
1032 Mist 16 1018 100 8000 2.1 30 18:39 30.09.2019
1033 Mist 17 1018 100 8000 2.1 30 18:20 30.09.2019
1034 Mist 17 1017 100 1800 1.5 320 17:44 30.09.2019
1035 Mist 17 1017 100 1800 1.5 320 17:24 30.09.2019
1036 Mist 17 1018 106 8000 1 20 16:59 30.09.2019
1037 Mist 18 1018 100 10000 1 20 16:41 30.09.2019
1038 Mist 18 1018 100 10000 1 20 16:19 30.09.2019
1039 Mist 18 1018 100 10000 0.5 60 15:58 30.09.2019
1040 Mist 19 1018 100 10000 1 30 15:38 30.09.2019
1041 Mist 19 1018 100 10000 1 30 15:19 30.09.2019
1042 Mist 19 1017 93 10000 0.5 50 14:57 30.09.2019
1043 Mist 19 1018 88 10000 1.83 335.831 14:37 30.09.2019
1044 Mist 19 1018 88 10000 1.83 335.831 14:19 30.09.2019
1045 Mist 20 1017 94 2800 2.1 350 13:57 30.09.2019
1046 Haze 20 1019 93 4800 0.5 160 13:38 30.09.2019
1047 Haze 20 1017 88 10000 0.5 330 13:20 30.09.2019
1048 Haze 22 1018 77 8000 1 130 12:43 30.09.2019
1049 Haze 22 1017 77 10000 3.17 293.237 12:22 30.09.2019
1050 Haze 23 1018 77 8000 0.5 230 11:57 30.09.2019
1051 Haze 23 1018 77 8000 0.5 230 11:57 30.09.2019
1052 Haze 23 1016 68 10000 0.5 20 11:38 30.09.2019
1053 Haze 23 1016 68 10000 0.5 20 11:19 30.09.2019
1054 Haze 26 1016 60 10000 0.5 190 10:54 30.09.2019
1055 Haze 27 1016 54 10000 0.5 350 10:36 30.09.2019
1056 Haze 27 1016 54 10000 0.5 350 10:18 30.09.2019
1057 Haze 28 1016 42 10000 1 240 09:40 30.09.2019
1058 Haze 28 1016 42 10000 1 240 09:40 30.09.2019
1059 Haze 28 1016 42 10000 1 240 09:21 30.09.2019
1060 Haze 28 1016 35 10000 1.5 250 08:51 30.09.2019
1061 Haze 28 1016 32 10000 1 210 08:33 30.09.2019
1062 Haze 28 1016 39 10000 1 220 07:46 30.09.2019
1063 Haze 28 1016 39 10000 1.5 220 07:28 30.09.2019
1064 Haze 27 1018 42 10000 1.5 230 06:57 30.09.2019
1065 Haze 27 1016 44 10000 1.5 220 06:34 30.09.2019
1066 Haze 26 1017 44 10000 1.5 200 05:48 30.09.2019
1067 Haze 26 1017 44 10000 1.5 200 05:48 30.09.2019
1068 Haze 24 1017 57 10000 1.5 320 04:53 30.09.2019
1069 Mist 19 1017 78 6000 1 300 02:48 30.09.2019
1070 Mist 15 1019 100 0 1 60 01:39 30.09.2019
1071 Fog 15 1017 100 900 1.5 320 00:43 30.09.2019
1072 Fog 15 1017 100 900 1.5 320 00:23 30.09.2019
1073 Fog 14 1017 100 300 1 290 23:55 29.09.2019
1074 Fog 15 1017 100 1200 1.5 310 23:36 29.09.2019
1075 Fog 15 1017 100 1200 1.5 310 23:18 29.09.2019
1076 Mist 15 1017 106 6000 1.5 20 22:42 29.09.2019
1077 Mist 15 1017 106 6000 1.5 20 22:23 29.09.2019
1078 Fog 15 1017 106 6000 2.1 30 21:58 29.09.2019
1079 Fog 15 1017 106 6000 1.5 30 21:38 29.09.2019
1080 Fog 15 1017 106 6000 1.5 30 21:19 29.09.2019
1081 Fog 15 1017 106 6000 1 10 20:45 29.09.2019
1082 Fog 15 1017 106 6000 1 10 20:20 29.09.2019
1083 Fog 15 1017 106 6000 1 10 20:20 29.09.2019
1084 Fog 15 1016 100 1200 0.5 330 19:59 29.09.2019
1085 Fog 15 1018 100 0 0.5 10 19:38 29.09.2019
1086 Fog 16 1017 100 6000 1.5 20 19:19 29.09.2019
1087 Fog 16 1017 100 8000 1 30 18:56 29.09.2019
1088 Fog 16 1017 100 8000 1 30 18:56 29.09.2019
1089 Fog 16 1019 100 800 0.5 60 18:38 29.09.2019
1090 Fog 16 1017 106 6000 1 30 18:20 29.09.2019
1091 Mist 16 1019 100 800 0.5 360 17:59 29.09.2019
1092 Mist 16 1017 100 8000 0.5 30 17:41 29.09.2019
1093 Mist 16 1017 100 8000 0.5 30 17:41 29.09.2019
1094 Mist 16 1017 100 8000 0.5 30 17:20 29.09.2019
1095 Mist 16 1017 100 8000 0.5 30 17:20 29.09.2019
1096 Mist 17 1017 100 8000 0.5 50 16:59 29.09.2019
1097 Mist 17 1017 100 8000 0.5 20 16:40 29.09.2019
1098 Mist 17 1017 100 8000 0.5 20 16:19 29.09.2019
1099 Mist 18 1017 100 9000 0.5 20 15:57 29.09.2019
1100 Mist 18 1017 100 9000 0.5 20 15:37 29.09.2019
1101 Mist 18 1017 100 9000 0.5 20 15:18 29.09.2019
1102 Mist 18 1017 100 6000 3.85 308.908 14:55 29.09.2019
1103 Haze 19 1017 93 10000 0.5 50 14:36 29.09.2019
1104 Haze 19 1017 93 10000 0.5 50 14:18 29.09.2019
1105 Haze 19 1017 93 10000 0.5 50 14:18 29.09.2019
1106 Haze 20 1017 77 10000 3.85 308.908 13:42 29.09.2019
1107 Haze 20 1017 77 10000 3.3 300.746 13:19 29.09.2019
1108 Haze 21 1017 82 9000 0.5 160 12:58 29.09.2019
1109 Haze 21 1017 82 10000 0.5 40 12:40 29.09.2019
1110 Haze 21 1015 77 10000 0.5 40 12:21 29.09.2019
1111 Haze 23 1017 73 10000 0.5 160 11:57 29.09.2019
1112 Haze 23 1015 73 10000 1 290 11:39 29.09.2019
1113 Haze 23 1015 73 10000 1 290 11:19 29.09.2019
1114 Haze 25 1015 61 10000 4.79 293.393 10:57 29.09.2019
1115 Haze 25 1015 61 10000 4.79 293.393 10:57 29.09.2019
1116 Haze 26 1016 44 10000 0.5 250 10:36 29.09.2019
1117 Haze 26 1015 50 10000 3.1 290 10:18 29.09.2019
1118 Haze 27 1014 57 10000 1 240 09:45 29.09.2019
1119 Haze 27 1015 45 10000 1 260 09:21 29.09.2019
1120 Haze 28 1015 39 10000 0.5 230 08:58 29.09.2019
1121 Haze 28 1015 37 10000 0.5 160 08:38 29.09.2019
1122 Haze 28 1015 37 10000 0.5 160 08:20 29.09.2019
1123 Haze 27 1015 32 10000 0.5 240 07:43 29.09.2019
1124 Haze 27 1015 32 10000 0.5 240 07:24 29.09.2019
1125 Haze 27 1018 47 10000 0.5 280 06:42 29.09.2019
1126 Haze 25 1017 61 10000 1 200 05:23 29.09.2019
1127 Mist 23 1018 78 10000 2.1 330 04:25 29.09.2019
1128 Haze 22 1018 83 10000 2.1 360 03:56 29.09.2019
1129 Mist 19 1018 94 3200 1.5 320 02:45 29.09.2019
1130 Mist 18 1018 100 1800 2.1 310 02:18 29.09.2019
1131 Fog 17 1020 100 0 1 70 01:31 29.09.2019
1132 Fog 16 1019 100 0 1 40 00:47 29.09.2019
1133 Fog 16 1019 100 0 1 40 00:20 29.09.2019
1134 Fog 16 1017 100 700 1.5 330 23:42 28.09.2019
1135 Fog 16 1017 100 700 1.5 330 23:22 28.09.2019
1136 Mist 16 1017 93 2800 2.1 310 22:56 28.09.2019
1137 Mist 16 1017 106 1200 1.5 20 22:37 28.09.2019
1138 Mist 16 1017 106 1200 1.5 20 22:19 28.09.2019
1139 Mist 17 1017 106 400 1.5 40 21:55 28.09.2019
1140 Mist 17 1017 106 400 1.5 40 21:55 28.09.2019
1141 Mist 17 1018 113 800 1 40 21:36 28.09.2019
1142 Mist 17 1018 113 800 1 40 21:18 28.09.2019
1143 Mist 17 1018 113 1200 1 40 20:55 28.09.2019
1144 Mist 17 1018 106 2400 1.5 30 20:36 28.09.2019
1145 Mist 17 1018 106 2400 1.5 30 20:18 28.09.2019
1146 Mist 17 1019 100 800 0.5 350 19:42 28.09.2019
1147 Mist 17 1019 106 4000 0.5 40 19:22 28.09.2019
1148 Mist 17 1019 106 4000 0.5 40 19:22 28.09.2019
1149 Mist 18 1019 100 1200 1.49 357.85 18:59 28.09.2019
1150 Mist 18 1019 100 2400 1.49 357.85 18:41 28.09.2019
1151 Mist 18 1018 106 4800 0.5 20 18:21 28.09.2019
1152 Mist 18 1019 100 2800 1 130 17:57 28.09.2019
1153 Mist 19 1018 100 6000 3.05 329.375 17:39 28.09.2019
1154 Mist 19 1018 100 6000 3.05 329.375 17:21 28.09.2019
1155 Haze 19 1018 106 6000 3.05 329.375 16:48 28.09.2019
1156 Haze 19 1018 106 6000 0.5 20 16:28 28.09.2019
1157 Haze 20 1018 100 6000 0.5 130 15:57 28.09.2019
1158 Haze 20 1018 106 8000 3.05 329.375 15:38 28.09.2019
1159 Haze 20 1018 106 8000 4.15 317.151 15:20 28.09.2019
1160 Haze 20 1018 106 9000 0.5 160 14:54 28.09.2019
1161 Haze 21 1018 100 10000 4.15 317.151 14:36 28.09.2019
1162 Haze 21 1018 100 10000 4.15 317.151 14:18 28.09.2019
1163 Haze 22 1019 88 9000 1 130 13:42 28.09.2019
1164 Haze 22 1017 94 10000 3.66 318.215 13:20 28.09.2019
1165 Haze 22 1019 83 10000 0.5 290 12:55 28.09.2019
1166 Haze 23 1018 83 10000 0.5 310 12:36 28.09.2019
1167 Haze 23 1018 83 10000 0.5 340 12:18 28.09.2019
1168 Haze 23 1017 78 10000 0.5 280 12:18 28.09.2019
1169 Haze 25 1016 78 10000 0.5 270 11:40 28.09.2019
1170 Haze 25 1016 78 10000 0.5 270 11:40 28.09.2019
1171 Haze 25 1016 78 10000 0.5 270 11:19 28.09.2019
1172 Haze 26 1016 69 10000 0.5 30 10:44 28.09.2019
1173 Haze 27 1018 54 10000 2.1 220 10:21 28.09.2019
1174 Haze 27 1016 61 10000 0.5 240 09:58 28.09.2019
1175 Haze 27 1016 61 10000 0.5 240 09:58 28.09.2019
1176 Haze 28 1018 51 10000 2.6 210 09:40 28.09.2019
1177 Haze 28 1016 48 10000 2.6 320 09:18 28.09.2019
1178 Haze 28 1016 54 10000 1 210 08:47 28.09.2019
1179 Haze 28 1016 54 10000 1 230 08:29 28.09.2019
1180 Haze 27 1018 54 10000 1.5 210 07:46 28.09.2019
1181 Haze 27 1018 54 10000 1.5 210 07:24 28.09.2019
1182 Haze 27 1019 57 10000 1 210 06:56 28.09.2019
1183 Haze 27 1019 61 10000 1 200 06:32 28.09.2019
1184 Haze 26 1020 50 10000 1 220 05:57 28.09.2019
1185 Haze 26 1018 65 10000 1 250 05:24 28.09.2019
1186 Clouds 26 1019 65 10000 1 280 04:41 28.09.2019
1187 Haze 25 1019 69 10000 1 350 03:59 28.09.2019
1188 Haze 24 1019 69 10000 1 20 03:24 28.09.2019
1189 Haze 23 1020 73 10000 1 350 02:57 28.09.2019
1190 Haze 22 1020 77 10000 1.5 350 02:34 28.09.2019
1191 Mist 20 1020 82 10000 1.5 10 01:50 28.09.2019
1192 Mist 20 1021 82 10000 1.5 80 01:27 28.09.2019
1193 Mist 19 1021 88 10000 0.5 110 00:58 28.09.2019
1194 Haze 18 1021 100 8000 1 320 00:38 28.09.2019
1195 Haze 18 1020 100 10000 1.5 30 00:18 28.09.2019
1196 Haze 18 1019 100 10000 1.5 20 23:37 27.09.2019
1197 Haze 19 1019 100 10000 1.5 20 23:19 27.09.2019
1198 Haze 19 1019 100 10000 0.5 40 22:47 27.09.2019
1199 Haze 19 1019 100 10000 0.5 40 22:19 27.09.2019
1200 Haze 19 1019 93 10000 0.5 30 21:57 27.09.2019
1201 Haze 19 1021 93 10000 1 70 21:37 27.09.2019
1202 Haze 19 1021 93 10000 1 70 21:19 27.09.2019
1203 Haze 19 1019 93 10000 1 30 20:56 27.09.2019
1204 Haze 19 1021 93 10000 1 40 20:38 27.09.2019
1205 Haze 19 1021 93 10000 1 40 20:19 27.09.2019
1206 Haze 19 1021 93 10000 2.1 340 19:56 27.09.2019
1207 Haze 19 1021 88 10000 1 360 19:37 27.09.2019
1208 Haze 20 1020 93 10000 1 20 19:18 27.09.2019
1209 Haze 20 1021 93 10000 2.33 21.719 18:40 27.09.2019
1210 Haze 20 1020 93 10000 1.5 30 18:22 27.09.2019
1211 Haze 20 1021 93 10000 1.5 340 17:55 27.09.2019
1212 Haze 20 1020 93 10000 1.5 30 17:37 27.09.2019
1213 Haze 20 1020 93 10000 1.5 30 17:18 27.09.2019
1214 Haze 20 1020 93 10000 0.5 40 16:56 27.09.2019
1215 Haze 20 1020 100 10000 1 40 16:37 27.09.2019
1216 Haze 20 1020 100 10000 1 40 16:37 27.09.2019
1217 Haze 20 1020 100 10000 1 40 16:18 27.09.2019
1218 Haze 21 1021 94 10000 1 10 15:44 27.09.2019
1219 Haze 21 1021 88 10000 1 360 15:20 27.09.2019
1220 Haze 21 1021 94 10000 1.5 30 14:57 27.09.2019
1221 Haze 21 1022 88 10000 0.5 10 14:39 27.09.2019
1222 Haze 21 1022 88 10000 0.5 10 14:20 27.09.2019
1223 Haze 22 1021 88 10000 0.5 140 13:57 27.09.2019
1224 Haze 22 1020 73 10000 0.5 360 13:38 27.09.2019
1225 Haze 22 1022 77 10000 0.5 80 13:19 27.09.2019
1226 Haze 22 1021 88 10000 1 30 12:51 27.09.2019
1227 Haze 23 1020 73 10000 2.1 340 12:22 27.09.2019
1228 Haze 23 1021 78 10000 1 330 11:57 27.09.2019
1229 -273 0 0 0 0 0 11:37 27.09.2019
1230 Haze 24 1021 78 10000 0.5 40 11:19 27.09.2019
1231 Drizzle 24 1022 69 10000 0.5 50 10:42 27.09.2019
1232 Drizzle 24 1022 69 10000 0.5 50 10:21 27.09.2019
1233 Haze 25 1022 47 10000 1 110 09:56 27.09.2019
1234 Haze 25 1022 47 10000 1 110 09:56 27.09.2019
1235 Haze 26 1021 61 10000 0.5 40 09:37 27.09.2019
1236 Haze 26 1021 61 10000 0.5 40 09:18 27.09.2019
1237 Haze 26 1021 57 10000 1 20 08:41 27.09.2019
1238 Haze 26 1021 57 10000 1 20 08:20 27.09.2019
1239 Haze 26 1021 57 10000 1 20 08:20 27.09.2019
1240 Haze 26 1021 57 10000 1.5 30 07:49 27.09.2019
1241 Haze 26 1021 57 10000 1.5 20 07:24 27.09.2019
1242 Haze 25 1022 53 10000 1 340 06:46 27.09.2019
1243 Haze 25 1022 53 10000 1 340 06:27 27.09.2019
1244 Haze 25 1023 53 10000 0.5 360 05:52 27.09.2019
1245 Haze 25 1023 60 10000 2.1 340 05:33 27.09.2019
1246 Haze 23 1024 69 10000 2.1 340 03:59 27.09.2019
1247 Haze 22 1024 77 10000 1 360 03:37 27.09.2019
1248 Mist 19 1024 88 10000 1 30 01:53 27.09.2019
1249 Mist 19 1025 88 10000 0.5 10 01:29 27.09.2019
1250 Clouds 18 1025 93 10000 0.5 350 00:34 27.09.2019
1251 Haze 17 1024 106 10000 1 30 23:57 26.09.2019
1252 Mist 17 1024 106 10000 1 20 23:38 26.09.2019
1253 Haze 17 1024 106 10000 1 20 23:19 26.09.2019
1254 Clouds 17 1024 106 10000 0.5 30 22:57 26.09.2019
1255 Clouds 17 1024 106 10000 1.5 20 22:39 26.09.2019
1256 Clouds 17 1024 106 10000 1.5 20 22:18 26.09.2019
1257 Haze 17 1024 106 10000 0.5 140 21:57 26.09.2019
1258 Clear 17 1023 93 10000 0.5 360 21:37 26.09.2019
1259 Haze 17 1023 93 10000 0.5 360 21:18 26.09.2019
1260 Haze 17 1025 100 10000 0.5 130 20:58 26.09.2019
1261 Haze 18 1023 93 10000 1.5 320 20:39 26.09.2019
1262 Haze 18 1023 93 10000 1.5 320 20:21 26.09.2019
1263 Haze 18 1024 106 10000 0.5 180 19:41 26.09.2019
1264 Mist 19 1025 100 4000 2.1 50 19:20 26.09.2019
1265 Mist 19 1025 100 4000 2.1 50 18:59 26.09.2019
1266 Mist 19 1025 100 4800 0.5 100 18:40 26.09.2019
1267 Clouds 19 1024 100 10000 1 40 18:22 26.09.2019
1268 Clouds 19 1025 100 9000 1 60 17:57 26.09.2019
1269 Clouds 19 1024 100 10000 0.86 72.26 17:37 26.09.2019
1270 Clouds 19 1024 100 10000 0.86 72.26 17:18 26.09.2019
1271 Mist 19 1024 100 10000 0.5 80 16:40 26.09.2019
1272 Mist 19 1024 100 10000 0.5 80 16:21 26.09.2019
1273 Haze 19 1024 106 10000 1 30 15:59 26.09.2019
1274 Haze 20 1024 100 10000 0.5 20 15:38 26.09.2019
1275 Haze 20 1024 100 10000 0.5 20 15:20 26.09.2019
1276 Haze 20 1024 100 10000 0.5 30 14:57 26.09.2019
1277 Haze 20 1024 100 10000 1 20 14:38 26.09.2019
1278 Haze 20 1024 100 10000 1 20 14:38 26.09.2019
1279 Haze 20 1024 100 10000 1 20 14:19 26.09.2019
1280 Haze 21 1025 83 10000 0.5 160 13:41 26.09.2019
1281 Haze 22 1025 83 10000 0.5 220 13:20 26.09.2019
1282 Haze 22 1025 83 10000 0.5 220 13:20 26.09.2019
1283 Haze 22 1025 83 10000 0.5 220 13:20 26.09.2019
1284 Haze 22 1025 83 10000 0.5 220 12:59 26.09.2019
1285 Haze 23 1024 78 10000 0.5 80 12:41 26.09.2019
1286 Haze 23 1024 78 10000 0.5 80 12:20 26.09.2019
1287 Haze 24 1023 78 10000 0.5 40 11:42 26.09.2019
1288 Haze 24 1023 78 10000 0.5 40 11:23 26.09.2019
1289 Haze 24 1023 78 10000 1.95 293.518 10:56 26.09.2019
1290 Haze 25 1023 69 10000 0.5 280 10:38 26.09.2019
1291 Haze 25 1023 69 10000 0.5 280 10:20 26.09.2019
1292 Haze 25 1023 69 10000 0.5 280 10:20 26.09.2019
1293 Haze 25 1023 61 10000 1 320 09:44 26.09.2019
1294 Haze 26 1023 61 10000 1 320 09:26 26.09.2019
1295 Haze 26 1024 61 10000 1.5 10 08:57 26.09.2019
1296 Haze 27 1023 54 10000 2.1 330 08:39 26.09.2019
1297 Haze 27 1023 54 10000 2.1 330 08:21 26.09.2019
1298 Haze 26 1023 57 10000 1.5 350 07:42 26.09.2019
1299 Haze 26 1023 57 10000 1.5 350 07:21 26.09.2019
1300 Haze 25 1025 61 10000 2.1 80 06:43 26.09.2019
1301 Haze 25 1025 61 10000 2.1 80 06:25 26.09.2019
1302 Haze 25 1025 61 10000 2.1 80 06:25 26.09.2019
1303 Haze 24 1024 69 10000 2.6 330 05:44 26.09.2019
1304 Haze 24 1024 69 10000 2.6 330 05:24 26.09.2019
1305 Haze 20 1025 82 10000 1.5 30 02:50 26.09.2019
1306 Mist 18 1025 93 10000 0.5 40 01:53 26.09.2019
1307 Mist 18 1026 100 4800 1.5 60 01:28 26.09.2019
1308 Mist 17 1026 100 3200 1.5 40 00:55 26.09.2019
1309 Mist 17 1026 100 1600 0.5 60 00:37 26.09.2019
1310 Mist 16 1024 106 10000 1 10 23:47 25.09.2019
1311 Mist 16 1024 106 10000 0.5 90 23:28 25.09.2019
1312 Mist 17 1024 106 10000 0.5 160 22:58 25.09.2019
1313 Mist 17 1023 106 10000 0.5 30 22:40 25.09.2019
1314 Mist 17 1023 106 10000 0.5 30 22:20 25.09.2019
1315 Mist 17 1023 106 10000 1.5 20 21:56 25.09.2019
1316 Mist 17 1023 106 10000 1.5 20 21:38 25.09.2019
1317 Mist 17 1023 106 10000 1.5 20 21:19 25.09.2019
1318 Mist 17 1023 106 10000 1.5 30 20:56 25.09.2019
1319 Mist 17 1023 100 10000 2.1 10 20:38 25.09.2019
1320 Mist 17 1023 100 10000 2.1 10 20:38 25.09.2019
1321 Mist 17 1023 100 10000 2.1 10 20:19 25.09.2019
1322 Mist 17 1023 106 10000 1 30 19:43 25.09.2019
1323 Mist 17 1023 106 10000 1 30 19:22 25.09.2019
1324 Mist 17 1023 106 10000 1 20 18:58 25.09.2019
1325 Mist 17 1025 100 2000 0.5 30 18:39 25.09.2019
1326 Haze 17 1023 106 10000 1 40 18:21 25.09.2019
1327 Haze 17 1023 106 10000 1 30 17:58 25.09.2019
1328 Haze 17 1023 106 10000 0.5 70 17:37 25.09.2019
1329 Haze 18 1023 106 10000 0.5 70 17:18 25.09.2019
1330 Clear 18 1024 100 10000 0.5 180 16:44 25.09.2019
1331 Clear 18 1024 100 10000 0.5 180 16:26 25.09.2019
1332 Mist 18 1024 106 10000 0.5 180 15:58 25.09.2019
1333 Haze 18 1023 100 10000 0.5 130 15:40 25.09.2019
1334 Haze 18 1023 100 10000 0.5 130 15:21 25.09.2019
1335 Haze 19 1023 100 10000 0.5 360 14:54 25.09.2019
1336 Haze 19 1023 100 10000 0.5 360 14:54 25.09.2019
1337 Haze 19 1023 100 10000 0.5 350 14:36 25.09.2019
1338 Haze 19 1023 100 10000 0.5 350 14:18 25.09.2019
1339 Mist 20 1024 93 10000 0.5 130 13:41 25.09.2019
1340 Mist 20 1023 94 10000 0.5 50 13:20 25.09.2019
1341 Mist 21 1024 88 10000 1 160 12:58 25.09.2019
1342 Mist 21 1022 88 10000 0.5 10 12:39 25.09.2019
1343 Mist 21 1022 88 10000 0.5 10 12:39 25.09.2019
1344 Haze 21 1022 88 10000 0.5 10 12:20 25.09.2019
1345 Haze 22 1022 78 10000 0.5 40 11:41 25.09.2019
1346 Haze 22 1022 78 10000 0.5 40 11:21 25.09.2019
1347 Haze 23 1022 73 10000 0.5 190 10:56 25.09.2019
1348 Haze 23 1021 69 10000 0.5 240 10:38 25.09.2019
1349 Haze 23 1021 69 10000 0.5 240 10:19 25.09.2019
1350 Haze 25 1021 57 10000 1.5 180 09:43 25.09.2019
1351 Haze 25 1021 57 10000 1.5 180 09:23 25.09.2019
1352 Haze 25 1020 50 10000 1.5 220 08:59 25.09.2019
1353 Haze 25 1021 50 10000 1.5 260 08:41 25.09.2019
1354 Haze 25 1020 57 10000 0.5 310 08:20 25.09.2019
1355 Haze 25 1020 53 10000 1 330 07:42 25.09.2019
1356 Haze 25 1020 53 10000 1 330 07:23 25.09.2019
1357 Haze 25 1020 57 10000 1 330 06:58 25.09.2019
1358 Haze 24 1023 57 10000 1.5 20 06:37 25.09.2019
1359 Haze 24 1023 57 10000 1.5 20 06:37 25.09.2019
1360 Haze 23 1022 60 10000 1 310 05:47 25.09.2019
1361 Haze 23 1022 60 10000 1 310 05:20 25.09.2019
1362 Haze 20 1023 82 10000 1.5 20 03:21 25.09.2019
1363 Rain 15 1024 93 0 0.5 40 01:39 25.09.2019
1364 Rain 13 1024 100 0 1 50 00:41 25.09.2019
1365 Fog 13 1022 106 10000 1 40 00:23 25.09.2019
1366 Mist 13 1021 100 10000 0.5 70 23:44 24.09.2019
1367 Mist 13 1021 100 10000 0.5 70 23:22 24.09.2019
1368 Mist 13 1021 100 10000 0.5 110 22:58 24.09.2019
1369 Mist 13 1021 106 3200 0.5 70 22:38 24.09.2019
1370 Mist 13 1021 106 3200 0.5 70 22:19 24.09.2019
1371 Mist 13 1021 106 3200 0.5 70 22:19 24.09.2019
1372 Mist 13 1021 106 4800 1 30 21:55 24.09.2019
1373 Mist 13 1022 100 1600 0.5 30 21:37 24.09.2019
1374 Mist 13 1020 100 10000 0.5 320 21:18 24.09.2019
1375 Mist 13 1021 106 6000 1 50 20:56 24.09.2019
1376 Mist 13 1021 106 10000 0.5 90 20:38 24.09.2019
1377 Mist 13 1021 106 10000 0.5 90 20:19 24.09.2019
1378 Mist 13 1021 100 10000 0.5 230 19:42 24.09.2019
1379 Mist 14 1021 106 10000 0.5 130 19:20 24.09.2019
1380 Mist 14 1021 106 10000 0.5 130 19:20 24.09.2019
1381 Mist 14 1021 106 10000 0.5 130 19:20 24.09.2019
1382 Mist 14 1021 106 10000 0.5 130 18:57 24.09.2019
1383 Mist 14 1021 106 10000 0.5 120 18:39 24.09.2019
1384 Haze 14 1021 106 10000 0.5 120 18:20 24.09.2019
1385 Haze 14 1021 106 10000 0.5 190 17:57 24.09.2019
1386 Mist 15 1020 100 10000 0.5 160 17:38 24.09.2019
1387 Mist 15 1020 100 10000 0.5 160 17:38 24.09.2019
1388 Mist 15 1020 100 10000 0.5 160 17:19 24.09.2019
1389 Mist 15 1020 100 10000 0.5 140 16:42 24.09.2019
1390 Mist 15 1020 100 10000 0.5 140 16:21 24.09.2019
1391 Mist 16 1020 100 10000 0.5 170 15:58 24.09.2019
1392 Haze 16 1020 100 10000 1.57 357.553 15:40 24.09.2019
1393 Haze 16 1020 100 10000 4.24 288.888 15:21 24.09.2019
1394 Haze 17 1020 93 10000 0.5 150 14:40 24.09.2019
1395 Haze 18 1020 93 10000 0.5 150 14:19 24.09.2019
1396 Haze 18 1021 82 10000 1 130 13:45 24.09.2019
1397 Haze 18 1021 82 10000 1 130 13:23 24.09.2019
1398 Haze 19 1019 88 10000 0.5 130 12:57 24.09.2019
1399 Haze 19 1019 82 10000 0.5 130 12:39 24.09.2019
1400 Haze 20 1019 82 10000 0.5 130 12:18 24.09.2019
1401 Haze 22 1018 68 10000 0.5 180 11:41 24.09.2019
1402 Haze 22 1018 68 10000 0.5 180 11:21 24.09.2019
1403 Haze 23 1018 60 10000 0.5 360 10:55 24.09.2019
1404 Haze 24 1017 53 10000 0.5 240 10:36 24.09.2019
1405 Haze 24 1017 53 10000 0.5 240 10:18 24.09.2019
1406 Haze 24 1017 53 10000 0.5 240 10:18 24.09.2019
1407 Haze 25 1017 41 10000 1.5 180 09:43 24.09.2019
1408 Haze 25 1017 41 10000 1.5 180 09:21 24.09.2019
1409 Haze 25 1017 41 10000 2.1 180 08:57 24.09.2019
1410 Haze 25 1017 44 10000 2.1 200 08:38 24.09.2019
1411 Haze 25 1017 44 10000 2.1 200 08:19 24.09.2019
1412 Haze 25 1017 47 10000 2.1 260 07:46 24.09.2019
1413 Haze 25 1018 44 10000 2.1 200 07:25 24.09.2019
1414 Haze 24 1018 53 10000 2.1 230 06:51 24.09.2019
1415 Haze 24 1020 50 10000 2.6 230 06:32 24.09.2019
1416 Haze 23 1019 60 10000 1.5 230 05:51 24.09.2019
1417 Haze 23 1019 68 10000 1 200 05:18 24.09.2019
1418 Haze 19 1020 87 10000 1.5 340 03:44 24.09.2019
1419 Haze 17 1020 93 10000 1.5 330 02:47 24.09.2019
1420 Haze 15 1020 100 10000 1 320 01:55 24.09.2019
1421 Mist 12 1020 100 3200 0.5 20 00:43 24.09.2019
1422 Mist 12 1020 100 3200 0.5 20 00:25 24.09.2019
1423 Mist 12 1019 100 10000 1 100 23:56 23.09.2019
1424 Mist 12 1019 100 10000 0.5 20 23:38 23.09.2019
1425 Mist 12 1019 100 10000 0.5 20 23:20 23.09.2019
1426 Mist 12 1018 106 10000 0.5 340 22:39 23.09.2019
1427 Mist 12 1018 106 10000 0.5 340 22:20 23.09.2019
1428 Mist 13 1018 100 10000 0.5 180 21:57 23.09.2019
1429 Mist 12 1018 106 10000 0.5 100 21:38 23.09.2019
1430 Mist 12 1018 106 10000 0.5 100 21:19 23.09.2019
1431 Mist 13 1019 93 6000 1 50 20:41 23.09.2019
1432 Mist 13 1019 93 6000 1 50 20:20 23.09.2019
1433 Mist 13 1018 106 10000 0.5 140 20:20 23.09.2019
1434 Mist 13 1019 100 10000 0.5 50 19:58 23.09.2019
1435 Mist 13 1019 93 10000 0.5 50 19:38 23.09.2019
1436 Mist 13 1018 106 10000 0.5 40 19:20 23.09.2019
1437 Mist 13 1018 100 10000 0.5 190 18:55 23.09.2019
1438 Mist 13 1018 100 10000 0.5 190 18:55 23.09.2019
1439 Mist 13 1018 100 10000 1 170 18:36 23.09.2019
1440 Mist 14 1018 106 10000 0.5 170 18:18 23.09.2019
1441 Mist 14 1018 106 10000 0.5 150 17:39 23.09.2019
1442 Mist 14 1018 106 10000 0.5 150 17:21 23.09.2019
1443 Mist 14 1019 93 10000 0.5 20 16:59 23.09.2019
1444 Mist 14 1019 87 10000 2.24 341.088 16:38 23.09.2019
1445 Mist 14 1018 100 10000 0.5 360 16:19 23.09.2019
1446 Mist 15 1019 87 10000 1 150 15:57 23.09.2019
1447 Mist 15 1019 87 10000 1 150 15:39 23.09.2019
1448 Mist 15 1019 87 10000 1 150 15:39 23.09.2019
1449 Mist 15 1018 100 10000 0.5 140 15:19 23.09.2019
1450 Haze 16 1019 87 10000 1.5 140 14:40 23.09.2019
1451 Haze 16 1019 87 10000 1.5 140 14:21 23.09.2019
1452 Haze 17 1018 82 10000 1 140 13:59 23.09.2019
1453 Haze 18 1017 93 10000 1.5 170 13:39 23.09.2019
1454 Haze 18 1017 93 10000 1.5 170 13:19 23.09.2019
1455 Haze 19 1017 82 10000 1 170 12:56 23.09.2019
1456 Haze 19 1016 88 10000 0.5 170 12:37 23.09.2019
1457 Haze 20 1016 77 10000 1 150 12:19 23.09.2019
1458 Haze 21 1017 56 10000 1.5 220 11:45 23.09.2019
1459 Haze 21 1017 56 10000 1.5 220 11:45 23.09.2019
1460 Haze 21 1017 56 10000 1.5 220 11:26 23.09.2019
1461 Haze 22 1017 49 10000 1.5 220 10:55 23.09.2019
1462 Haze 23 1016 49 10000 2.6 220 10:37 23.09.2019
1463 Haze 23 1015 53 10000 2.1 150 10:19 23.09.2019
1464 Haze 23 1014 44 10000 1.5 190 09:40 23.09.2019
1465 Haze 23 1014 44 10000 1.5 190 09:21 23.09.2019
1466 Haze 23 1016 38 10000 1.5 340 08:51 23.09.2019
1467 Haze 23 1016 40 10000 2.6 50 08:33 23.09.2019
1468 Haze 23 1016 43 10000 2.6 350 07:59 23.09.2019
1469 Haze 22 1014 46 10000 1 300 07:33 23.09.2019
1470 Haze 22 1014 44 10000 1.5 170 06:50 23.09.2019
1471 Haze 22 1014 46 10000 1 130 06:18 23.09.2019
1472 Haze 22 1016 49 10000 2.1 10 05:22 23.09.2019
1473 Haze 21 1017 49 10000 2.1 70 04:55 23.09.2019
1474 Haze 20 1017 49 10000 2.6 60 03:56 23.09.2019
1475 Haze 18 1016 55 10000 2.1 30 01:22 23.09.2019
1476 Haze 16 1013 93 10000 0.5 160 00:23 23.09.2019
1477 Clear 16 1015 67 10000 1 360 23:57 22.09.2019
1478 Clear 16 1015 63 10000 1.5 30 23:33 22.09.2019
1479 Haze 16 1014 63 10000 2.6 10 22:59 22.09.2019
1480 Haze 16 1014 63 10000 3.1 10 22:41 22.09.2019
1481 Haze 16 1014 63 10000 3.1 10 22:41 22.09.2019
1482 Haze 17 1014 59 10000 4.1 10 22:23 22.09.2019
1483 Haze 17 1014 59 10000 4.1 10 21:59 22.09.2019
1484 Clouds 17 1013 63 10000 4.1 10 21:39 22.09.2019
1485 Clouds 17 1011 68 10000 1 30 21:19 22.09.2019
1486 Clouds 18 1013 63 10000 2.6 10 20:42 22.09.2019
1487 Clouds 18 1013 63 10000 2.6 10 20:24 22.09.2019
1488 Haze 18 1013 67 10000 1 350 19:56 22.09.2019
1489 Clouds 18 1010 63 10000 1 20 19:37 22.09.2019
1490 Haze 18 1010 63 10000 1 360 19:19 22.09.2019
1491 Clouds 18 1009 63 10000 2.1 30 18:55 22.09.2019
1492 Clouds 18 1009 63 10000 2.1 30 18:36 22.09.2019
1493 Haze 18 1009 59 10000 2.6 30 18:18 22.09.2019
1494 Clear 18 1013 68 10000 2.6 10 17:41 22.09.2019
1495 Clear 18 1013 68 10000 2.6 10 17:22 22.09.2019
1496 Clouds 18 1013 63 10000 3.6 10 16:46 22.09.2019
1497 Clouds 18 1013 63 10000 3.6 10 16:27 22.09.2019
1498 Clouds 19 1013 68 10000 3.1 10 15:57 22.09.2019
1499 Mist 18 1013 63 10000 1 10 15:38 22.09.2019
1500 Mist 18 1010 68 10000 1.5 40 15:19 22.09.2019
1501 Mist 18 1010 72 10000 1.5 40 14:45 22.09.2019
1502 Mist 18 1013 63 10000 2.6 20 14:26 22.09.2019
1503 Haze 18 1013 63 10000 3.1 10 13:59 22.09.2019
1504 Haze 18 1010 77 10000 1.5 30 13:40 22.09.2019
1505 Rain 17 1011 87 10000 1 70 13:21 22.09.2019
1506 -273 0 0 0 0 0 12:55 22.09.2019
1507 Rain 18 1011 93 10000 0.5 90 12:36 22.09.2019
1508 Rain 18 1013 56 10000 3.6 30 12:18 22.09.2019
1509 Rain 18 1013 60 10000 5.1 50 11:41 22.09.2019
1510 Rain 18 1013 60 10000 5.1 50 11:23 22.09.2019
1511 Rain 18 1013 60 10000 5.1 50 11:23 22.09.2019
1512 Rain 18 1011 100 10000 0.5 60 10:45 22.09.2019
1513 Rain 18 1013 60 10000 2.6 40 10:20 22.09.2019
1514 Rain 18 1013 64 10000 3.1 30 09:59 22.09.2019
1515 Rain 18 1013 60 10000 3.1 40 09:40 22.09.2019
1516 Rain 18 1013 60 10000 3.1 40 09:20 22.09.2019
1517 Rain 18 1011 88 10000 1.5 30 08:45 22.09.2019
1518 Rain 18 1013 60 10000 3.1 30 08:25 22.09.2019
1519 Rain 18 1013 60 10000 3.1 50 07:56 22.09.2019
1520 Rain 18 1012 88 10000 1.5 30 07:37 22.09.2019
1521 Rain 18 1012 93 10000 1.5 30 07:18 22.09.2019
1522 Rain 18 1012 93 10000 1.5 30 06:54 22.09.2019
1523 Rain 18 1015 60 10000 3.1 50 05:30 22.09.2019
1524 Rain 18 1017 59 10000 3.1 40 03:48 22.09.2019
1525 Rain 17 1018 63 10000 2.1 40 02:38 22.09.2019
1526 Rain 17 1018 63 10000 2.1 40 02:38 22.09.2019
1527 Rain 17 1016 106 10000 0.5 280 02:18 22.09.2019
1528 Rain 17 1016 106 10000 0.5 80 01:20 22.09.2019
1529 Rain 16 1018 72 10000 1.5 40 00:33 22.09.2019
1530 Rain 16 1017 106 10000 0.5 40 23:59 21.09.2019
1531 Rain 16 1018 82 10000 1 360 23:40 21.09.2019
1532 Rain 16 1017 106 10000 0.5 30 23:19 21.09.2019
1533 Rain 16 1018 87 10000 1.5 10 22:39 21.09.2019
1534 Rain 16 1017 106 10000 0.5 40 22:21 21.09.2019
1535 Rain 16 1018 88 10000 1.5 20 21:43 21.09.2019
1536 Rain 16 1017 77 10000 1 70 21:20 21.09.2019
1537 Rain 16 1019 100 10000 1.5 40 20:59 21.09.2019
1538 Rain 17 1019 100 9000 1.5 30 20:38 21.09.2019
1539 Rain 17 1018 87 1200 1.5 40 20:19 21.09.2019
1540 Rain 17 1018 87 1200 1.5 40 20:19 21.09.2019
1541 Rain 17 1019 106 10000 6.68 57.553 19:47 21.09.2019
1542 Rain 17 1019 106 10000 6.68 57.553 19:23 21.09.2019
1543 Rain 17 1019 100 10000 0.5 150 18:55 21.09.2019
1544 Rain 16 1019 106 10000 0.5 180 18:36 21.09.2019
1545 Rain 17 1019 106 10000 0.5 180 18:18 21.09.2019
1546 Rain 17 1021 93 6000 2.1 40 17:39 21.09.2019
1547 Rain 17 1020 100 10000 0.5 150 17:19 21.09.2019
1548 Rain 17 1021 93 8000 1 40 16:43 21.09.2019
1549 Rain 17 1021 93 8000 1 40 16:24 21.09.2019
1550 Rain 17 1020 100 10000 0.5 190 15:48 21.09.2019
1551 Rain 17 1021 93 8000 0.5 70 15:25 21.09.2019
1552 Rain 17 1020 100 10000 0.5 160 14:50 21.09.2019
1553 Rain 17 1021 100 10000 0.5 310 14:32 21.09.2019
1554 Rain 18 1021 100 10000 1 140 13:58 21.09.2019
1555 Rain 18 1019 77 10000 2.6 120 13:39 21.09.2019
1556 Rain 18 1019 77 10000 2.6 120 13:39 21.09.2019
1557 Rain 18 1019 77 10000 2.6 120 13:20 21.09.2019
1558 Rain 18 1019 68 10000 2.6 130 12:55 21.09.2019
1559 Rain 18 1019 77 10000 2.6 130 12:37 21.09.2019
1560 Rain 19 1019 64 10000 5.1 140 12:19 21.09.2019
1561 Rain 19 1019 64 10000 5.1 140 12:19 21.09.2019
1562 Rain 19 1019 77 10000 2.6 140 11:43 21.09.2019
1563 Rain 19 1019 64 10000 5.1 150 11:24 21.09.2019
1564 Rain 20 1018 68 10000 4.1 140 10:45 21.09.2019
1565 Rain 19 1018 68 10000 4.1 140 10:27 21.09.2019
1566 Rain 20 1018 60 10000 4.1 150 09:59 21.09.2019
1567 Rain 20 1018 64 10000 5.1 130 09:39 21.09.2019
1568 Rain 20 1018 64 10000 5.1 130 09:20 21.09.2019
1569 Rain 20 1020 72 10000 2.1 40 08:52 21.09.2019
1570 Rain 20 1020 72 10000 2.1 70 08:28 21.09.2019
1571 Rain 20 1019 72 10000 2.1 60 07:42 21.09.2019
1572 Rain 20 1018 72 10000 1 360 07:24 21.09.2019
1573 Rain 20 1018 72 10000 1.5 350 06:57 21.09.2019
1574 Rain 20 1019 68 10000 1.5 340 06:32 21.09.2019
1575 Haze 20 1021 82 10000 1 30 05:32 21.09.2019
1576 Haze 19 1021 82 10000 2.1 60 04:36 21.09.2019
1577 Haze 18 1020 88 10000 1.5 340 02:38 21.09.2019
1578 Rain 17 1020 82 10000 1.5 10 02:20 21.09.2019
1579 Rain 17 1022 87 10000 3.6 50 01:45 21.09.2019
1580 Haze 17 1021 87 10000 2.6 40 00:43 21.09.2019
1581 Haze 17 1020 82 10000 2.1 20 00:19 21.09.2019
1582 Haze 17 1021 87 10000 1.5 30 23:42 20.09.2019
1583 Haze 17 1021 87 10000 1.5 30 23:23 20.09.2019
1584 Haze 18 1021 106 8000 4.37 18.85 22:41 20.09.2019
1585 Haze 18 1021 106 8000 4.37 18.85 22:23 20.09.2019
1586 Haze 17 1021 106 10000 1 330 21:57 20.09.2019
1587 Haze 17 1021 106 9000 4.37 18.85 21:37 20.09.2019
1588 Haze 17 1018 77 10000 2.6 50 21:18 20.09.2019
1589 Haze 18 1021 100 8000 0.5 70 20:55 20.09.2019
1590 Mist 18 1021 106 9000 2.02 126.025 20:36 20.09.2019
1591 Haze 18 1019 77 10000 1.5 40 20:18 20.09.2019
1592 Haze 18 1019 82 10000 1 40 19:42 20.09.2019
1593 Haze 18 1019 82 10000 1 40 19:21 20.09.2019
1594 Mist 18 1019 82 10000 1 10 18:56 20.09.2019
1595 Mist 18 1019 82 10000 1.5 20 18:36 20.09.2019
1596 Mist 18 1020 82 10000 2.1 30 18:18 20.09.2019
1597 Mist 19 1021 88 10000 2.1 60 17:43 20.09.2019
1598 Mist 19 1021 88 10000 2.1 60 17:25 20.09.2019
1599 Mist 19 1021 88 10000 1 90 16:43 20.09.2019
1600 Mist 19 1021 88 10000 1 90 16:21 20.09.2019
1601 Mist 19 1021 88 10000 1 90 15:58 20.09.2019
1602 Mist 18 1021 93 10000 0.5 20 15:40 20.09.2019
1603 Mist 19 1021 93 10000 0.5 20 15:21 20.09.2019
1604 Haze 19 1021 93 10000 0.66 150.428 14:42 20.09.2019
1605 Haze 19 1019 68 10000 2.1 60 14:19 20.09.2019
1606 Haze 19 1019 68 10000 2.1 60 14:19 20.09.2019
1607 Haze 19 1020 77 10000 2.1 50 13:48 20.09.2019
1608 Haze 20 1020 77 10000 2.1 50 13:28 20.09.2019
1609 Haze 20 1020 77 10000 2.1 50 12:57 20.09.2019
1610 Haze 20 1018 82 10000 1 350 12:37 20.09.2019
1611 Haze 20 1019 82 10000 1 10 12:18 20.09.2019
1612 Haze 21 1017 72 10000 1 350 11:49 20.09.2019
1613 Haze 21 1017 72 10000 1 350 11:21 20.09.2019
1614 Haze 21 1019 64 10000 0.5 70 10:43 20.09.2019
1615 Haze 21 1019 64 10000 0.5 70 10:43 20.09.2019
1616 Haze 21 1019 64 10000 0.5 70 10:24 20.09.2019
1617 Haze 22 1019 64 10000 1.5 40 09:59 20.09.2019
1618 Haze 22 1019 60 10000 1.5 70 09:37 20.09.2019
1619 Haze 22 1019 60 10000 1.5 70 09:37 20.09.2019
1620 Haze 22 1019 60 10000 1.5 70 09:18 20.09.2019
1621 Haze 22 1019 64 10000 2.1 40 08:41 20.09.2019
1622 Haze 22 1019 64 10000 2.1 40 08:23 20.09.2019
1623 Mist 23 1017 56 10000 1 10 07:47 20.09.2019
1624 Haze 23 1017 53 10000 1.5 10 07:26 20.09.2019
1625 Haze 23 1019 60 10000 2.1 20 06:44 20.09.2019
1626 Haze 23 1017 53 10000 2.1 340 06:21 20.09.2019
1627 Fog 21 1019 64 10000 3.6 60 05:44 20.09.2019
1628 Haze 19 1020 72 10000 2.6 60 03:36 20.09.2019
1629 Haze 18 1018 72 10000 1.5 350 03:18 20.09.2019
1630 Haze 16 1018 82 10000 1.5 350 01:44 20.09.2019
1631 Haze 15 1018 82 10000 1.5 10 00:52 20.09.2019
1632 Mist 14 1017 87 10000 1.5 20 00:21 20.09.2019
1633 Haze 14 1019 82 10000 2.1 350 23:42 19.09.2019
1634 Haze 14 1019 82 10000 2.1 350 23:19 19.09.2019
1635 Haze 15 1019 82 10000 1 20 22:55 19.09.2019
1636 Haze 15 1018 82 10000 0.5 20 22:36 19.09.2019
1637 Haze 15 1018 82 10000 0.5 20 22:18 19.09.2019
1638 -273 0 0 0 0 0 21:55 19.09.2019
1639 Haze 15 1018 76 10000 1 110 21:36 19.09.2019
1640 Haze 15 1018 76 10000 1 110 21:18 19.09.2019
1641 Haze 15 1019 76 10000 1.5 20 20:43 19.09.2019
1642 Haze 15 1017 93 10000 1.5 10 20:21 19.09.2019
1643 Mist 15 1017 93 10000 1 20 19:55 19.09.2019
1644 Mist 15 1017 93 10000 1.5 20 19:37 19.09.2019
1645 Mist 15 1019 87 10000 2.1 20 19:19 19.09.2019
1646 Mist 15 1017 93 10000 1 20 18:42 19.09.2019
1647 Mist 15 1017 93 10000 1 20 18:24 19.09.2019
1648 Mist 15 1019 100 10000 0.5 60 17:44 19.09.2019
1649 Mist 15 1019 100 10000 0.5 60 17:25 19.09.2019
1650 Haze 16 1019 100 10000 0.5 130 16:59 19.09.2019
1651 Haze 16 1018 87 10000 0.5 140 16:40 19.09.2019
1652 Haze 16 1018 87 10000 0.5 140 16:20 19.09.2019
1653 Haze 16 1019 93 10000 4.58 349.232 15:41 19.09.2019
1654 Haze 16 1019 93 10000 4.99 342.924 15:22 19.09.2019
1655 Haze 17 1020 82 10000 1 100 14:58 19.09.2019
1656 Haze 17 1020 77 10000 0.5 140 14:39 19.09.2019
1657 Haze 17 1020 77 10000 0.5 140 14:20 19.09.2019
1658 Fog 19 1019 82 10000 0.5 150 13:55 19.09.2019
1659 Haze 19 1018 68 10000 0.5 190 13:36 19.09.2019
1660 Haze 20 1018 68 10000 0.5 190 13:18 19.09.2019
1661 Haze 20 1017 52 10000 1 300 12:36 19.09.2019
1662 Haze 21 1017 52 10000 1 300 12:18 19.09.2019
1663 Haze 22 1019 56 10000 1 30 11:41 19.09.2019
1664 Haze 22 1019 56 10000 1 30 11:22 19.09.2019
1665 Fog 23 1019 52 10000 2.6 10 10:58 19.09.2019
1666 Haze 24 1018 49 10000 2.6 20 10:39 19.09.2019
1667 Haze 24 1018 49 10000 2.6 20 10:21 19.09.2019
1668 Dust 24 1018 40 10000 2.1 10 09:55 19.09.2019
1669 Dust 25 1019 33 10000 1.5 330 09:37 19.09.2019
1670 Dust 25 1016 36 10000 1 310 09:18 19.09.2019
1671 Dust 25 1019 44 10000 0.5 300 08:48 19.09.2019
1672 Dust 24 1019 47 10000 1.5 270 08:22 19.09.2019
1673 Haze 24 1017 47 10000 1 200 07:43 19.09.2019
1674 Dust 24 1017 47 10000 1.5 200 07:22 19.09.2019
1675 Dust 24 1018 50 10000 0.5 210 06:49 19.09.2019
1676 Dust 24 1018 50 10000 0.5 210 06:29 19.09.2019
1677 Haze 24 1018 53 10000 1 190 05:53 19.09.2019
1678 Haze 23 1021 49 10000 1.5 260 05:33 19.09.2019
1679 Haze 21 1022 52 10000 2.1 20 03:54 19.09.2019
1680 Fog 19 1020 64 10000 1.5 350 03:18 19.09.2019
1681 Fog 15 1022 66 10000 3.6 50 01:34 19.09.2019
1682 Mist 12 1022 66 10000 2.6 40 00:51 19.09.2019
1683 Mist 12 1022 66 10000 2.6 40 00:26 19.09.2019
1684 Haze 12 1022 71 10000 1 50 23:43 18.09.2019
1685 Haze 12 1022 71 10000 1 50 23:23 18.09.2019
1686 Mist 12 1021 71 10000 1 360 22:55 18.09.2019
1687 Mist 12 1021 71 10000 1 360 22:55 18.09.2019
1688 Clear 12 1021 66 10000 2.6 40 22:37 18.09.2019
1689 Haze 12 1020 100 10000 1.5 40 22:18 18.09.2019
1690 Haze 12 1021 71 10000 2.6 40 21:55 18.09.2019
1691 Haze 13 1021 71 10000 2.1 50 21:37 18.09.2019
1692 Mist 12 1019 93 10000 0.5 350 21:18 18.09.2019
1693 Mist 12 1021 81 10000 2.1 10 20:55 18.09.2019
1694 Mist 12 1021 81 10000 2.1 10 20:55 18.09.2019
1695 Haze 12 1019 93 10000 0.5 150 20:37 18.09.2019
1696 Mist 13 1019 93 10000 0.5 20 20:18 18.09.2019
1697 Haze 13 1019 93 10000 0.5 110 19:41 18.09.2019
1698 Haze 14 1020 58 10000 1 10 19:20 18.09.2019
1699 Haze 14 1020 58 10000 1 10 18:57 18.09.2019
1700 Haze 14 1019 93 10000 0.5 170 18:38 18.09.2019
1701 Haze 14 1019 93 10000 0.5 170 18:19 18.09.2019
1702 Haze 14 1020 58 10000 1.5 50 17:59 18.09.2019
1703 Haze 14 1019 93 10000 0.5 50 17:40 18.09.2019
1704 Haze 15 1019 93 10000 0.5 50 17:19 18.09.2019
1705 Haze 16 1020 47 10000 2.6 20 16:56 18.09.2019
1706 Haze 16 1020 47 10000 2.6 20 16:38 18.09.2019
1707 Haze 16 1018 82 10000 0.5 120 16:19 18.09.2019
1708 Haze 16 1020 47 10000 2.6 40 15:55 18.09.2019
1709 Haze 16 1020 51 10000 2.6 40 15:37 18.09.2019
1710 Haze 16 1020 51 10000 2.6 40 15:18 18.09.2019
1711 Haze 17 1020 48 10000 2.1 50 14:57 18.09.2019
1712 Haze 17 1020 51 10000 1 50 14:38 18.09.2019
1713 Haze 17 1020 51 10000 1 50 14:20 18.09.2019
1714 Haze 18 1017 67 10000 0.5 150 13:43 18.09.2019
1715 Haze 19 1017 67 10000 0.5 150 13:19 18.09.2019
1716 Haze 19 1017 55 10000 0.5 160 13:19 18.09.2019
1717 Haze 19 1017 55 10000 0.5 160 12:55 18.09.2019
1718 Haze 19 1016 52 10000 0.5 90 12:37 18.09.2019
1719 Haze 21 1016 40 10000 1 360 12:18 18.09.2019
1720 Haze 22 1016 40 10000 6.7 330 11:39 18.09.2019
1721 Haze 22 1016 40 10000 6.7 330 11:19 18.09.2019
1722 Clear 23 1016 35 10000 6.2 330 10:41 18.09.2019
1723 Haze 24 1016 28 10000 7.2 340 10:22 18.09.2019
1724 Haze 25 1016 28 10000 7.2 340 09:58 18.09.2019
1725 Haze 25 1016 35 10000 6.2 320 09:40 18.09.2019
1726 Haze 25 1016 35 10000 6.2 320 09:40 18.09.2019
1727 Haze 25 1016 35 10000 6.2 320 09:22 18.09.2019
1728 Clear 25 1017 35 10000 3.1 310 08:46 18.09.2019
1729 Clear 25 1017 35 10000 3.1 310 08:26 18.09.2019
1730 Clear 25 1015 26 10000 1 30 07:59 18.09.2019
1731 Clear 25 1015 26 10000 1.5 30 07:41 18.09.2019
1732 Clear 25 1015 26 10000 1.5 30 07:22 18.09.2019
1733 Clear 25 1016 27 10000 3.1 20 06:41 18.09.2019
1734 Haze 25 1016 31 10000 2.1 340 05:54 18.09.2019
1735 Haze 25 1018 40 10000 3.1 320 05:21 18.09.2019
1736 Fog 23 1019 60 10000 1.5 290 03:23 18.09.2019
1737 Haze 22 1019 68 10000 2.1 320 02:39 18.09.2019
1738 Fog 20 1018 72 10000 0.5 30 01:34 18.09.2019
1739 Haze 17 1017 82 10000 6.77 327.989 00:50 18.09.2019
1740 Haze 17 1016 100 10000 0.5 40 00:25 18.09.2019
1741 Mist 17 1018 100 4800 1 150 23:46 17.09.2019
1742 Mist 17 1018 100 4800 1 150 23:46 17.09.2019
1743 Mist 17 1018 100 4800 1 150 23:23 17.09.2019
1744 Mist 18 1017 100 4000 5.54 347.452 22:43 17.09.2019
1745 Mist 18 1017 100 4000 5.54 347.452 22:24 17.09.2019
1746 Mist 18 1017 100 6000 0.5 140 21:56 17.09.2019
1747 Mist 19 1017 93 4800 2.1 320 21:37 17.09.2019
1748 Mist 19 1015 100 10000 0.5 20 21:19 17.09.2019
1749 Mist 19 1015 100 10000 0.5 20 21:19 17.09.2019
1750 Mist 19 1016 100 10000 0.5 110 20:58 17.09.2019
1751 Mist 19 1017 100 10000 0.5 170 20:40 17.09.2019
1752 Mist 19 1017 100 10000 0.5 170 20:22 17.09.2019
1753 Mist 19 1017 93 10000 5.23 336.873 19:58 17.09.2019
1754 Mist 19 1015 93 10000 0.5 170 19:58 17.09.2019
1755 Mist 19 1017 93 10000 0.5 360 19:39 17.09.2019
1756 Mist 19 1015 100 10000 1 30 19:19 17.09.2019
1757 Mist 20 1015 100 10000 1 30 18:57 17.09.2019
1758 Mist 20 1015 93 10000 1 30 18:38 17.09.2019
1759 Mist 20 1014 77 10000 1.5 320 18:20 17.09.2019
1760 Mist 20 1016 93 10000 1 120 17:46 17.09.2019
1761 Mist 20 1016 93 10000 1 120 17:46 17.09.2019
1762 Haze 20 1015 93 10000 0.5 40 17:20 17.09.2019
1763 Haze 20 1016 93 10000 1 100 16:58 17.09.2019
1764 Haze 21 1017 93 10000 0.5 120 16:39 17.09.2019
1765 Haze 21 1017 93 10000 0.5 120 16:39 17.09.2019
1766 Haze 21 1017 93 10000 0.5 120 16:21 17.09.2019
1767 Haze 21 1017 93 10000 0.5 120 16:21 17.09.2019
1768 Haze 21 1015 93 10000 0.5 30 16:21 17.09.2019
1769 Fog 21 1015 82 10000 0.5 70 15:40 17.09.2019
1770 Fog 21 1015 82 10000 0.5 70 15:20 17.09.2019
1771 Haze 21 1016 82 10000 3.23 328.975 14:57 17.09.2019
1772 Haze 21 1016 82 10000 0.5 140 14:39 17.09.2019
1773 Haze 21 1016 82 10000 0.5 140 14:19 17.09.2019
1774 Haze 22 1017 72 10000 0.5 340 13:57 17.09.2019
1775 Haze 22 1016 77 10000 3.23 328.975 13:38 17.09.2019
1776 Haze 22 1015 77 10000 0.5 80 13:20 17.09.2019
1777 Haze 23 1014 73 10000 0.5 340 12:42 17.09.2019
1778 Haze 24 1016 64 10000 2.85 313.991 12:19 17.09.2019
1779 Haze 24 1016 53 10000 0.5 310 11:45 17.09.2019
1780 Haze 24 1016 53 10000 0.5 310 11:26 17.09.2019
1781 Haze 26 1016 60 10000 1 10 10:59 17.09.2019
1782 Haze 26 1016 47 10000 1 360 10:40 17.09.2019
1783 Haze 26 1016 47 10000 1 360 10:20 17.09.2019
1784 Haze 27 1015 41 10000 2.6 340 09:43 17.09.2019
1785 Haze 27 1015 41 10000 2.6 340 09:43 17.09.2019
1786 Haze 27 1015 41 10000 2.6 340 09:25 17.09.2019
1787 Haze 28 1015 42 10000 1 350 08:57 17.09.2019
1788 Dust 28 1014 45 10000 1 350 08:39 17.09.2019
1789 Dust 28 1014 45 10000 1 350 08:39 17.09.2019
1790 Haze 27 1014 45 10000 1 350 08:20 17.09.2019
1791 Haze 27 1014 44 10000 1 30 07:42 17.09.2019
1792 Haze 27 1014 44 10000 1 30 07:42 17.09.2019
1793 Haze 27 1014 44 10000 1 30 07:24 17.09.2019
1794 Haze 27 1014 44 10000 1 30 07:24 17.09.2019
1795 Dust 27 1014 44 10000 1.5 30 06:52 17.09.2019
1796 Dust 27 1016 41 10000 1.5 60 06:29 17.09.2019
1797 Haze 26 1016 44 10000 1.5 340 05:53 17.09.2019
1798 Haze 25 1016 47 10000 1 10 04:46 17.09.2019
1799 Fog 23 1018 64 10000 1 50 03:40 17.09.2019
1800 Haze 21 1018 68 10000 3.1 40 02:39 17.09.2019
1801 Haze 21 1018 68 10000 3.1 40 02:39 17.09.2019
1802 Haze 18 1016 68 10000 1.5 10 01:49 17.09.2019
1803 Mist 16 1017 82 10000 0.5 110 00:45 17.09.2019
1804 Mist 15 1017 87 10000 2.6 40 23:41 16.09.2019
1805 Mist 15 1016 93 10000 1.5 30 23:19 16.09.2019
1806 Mist 15 1017 93 10000 2.6 40 22:58 16.09.2019
1807 Mist 15 1016 93 10000 1.5 50 22:40 16.09.2019
1808 Mist 15 1016 93 10000 1.5 50 22:21 16.09.2019
1809 Mist 16 1015 93 10000 1.5 20 21:56 16.09.2019
1810 Mist 16 1016 87 10000 3.6 40 21:37 16.09.2019
1811 Mist 17 1015 100 10000 2.1 20 21:18 16.09.2019
1812 Mist 17 1014 93 10000 2.1 20 20:41 16.09.2019
1813 Mist 17 1014 93 10000 2.1 20 20:22 16.09.2019
1814 Mist 17 1015 88 10000 0.5 10 19:57 16.09.2019
1815 Mist 17 1014 93 10000 2.1 40 19:39 16.09.2019
1816 Mist 17 1014 100 10000 1 10 19:20 16.09.2019
1817 Mist 18 1014 88 10000 1.5 30 18:48 16.09.2019
1818 Mist 18 1014 88 10000 1.5 30 18:30 16.09.2019
1819 Mist 18 1013 60 10000 2.6 30 17:59 16.09.2019
1820 Mist 18 1013 60 10000 2.6 30 17:59 16.09.2019
1821 Mist 18 1014 93 10000 0.5 200 17:41 16.09.2019
1822 Mist 18 1014 93 10000 0.5 200 17:22 16.09.2019
1823 Mist 18 1014 93 10000 1.5 40 16:55 16.09.2019
1824 Mist 18 1014 100 10000 1 20 16:37 16.09.2019
1825 Haze 19 1013 88 10000 0.5 110 16:18 16.09.2019
1826 Haze 20 1014 93 10000 0.5 270 15:54 16.09.2019
1827 Haze 20 1014 93 10000 0.5 270 15:54 16.09.2019
1828 Mist 20 1014 93 10000 0.5 140 15:36 16.09.2019
1829 Haze 20 1014 88 10000 2.6 50 15:18 16.09.2019
1830 Haze 21 1014 82 10000 1 350 14:42 16.09.2019
1831 Haze 21 1014 82 10000 1 350 14:22 16.09.2019
1832 Haze 21 1013 93 10000 1 300 13:57 16.09.2019
1833 Haze 22 1012 82 10000 0.5 40 13:38 16.09.2019
1834 Haze 23 1012 77 10000 1 50 13:19 16.09.2019
1835 Haze 24 1011 73 10000 0.5 50 12:40 16.09.2019
1836 Haze 24 1011 73 10000 0.5 50 12:22 16.09.2019
1837 Haze 27 1012 53 10000 0.5 30 11:46 16.09.2019
1838 Haze 27 1012 53 10000 0.5 30 11:23 16.09.2019
1839 Haze 28 1012 54 10000 1 20 10:58 16.09.2019
1840 Dust 29 1012 45 10000 1 350 10:38 16.09.2019
1841 Haze 29 1010 39 10000 2.1 40 10:19 16.09.2019
1842 Dust 29 1010 37 10000 0.5 30 09:57 16.09.2019
1843 Dust 29 1012 39 10000 3.1 20 09:38 16.09.2019
1844 Dust 29 1010 37 10000 1 350 09:18 16.09.2019
1845 Dust 29 1012 42 10000 1 360 08:42 16.09.2019
1846 Dust 29 1012 42 10000 1 360 08:24 16.09.2019
1847 Dust 29 1010 35 10000 1.5 20 07:44 16.09.2019
1848 Dust 29 1010 35 10000 1.5 20 07:25 16.09.2019
1849 Dust 28 1010 39 10000 1.5 10 06:58 16.09.2019
1850 Dust 28 1012 47 10000 3.1 50 06:39 16.09.2019
1851 Mist 28 1011 37 10000 1.5 20 06:21 16.09.2019
1852 Haze 27 1011 51 10000 1 350 05:43 16.09.2019
1853 Haze 27 1011 51 10000 1 350 05:21 16.09.2019
1854 Mist 24 1012 65 10000 1 330 03:46 16.09.2019
1855 Fog 21 1014 82 10000 1.5 20 01:31 16.09.2019
1856 Mist 20 1013 88 10000 2.1 60 00:38 16.09.2019
1857 Mist 20 1012 88 2000 0.5 20 00:20 16.09.2019
1858 Fog 20 1011 100 10000 0.5 10 23:39 15.09.2019
1859 Mist 20 1011 100 10000 0.5 10 23:20 15.09.2019
1860 Mist 20 1012 88 10000 1.5 50 22:40 15.09.2019
1861 Mist 20 1011 100 10000 1 10 22:21 15.09.2019
1862 Mist 20 1012 88 10000 2.1 30 21:58 15.09.2019
1863 Mist 20 1012 88 10000 2.1 40 21:39 15.09.2019
1864 Mist 20 1012 88 10000 2.1 40 21:21 15.09.2019
1865 Fog 20 1012 88 10000 2.6 10 20:55 15.09.2019
1866 Fog 20 1012 88 10000 2.6 10 20:55 15.09.2019
1867 Fog 20 1012 88 10000 2.6 10 20:55 15.09.2019
1868 Mist 20 1011 88 10000 1.5 40 20:37 15.09.2019
1869 Mist 20 1011 88 10000 1.5 40 20:19 15.09.2019
1870 Mist 21 1011 94 10000 1.5 10 19:42 15.09.2019
1871 Mist 21 1011 94 10000 1.5 10 19:22 15.09.2019
1872 Mist 21 1013 82 10000 2.1 30 18:42 15.09.2019
1873 Mist 21 1013 82 10000 2.1 30 18:24 15.09.2019
1874 Haze 21 1013 82 10000 2.6 40 17:56 15.09.2019
1875 Fog 21 1013 82 10000 2.1 20 17:36 15.09.2019
1876 Fog 22 1013 82 10000 2.1 30 17:18 15.09.2019
1877 Fog 22 1011 88 10000 0.5 10 16:42 15.09.2019
1878 Fog 22 1011 88 10000 0.5 10 16:23 15.09.2019
1879 Fog 22 1011 78 10000 1 20 15:58 15.09.2019
1880 Mist 23 1013 83 10000 0.5 10 15:38 15.09.2019
1881 Mist 23 1013 83 10000 0.5 10 15:38 15.09.2019
1882 Haze 23 1011 78 10000 1 10 15:19 15.09.2019
1883 Haze 23 1012 78 10000 2.1 20 14:56 15.09.2019
1884 Fog 23 1012 78 10000 0.5 40 14:37 15.09.2019
1885 Fog 23 1012 78 10000 0.5 40 14:19 15.09.2019
1886 Fog 24 1012 73 10000 1 360 13:44 15.09.2019
1887 Fog 24 1012 73 10000 1 360 13:44 15.09.2019
1888 Haze 24 1010 78 10000 1 350 13:22 15.09.2019
1889 Haze 24 1011 73 10000 1.5 20 12:43 15.09.2019
1890 Haze 24 1011 73 10000 1.5 20 12:25 15.09.2019
1891 Haze 24 1011 73 10000 1.5 20 12:25 15.09.2019
1892 Mist 25 1011 69 10000 1 20 11:58 15.09.2019
1893 Mist 25 1011 69 10000 1 20 11:58 15.09.2019
1894 Haze 26 1011 69 10000 1 350 11:40 15.09.2019
1895 Haze 26 1011 69 10000 1 350 11:21 15.09.2019
1896 Haze 27 1008 61 10000 1 350 10:46 15.09.2019
1897 Haze 27 1008 61 10000 1 330 10:23 15.09.2019
1898 Haze 28 1011 61 10000 2.1 10 09:58 15.09.2019
1899 Haze 28 1011 54 10000 1.5 350 09:37 15.09.2019
1900 Haze 28 1011 54 10000 1.5 350 09:19 15.09.2019
1901 Thunderstorm 28 1008 51 10000 1.5 20 08:46 15.09.2019
1902 Thunderstorm 28 1011 58 10000 2.6 10 08:26 15.09.2019
1903 Haze 28 1010 48 4000 1 140 07:48 15.09.2019
1904 Haze 29 1009 58 10000 1 350 07:26 15.09.2019
1905 Haze 27 1012 65 10000 0.5 20 06:42 15.09.2019
1906 Haze 24 1014 78 10000 3.1 40 03:31 15.09.2019
1907 Mist 22 1014 94 8000 2.1 40 02:33 15.09.2019
1908 Mist 21 1012 94 6000 1.5 320 01:40 15.09.2019
1909 Mist 20 1014 100 2800 2.6 40 01:19 15.09.2019
1910 Fog 20 1012 113 8000 1.5 30 00:41 15.09.2019
1911 Fog 20 1012 113 8000 1.5 30 00:21 15.09.2019
1912 Fog 20 1012 100 800 1 330 23:57 14.09.2019
1913 Mist 20 1013 100 3200 0.5 90 23:39 14.09.2019
1914 Mist 20 1012 113 8000 0.5 20 23:21 14.09.2019
1915 Mist 20 1014 100 1600 2.1 10 22:59 14.09.2019
1916 Mist 20 1013 100 1200 1 30 22:40 14.09.2019
1917 Mist 20 1013 100 1200 1 30 22:40 14.09.2019
1918 Mist 20 1013 100 1200 1 30 22:19 14.09.2019
1919 Mist 20 1013 100 2400 2.6 50 21:41 14.09.2019
1920 Mist 20 1013 100 2400 2.6 50 21:22 14.09.2019
1921 Mist 20 1013 100 2000 2.1 50 20:59 14.09.2019
1922 Mist 20 1013 100 1200 2.1 40 20:40 14.09.2019
1923 Mist 20 1013 100 1200 2.1 40 20:22 14.09.2019
1924 Mist 21 1013 100 400 1 50 19:52 14.09.2019
1925 Mist 21 1011 106 8000 3.55 15.184 19:23 14.09.2019
1926 Mist 21 1012 106 10000 0.5 40 18:59 14.09.2019
1927 Mist 21 1013 100 0 1 80 18:40 14.09.2019
1928 Mist 21 1013 100 0 1 80 18:21 14.09.2019
1929 Mist 21 1014 100 0 1.5 60 17:57 14.09.2019
1930 Mist 21 1014 100 0 1.5 60 17:39 14.09.2019
1931 Mist 21 1013 100 3200 0.5 20 17:20 14.09.2019
1932 Mist 22 1012 106 10000 0.5 50 16:43 14.09.2019
1933 Mist 22 1012 106 10000 0.5 50 16:21 14.09.2019
1934 Mist 21 1014 100 0 1 10 15:42 14.09.2019
1935 Mist 21 1014 100 0 1 10 15:23 14.09.2019
1936 Mist 22 1014 100 0 1.33 102.82 14:58 14.09.2019
1937 Mist 22 1014 100 0 0.5 60 14:39 14.09.2019
1938 Mist 22 1012 106 10000 0.5 190 14:18 14.09.2019
1939 Mist 22 1012 100 10000 0.5 330 13:47 14.09.2019
1940 Mist 22 1012 100 10000 0.5 330 13:22 14.09.2019
1941 Mist 22 1013 100 2400 2.1 50 12:46 14.09.2019
1942 Mist 22 1013 100 2400 2.1 50 12:24 14.09.2019
1943 Rain 23 1012 100 3200 2.1 50 11:42 14.09.2019
1944 Rain 23 1011 100 8000 0.5 140 11:20 14.09.2019
1945 Mist 23 1012 100 3200 1.5 30 10:41 14.09.2019
1946 Mist 23 1012 100 3200 1.5 30 10:22 14.09.2019
1947 Rain 23 1011 100 4000 0.5 80 09:59 14.09.2019
1948 Rain 23 1011 94 4000 1 140 09:40 14.09.2019
1949 Rain 23 1011 94 4000 1 140 09:21 14.09.2019
1950 Rain 23 1011 100 4000 1.5 110 08:57 14.09.2019
1951 Rain 23 1010 78 10000 1 200 08:38 14.09.2019
1952 Rain 23 1010 78 10000 1 200 08:19 14.09.2019
1953 Drizzle 24 1010 100 4000 2.1 170 07:43 14.09.2019
1954 Drizzle 24 1010 73 10000 1 200 07:21 14.09.2019
1955 Drizzle 23 1011 94 4000 2.6 160 06:33 14.09.2019
1956 Rain 24 1012 73 10000 1 220 05:43 14.09.2019
1957 Haze 23 1013 78 10000 1 200 03:59 14.09.2019
1958 Clouds 22 1013 78 10000 1.5 160 02:57 14.09.2019
1959 Clouds 22 1013 78 10000 1.5 160 02:57 14.09.2019
1960 Clouds 21 1013 94 10000 1 130 02:30 14.09.2019
1961 Clouds 21 1013 94 10000 0.5 160 01:44 14.09.2019
1962 Clouds 21 1013 94 10000 0.5 20 01:19 14.09.2019
1963 Haze 21 1013 100 10000 0.5 140 00:40 14.09.2019
1964 Clouds 21 1013 100 10000 0.5 140 00:21 14.09.2019
1965 Clouds 20 1013 106 10000 0.5 350 23:55 13.09.2019
1966 Clouds 20 1013 100 10000 0.5 40 23:36 13.09.2019
1967 Clouds 20 1012 100 10000 0.5 170 23:18 13.09.2019
1968 Clouds 20 1013 94 10000 0.5 70 22:39 13.09.2019
1969 Mist 20 1012 100 10000 2.8 150.902 22:21 13.09.2019
1970 Mist 20 1013 94 10000 0.5 40 21:56 13.09.2019
1971 Clouds 20 1013 94 10000 0.5 50 21:38 13.09.2019
1972 Clouds 20 1012 100 10000 1.03 341.249 21:19 13.09.2019
1973 Clouds 20 1014 106 10000 0.5 20 20:57 13.09.2019
1974 Clouds 20 1013 94 10000 0.5 350 20:36 13.09.2019
1975 Clouds 20 1013 94 10000 0.5 110 20:18 13.09.2019
1976 Clouds 20 1013 100 10000 1 360 19:43 13.09.2019
1977 Clouds 20 1013 100 10000 0.5 120 19:21 13.09.2019
1978 Clouds 20 1013 100 10000 0.5 120 18:58 13.09.2019
1979 Clouds 20 1013 100 10000 0.5 180 18:37 13.09.2019
1980 Clouds 20 1013 100 10000 0.5 180 18:37 13.09.2019
1981 Clouds 20 1013 100 10000 0.5 160 18:19 13.09.2019
1982 Clouds 20 1014 94 10000 0.5 310 17:43 13.09.2019
1983 Clouds 21 1013 100 10000 0.5 150 17:19 13.09.2019
1984 Clouds 21 1014 94 10000 0.5 80 16:54 13.09.2019
1985 Clouds 21 1014 94 10000 0.5 70 16:36 13.09.2019
1986 Clouds 21 1014 94 10000 0.5 70 16:18 13.09.2019
1987 Clouds 21 1014 94 10000 0.5 260 15:40 13.09.2019
1988 Clouds 21 1014 94 10000 0.5 260 15:20 13.09.2019
1989 Mist 21 1014 88 10000 0.5 130 14:44 13.09.2019
1990 Mist 21 1014 88 10000 0.5 130 14:23 13.09.2019
1991 Haze 22 1014 88 10000 1 160 13:56 13.09.2019
1992 Haze 22 1014 88 10000 1 160 13:56 13.09.2019
1993 Haze 22 1013 88 10000 0.5 20 13:38 13.09.2019
1994 Haze 23 1014 83 10000 1.78 346.557 13:19 13.09.2019
1995 Haze 23 1013 83 10000 0.5 140 12:44 13.09.2019
1996 Haze 24 1013 83 10000 0.5 140 12:23 13.09.2019
1997 Haze 24 1014 73 10000 0.5 130 11:56 13.09.2019
1998 Haze 25 1014 64 10000 0.5 70 11:20 13.09.2019
1999 Haze 27 1014 57 10000 1 340 10:41 13.09.2019
2000 Haze 28 1012 54 10000 1 200 10:20 13.09.2019
2001 Thunderstorm 28 1012 48 10000 1 240 09:47 13.09.2019
2002 Thunderstorm 28 1014 45 10000 0.5 300 09:25 13.09.2019
2003 Haze 28 1013 54 10000 1 20 08:59 13.09.2019
2004 Haze 28 1013 51 10000 1.5 60 08:41 13.09.2019
2005 Haze 28 1013 51 10000 1.5 60 08:21 13.09.2019
2006 Haze 27 1014 51 10000 1 360 07:56 13.09.2019
2007 Dust 27 1012 51 10000 1.5 260 07:38 13.09.2019
2008 Haze 27 1012 47 10000 1 270 06:49 13.09.2019
2009 Haze 26 1013 54 10000 1.5 330 05:50 13.09.2019
2010 Haze 25 1014 57 10000 2.1 340 05:18 13.09.2019
2011 Haze 23 1016 64 10000 1.5 120 03:40 13.09.2019
2012 Haze 22 1017 77 10000 1 60 02:22 13.09.2019
2013 Haze 20 1017 82 10000 1 10 01:59 13.09.2019
2014 Fog 20 1017 88 10000 1.5 50 01:34 13.09.2019
2015 Fog 20 1017 88 10000 1.5 50 01:34 13.09.2019
2016 Fog 19 1017 88 10000 2.6 50 00:58 13.09.2019
2017 Fog 18 1016 100 10000 1 30 00:23 13.09.2019
2018 Mist 18 1017 100 10000 2.1 40 23:39 12.09.2019
2019 Fog 18 1016 100 10000 1 30 23:20 12.09.2019
2020 Fog 18 1017 100 10000 2.1 50 22:42 12.09.2019
2021 Fog 18 1017 100 10000 2.1 50 22:24 12.09.2019
2022 Fog 18 1017 100 9000 2.1 40 21:57 12.09.2019
2023 Fog 18 1017 100 9000 1 350 21:38 12.09.2019
2024 Fog 18 1017 100 9000 1 350 21:38 12.09.2019
2025 Mist 18 1016 100 10000 0.5 40 21:20 12.09.2019
2026 -273 0 0 0 0 0 20:56 12.09.2019
2027 Mist 18 1017 100 8000 1.5 40 20:56 12.09.2019
2028 Fog 18 1017 100 6000 1 30 20:37 12.09.2019
2029 Fog 18 1017 100 6000 1 30 20:19 12.09.2019
2030 Fog 18 1017 100 6000 1 30 20:19 12.09.2019
2031 Mist 18 1016 100 10000 0.5 40 19:42 12.09.2019
2032 Fog 18 1016 100 10000 0.5 120 19:20 12.09.2019
2033 Fog 18 1016 100 10000 0.5 120 18:58 12.09.2019
2034 Fog 18 1016 106 10000 2.6 97.259 18:37 12.09.2019
2035 Rain 18 1016 106 10000 0.5 170 18:18 12.09.2019
2036 Rain 18 1016 106 10000 0.5 170 17:54 12.09.2019
2037 Rain 18 1018 100 3200 0.5 350 17:36 12.09.2019
2038 Rain 18 1016 106 10000 0.5 130 17:18 12.09.2019
2039 Rain 18 1018 100 2800 0.5 350 16:41 12.09.2019
2040 Rain 18 1017 106 10000 4.69 128.211 16:21 12.09.2019
2041 Rain 18 1018 100 6000 1.5 230 15:43 12.09.2019
2042 Rain 18 1018 100 6000 1.5 230 15:24 12.09.2019
2043 Rain 19 1018 100 10000 5.92 113.521 14:55 12.09.2019
2044 Rain 19 1019 100 9000 0.5 310 14:37 12.09.2019
2045 Rain 19 1017 100 10000 0.5 170 14:19 12.09.2019
2046 Rain 19 1019 100 9000 0.5 220 13:39 12.09.2019
2047 Rain 19 1019 100 9000 0.5 220 13:20 12.09.2019
2048 Rain 19 1017 100 10000 0.5 50 12:48 12.09.2019
2049 Rain 20 1017 100 10000 0.5 120 12:19 12.09.2019
2050 Rain 20 1018 100 9000 1 250 11:58 12.09.2019
2051 Rain 20 1018 100 10000 0.5 320 11:39 12.09.2019
2052 Rain 20 1018 100 10000 0.5 320 11:39 12.09.2019
2053 Rain 20 1018 100 10000 0.5 320 11:21 12.09.2019
2054 Rain 20 1018 100 10000 0.5 320 11:21 12.09.2019
2055 Haze 22 1016 94 10000 0.5 250 10:48 12.09.2019
2056 Haze 22 1017 64 6000 1.5 120 10:26 12.09.2019
2057 Haze 22 1017 73 10000 1.5 150 09:56 12.09.2019
2058 Haze 22 1017 73 10000 1.5 150 09:38 12.09.2019
2059 Haze 22 1016 69 10000 0.5 270 09:18 12.09.2019
2060 Haze 22 1017 77 10000 2.1 50 08:43 12.09.2019
2061 Haze 22 1017 77 10000 2.1 50 08:22 12.09.2019
2062 Haze 22 1016 73 10000 0.5 40 07:45 12.09.2019
2063 Haze 22 1017 68 10000 0.5 40 07:20 12.09.2019
2064 Haze 22 1017 60 10000 1 30 06:51 12.09.2019
2065 Haze 22 1017 60 10000 1 30 06:29 12.09.2019
2066 Rain 22 1018 60 10000 1 10 05:51 12.09.2019
2067 Rain 22 1019 68 10000 3.1 50 05:33 12.09.2019
2068 Rain 22 1019 73 10000 2.6 50 04:41 12.09.2019
2069 Haze 22 1019 77 10000 2.6 50 02:43 12.09.2019
2070 Mist 21 1019 82 10000 2.6 50 01:37 12.09.2019
2071 Haze 21 1018 68 10000 1 40 01:18 12.09.2019
2072 Haze 21 1018 73 10000 0.5 10 00:42 12.09.2019
2073 Haze 21 1018 73 10000 0.5 10 00:24 12.09.2019
2074 Haze 21 1019 82 10000 3.1 40 23:42 11.09.2019
2075 Haze 21 1019 82 10000 3.1 40 23:22 11.09.2019
2076 Haze 21 1018 88 10000 2.1 30 22:57 11.09.2019
2077 Haze 22 1018 77 10000 2.6 50 22:37 11.09.2019
2078 Clouds 21 1017 73 10000 1 10 22:19 11.09.2019
2079 Clouds 21 1016 69 10000 5.1 100 21:43 11.09.2019
2080 Clouds 21 1016 69 10000 5.1 100 21:25 11.09.2019
2081 Clouds 21 1017 77 10000 1.5 30 20:58 11.09.2019
2082 Clouds 21 1018 77 10000 2.6 50 20:40 11.09.2019
2083 Haze 21 1017 73 10000 1 350 20:19 11.09.2019
2084 Haze 21 1018 82 10000 1.5 50 19:58 11.09.2019
2085 Haze 21 1017 73 10000 1 330 19:39 11.09.2019
2086 Clouds 21 1017 73 10000 1 330 19:21 11.09.2019
2087 Clouds 21 1017 73 10000 0.5 300 18:58 11.09.2019
2088 Haze 21 1017 78 10000 1 350 18:38 11.09.2019
2089 Haze 22 1017 73 10000 1 340 18:19 11.09.2019
2090 Haze 22 1017 73 10000 1 340 17:55 11.09.2019
2091 Haze 22 1018 77 10000 2.6 30 17:37 11.09.2019
2092 Haze 22 1018 69 2400 2.6 120 17:19 11.09.2019
2093 Haze 22 1018 77 10000 2.6 20 16:46 11.09.2019
2094 Haze 22 1018 77 10000 2.6 20 16:25 11.09.2019
2095 Haze 23 1018 82 10000 1.5 20 15:54 11.09.2019
2096 Haze 23 1018 77 10000 1 10 15:36 11.09.2019
2097 Haze 23 1017 69 10000 0.5 20 15:18 11.09.2019
2098 Haze 23 1018 83 10000 2.6 40 14:41 11.09.2019
2099 Haze 23 1018 83 3200 0.5 30 14:21 11.09.2019
2100 Haze 23 1018 78 10000 3.1 50 13:59 11.09.2019
2101 Haze 23 1018 78 10000 3.1 40 13:37 11.09.2019
2102 Haze 24 1016 69 10000 1 30 13:19 11.09.2019
2103 Haze 24 1017 73 10000 4.1 40 12:43 11.09.2019
2104 Haze 24 1017 73 10000 4.1 40 12:23 11.09.2019
2105 Haze 25 1017 78 10000 1.5 30 11:58 11.09.2019
2106 Haze 25 1016 73 10000 2.6 40 11:39 11.09.2019
2107 Haze 25 1016 73 10000 2.6 40 11:39 11.09.2019
2108 Haze 25 1016 73 10000 2.6 40 11:21 11.09.2019
2109 Haze 26 1016 69 10000 2.1 40 10:55 11.09.2019
2110 Haze 27 1016 73 10000 2.6 30 10:37 11.09.2019
2111 Haze 27 1016 69 10000 3.6 30 10:18 11.09.2019
2112 Haze 27 1016 69 10000 2.1 40 09:37 11.09.2019
2113 Haze 27 1016 69 10000 2.1 40 09:19 11.09.2019
2114 Mist 27 1016 61 10000 2.1 40 08:42 11.09.2019
2115 Mist 27 1014 65 10000 1.5 40 08:21 11.09.2019
2116 Mist 27 1016 61 10000 2.6 60 07:57 11.09.2019
2117 Mist 27 1014 65 10000 2.1 40 07:38 11.09.2019
2118 Mist 26 1015 65 10000 1.5 30 07:19 11.09.2019
2119 Mist 26 1015 65 10000 1 20 06:38 11.09.2019
2120 Haze 26 1015 65 10000 1 20 06:19 11.09.2019
2121 Mist 26 1017 65 10000 2.1 80 05:33 11.09.2019
2122 Mist 25 1017 69 10000 3.1 50 04:52 11.09.2019
2123 Rain 24 1017 73 10000 3.1 50 03:58 11.09.2019
2124 Rain 23 1017 78 10000 3.1 50 03:25 11.09.2019
2125 Drizzle 23 1017 83 10000 2.6 20 02:28 11.09.2019
2126 Mist 22 1016 83 10000 3.1 40 01:28 11.09.2019
2127 Rain 21 1015 106 10000 1.5 20 00:32 11.09.2019
2128 Drizzle 21 1015 106 8000 1 20 23:58 10.09.2019
2129 Drizzle 21 1016 100 10000 2.6 20 23:39 10.09.2019
2130 Drizzle 21 1016 100 10000 2.6 20 23:21 10.09.2019
2131 Drizzle 21 1015 100 10000 2.1 50 22:42 10.09.2019
2132 Drizzle 21 1015 100 10000 2.1 50 22:21 10.09.2019
2133 Rain 22 1015 100 10000 3.6 40 21:57 10.09.2019
2134 Rain 22 1015 100 6000 2.6 40 21:38 10.09.2019
2135 Rain 22 1015 100 6000 2.6 40 21:38 10.09.2019
2136 Rain 22 1015 100 6000 2.6 40 21:20 10.09.2019
2137 Rain 22 1014 100 9000 2.6 40 20:58 10.09.2019
2138 Rain 22 1014 100 10000 2.6 30 20:40 10.09.2019
2139 Rain 22 1014 100 10000 2.6 30 20:22 10.09.2019
2140 Rain 22 1014 100 6000 3.6 40 19:57 10.09.2019
2141 Rain 23 1012 106 4800 2.1 350 19:38 10.09.2019
2142 Rain 22 1012 106 3200 1.5 360 19:19 10.09.2019
2143 Rain 22 1012 106 3200 1.5 360 18:56 10.09.2019
2144 Rain 22 1012 106 3200 1.5 340 18:37 10.09.2019
2145 Rain 22 1012 106 3200 1 360 18:19 10.09.2019
2146 Rain 22 1014 100 6000 5.1 50 17:44 10.09.2019
2147 Rain 22 1014 100 6000 5.1 50 17:23 10.09.2019
2148 Rain 22 1014 100 8000 4.6 40 16:59 10.09.2019
2149 Rain 22 1014 100 8000 4.6 40 16:59 10.09.2019
2150 Rain 22 1014 94 4000 4.1 50 16:41 10.09.2019
2151 Rain 22 1014 94 4000 4.1 50 16:21 10.09.2019
2152 Rain 23 1014 94 4000 4.6 40 15:59 10.09.2019
2153 Rain 23 1013 100 4800 5.1 20 15:40 10.09.2019
2154 Rain 23 1013 100 4800 5.1 20 15:20 10.09.2019
2155 Rain 24 1014 100 3200 3.6 30 14:42 10.09.2019
2156 Rain 24 1014 100 3200 3.6 30 14:24 10.09.2019
2157 Rain 23 1014 100 2800 3.6 20 13:56 10.09.2019
2158 Rain 23 1010 100 4000 4.1 20 13:37 10.09.2019
2159 Rain 23 1010 100 4000 4.1 20 13:19 10.09.2019
2160 Rain 24 1011 112 10000 1 10 12:43 10.09.2019
2161 Rain 24 1011 112 10000 1 10 12:24 10.09.2019
2162 Rain 24 1011 112 10000 1.5 10 11:57 10.09.2019
2163 Rain 24 1011 112 10000 1.5 10 11:57 10.09.2019
2164 Rain 24 1011 112 10000 1 10 11:39 10.09.2019
2165 Rain 24 1011 112 10000 1 10 11:20 10.09.2019
2166 Rain 24 1010 100 2000 2.6 340 10:42 10.09.2019
2167 Rain 25 1011 106 10000 1 20 10:19 10.09.2019
2168 Rain 25 1011 106 10000 1 20 09:56 10.09.2019
2169 Rain 25 1011 100 2800 1.5 310 09:37 10.09.2019
2170 Rain 25 1011 106 4800 1 360 09:18 10.09.2019
2171 Rain 25 1011 106 9000 1 20 08:44 10.09.2019
2172 Rain 25 1011 106 9000 1 20 08:26 10.09.2019
2173 Rain 26 1011 94 2500 5.1 140 07:45 10.09.2019
2174 Rain 26 1011 94 2500 5.1 140 07:26 10.09.2019
2175 Rain 26 1011 94 7000 1.5 130 06:53 10.09.2019
2176 Rain 26 1011 94 7000 1.5 130 06:35 10.09.2019
2177 Rain 27 1013 83 10000 1 40 05:24 10.09.2019
2178 Rain 25 1014 106 8000 1 350 03:51 10.09.2019
2179 Rain 24 1013 106 10000 1.5 10 02:23 10.09.2019
2180 Rain 24 1013 106 10000 1.5 10 02:23 10.09.2019
2181 Rain 24 1013 106 10000 1.5 10 02:23 10.09.2019
2182 Rain 24 1013 106 10000 1.5 10 02:23 10.09.2019
2183 Rain 23 1013 112 10000 1 30 01:57 10.09.2019
2184 Rain 23 1013 112 10000 1 30 01:57 10.09.2019
2185 Rain 23 1013 106 10000 1 20 01:39 10.09.2019
2186 Rain 23 1013 106 10000 1 20 00:54 10.09.2019
2187 Rain 23 1013 106 10000 1 20 00:25 10.09.2019
2188 Rain 22 1012 106 10000 1.5 10 23:47 09.09.2019
2189 Rain 22 1012 106 3200 1 20 23:20 09.09.2019
2190 Rain 22 1012 106 3200 1 20 22:56 09.09.2019
2191 Rain 22 1011 100 2800 1.5 70 22:38 09.09.2019
2192 Rain 22 1011 100 2800 1.5 70 22:38 09.09.2019
2193 Rain 23 1012 106 2000 1 360 22:20 09.09.2019
2194 Rain 23 1012 106 2000 1 360 21:57 09.09.2019
2195 Rain 23 1012 112 6000 1 340 21:38 09.09.2019
2196 Rain 23 1012 106 6000 1 20 21:20 09.09.2019
2197 Rain 23 1012 106 6000 1 20 20:56 09.09.2019
2198 Rain 23 1012 112 4800 1 20 20:37 09.09.2019
2199 Rain 23 1011 112 4000 1 30 20:19 09.09.2019
2200 Rain 23 1011 112 4000 1 30 19:57 09.09.2019
2201 Rain 23 1013 100 1600 1.5 50 19:38 09.09.2019
2202 Rain 24 1013 100 1600 1.5 10 19:19 09.09.2019
2203 Rain 24 1013 100 1600 1.5 10 19:19 09.09.2019
2204 Rain 24 1011 106 10000 1.5 10 18:57 09.09.2019
2205 Rain 24 1013 100 2400 2.1 20 18:38 09.09.2019
2206 Rain 24 1013 100 2400 1.5 150 18:20 09.09.2019
2207 Rain 24 1013 100 2400 1.5 150 17:57 09.09.2019
2208 Rain 24 1013 100 3200 1.5 90 17:39 09.09.2019
2209 Rain 24 1013 94 4800 1.5 40 17:20 09.09.2019
2210 Rain 24 1012 106 10000 0.5 80 16:55 09.09.2019
2211 Rain 24 1012 106 10000 0.5 80 16:55 09.09.2019
2212 Rain 24 1011 112 10000 0.5 340 16:37 09.09.2019
2213 Rain 24 1011 112 10000 0.5 340 16:37 09.09.2019
2214 Rain 24 1011 106 10000 0.5 330 16:18 09.09.2019
2215 Rain 24 1011 106 10000 1 30 15:44 09.09.2019
2216 Rain 24 1011 106 10000 1 30 15:24 09.09.2019
2217 Rain 24 1011 112 10000 1 30 14:58 09.09.2019
2218 Rain 24 1011 112 10000 1 30 14:40 09.09.2019
2219 Rain 24 1011 112 10000 1 30 14:40 09.09.2019
2220 Rain 24 1011 106 10000 1 30 14:21 09.09.2019
2221 Rain 24 1011 106 10000 1 30 13:55 09.09.2019
2222 Rain 24 1011 100 10000 0.5 10 13:37 09.09.2019
2223 Rain 25 1011 100 10000 0.5 20 13:18 09.09.2019
2224 Rain 25 1010 94 10000 0.5 40 12:42 09.09.2019
2225 Rain 25 1010 94 10000 0.5 30 12:22 09.09.2019
2226 Rain 25 1010 94 10000 0.5 30 11:59 09.09.2019
2227 Rain 25 1011 83 8000 0.5 50 11:40 09.09.2019
2228 Rain 26 1010 88 10000 1 330 11:18 09.09.2019
2229 Rain 26 1011 74 10000 2.1 230 10:42 09.09.2019
2230 Rain 26 1009 69 10000 2.1 190 10:24 09.09.2019
2231 Rain 26 1009 69 10000 2.1 190 10:24 09.09.2019
2232 Rain 27 1011 69 10000 2.1 210 09:59 09.09.2019
2233 Rain 27 1010 88 10000 1.5 180 09:40 09.09.2019
2234 Rain 27 1010 88 10000 1.5 180 09:21 09.09.2019
2235 Rain 27 1009 78 10000 1.5 170 08:39 09.09.2019
2236 Rain 28 1009 74 10000 1 220 08:21 09.09.2019
2237 Rain 28 1009 74 10000 1 220 07:58 09.09.2019
2238 Rain 27 1010 74 10000 1 200 07:39 09.09.2019
2239 Mist 27 1010 78 10000 1.5 210 07:20 09.09.2019
2240 Rain 27 1011 78 10000 1.5 190 06:46 09.09.2019
2241 Mist 26 1011 78 10000 1.5 240 05:37 09.09.2019
2242 Mist 23 1012 106 3200 1 340 02:59 09.09.2019
2243 Mist 23 1012 106 3200 0.5 30 02:41 09.09.2019
2244 Mist 23 1011 106 2400 0.5 210 01:20 09.09.2019
2245 Rain 22 1011 106 2800 1 350 00:23 09.09.2019
2246 Rain 22 1010 106 3200 0.5 340 23:46 08.09.2019
2247 Rain 22 1010 106 3200 0.5 340 23:27 08.09.2019
2248 Mist 22 1010 106 2800 1 30 22:59 08.09.2019
2249 Mist 22 1010 106 2800 0.5 30 22:38 08.09.2019
2250 Mist 22 1010 106 4000 0.5 290 22:20 08.09.2019
2251 Mist 22 1010 106 4000 0.5 290 21:57 08.09.2019
2252 Mist 22 1010 112 3200 0.5 350 21:38 08.09.2019
2253 Mist 22 1010 112 3200 0.5 350 21:38 08.09.2019
2254 Mist 22 1010 112 3200 0.5 350 21:20 08.09.2019
2255 Rain 22 1010 106 3200 0.5 60 20:40 08.09.2019
2256 Rain 22 1010 106 3200 0.5 60 20:22 08.09.2019
2257 Mist 22 1010 112 3200 0.5 20 19:59 08.09.2019
2258 Mist 22 1009 112 4000 1.49 316.844 19:39 08.09.2019
2259 Mist 22 1011 100 400 0.5 60 19:21 08.09.2019
2260 Mist 23 1009 112 4000 0.5 40 18:58 08.09.2019
2261 Mist 23 1009 112 4000 1 40 18:38 08.09.2019
2262 Mist 23 1010 106 4000 0.5 290 18:19 08.09.2019
2263 Mist 23 1010 106 4000 0.5 290 17:56 08.09.2019
2264 Mist 23 1011 100 4800 1.61 347.637 17:37 08.09.2019
2265 Mist 23 1010 106 4800 0.5 330 17:18 08.09.2019
2266 Mist 23 1010 112 4000 0.5 30 16:44 08.09.2019
2267 Mist 23 1010 112 4000 0.5 30 16:22 08.09.2019
2268 Mist 23 1011 100 2000 1 130 15:59 08.09.2019
2269 Mist 23 1010 112 4800 1.61 347.637 15:40 08.09.2019
2270 Mist 24 1010 112 4800 1.9 325.232 15:21 08.09.2019
2271 Mist 24 1010 112 6000 0.5 150 14:57 08.09.2019
2272 Mist 24 1010 112 6000 0.5 150 14:57 08.09.2019
2273 Mist 24 1009 112 6000 0.5 180 14:38 08.09.2019
2274 Mist 24 1009 106 6000 0.5 170 14:20 08.09.2019
2275 Mist 24 1009 106 6000 0.5 170 13:56 08.09.2019
2276 Mist 24 1009 106 6000 0.5 170 13:37 08.09.2019
2277 Mist 24 1009 100 6000 1.5 330 13:19 08.09.2019
2278 Mist 24 1008 106 8000 0.5 30 12:41 08.09.2019
2279 Mist 24 1008 106 8000 0.5 30 12:41 08.09.2019
2280 Mist 25 1008 94 9000 0.5 340 12:23 08.09.2019
2281 Mist 25 1008 94 9000 0.5 340 11:58 08.09.2019
2282 Mist 25 1008 94 9000 0.5 340 11:58 08.09.2019
2283 Mist 25 1008 94 10000 0.5 20 11:38 08.09.2019
2284 Haze 25 1008 94 10000 0.5 120 11:20 08.09.2019
2285 Haze 25 1008 94 10000 0.5 120 10:56 08.09.2019
2286 Haze 26 1007 88 10000 0.5 310 10:38 08.09.2019
2287 Haze 26 1008 83 10000 0.5 200 10:19 08.09.2019
2288 Haze 26 1007 83 10000 0.5 230 09:38 08.09.2019
2289 Haze 27 1007 74 10000 0.5 200 09:20 08.09.2019
2290 Haze 27 1007 74 10000 0.5 200 08:56 08.09.2019
2291 Haze 27 1007 69 10000 1 180 08:37 08.09.2019
2292 Haze 28 1007 65 10000 2.1 180 08:18 08.09.2019
2293 Haze 27 1007 74 10000 1.5 230 07:39 08.09.2019
2294 Haze 28 1007 65 10000 2.1 190 07:20 08.09.2019
2295 Haze 28 1007 65 10000 1 200 06:47 08.09.2019
2296 Haze 27 1008 69 10000 1.5 200 05:57 08.09.2019
2297 Haze 27 1008 74 10000 2.1 220 05:35 08.09.2019
2298 Mist 26 1008 88 10000 0.5 230 03:51 08.09.2019
2299 Mist 25 1008 88 10000 1 210 02:53 08.09.2019
2300 Mist 25 1008 94 10000 0.5 220 02:25 08.09.2019
2301 Mist 24 1008 106 9000 2.08 171.936 01:34 08.09.2019
2302 Mist 24 1008 106 9000 2.08 171.936 01:34 08.09.2019
2303 Mist 23 1008 106 6000 1 130 00:53 08.09.2019
2304 Mist 23 1008 106 6000 1 130 00:34 08.09.2019
2305 Mist 23 1009 106 6000 1 170 23:59 07.09.2019
2306 Mist 23 1007 112 6000 1 200 23:38 07.09.2019
2307 Rain 23 1008 100 3200 0.5 180 23:19 07.09.2019
2308 Rain 23 1008 106 6000 1 160 22:56 07.09.2019
2309 Rain 23 1007 112 9000 0.5 160 22:37 07.09.2019
2310 Rain 23 1006 112 9000 0.5 170 22:18 07.09.2019
2311 Mist 23 1006 112 9000 0.5 140 21:40 07.09.2019
2312 Mist 23 1006 112 9000 0.5 140 21:40 07.09.2019
2313 Mist 23 1006 112 9000 0.5 140 21:22 07.09.2019
2314 Rain 23 1006 112 9000 0.5 140 21:22 07.09.2019
2315 Rain 23 1006 106 10000 0.5 30 20:42 07.09.2019
2316 Mist 23 1006 100 10000 1 170 20:22 07.09.2019
2317 Mist 23 1006 100 10000 1 170 19:57 07.09.2019
2318 Mist 23 1006 100 10000 1 170 19:38 07.09.2019
2319 Mist 23 1006 106 10000 1 170 19:20 07.09.2019
2320 Mist 23 1006 106 10000 1 170 18:59 07.09.2019
2321 Mist 23 1006 106 10000 0.5 150 18:40 07.09.2019
2322 Mist 23 1006 106 10000 1.5 180 18:21 07.09.2019
2323 Mist 23 1006 106 10000 1.5 180 17:59 07.09.2019
2324 Mist 23 1006 106 10000 1.5 180 17:59 07.09.2019
2325 Drizzle 24 1006 94 10000 3.1 210 17:39 07.09.2019
2326 Drizzle 24 1006 94 10000 3.1 210 17:39 07.09.2019
2327 Rain 23 1005 106 10000 2.1 180 17:18 07.09.2019
2328 Rain 23 1005 106 10000 2.1 180 16:57 07.09.2019
2329 Rain 23 1005 106 10000 2.1 180 16:57 07.09.2019
2330 Rain 23 1005 106 10000 2.6 170 16:39 07.09.2019
2331 Rain 23 1005 100 10000 3.6 180 16:19 07.09.2019
2332 Rain 23 1004 100 10000 3.1 170 15:45 07.09.2019
2333 Rain 23 1004 100 10000 3.1 170 15:26 07.09.2019
2334 Rain 23 1004 100 10000 3.6 170 14:56 07.09.2019
2335 Rain 23 1004 100 10000 3.6 170 14:56 07.09.2019
2336 Rain 23 1004 88 10000 4.1 230 14:36 07.09.2019
2337 Rain 23 1002 106 8000 4.6 170 14:18 07.09.2019
2338 Rain 23 1002 106 8000 4.6 170 13:56 07.09.2019
2339 Rain 23 1002 106 8000 4.6 170 13:56 07.09.2019
2340 Rain 23 1002 106 6000 5.1 170 13:37 07.09.2019
2341 Rain 24 1001 106 9000 5.1 170 13:19 07.09.2019
2342 Rain 24 1000 106 8000 5.7 170 12:43 07.09.2019
2343 Rain 24 999 83 10000 6.7 170 12:24 07.09.2019
2344 Rain 25 998 83 10000 6.2 170 11:41 07.09.2019
2345 Rain 25 997 78 10000 6.7 180 11:22 07.09.2019
2346 Rain 25 997 78 10000 6.7 180 10:56 07.09.2019
2347 Rain 25 994 94 2800 11.8 190 10:37 07.09.2019
2348 Rain 26 994 78 10000 8.2 180 10:18 07.09.2019
2349 Rain 27 992 88 2800 13.9 180 09:42 07.09.2019
2350 Rain 27 991 83 10000 13.9 180 09:22 07.09.2019
2351 Clouds 28 991 83 10000 13.9 180 08:55 07.09.2019
2352 Rain 29 989 83 4200 15.9 170 08:36 07.09.2019
2353 Rain 29 988 78 4200 18 170 08:18 07.09.2019
2354 Rain 29 990 83 10000 4.6 190 07:43 07.09.2019
2355 Rain 29 991 70 10000 5.1 170 07:22 07.09.2019
2356 Rain 29 990 66 10000 5.7 160 06:42 07.09.2019
2357 Rain 30 991 62 10000 4.1 160 05:40 07.09.2019
2358 Clouds 29 993 62 10000 5.1 150 04:26 07.09.2019
2359 Clouds 29 994 66 10000 2.6 260 03:41 07.09.2019
2360 Haze 29 996 69 10000 3.1 30 02:22 07.09.2019
2361 Rain 28 997 69 10000 2.1 30 01:29 07.09.2019
2362 Rain 28 998 74 10000 2.1 10 00:55 07.09.2019
2363 Rain 27 998 74 10000 2.1 350 00:36 07.09.2019
2364 Rain 26 999 74 10000 2.1 30 00:18 07.09.2019
2365 Rain 26 1000 74 10000 1.5 360 23:38 06.09.2019
2366 Rain 26 1000 78 10000 1 20 23:19 06.09.2019
2367 Rain 26 1000 78 10000 1 20 22:56 06.09.2019
2368 Rain 26 1001 83 10000 1.5 10 22:36 06.09.2019
2369 Rain 25 1002 83 10000 2.1 20 22:18 06.09.2019
2370 Rain 25 1002 83 10000 2.1 20 22:18 06.09.2019
2371 Rain 25 1002 83 10000 2.1 20 21:54 06.09.2019
2372 Rain 25 1002 83 10000 1.5 20 21:36 06.09.2019
2373 -273 0 0 0 0 0 21:36 06.09.2019
2374 Rain 25 1003 88 10000 2.6 30 21:18 06.09.2019
2375 Rain 25 1003 88 10000 1.5 20 20:41 06.09.2019
2376 Rain 25 1003 88 10000 1.5 20 20:21 06.09.2019
2377 Rain 25 1004 88 10000 2.1 10 19:58 06.09.2019
2378 Rain 25 1005 88 10000 2.1 10 19:40 06.09.2019
2379 Rain 25 1005 83 10000 2.1 10 19:21 06.09.2019
2380 Rain 25 1005 88 10000 1 360 18:50 06.09.2019
2381 Rain 25 1005 88 10000 1 360 18:50 06.09.2019
2382 Rain 25 1005 88 10000 1 360 18:32 06.09.2019
2383 Rain 25 1005 88 7000 5.1 50 17:59 06.09.2019
2384 Rain 25 1005 88 7000 5.1 50 17:59 06.09.2019
2385 Rain 25 1007 94 10000 1.5 10 17:39 06.09.2019
2386 Rain 25 1007 100 10000 1.5 340 17:20 06.09.2019
2387 Rain 25 1007 100 10000 1.5 340 17:20 06.09.2019
2388 Rain 25 1007 106 10000 1.5 340 16:42 06.09.2019
2389 Rain 25 1007 106 10000 1.5 360 16:20 06.09.2019
2390 Rain 25 1007 106 10000 1.5 360 15:59 06.09.2019
2391 Rain 25 1008 106 10000 1 360 15:40 06.09.2019
2392 Rain 25 1008 106 10000 1 360 15:22 06.09.2019
2393 Rain 25 1008 94 4500 1 80 14:41 06.09.2019
2394 Rain 25 1008 112 10000 1.5 10 14:19 06.09.2019
2395 Rain 26 1008 106 10000 1 10 13:44 06.09.2019
2396 Rain 26 1008 106 10000 1 10 13:22 06.09.2019
2397 Rain 26 1008 106 10000 1 30 12:41 06.09.2019
2398 Rain 27 1008 100 10000 1 20 12:23 06.09.2019
2399 Rain 27 1008 100 10000 1 20 11:59 06.09.2019
2400 Rain 27 1007 94 10000 1 20 11:40 06.09.2019
2401 Rain 27 1007 94 10000 1 20 11:22 06.09.2019
2402 Rain 27 1007 94 10000 0.5 40 10:54 06.09.2019
2403 Rain 27 1007 94 10000 0.5 40 10:54 06.09.2019
2404 Rain 28 1008 88 10000 0.5 50 10:36 06.09.2019
2405 Haze 28 1008 83 10000 0.5 40 10:18 06.09.2019
2406 Rain 28 1008 83 10000 1 330 09:38 06.09.2019
2407 Haze 29 1008 78 10000 1 340 09:19 06.09.2019
2408 Haze 29 1008 78 10000 1.5 320 08:45 06.09.2019
2409 Haze 29 1008 78 10000 1.5 320 08:45 06.09.2019
2410 Haze 29 1008 78 10000 1.5 320 08:26 06.09.2019
2411 Haze 29 1008 78 10000 1.5 320 08:26 06.09.2019
2412 Clouds 29 1008 78 10000 1.5 340 07:51 06.09.2019
2413 Clouds 29 1008 78 10000 1 340 07:28 06.09.2019
2414 Haze 29 1009 78 10000 1.5 340 06:59 06.09.2019
2415 Rain 29 1009 78 10000 1.5 330 06:41 06.09.2019
2416 Mist 27 1010 78 10000 2.1 330 05:47 06.09.2019
2417 Mist 26 1010 83 10000 1 360 04:55 06.09.2019
2418 Mist 26 1011 83 10000 2.1 330 04:25 06.09.2019
2419 Mist 24 1011 88 10000 1.5 340 02:46 06.09.2019
2420 Mist 22 1011 100 10000 1 20 00:58 06.09.2019
2421 Mist 22 1011 106 10000 1.5 20 00:22 06.09.2019
2422 Mist 22 1011 100 10000 1 340 23:42 05.09.2019
2423 Mist 22 1011 100 10000 1 340 23:22 05.09.2019
2424 Mist 22 1011 106 10000 1 30 22:46 05.09.2019
2425 Mist 22 1011 106 10000 1 30 22:46 05.09.2019
2426 Mist 22 1011 106 10000 1 30 22:26 05.09.2019
2427 Rain 22 1011 106 10000 0.5 20 21:58 05.09.2019
2428 Rain 22 1011 106 10000 1.5 10 21:39 05.09.2019
2429 Rain 22 1011 106 10000 1.5 10 21:20 05.09.2019
2430 Rain 22 1011 106 10000 1.5 30 20:58 05.09.2019
2431 Rain 22 1011 106 10000 1.5 40 20:38 05.09.2019
2432 Rain 22 1011 106 10000 1.5 30 20:20 05.09.2019
2433 Rain 22 1011 106 10000 1.5 30 19:57 05.09.2019
2434 Rain 22 1011 106 10000 1 20 19:39 05.09.2019
2435 Rain 22 1013 94 6000 0.5 20 19:19 05.09.2019
2436 Rain 22 1013 94 4800 0.5 280 18:41 05.09.2019
2437 Mist 22 1013 94 4800 0.5 80 18:23 05.09.2019
2438 Rain 22 1012 106 10000 0.5 40 17:58 05.09.2019
2439 Rain 22 1012 106 10000 0.5 30 17:39 05.09.2019
2440 Rain 22 1012 106 10000 0.5 30 17:39 05.09.2019
2441 Rain 22 1012 106 10000 0.5 30 17:39 05.09.2019
2442 Mist 22 1012 106 10000 0.5 50 17:20 05.09.2019
2443 Mist 22 1012 106 10000 0.5 50 17:20 05.09.2019
2444 Rain 22 1012 106 10000 0.5 20 16:42 05.09.2019
2445 Mist 22 1012 106 10000 0.5 10 16:22 05.09.2019
2446 Mist 22 1012 106 10000 0.5 10 16:00 05.09.2019
2447 Mist 22 1013 106 10000 0.5 30 15:39 05.09.2019
2448 Mist 22 1012 106 10000 5.23 157.452 15:19 05.09.2019
2449 Mist 22 1012 106 10000 5.23 157.452 14:56 05.09.2019
2450 Mist 22 1013 106 10000 0.5 80 14:38 05.09.2019
2451 Mist 22 1013 106 10000 0.5 80 14:38 05.09.2019
2452 Mist 22 1012 106 10000 0.5 160 14:18 05.09.2019
2453 Rain 22 1012 106 10000 5.23 157.452 13:42 05.09.2019
2454 Rain 22 1012 106 3200 0.5 100 13:19 05.09.2019
2455 Rain 22 1011 113 10000 1 30 12:43 05.09.2019
2456 Rain 22 1011 106 10000 1 20 12:25 05.09.2019
2457 Rain 22 1011 106 10000 1 20 11:56 05.09.2019
2458 Rain 22 1011 106 10000 1 10 11:37 05.09.2019
2459 Rain 22 1012 106 10000 0.5 10 11:18 05.09.2019
2460 Rain 22 1012 106 4800 1 30 10:40 05.09.2019
2461 Rain 22 1010 88 10000 8.2 110 10:20 05.09.2019
2462 Rain 22 1012 106 4000 1 20 09:57 05.09.2019
2463 Rain 22 1012 106 2400 1 330 09:38 05.09.2019
2464 Rain 22 1012 106 2000 1.5 200 09:18 05.09.2019
2465 Rain 22 1012 106 2000 1.5 200 09:18 05.09.2019
2466 Rain 23 1012 106 2400 1.5 40 08:43 05.09.2019
2467 Rain 23 1012 106 2400 1.5 40 08:24 05.09.2019
2468 Rain 23 1011 100 6000 4.1 80 07:44 05.09.2019
2469 Thunderstorm 24 1012 100 10000 1.5 140 07:25 05.09.2019
2470 Thunderstorm 25 1013 94 9000 2.1 160 06:50 05.09.2019
2471 Thunderstorm 25 1013 94 9000 2.1 160 06:29 05.09.2019
2472 Rain 27 1012 88 10000 1 20 05:49 05.09.2019
2473 Rain 27 1012 88 10000 1 20 05:28 05.09.2019
2474 Rain 26 1013 88 10000 1.5 350 04:45 05.09.2019
2475 Mist 26 1013 88 10000 1 10 04:19 05.09.2019
2476 Rain 25 1013 94 10000 1.5 340 03:22 05.09.2019
2477 Rain 24 1013 100 10000 1 30 02:40 05.09.2019
2478 Rain 24 1013 106 10000 0.5 40 02:18 05.09.2019
2479 Rain 23 1013 112 10000 1 40 01:19 05.09.2019
2480 Rain 23 1013 100 4000 1.5 160 00:40 05.09.2019
2481 Rain 22 1014 100 1600 1 80 00:19 05.09.2019
2482 Rain 22 1012 100 4000 2.1 160 23:42 04.09.2019
2483 Rain 22 1013 106 10000 4.7 135.267 23:23 04.09.2019
2484 Rain 22 1013 106 10000 0.5 50 22:49 04.09.2019
2485 Rain 22 1013 106 10000 0.5 50 22:21 04.09.2019
2486 Rain 22 1012 106 10000 0.5 160 21:58 04.09.2019
2487 Rain 22 1012 106 10000 3.43 81.237 21:39 04.09.2019
2488 Rain 22 1012 106 10000 3.79 135.043 21:19 04.09.2019
2489 Rain 22 1012 106 10000 3.79 135.043 20:55 04.09.2019
2490 -273 0 0 0 0 0 20:37 04.09.2019
2491 Mist 22 1013 106 10000 0.5 60 20:18 04.09.2019
2492 Mist 22 1013 106 10000 0.5 60 20:18 04.09.2019
2493 Mist 22 1013 100 2000 0.5 20 19:43 04.09.2019
2494 Mist 22 1014 100 2400 0.5 360 19:23 04.09.2019
2495 Mist 22 1014 100 800 1.5 20 18:55 04.09.2019
2496 Mist 22 1014 100 800 1.5 20 18:36 04.09.2019
2497 Rain 22 1013 100 3200 1 90 18:18 04.09.2019
2498 Rain 22 1013 112 10000 0.5 40 17:41 04.09.2019
2499 Mist 22 1013 112 10000 0.5 40 17:22 04.09.2019
2500 Mist 22 1014 100 6000 1.5 50 16:56 04.09.2019
2501 Mist 22 1015 100 3200 1 30 16:38 04.09.2019
2502 Rain 22 1014 100 9000 1 70 16:19 04.09.2019
2503 Mist 22 1014 100 10000 3.81 142.868 15:40 04.09.2019
2504 Rain 22 1014 100 10000 0.5 40 15:22 04.09.2019
2505 Rain 22 1014 100 10000 0.5 40 15:22 04.09.2019
2506 Rain 22 1014 100 10000 0.5 40 14:58 04.09.2019
2507 Rain 23 1015 94 4800 1.5 360 14:38 04.09.2019
2508 Rain 23 1014 100 1200 1.5 30 14:20 04.09.2019
2509 Rain 23 1014 100 1200 1.5 30 13:57 04.09.2019
2510 Rain 23 1014 100 3200 1 310 13:38 04.09.2019
2511 Rain 23 1014 100 3200 1 310 13:38 04.09.2019
2512 Rain 23 1014 100 6000 2.1 90 13:19 04.09.2019
2513 Rain 23 1013 100 10000 3.1 50 12:43 04.09.2019
2514 Rain 23 1011 94 1200 7.7 110 12:24 04.09.2019
2515 Rain 23 1011 94 1200 7.7 110 11:56 04.09.2019
2516 Rain 23 1012 106 10000 0.5 360 11:37 04.09.2019
2517 Rain 23 1012 106 10000 1.5 30 11:19 04.09.2019
2518 Rain 23 1014 100 10000 2.6 40 10:45 04.09.2019
2519 Rain 23 1014 100 10000 2.6 40 10:26 04.09.2019
2520 Rain 23 1012 100 10000 0.5 360 09:58 04.09.2019
2521 Rain 23 1012 106 10000 1 340 09:40 04.09.2019
2522 Thunderstorm 24 1012 83 8000 2.1 160 09:19 04.09.2019
2523 Rain 25 1012 106 10000 1.5 360 08:41 04.09.2019
2524 Rain 25 1012 106 10000 1.5 360 08:41 04.09.2019
2525 Rain 25 1012 106 10000 1.5 360 08:23 04.09.2019
2526 Rain 25 1012 100 10000 1 350 07:56 04.09.2019
2527 Rain 25 1012 106 10000 1.5 330 07:34 04.09.2019
2528 Rain 24 1013 100 10000 1.5 340 06:49 04.09.2019
2529 Rain 23 1014 94 2000 4.6 50 06:21 04.09.2019
2530 Rain 22 1013 94 1200 4.1 320 04:53 04.09.2019
2531 Rain 22 1014 94 10000 1.5 20 04:20 04.09.2019
2532 Rain 22 1014 106 10000 1.5 10 02:21 04.09.2019
2533 Rain 22 1016 94 10000 1 50 00:55 04.09.2019
2534 Rain 22 1016 94 10000 1 50 00:35 04.09.2019
2535 Rain 22 1015 106 10000 0.5 180 23:59 03.09.2019
2536 Rain 22 1014 100 10000 1 340 23:38 03.09.2019
2537 Rain 22 1014 88 10000 0.5 360 23:19 03.09.2019
2538 Rain 22 1014 88 10000 1.5 360 22:40 03.09.2019
2539 Haze 22 1014 88 10000 1.5 360 22:22 03.09.2019
2540 Haze 22 1014 88 10000 1.5 360 22:22 03.09.2019
2541 Haze 22 1014 94 10000 1 20 21:56 03.09.2019
2542 Haze 22 1014 94 10000 1.5 360 21:38 03.09.2019
2543 Haze 22 1014 100 10000 1.5 10 21:20 03.09.2019
2544 Haze 22 1014 100 10000 1.5 10 20:43 03.09.2019
2545 Haze 22 1014 100 10000 1.5 10 20:24 03.09.2019
2546 Haze 22 1015 94 10000 1.5 30 19:57 03.09.2019
2547 Haze 22 1016 94 10000 2.1 40 19:38 03.09.2019
2548 Haze 22 1014 83 10000 2.6 110 19:19 03.09.2019
2549 Haze 22 1016 100 10000 2.1 40 18:56 03.09.2019
2550 Haze 22 1016 100 10000 2.1 40 18:38 03.09.2019
2551 Haze 22 1016 100 10000 2.1 30 18:18 03.09.2019
2552 Haze 22 1015 100 10000 1.5 360 17:41 03.09.2019
2553 Mist 22 1015 100 10000 1.5 360 17:21 03.09.2019
2554 Mist 22 1016 100 10000 1 340 16:59 03.09.2019
2555 Mist 22 1016 106 10000 1 10 16:39 03.09.2019
2556 Mist 22 1016 106 10000 1 350 16:20 03.09.2019
2557 Mist 22 1016 106 10000 1.5 360 15:41 03.09.2019
2558 Rain 22 1016 100 10000 1 20 15:21 03.09.2019
2559 Rain 22 1016 100 10000 1 20 14:58 03.09.2019
2560 Mist 22 1016 100 10000 1 10 14:40 03.09.2019
2561 Drizzle 23 1016 100 10000 1 10 14:20 03.09.2019
2562 Mist 23 1016 100 10000 1 30 13:57 03.09.2019
2563 Rain 23 1016 106 10000 1 360 13:37 03.09.2019
2564 Rain 23 1016 106 10000 1 360 13:37 03.09.2019
2565 Rain 23 1016 73 10000 1.5 130 13:19 03.09.2019
2566 Rain 23 1016 73 10000 1.5 130 13:19 03.09.2019
2567 Rain 23 1014 88 5000 6.7 120 12:55 03.09.2019
2568 Rain 23 1014 88 5000 6.7 120 12:55 03.09.2019
2569 Rain 23 1014 88 5000 6.7 120 12:37 03.09.2019
2570 Rain 25 1015 88 6000 0.5 320 12:19 03.09.2019
2571 Rain 25 1015 83 10000 1 20 11:39 03.09.2019
2572 Rain 25 1015 83 10000 1 20 11:39 03.09.2019
2573 Rain 25 1015 83 10000 1 20 11:21 03.09.2019
2574 Mist 25 1015 78 10000 1 30 10:56 03.09.2019
2575 Mist 25 1015 78 10000 1.5 10 10:38 03.09.2019
2576 Mist 26 1014 73 10000 0.5 10 10:19 03.09.2019
2577 Mist 26 1014 69 10000 2.1 10 09:44 03.09.2019
2578 Mist 26 1014 69 10000 2.1 10 09:25 03.09.2019
2579 Mist 26 1014 65 10000 1.5 30 08:44 03.09.2019
2580 Mist 26 1014 65 10000 1.5 30 08:26 03.09.2019
2581 Mist 26 1014 61 10000 1 360 07:58 03.09.2019
2582 Mist 26 1014 61 10000 1 350 07:39 03.09.2019
2583 Clouds 26 1015 61 10000 1 30 07:21 03.09.2019
2584 Clouds 26 1015 61 10000 2.1 330 06:43 03.09.2019
2585 Mist 25 1016 65 10000 1.5 30 05:36 03.09.2019
2586 Haze 23 1017 78 10000 1.5 340 03:34 03.09.2019
2587 Rain 22 1017 83 10000 1.5 340 02:43 03.09.2019
2588 Mist 21 1017 88 10000 1.5 360 02:23 03.09.2019
2589 Mist 21 1018 88 10000 1 60 01:47 03.09.2019
2590 Mist 21 1016 94 10000 1.5 20 01:27 03.09.2019
2591 Mist 21 1018 94 8000 1.5 30 00:37 03.09.2019
2592 Mist 21 1016 94 10000 1 30 23:59 02.09.2019
2593 Mist 21 1016 100 10000 0.5 30 23:38 02.09.2019
2594 Mist 21 1016 106 10000 1 30 23:19 02.09.2019
2595 Mist 21 1016 106 10000 1 30 22:56 02.09.2019
2596 Mist 21 1016 106 10000 1 30 22:56 02.09.2019
2597 Rain 21 1016 100 10000 1 20 22:37 02.09.2019
2598 Rain 21 1016 106 10000 1 10 22:18 02.09.2019
2599 Rain 21 1016 100 10000 1 30 21:55 02.09.2019
2600 Rain 21 1016 100 10000 1 30 21:37 02.09.2019
2601 Mist 21 1016 94 10000 0.5 360 21:18 02.09.2019
2602 Mist 21 1016 94 10000 0.5 40 20:42 02.09.2019
2603 Mist 21 1016 94 10000 0.5 40 20:42 02.09.2019
2604 Mist 21 1016 94 10000 0.5 40 20:23 02.09.2019
2605 Mist 21 1016 93 10000 0.5 30 19:59 02.09.2019
2606 Mist 21 1017 100 6000 1 40 19:40 02.09.2019
2607 Haze 21 1017 94 6000 1 30 19:22 02.09.2019
2608 Mist 21 1017 100 8000 0.5 30 18:57 02.09.2019
2609 Mist 21 1017 100 8000 0.5 30 18:37 02.09.2019
2610 Haze 21 1017 100 8000 0.5 120 18:18 02.09.2019
2611 Mist 21 1016 88 10000 0.5 350 17:40 02.09.2019
2612 Haze 22 1016 94 10000 0.5 160 17:21 02.09.2019
2613 Haze 22 1016 94 10000 0.5 160 16:59 02.09.2019
2614 Haze 22 1017 94 10000 1.25 4.118 16:39 02.09.2019
2615 Haze 22 1017 94 10000 0.5 160 16:20 02.09.2019
2616 Haze 22 1017 94 10000 0.5 160 16:20 02.09.2019
2617 Haze 22 1017 88 10000 1.25 4.118 15:46 02.09.2019
2618 Haze 22 1017 88 10000 1.25 4.118 15:27 02.09.2019
2619 Mist 23 1018 94 10000 0.5 80 14:58 02.09.2019
2620 Mist 23 1016 83 10000 0.5 40 14:39 02.09.2019
2621 Mist 23 1016 88 10000 0.5 330 14:21 02.09.2019
2622 Mist 23 1016 88 10000 0.5 330 13:56 02.09.2019
2623 Mist 23 1016 88 10000 0.5 10 13:37 02.09.2019
2624 Mist 24 1018 69 10000 0.5 180 13:18 02.09.2019
2625 Mist 24 1015 83 10000 0.5 190 12:45 02.09.2019
2626 Mist 25 1015 65 10000 1 350 12:25 02.09.2019
2627 Mist 25 1015 65 10000 1 350 11:58 02.09.2019
2628 Mist 25 1016 78 10000 0.5 30 11:39 02.09.2019
2629 Mist 26 1015 61 10000 1 340 11:20 02.09.2019
2630 Mist 26 1015 61 10000 1 340 10:57 02.09.2019
2631 Mist 26 1015 65 10000 1 40 10:38 02.09.2019
2632 Mist 26 1015 65 10000 1 40 10:38 02.09.2019
2633 Mist 27 1015 61 10000 0.5 50 10:19 02.09.2019
2634 Mist 27 1015 57 10000 0.5 210 09:45 02.09.2019
2635 Mist 28 1015 61 10000 0.5 280 09:22 02.09.2019
2636 Mist 28 1015 61 10000 0.5 280 09:22 02.09.2019
2637 Mist 28 1015 39 10000 1 260 08:45 02.09.2019
2638 Mist 28 1015 39 10000 1 260 08:23 02.09.2019
2639 Mist 28 1015 33 10000 1 270 07:59 02.09.2019
2640 Mist 29 1016 33 10000 1 340 07:40 02.09.2019
2641 Mist 29 1017 42 10000 0.5 320 07:21 02.09.2019
2642 Mist 28 1018 47 10000 1 320 06:44 02.09.2019
2643 Mist 28 1018 42 10000 1.5 20 06:22 02.09.2019
2644 Mist 28 1017 48 10000 1 280 05:44 02.09.2019
2645 Mist 27 1017 61 10000 1 260 05:18 02.09.2019
2646 Haze 23 1018 83 10000 2.1 350 02:46 02.09.2019
2647 Mist 21 1018 94 10000 1.5 360 01:43 02.09.2019
2648 Mist 19 1020 100 2800 1 50 00:47 02.09.2019
2649 Mist 19 1018 100 10000 1 20 00:28 02.09.2019
2650 Mist 19 1019 100 8000 0.5 10 23:41 01.09.2019
2651 Mist 19 1018 106 10000 1 20 23:21 01.09.2019
2652 Mist 19 1018 106 10000 1 20 22:57 01.09.2019
2653 Mist 19 1018 106 10000 1 40 22:39 01.09.2019
2654 Mist 19 1018 106 10000 1.5 20 22:19 01.09.2019
2655 Mist 19 1018 106 10000 1.5 30 21:55 01.09.2019
2656 Mist 19 1018 106 10000 1.5 30 21:37 01.09.2019
2657 Mist 19 1018 106 10000 1 10 21:18 01.09.2019
2658 Mist 19 1018 106 10000 1 10 20:55 01.09.2019
2659 Mist 19 1018 113 10000 1 360 20:36 01.09.2019
2660 Mist 19 1019 100 3200 0.5 350 20:18 01.09.2019
2661 Mist 19 1019 100 4000 0.5 290 19:41 01.09.2019
2662 Haze 20 1019 93 6000 2.07 330.035 19:21 01.09.2019
2663 Haze 20 1019 93 6000 0.5 350 18:55 01.09.2019
2664 Haze 20 1019 93 6000 0.5 350 18:37 01.09.2019
2665 Haze 20 1019 93 6000 0.5 350 18:37 01.09.2019
2666 Haze 20 1019 100 9000 3.17 280.366 18:18 01.09.2019
2667 Haze 20 1018 106 10000 0.5 40 17:42 01.09.2019
2668 Haze 20 1018 106 10000 0.5 40 17:24 01.09.2019
2669 Haze 21 1018 100 10000 1 30 16:58 01.09.2019
2670 Haze 21 1018 100 10000 3.17 280.366 16:38 01.09.2019
2671 Haze 21 1018 100 10000 0.5 160 16:18 01.09.2019
2672 Haze 22 1017 100 10000 3.17 280.366 15:43 01.09.2019
2673 Haze 22 1017 100 10000 2.12 310.02 15:24 01.09.2019
2674 Haze 22 1017 100 10000 1 40 14:45 01.09.2019
2675 Haze 22 1017 100 10000 1 40 14:27 01.09.2019
2676 Haze 23 1017 88 10000 0.5 10 13:59 01.09.2019
2677 Haze 23 1017 88 10000 2.12 310.02 13:41 01.09.2019
2678 Haze 24 1016 78 10000 0.5 350 13:23 01.09.2019
2679 Clouds 24 1016 78 10000 1 40 12:45 01.09.2019
2680 Haze 24 1016 78 10000 1 40 12:26 01.09.2019
2681 Haze 25 1016 73 10000 1 40 11:58 01.09.2019
2682 Haze 25 1016 69 10000 1 30 11:38 01.09.2019
2683 Haze 26 1016 61 10000 0.5 310 11:19 01.09.2019
2684 Haze 27 1016 54 10000 1 260 10:45 01.09.2019
2685 Haze 27 1016 54 10000 1 260 10:23 01.09.2019
2686 Haze 26 1018 65 10000 1.5 40 09:48 01.09.2019
2687 Haze 26 1018 65 10000 1.5 40 09:26 01.09.2019
2688 Haze 26 1016 57 10000 0.5 250 08:56 01.09.2019
2689 Haze 26 1016 61 10000 1 260 08:38 01.09.2019
2690 Clouds 26 1016 57 10000 1 170 08:20 01.09.2019
2691 Clouds 26 1016 57 10000 1 200 07:41 01.09.2019
2692 Haze 26 1017 61 10000 0.5 220 07:20 01.09.2019
2693 Haze 26 1017 61 10000 1 220 06:38 01.09.2019
2694 Haze 26 1017 61 10000 1 210 05:59 01.09.2019
2695 Haze 26 1017 61 10000 1 210 05:59 01.09.2019
2696 Haze 25 1018 69 10000 1.5 270 04:41 01.09.2019
2697 Haze 24 1018 78 10000 1 340 03:48 01.09.2019
2698 Haze 24 1018 78 10000 1 340 03:29 01.09.2019
2699 Mist 21 1018 88 10000 2.1 360 02:37 01.09.2019
2700 Mist 21 1018 88 10000 2.1 360 02:37 01.09.2019
2701 Fog 20 1018 94 10000 1 30 02:18 01.09.2019
2702 Fog 19 1018 100 10000 1 360 01:27 01.09.2019
2703 Fog 19 1018 100 10000 0.5 180 00:48 01.09.2019
2704 Fog 18 1018 106 10000 0.5 100 00:25 01.09.2019
2705 Fog 18 1018 106 10000 0.5 100 23:59 31.08.2019
2706 Fog 18 1018 106 9000 0.5 20 23:39 31.08.2019
2707 Fog 18 1017 106 9000 1 20 23:20 31.08.2019
2708 Fog 18 1017 106 9000 1 20 22:54 31.08.2019
2709 Fog 18 1017 106 8000 0.5 30 22:36 31.08.2019
2710 Fog 18 1017 106 8000 0.5 30 22:36 31.08.2019
2711 Fog 18 1017 106 8000 0.5 30 22:36 31.08.2019
2712 Fog 19 1017 106 10000 0.5 40 22:18 31.08.2019
2713 Fog 18 1017 106 10000 1.5 20 21:41 31.08.2019
2714 Fog 19 1017 106 10000 1.5 20 21:21 31.08.2019
2715 Mist 19 1016 106 4000 1 30 20:50 31.08.2019
2716 Mist 19 1016 106 4000 1 30 20:31 31.08.2019
2717 Mist 19 1016 106 4000 1 40 19:59 31.08.2019
2718 Mist 19 1016 106 10000 0.5 360 19:41 31.08.2019
2719 Clear 19 1018 93 4800 0.5 70 19:22 31.08.2019
2720 Mist 19 1018 100 2000 1 350 18:41 31.08.2019
2721 Clear 19 1016 106 10000 0.5 120 18:21 31.08.2019
2722 Clear 19 1016 106 10000 0.5 120 17:58 31.08.2019
2723 Clear 19 1016 106 10000 0.5 170 17:37 31.08.2019
2724 Clear 19 1016 106 10000 0.5 170 17:37 31.08.2019
2725 Mist 20 1016 100 10000 0.5 150 17:19 31.08.2019
2726 Mist 20 1016 100 10000 0.5 150 16:59 31.08.2019
2727 Clear 20 1017 100 10000 1 60 16:41 31.08.2019
2728 Clear 20 1016 106 10000 0.5 120 16:21 31.08.2019
2729 Clear 20 1016 106 10000 0.5 120 15:59 31.08.2019
2730 Clear 21 1016 100 10000 0.5 150 15:38 31.08.2019
2731 Clear 21 1016 100 10000 1 160 15:18 31.08.2019
2732 Clear 22 1015 94 10000 1 150 14:41 31.08.2019
2733 Clear 22 1015 94 10000 1 150 14:22 31.08.2019
2734 Clouds 23 1015 88 10000 1 170 13:42 31.08.2019
2735 Clouds 24 1014 88 10000 1.5 170 13:23 31.08.2019
2736 Clouds 24 1014 88 10000 1.5 170 12:59 31.08.2019
2737 Clouds 24 1014 83 10000 1 170 12:40 31.08.2019
2738 Clouds 25 1013 83 10000 1 170 12:20 31.08.2019
2739 Clouds 25 1013 83 10000 1 170 11:56 31.08.2019
2740 Clouds 26 1013 73 10000 1 180 11:38 31.08.2019
2741 Clouds 27 1013 69 10000 1 190 11:20 31.08.2019
2742 Clouds 27 1013 69 10000 1 240 10:43 31.08.2019
2743 Clear 27 1012 69 10000 1 240 10:19 31.08.2019
2744 Clear 27 1012 69 10000 1 240 10:19 31.08.2019
2745 Clear 27 1012 69 10000 1 240 09:59 31.08.2019
2746 Clouds 27 1012 58 10000 2.1 210 09:38 31.08.2019
2747 Clouds 27 1012 58 10000 2.1 190 09:19 31.08.2019
2748 Clouds 28 1012 58 10000 1.5 210 08:44 31.08.2019
2749 Clouds 27 1012 58 10000 1.5 210 08:25 31.08.2019
2750 Clear 27 1013 57 10000 1 190 07:42 31.08.2019
2751 Clouds 27 1014 57 10000 2.1 350 07:23 31.08.2019
2752 Clouds 27 1013 61 10000 2.1 190 06:44 31.08.2019
2753 Clouds 26 1015 54 10000 1 220 06:20 31.08.2019
2754 Clouds 26 1013 61 10000 2.1 210 05:34 31.08.2019
2755 Drizzle 25 1013 65 10000 0.5 180 04:36 31.08.2019
2756 Clouds 24 1014 73 10000 1 210 03:45 31.08.2019
2757 Clouds 23 1014 88 10000 1.5 240 02:50 31.08.2019
2758 Clouds 22 1014 94 10000 1 270 01:56 31.08.2019
2759 Haze 21 1014 73 10000 0.5 210 01:35 31.08.2019
2760 Haze 21 1014 73 10000 0.5 210 01:35 31.08.2019
2761 Clouds 19 1014 106 10000 0.5 140 00:52 31.08.2019
2762 Clouds 19 1014 106 10000 0.5 140 00:52 31.08.2019
2763 Clear 19 1014 88 10000 0.5 160 00:52 31.08.2019
2764 Clouds 20 1013 106 10000 0.5 110 00:31 31.08.2019
2765 Clouds 19 1012 68 10000 0.5 140 23:59 30.08.2019
2766 Clouds 19 1012 88 10000 1 150 23:39 30.08.2019
2767 Fog 18 1012 93 10000 1 80 23:18 30.08.2019
2768 Fog 18 1012 93 10000 1 80 22:42 30.08.2019
2769 Fog 18 1012 93 10000 1 80 22:24 30.08.2019
2770 Fog 18 1012 106 800 1 120 21:59 30.08.2019
2771 Mist 18 1013 100 10000 1 150 21:38 30.08.2019
2772 Mist 18 1012 106 1200 1 120 21:20 30.08.2019
2773 Mist 18 1012 106 1200 1 120 20:59 30.08.2019
2774 Mist 19 1012 106 2000 0.5 170 20:40 30.08.2019
2775 Mist 19 1012 106 3200 1 170 20:20 30.08.2019
2776 Mist 19 1012 106 3200 1 170 19:57 30.08.2019
2777 Mist 19 1012 106 3200 1 170 19:57 30.08.2019
2778 Mist 19 1012 106 3200 1 170 19:57 30.08.2019
2779 Mist 19 1013 100 10000 0.5 160 19:39 30.08.2019
2780 Clouds 19 1011 88 10000 2.1 280 19:19 30.08.2019
2781 Thunderstorm 19 1013 93 10000 1 340 18:49 30.08.2019
2782 Clear 20 1013 100 10000 1.5 150 18:25 30.08.2019
2783 Clouds 20 1011 106 10000 0.5 150 17:59 30.08.2019
2784 Clear 20 1011 106 10000 0.5 150 17:41 30.08.2019
2785 Clouds 20 1011 106 10000 0.5 120 17:19 30.08.2019
2786 Clouds 20 1011 106 10000 0.5 120 16:59 30.08.2019
2787 Clouds 20 1011 113 10000 0.5 210 16:40 30.08.2019
2788 Clear 21 1011 113 10000 6.04 310.372 16:22 30.08.2019
2789 Clear 21 1011 106 10000 1 180 15:43 30.08.2019
2790 Clear 21 1011 106 10000 1 180 15:23 30.08.2019
2791 Clear 22 1011 106 10000 0.5 170 14:47 30.08.2019
2792 Clear 22 1011 106 10000 0.5 170 14:29 30.08.2019
2793 Clouds 22 1010 113 10000 0.5 120 13:59 30.08.2019
2794 Rain 22 1010 113 4000 0.5 50 13:40 30.08.2019
2795 Clouds 22 1009 106 10000 0.5 180 13:22 30.08.2019
2796 Clouds 23 1010 73 10000 2.6 220 12:46 30.08.2019
2797 Clouds 23 1009 64 10000 5.1 260 12:27 30.08.2019
2798 Clouds 23 1010 73 10000 3.1 220 11:59 30.08.2019
2799 Clouds 24 1010 69 10000 2.6 230 11:41 30.08.2019
2800 Clouds 24 1009 69 10000 6.2 270 11:23 30.08.2019
2801 Clouds 25 1008 64 10000 1 350 10:39 30.08.2019
2802 Clouds 25 1008 64 10000 1 350 10:20 30.08.2019
2803 Clouds 25 1008 57 10000 0.5 220 09:56 30.08.2019
2804 Clouds 25 1008 57 10000 0.5 220 09:56 30.08.2019
2805 Clouds 25 1007 57 10000 3.1 220 09:36 30.08.2019
2806 Clouds 26 1009 57 10000 2.1 210 09:18 30.08.2019
2807 Clouds 26 1009 57 10000 2.1 210 09:18 30.08.2019
2808 Clouds 26 1007 54 10000 1.5 290 08:44 30.08.2019
2809 Clouds 26 1007 54 10000 1.5 290 08:24 30.08.2019
2810 Clouds 26 1008 61 10000 0.5 260 07:47 30.08.2019
2811 Clouds 26 1008 61 10000 0.5 260 07:27 30.08.2019
2812 Clouds 26 1008 50 10000 1 290 06:58 30.08.2019
2813 Clouds 26 1008 50 10000 1 320 06:40 30.08.2019
2814 Clouds 26 1010 61 10000 2.1 270 06:20 30.08.2019
2815 Clouds 26 1008 53 10000 1.5 280 05:32 30.08.2019
2816 Clouds 24 1008 57 10000 2.1 220 03:57 30.08.2019
2817 Clouds 24 1008 57 10000 2.1 220 03:57 30.08.2019
2818 Clouds 24 1008 57 10000 2.6 290 03:37 30.08.2019
2819 Clouds 24 1008 57 10000 2.6 290 03:37 30.08.2019
2820 Clouds 23 1008 78 10000 1 270 02:41 30.08.2019
2821 Haze 21 1008 94 10000 0.5 150 01:51 30.08.2019
2822 Mist 20 1008 53 10000 5.7 310 00:55 30.08.2019
2823 Mist 19 1008 106 8000 1 160 00:20 30.08.2019
2824 Mist 19 1008 106 8000 1 150 23:48 29.08.2019
2825 Rain 18 1008 106 8000 1 150 23:22 29.08.2019
2826 Rain 18 1007 106 6000 0.5 140 22:45 29.08.2019
2827 Rain 18 1007 106 6000 0.5 140 22:27 29.08.2019
2828 Rain 18 1007 106 6000 0.5 140 22:27 29.08.2019
2829 Mist 19 1007 113 4800 1 160 21:59 29.08.2019
2830 Mist 19 1007 106 4800 1 130 21:41 29.08.2019
2831 Mist 19 1007 106 4800 1 170 21:21 29.08.2019
2832 Mist 19 1007 106 4800 1 170 20:58 29.08.2019
2833 Mist 19 1007 106 6000 0.5 150 20:39 29.08.2019
2834 Mist 19 1007 106 4000 1 140 20:19 29.08.2019
2835 Mist 19 1008 93 10000 0.5 100 19:47 29.08.2019
2836 Mist 19 1008 93 10000 0.5 100 19:26 29.08.2019
2837 Mist 20 1008 93 10000 1 160 18:58 29.08.2019
2838 Mist 20 1008 93 10000 1.5 160 18:40 29.08.2019
2839 Mist 20 1007 106 3200 0.5 160 18:18 29.08.2019
2840 Mist 20 1007 106 3200 0.5 160 18:18 29.08.2019
2841 Mist 20 1008 93 10000 1.5 170 17:54 29.08.2019
2842 Fog 20 1008 93 10000 1 170 17:36 29.08.2019
2843 Mist 20 1007 106 800 1 180 17:18 29.08.2019
2844 Mist 21 1007 106 4800 0.5 170 16:41 29.08.2019
2845 Mist 21 1006 106 4800 0.5 170 16:23 29.08.2019
2846 Clouds 21 1006 113 4800 1 170 15:41 29.08.2019
2847 Rain 22 1008 73 10000 1 280 15:22 29.08.2019
2848 Rain 22 1008 73 10000 1 280 14:58 29.08.2019
2849 Rain 22 1006 106 6000 0.5 120 14:40 29.08.2019
2850 Thunderstorm 23 1006 113 8000 0.5 170 14:20 29.08.2019
2851 Thunderstorm 23 1006 113 8000 0.5 170 13:57 29.08.2019
2852 Thunderstorm 23 1006 100 9000 0.5 130 13:38 29.08.2019
2853 Mist 23 1006 100 10000 0.5 40 13:18 29.08.2019
2854 Mist 23 1006 100 10000 0.5 40 12:56 29.08.2019
2855 Mist 24 1005 94 10000 1.5 170 12:38 29.08.2019
2856 Haze 25 1005 88 10000 1.5 180 12:19 29.08.2019
2857 Rain 25 1005 83 10000 2.1 170 11:42 29.08.2019
2858 Haze 25 1005 83 10000 2.6 170 11:21 29.08.2019
2859 Haze 25 1005 83 10000 2.6 170 10:57 29.08.2019
2860 Thunderstorm 25 1005 78 10000 1.5 210 10:38 29.08.2019
2861 Thunderstorm 25 1005 78 10000 1.5 210 10:20 29.08.2019
2862 Haze 25 1005 78 10000 1.5 220 09:41 29.08.2019
2863 Rain 25 1005 73 10000 1 210 09:19 29.08.2019
2864 Clouds 25 1005 78 10000 1 200 08:49 29.08.2019
2865 Clouds 24 1005 78 10000 1 200 08:31 29.08.2019
2866 Rain 24 1005 83 10000 0.5 170 07:58 29.08.2019
2867 Rain 23 1006 88 10000 0.5 330 07:37 29.08.2019
2868 Rain 22 1006 106 4800 2.1 320 07:18 29.08.2019
2869 Rain 23 1008 100 3200 2.1 160 06:40 29.08.2019
2870 Rain 23 1005 94 8000 3.1 110 05:52 29.08.2019
2871 Rain 23 1005 94 8000 3.1 110 05:31 29.08.2019
2872 Mist 25 1006 94 6000 0.5 280 04:48 29.08.2019
2873 Mist 25 1006 94 6000 0.5 280 04:28 29.08.2019
2874 Mist 24 1006 94 4800 1 160 01:55 29.08.2019
2875 Mist 24 1006 100 4800 1 170 01:35 29.08.2019
2876 Mist 24 1006 100 4800 1 170 01:35 29.08.2019
2877 Mist 23 1006 88 4000 3.1 180 00:47 29.08.2019
2878 Mist 23 1006 88 4800 3.6 170 00:24 29.08.2019
2879 Mist 23 1006 106 8000 0.5 160 23:59 28.08.2019
2880 Mist 23 1006 106 6000 4.99 183.621 23:39 28.08.2019
2881 Mist 22 1006 106 6000 4.99 183.621 23:21 28.08.2019
2882 Mist 22 1006 100 8000 0.5 140 22:56 28.08.2019
2883 Mist 22 1006 106 6000 0.5 340 22:38 28.08.2019
2884 Mist 22 1006 106 6000 0.5 40 22:18 28.08.2019
2885 Mist 22 1006 106 6000 0.5 20 21:41 28.08.2019
2886 Mist 23 1006 100 8000 0.5 180 21:23 28.08.2019
2887 Mist 23 1006 100 8000 0.5 180 20:56 28.08.2019
2888 Mist 22 1006 100 9000 0.5 160 20:38 28.08.2019
2889 Mist 22 1006 100 8000 0.5 170 20:20 28.08.2019
2890 Mist 22 1007 100 3200 1 150 19:42 28.08.2019
2891 Mist 22 1007 94 4000 1 160 19:22 28.08.2019
2892 Mist 22 1008 100 4000 1 140 18:57 28.08.2019
2893 Mist 22 1008 100 4000 1 140 18:37 28.08.2019
2894 Mist 23 1008 100 3200 1 130 18:19 28.08.2019
2895 Mist 23 1007 100 10000 0.5 160 17:38 28.08.2019
2896 Mist 23 1007 94 10000 1 140 17:19 28.08.2019
2897 Mist 23 1007 94 10000 0.5 140 16:44 28.08.2019
2898 Mist 24 1007 94 10000 0.5 140 16:23 28.08.2019
2899 Mist 24 1007 94 9000 1 170 15:59 28.08.2019
2900 Haze 24 1007 88 10000 1 150 15:37 28.08.2019
2901 Haze 24 1007 88 10000 0.5 160 15:19 28.08.2019
2902 Haze 24 1007 88 10000 0.5 160 14:57 28.08.2019
2903 Haze 24 1007 88 10000 1.5 170 14:38 28.08.2019
2904 Haze 25 1007 83 10000 1 180 14:20 28.08.2019
2905 Haze 25 1007 83 10000 1 180 13:58 28.08.2019
2906 Haze 25 1006 73 6000 0.5 180 13:37 28.08.2019
2907 Haze 25 1006 73 10000 0.5 210 13:19 28.08.2019
2908 Haze 26 1005 69 10000 1 170 12:42 28.08.2019
2909 Haze 26 1005 69 10000 1 170 12:23 28.08.2019
2910 Haze 27 1005 65 10000 1 200 11:55 28.08.2019
2911 Haze 27 1005 65 10000 1.5 190 11:37 28.08.2019
2912 Haze 28 1005 54 10000 0.5 190 11:18 28.08.2019
2913 Haze 29 1004 54 10000 1 260 10:41 28.08.2019
2914 Haze 29 1006 61 10000 3.6 230 10:22 28.08.2019
2915 Haze 29 1006 61 10000 3.6 230 09:59 28.08.2019
2916 Haze 29 1004 51 10000 2.1 220 09:40 28.08.2019
2917 Haze 30 1004 55 10000 2.1 180 09:19 28.08.2019
2918 Haze 30 1004 58 10000 2.6 190 08:39 28.08.2019
2919 Haze 29 1005 65 10000 1.5 180 08:20 28.08.2019
2920 Haze 29 1005 66 10000 2.1 170 07:42 28.08.2019
2921 Haze 29 1005 66 10000 2.1 170 07:24 28.08.2019
2922 Mist 29 1006 66 10000 2.1 190 06:55 28.08.2019
2923 Mist 29 1006 66 10000 2.1 190 06:36 28.08.2019
2924 Mist 28 1006 69 10000 2.1 190 05:43 28.08.2019
2925 Mist 25 1007 94 4000 1.5 200 02:50 28.08.2019
2926 Mist 23 1007 100 6000 1 180 01:32 28.08.2019
2927 Mist 23 1008 94 4800 0.5 360 00:59 28.08.2019
2928 Mist 23 1007 106 9000 0.5 160 00:40 28.08.2019
2929 Mist 22 1007 106 8000 0.5 180 23:59 27.08.2019
2930 Mist 22 1007 106 9000 0.5 180 23:39 27.08.2019
2931 Mist 22 1007 113 9000 0.5 170 23:21 27.08.2019
2932 Mist 22 1006 113 9000 0.5 160 22:43 27.08.2019
2933 Mist 22 1006 113 9000 0.5 160 22:23 27.08.2019
2934 Mist 22 1006 113 10000 1 170 21:58 27.08.2019
2935 Mist 22 1006 113 10000 1 170 21:58 27.08.2019
2936 Mist 22 1006 113 10000 0.5 150 21:39 27.08.2019
2937 Mist 22 1006 113 10000 0.5 150 21:21 27.08.2019
2938 Rain 22 1008 112 6000 1 10 20:59 27.08.2019
2939 Rain 23 1006 113 9000 1 130 20:40 27.08.2019
2940 Mist 23 1006 106 9000 0.5 150 20:20 27.08.2019
2941 Mist 23 1006 106 9000 0.5 150 19:56 27.08.2019
2942 Mist 23 1008 94 9000 1 160 19:38 27.08.2019
2943 Mist 23 1008 94 8000 0.5 140 19:20 27.08.2019
2944 Mist 23 1008 94 8000 0.5 100 18:42 27.08.2019
2945 Mist 23 1008 94 8000 1 130 18:19 27.08.2019
2946 Mist 23 1007 100 10000 0.5 160 17:56 27.08.2019
2947 Mist 23 1008 94 10000 0.5 150 17:38 27.08.2019
2948 Mist 23 1008 94 10000 0.5 160 17:18 27.08.2019
2949 Mist 23 1007 100 10000 0.5 150 16:46 27.08.2019
2950 Mist 23 1007 100 10000 0.5 150 16:27 27.08.2019
2951 Haze 23 1008 94 9000 1 140 15:57 27.08.2019
2952 Haze 23 1008 94 9000 1 140 15:57 27.08.2019
2953 Haze 24 1008 88 10000 1 130 15:39 27.08.2019
2954 Haze 24 1007 100 10000 0.5 170 15:20 27.08.2019
2955 Haze 24 1007 94 10000 0.5 110 14:43 27.08.2019
2956 Haze 24 1007 94 10000 0.5 110 14:24 27.08.2019
2957 Haze 24 1007 94 10000 1 170 13:57 27.08.2019
2958 Haze 25 1007 94 10000 0.5 140 13:38 27.08.2019
2959 Haze 25 1008 83 10000 1 270 13:20 27.08.2019
2960 Haze 25 1006 83 10000 0.5 140 12:41 27.08.2019
2961 Haze 27 1006 74 10000 1 210 12:20 27.08.2019
2962 Haze 27 1007 61 10000 0.5 260 11:56 27.08.2019
2963 Haze 27 1007 61 10000 0.5 260 11:37 27.08.2019
2964 Haze 28 1007 61 10000 1 240 11:18 27.08.2019
2965 Haze 28 1005 61 10000 1.5 180 10:40 27.08.2019
2966 Haze 28 1005 58 10000 1.5 180 10:19 27.08.2019
2967 Haze 28 1005 58 10000 1.5 180 09:54 27.08.2019
2968 Haze 28 1005 61 10000 1.5 220 09:36 27.08.2019
2969 Haze 28 1005 61 10000 2.1 190 09:18 27.08.2019
2970 Haze 28 1005 61 10000 2.1 210 08:41 27.08.2019
2971 Haze 28 1005 61 10000 2.1 210 08:41 27.08.2019
2972 Haze 28 1005 61 10000 2.1 210 08:23 27.08.2019
2973 Haze 27 1006 65 10000 2.1 210 07:41 27.08.2019
2974 Mist 27 1006 65 10000 2.1 240 07:20 27.08.2019
2975 Mist 27 1006 65 10000 1.5 240 06:55 27.08.2019
2976 Mist 27 1006 65 10000 1.5 240 06:28 27.08.2019
2977 Clouds 27 1006 65 10000 1.5 330 05:52 27.08.2019
2978 Mist 26 1007 69 10000 1 20 05:20 27.08.2019
2979 Haze 24 1008 83 10000 2.1 340 03:40 27.08.2019
2980 Rain 23 1009 94 10000 1 30 02:26 27.08.2019
2981 Rain 23 1009 100 10000 1 40 01:44 27.08.2019
2982 Rain 23 1009 100 10000 1.72 36.022 01:23 27.08.2019
2983 Rain 22 1010 100 2400 1 110 00:45 27.08.2019
2984 Rain 22 1010 106 9000 0.5 30 00:25 27.08.2019
2985 Rain 22 1010 106 10000 0.5 30 23:40 26.08.2019
2986 Rain 22 1010 106 10000 0.5 30 23:21 26.08.2019
2987 Rain 22 1009 106 8000 0.5 130 22:54 26.08.2019
2988 Rain 22 1009 106 8000 0.5 130 22:36 26.08.2019
2989 Mist 22 1009 94 5000 2.1 210 22:18 26.08.2019
2990 Rain 23 1011 100 2800 2.1 30 21:38 26.08.2019
2991 Rain 23 1009 94 4000 1.5 300 21:20 26.08.2019
2992 Rain 23 1011 100 4800 1 20 20:57 26.08.2019
2993 Rain 23 1011 100 4800 1 60 20:38 26.08.2019
2994 Rain 23 1009 106 10000 1 20 20:19 26.08.2019
2995 Rain 23 1010 100 10000 1 50 19:44 26.08.2019
2996 Rain 24 1011 100 6000 0.5 350 19:20 26.08.2019
2997 Rain 24 1011 100 6000 0.5 350 18:59 26.08.2019
2998 Rain 24 1012 100 4800 1 40 18:38 26.08.2019
2999 Rain 24 1011 94 10000 0.5 40 18:19 26.08.2019
3000 Haze 24 1011 88 10000 1 30 17:44 26.08.2019
3001 Haze 24 1012 88 10000 0.5 360 17:20 26.08.2019
3002 Haze 24 1013 94 6000 0.5 180 16:58 26.08.2019
3003 Haze 24 1012 94 6000 0.5 30 16:40 26.08.2019
3004 Haze 24 1012 94 6000 0.5 30 16:40 26.08.2019
3005 Haze 25 1011 88 10000 0.5 50 16:19 26.08.2019
3006 Haze 25 1013 94 9000 1 130 15:57 26.08.2019
3007 Haze 25 1013 88 10000 2.57 355.495 15:39 26.08.2019
3008 Haze 25 1012 83 10000 0.5 10 15:20 26.08.2019
3009 Haze 25 1012 83 10000 0.5 30 14:44 26.08.2019
3010 Haze 25 1013 88 10000 0.5 160 14:23 26.08.2019
3011 Haze 26 1013 88 10000 0.5 160 13:57 26.08.2019
3012 Haze 26 1012 88 10000 0.5 110 13:37 26.08.2019
3013 Haze 27 1011 78 10000 0.5 350 13:19 26.08.2019
3014 Haze 27 1012 83 10000 0.5 360 12:43 26.08.2019
3015 Haze 27 1012 83 10000 0.5 360 12:22 26.08.2019
3016 Haze 28 1011 69 10000 0.5 50 11:44 26.08.2019
3017 Haze 28 1012 78 10000 0.5 160 11:26 26.08.2019
3018 Haze 29 1012 74 10000 1 10 10:59 26.08.2019
3019 Haze 30 1012 65 10000 2.1 20 10:41 26.08.2019
3020 Haze 30 1011 45 10000 0.5 150 10:19 26.08.2019
3021 Haze 30 1011 45 10000 0.5 150 10:19 26.08.2019
3022 Haze 30 1010 45 10000 1.5 210 09:45 26.08.2019
3023 Haze 30 1012 54 10000 1 360 09:25 26.08.2019
3024 Haze 31 1012 55 10000 1 340 08:59 26.08.2019
3025 Haze 30 1012 58 10000 1.5 10 08:40 26.08.2019
3026 Haze 30 1010 48 10000 1.5 280 08:21 26.08.2019
3027 Haze 30 1011 48 10000 1.5 240 07:45 26.08.2019
3028 -273 0 0 0 0 0 07:25 26.08.2019
3029 Haze 30 1013 62 10000 1 320 06:58 26.08.2019
3030 Haze 29 1013 65 10000 2.1 320 06:39 26.08.2019
3031 Haze 29 1011 62 10000 1.5 270 06:18 26.08.2019
3032 Haze 28 1013 65 10000 1 300 05:33 26.08.2019
3033 Mist 27 1014 61 10000 1.5 180 04:22 26.08.2019
3034 Haze 24 1015 88 8000 1 330 02:39 26.08.2019
3035 Fog 22 1014 100 10000 1.5 330 01:23 26.08.2019
3036 Fog 21 1014 106 10000 1 40 00:45 26.08.2019
3037 Fog 21 1015 100 0 1 20 00:26 26.08.2019
3038 Fog 20 1014 100 10000 1 40 23:45 25.08.2019
3039 Fog 20 1014 106 9000 1 10 23:20 25.08.2019
3040 Fog 20 1015 93 800 1 50 22:59 25.08.2019
3041 Mist 20 1015 93 2800 0.5 50 22:40 25.08.2019
3042 Mist 20 1014 100 2800 0.5 80 22:20 25.08.2019
3043 Mist 20 1014 100 2800 0.5 80 21:58 25.08.2019
3044 Mist 20 1014 106 10000 0.5 170 21:39 25.08.2019
3045 Mist 20 1013 106 9000 0.5 140 21:19 25.08.2019
3046 Mist 20 1015 100 10000 0.5 40 20:55 25.08.2019
3047 Mist 20 1015 100 10000 0.5 40 20:55 25.08.2019
3048 Mist 20 1015 100 4800 1 140 20:36 25.08.2019
3049 Haze 21 1015 94 4800 0.5 80 20:18 25.08.2019
3050 Haze 21 1015 94 6000 2.75 275.183 19:40 25.08.2019
3051 Haze 21 1015 94 6000 2.75 275.183 19:21 25.08.2019
3052 Haze 21 1014 106 10000 0.5 150 18:59 25.08.2019
3053 Haze 21 1014 106 10000 0.5 150 18:59 25.08.2019
3054 Haze 21 1015 94 4800 2.75 275.183 18:40 25.08.2019
3055 Haze 22 1014 106 10000 0.5 150 18:22 25.08.2019
3056 Haze 22 1015 100 9000 0.5 170 17:56 25.08.2019
3057 Haze 21 1015 94 8000 0.5 110 17:38 25.08.2019
3058 Mist 22 1014 100 10000 1 170 17:19 25.08.2019
3059 Haze 22 1014 100 10000 0.5 170 16:40 25.08.2019
3060 Haze 22 1015 94 10000 0.5 120 16:22 25.08.2019
3061 Haze 23 1014 94 10000 0.5 160 15:47 25.08.2019
3062 Haze 22 1015 88 10000 1.5 140 15:26 25.08.2019
3063 Haze 23 1015 88 10000 1 140 14:55 25.08.2019
3064 Haze 23 1015 88 10000 1 140 14:55 25.08.2019
3065 Haze 23 1015 88 10000 0.5 130 14:37 25.08.2019
3066 Haze 24 1015 83 10000 0.5 190 14:19 25.08.2019
3067 Haze 24 1013 94 10000 0.5 230 13:43 25.08.2019
3068 Haze 24 1015 83 10000 0.5 200 13:21 25.08.2019
3069 Haze 25 1012 83 10000 1 180 12:54 25.08.2019
3070 Clear 25 1014 73 10000 1 270 12:36 25.08.2019
3071 Clouds 26 1012 94 10000 2.1 180 12:18 25.08.2019
3072 Haze 27 1013 69 10000 2.1 240 11:41 25.08.2019
3073 Haze 27 1013 69 10000 2.1 240 11:22 25.08.2019
3074 Haze 28 1013 65 10000 1 250 10:58 25.08.2019
3075 Haze 28 1013 65 10000 2.1 280 10:39 25.08.2019
3076 Haze 28 1012 65 10000 0.5 210 10:20 25.08.2019
3077 Haze 28 1012 65 10000 0.5 210 10:20 25.08.2019
3078 Clouds 28 1012 65 10000 0.5 210 10:20 25.08.2019
3079 Clouds 28 1012 58 10000 1.5 170 09:44 25.08.2019
3080 Clear 29 1013 54 10000 1.5 270 09:25 25.08.2019
3081 Haze 29 1013 51 10000 2.1 290 08:56 25.08.2019
3082 Haze 29 1013 54 10000 2.1 290 08:38 25.08.2019
3083 Haze 29 1012 58 10000 2.1 180 08:20 25.08.2019
3084 Clouds 28 1014 54 10000 1.5 260 07:34 25.08.2019
3085 Haze 28 1012 58 10000 2.1 210 06:45 25.08.2019
3086 Clouds 27 1014 54 10000 3.1 220 05:42 25.08.2019
3087 Haze 26 1015 61 10000 1 230 04:32 25.08.2019
3088 Haze 24 1015 73 10000 1 180 02:58 25.08.2019
3089 Haze 23 1015 83 9000 1 50 02:38 25.08.2019
3090 Fog 20 1014 100 6000 1 360 01:18 25.08.2019
3091 Fog 20 1015 93 0 2.03 171.83 00:37 25.08.2019
3092 Fog 20 1013 106 6000 0.5 120 00:18 25.08.2019
3093 Mist 19 1013 106 2800 0.5 90 23:45 24.08.2019
3094 Mist 19 1014 100 0 0.5 350 23:22 24.08.2019
3095 Fog 19 1014 100 0 1 50 22:54 24.08.2019
3096 Fog 19 1014 100 0 0.5 30 22:36 24.08.2019
3097 Fog 19 1013 106 10000 0.5 110 22:18 24.08.2019
3098 Mist 19 1012 106 10000 0.5 170 21:42 24.08.2019
3099 Mist 19 1013 100 1200 1 10 21:24 24.08.2019
3100 Mist 19 1014 100 3200 0.5 190 20:59 24.08.2019
3101 Mist 19 1013 93 3200 1.81 316.609 20:40 24.08.2019
3102 Mist 19 1012 106 10000 1 170 20:20 24.08.2019
3103 Mist 20 1013 93 3200 1 60 19:59 24.08.2019
3104 Mist 19 1013 93 3200 1.81 316.609 19:39 24.08.2019
3105 Haze 19 1012 100 10000 0.5 170 19:21 24.08.2019
3106 Mist 20 1012 106 10000 0.5 180 18:47 24.08.2019
3107 Clear 20 1013 93 10000 0.5 190 18:25 24.08.2019
3108 Haze 20 1013 100 4800 0.5 290 17:57 24.08.2019
3109 Haze 20 1013 94 8000 1 140 17:39 24.08.2019
3110 Haze 21 1013 100 6000 0.5 90 17:21 24.08.2019
3111 Haze 21 1012 106 10000 0.5 130 16:40 24.08.2019
3112 Haze 22 1012 106 10000 0.5 50 16:19 24.08.2019
3113 Haze 22 1013 94 10000 0.5 130 15:44 24.08.2019
3114 Haze 22 1013 94 10000 0.5 130 15:26 24.08.2019
3115 Haze 22 1013 94 10000 1 140 14:59 24.08.2019
3116 Haze 22 1013 94 10000 1 140 14:59 24.08.2019
3117 Haze 22 1012 106 10000 0.5 170 14:40 24.08.2019
3118 Haze 22 1012 106 10000 1 170 14:19 24.08.2019
3119 Haze 23 1013 88 10000 1 130 13:54 24.08.2019
3120 Haze 23 1013 83 10000 1 200 13:36 24.08.2019
3121 Haze 23 1011 100 10000 1 160 13:18 24.08.2019
3122 Haze 25 1012 73 10000 1 260 12:41 24.08.2019
3123 Haze 25 1011 88 10000 6.49 267.589 12:22 24.08.2019
3124 Haze 26 1010 83 10000 0.5 220 11:52 24.08.2019
3125 Haze 26 1012 61 10000 1 260 11:32 24.08.2019
3126 Haze 27 1012 57 10000 1 260 10:59 24.08.2019
3127 Haze 27 1011 57 10000 3.1 240 10:40 24.08.2019
3128 Haze 27 1011 57 10000 3.1 240 10:21 24.08.2019
3129 Haze 27 1011 58 10000 1.5 230 09:42 24.08.2019
3130 Haze 27 1010 74 10000 1.5 210 09:19 24.08.2019
3131 Mist 27 1011 61 10000 1 270 08:43 24.08.2019
3132 Mist 27 1011 61 10000 1 270 08:25 24.08.2019
3133 Haze 26 1010 73 10000 2.1 220 07:52 24.08.2019
3134 Haze 26 1012 65 10000 1 240 07:30 24.08.2019
3135 Haze 25 1012 69 10000 1 310 06:39 24.08.2019
3136 Haze 25 1011 73 10000 1.5 270 06:21 24.08.2019
3137 Haze 25 1012 69 10000 0.5 250 05:35 24.08.2019
3138 Haze 23 1013 73 10000 0.5 210 03:41 24.08.2019
3139 Haze 22 1013 94 10000 2.1 340 02:50 24.08.2019
3140 Mist 21 1013 83 10000 0.5 350 01:54 24.08.2019
3141 Mist 21 1012 88 6000 0.5 20 01:24 24.08.2019
3142 Mist 21 1011 100 10000 0.5 270 00:46 24.08.2019
3143 Mist 20 1011 100 10000 0.5 160 00:22 24.08.2019
3144 Mist 20 1011 106 10000 0.5 110 23:45 23.08.2019
3145 Mist 20 1010 83 10000 1 340 23:20 23.08.2019
3146 Clouds 19 1010 106 10000 3.08 308.431 22:44 23.08.2019
3147 Clouds 19 1012 93 10000 1 60 22:25 23.08.2019
3148 Haze 20 1011 93 10000 0.5 80 21:55 23.08.2019
3149 Haze 20 1011 93 10000 0.5 50 21:37 23.08.2019
3150 Haze 20 1009 106 10000 0.5 130 21:18 23.08.2019
3151 Haze 21 1009 106 10000 0.5 120 20:50 23.08.2019
3152 Haze 21 1011 93 10000 1 150 20:32 23.08.2019
3153 Haze 21 1009 106 10000 0.5 160 19:46 23.08.2019
3154 Haze 21 1009 106 10000 0.5 160 19:46 23.08.2019
3155 Haze 21 1009 106 10000 0.5 130 19:19 23.08.2019
3156 Haze 21 1009 100 10000 0.5 140 18:55 23.08.2019
3157 Haze 21 1011 88 10000 0.5 130 18:36 23.08.2019
3158 Haze 22 1009 73 10000 2.1 270 18:18 23.08.2019
3159 Haze 22 1009 94 10000 0.5 170 17:41 23.08.2019
3160 Haze 22 1011 82 10000 0.5 140 17:23 23.08.2019
3161 Haze 22 1009 94 10000 0.5 130 16:49 23.08.2019
3162 Haze 22 1009 94 10000 0.5 130 16:49 23.08.2019
3163 Haze 22 1011 77 10000 1 120 16:30 23.08.2019
3164 Haze 23 1011 77 10000 0.5 240 15:59 23.08.2019
3165 Haze 23 1011 68 10000 1 280 15:39 23.08.2019
3166 Haze 23 1011 68 10000 1 280 15:21 23.08.2019
3167 Haze 24 1009 83 10000 0.5 150 14:44 23.08.2019
3168 Haze 24 1009 83 2800 0.5 190 14:21 23.08.2019
3169 Haze 24 1009 83 2800 0.5 190 14:21 23.08.2019
3170 Haze 24 1010 78 10000 0.5 160 13:59 23.08.2019
3171 Haze 24 1010 83 10000 0.5 180 13:41 23.08.2019
3172 Haze 24 1010 83 10000 0.5 180 13:23 23.08.2019
3173 Haze 25 1009 78 10000 0.5 210 12:58 23.08.2019
3174 Haze 26 1009 78 10000 2.1 210 12:40 23.08.2019
3175 Haze 26 1007 61 10000 0.5 50 12:21 23.08.2019
3176 Haze 27 1009 65 10000 1.5 230 11:57 23.08.2019
3177 Haze 27 1009 57 10000 3.1 230 11:39 23.08.2019
3178 Haze 28 1009 61 10000 2.6 230 11:19 23.08.2019
3179 Haze 28 1009 61 10000 2.6 230 10:54 23.08.2019
3180 Haze 29 1009 57 10000 1.5 240 10:36 23.08.2019
3181 Haze 29 1007 42 10000 0.5 300 10:18 23.08.2019
3182 Haze 29 1007 45 10000 2.1 350 09:43 23.08.2019
3183 Haze 29 1007 45 10000 2.1 350 09:43 23.08.2019
3184 Haze 29 1009 54 10000 2.6 250 09:20 23.08.2019
3185 Haze 29 1009 54 10000 2.1 270 08:45 23.08.2019
3186 Haze 29 1007 37 10000 2.1 330 08:20 23.08.2019
3187 Haze 29 1007 35 10000 2.1 250 07:45 23.08.2019
3188 Haze 29 1008 40 10000 3.6 250 07:25 23.08.2019
3189 Mist 29 1009 51 10000 3.1 320 06:59 23.08.2019
3190 Mist 29 1010 51 10000 2.6 290 06:40 23.08.2019
3191 Mist 29 1008 40 10000 2.1 210 06:21 23.08.2019
3192 Haze 28 1008 42 10000 0.5 350 05:43 23.08.2019
3193 Haze 28 1010 65 10000 1 260 05:23 23.08.2019
3194 Mist 27 1011 69 10000 1 40 03:36 23.08.2019
3195 Haze 26 1011 83 10000 0.5 290 02:37 23.08.2019
3196 Haze 25 1008 83 9000 0.5 40 02:18 23.08.2019
3197 Mist 23 1008 100 4800 0.5 10 00:46 23.08.2019
3198 Mist 23 1008 106 4800 0.5 360 00:22 23.08.2019
3199 Mist 22 1008 106 4800 0.5 130 23:50 22.08.2019
3200 Mist 22 1009 100 0 0.5 240 23:32 22.08.2019
3201 Mist 23 1009 106 9000 0.5 80 22:58 22.08.2019
3202 Mist 22 1009 100 0 0.5 50 22:40 22.08.2019
3203 Mist 22 1009 100 0 0.5 50 22:22 22.08.2019
3204 Mist 23 1009 94 0 0.5 230 21:57 22.08.2019
3205 Mist 23 1008 88 6000 1 190 21:39 22.08.2019
3206 Mist 23 1007 100 8000 0.5 150 21:19 22.08.2019
3207 Mist 23 1009 94 0 0.5 330 20:57 22.08.2019
3208 Mist 23 1008 100 400 0.5 100 20:38 22.08.2019
3209 Mist 24 1009 94 800 4.56 312.842 20:18 22.08.2019
3210 Mist 23 1007 88 10000 4.56 312.842 20:18 22.08.2019
3211 Mist 24 1009 94 800 4.56 312.842 19:56 22.08.2019
3212 Mist 24 1008 94 400 1 60 19:37 22.08.2019
3213 Mist 24 1007 94 10000 1.5 160 19:19 22.08.2019
3214 Mist 24 1008 100 800 1 50 18:56 22.08.2019
3215 Mist 24 1008 100 1200 0.5 310 18:37 22.08.2019
3216 Mist 24 1007 94 10000 1 180 18:18 22.08.2019
3217 Mist 24 1008 100 2800 0.5 160 17:42 22.08.2019
3218 Mist 24 1008 100 2800 1 40 17:23 22.08.2019
3219 Mist 25 1007 88 10000 1 170 16:58 22.08.2019
3220 Mist 25 1008 94 4800 1 130 16:40 22.08.2019
3221 Mist 25 1008 83 9000 0.5 290 16:21 22.08.2019
3222 Mist 25 1009 94 4800 0.5 190 15:59 22.08.2019
3223 Mist 25 1009 94 4800 0.5 190 15:59 22.08.2019
3224 Mist 25 1009 94 6000 0.5 180 15:38 22.08.2019
3225 Mist 25 1009 94 6000 0.5 180 15:38 22.08.2019
3226 Mist 25 1007 83 10000 0.5 150 15:20 22.08.2019
3227 Mist 25 1007 83 10000 0.5 150 15:20 22.08.2019
3228 Mist 25 1009 88 6000 1 220 14:56 22.08.2019
3229 Mist 25 1008 88 6000 1 230 14:38 22.08.2019
3230 Mist 25 1007 83 10000 1 170 14:18 22.08.2019
3231 Haze 25 1007 73 10000 1 170 13:42 22.08.2019
3232 Haze 26 1008 88 6000 1 200 13:24 22.08.2019
3233 Haze 26 1007 88 9000 1 210 12:59 22.08.2019
3234 Clouds 26 1007 83 10000 1 180 12:39 22.08.2019
3235 Clouds 27 1005 61 10000 0.5 40 12:20 22.08.2019
3236 Haze 27 1007 78 10000 1.5 200 12:20 22.08.2019
3237 Haze 28 1005 58 10000 0.5 330 11:43 22.08.2019
3238 Haze 28 1005 51 10000 1.5 290 11:22 22.08.2019
3239 Haze 29 1007 74 10000 2.1 250 10:59 22.08.2019
3240 Haze 29 1005 48 10000 1 270 10:41 22.08.2019
3241 Haze 29 1005 48 10000 1 270 10:41 22.08.2019
3242 Haze 30 1005 40 10000 1 270 10:23 22.08.2019
3243 Haze 30 1007 66 10000 1 290 10:00 22.08.2019
3244 Haze 30 1006 62 10000 2.1 290 09:39 22.08.2019
3245 Haze 30 1004 43 10000 1 290 09:21 22.08.2019
3246 Haze 31 1006 58 10000 1.5 330 08:57 22.08.2019
3247 Haze 31 1004 45 10000 2.1 280 08:38 22.08.2019
3248 Haze 31 1004 48 10000 2.1 260 08:20 22.08.2019
3249 Haze 31 1007 62 10000 2.1 320 07:41 22.08.2019
3250 Haze 30 1007 54 10000 2.6 270 07:20 22.08.2019
3251 Haze 30 1005 46 10000 1.5 210 06:55 22.08.2019
3252 Haze 29 1005 45 10000 2.1 280 06:24 22.08.2019
3253 Haze 30 1007 65 10000 1 300 05:58 22.08.2019
3254 Haze 29 1008 74 10000 1 50 04:38 22.08.2019
3255 Mist 25 1006 83 9000 0.5 320 02:51 22.08.2019
3256 Mist 25 1008 100 3200 1.5 330 02:33 22.08.2019
3257 Mist 24 1008 100 2000 1.5 340 01:25 22.08.2019
3258 Mist 23 1008 100 1600 1 360 00:45 22.08.2019
3259 Mist 23 1008 100 1600 1 360 00:27 22.08.2019
3260 Mist 23 1008 94 1200 2.1 60 23:54 21.08.2019
3261 Mist 23 1008 94 800 2.1 50 23:36 21.08.2019
3262 Mist 23 1007 106 3200 1 360 23:18 21.08.2019
3263 Mist 23 1008 100 1600 2.1 40 22:41 21.08.2019
3264 Mist 23 1006 106 3200 1 40 22:22 21.08.2019
3265 Mist 23 1006 106 3200 1 40 22:22 21.08.2019
3266 Mist 23 1008 100 1600 2.1 30 21:58 21.08.2019
3267 Mist 23 1008 100 1600 2.6 30 21:39 21.08.2019
3268 Mist 23 1007 112 3200 1.5 20 21:20 21.08.2019
3269 Mist 23 1008 100 800 0.5 10 20:58 21.08.2019
3270 Mist 23 1009 94 800 1 10 20:40 21.08.2019
3271 Mist 24 1007 106 3200 1 20 20:22 21.08.2019
3272 Mist 23 1007 106 3200 1 20 19:55 21.08.2019
3273 Mist 24 1009 94 400 2.6 20 19:37 21.08.2019
3274 Mist 24 1007 106 3200 1 30 19:18 21.08.2019
3275 Mist 24 1009 100 1200 2.65 349.283 18:41 21.08.2019
3276 Mist 24 1008 106 2800 0.5 30 18:22 21.08.2019
3277 Mist 24 1008 112 2400 1 330 17:46 21.08.2019
3278 Mist 24 1010 100 1200 1 110 17:25 21.08.2019
3279 Mist 25 1010 100 800 1 70 16:59 21.08.2019
3280 Mist 25 1010 100 400 1 10 16:40 21.08.2019
3281 Mist 25 1009 94 4000 1 330 16:21 21.08.2019
3282 Mist 25 1010 100 800 1 340 15:58 21.08.2019
3283 Mist 25 1010 100 800 1 340 15:58 21.08.2019
3284 Mist 25 1010 100 1600 0.5 70 15:39 21.08.2019
3285 Mist 25 1009 106 2800 1.5 10 15:20 21.08.2019
3286 Rain 25 1010 100 1600 0.5 30 14:57 21.08.2019
3287 Rain 25 1010 100 800 1 350 14:38 21.08.2019
3288 Mist 26 1010 100 1200 0.5 360 14:19 21.08.2019
3289 Mist 26 1010 100 1200 0.5 360 14:19 21.08.2019
3290 Mist 26 1008 112 2800 1 20 13:43 21.08.2019
3291 Mist 26 1008 94 4800 1 330 13:21 21.08.2019
3292 Mist 26 1008 94 4800 1 330 13:21 21.08.2019
3293 Rain 26 1009 100 1200 0.5 20 12:58 21.08.2019
3294 Rain 26 1009 100 2400 1 110 12:40 21.08.2019
3295 Rain 26 1009 100 2800 1.5 350 12:20 21.08.2019
3296 Rain 26 1009 100 2800 1.5 350 12:20 21.08.2019
3297 Rain 26 1009 100 2800 1.5 350 11:56 21.08.2019
3298 Rain 27 1009 94 2800 1.5 10 11:38 21.08.2019
3299 Rain 27 1007 100 6000 0.5 310 11:19 21.08.2019
3300 Rain 28 1009 100 3200 1.5 20 10:56 21.08.2019
3301 Rain 28 1009 94 4000 1.5 30 10:37 21.08.2019
3302 Rain 28 1007 94 8000 0.5 300 10:19 21.08.2019
3303 Haze 29 1008 94 8000 0.5 50 09:41 21.08.2019
3304 Haze 29 1008 94 9000 0.5 220 09:23 21.08.2019
3305 Rain 29 1009 74 9000 1 360 08:56 21.08.2019
3306 Rain 30 1009 74 8000 1.5 340 08:37 21.08.2019
3307 Rain 30 1007 94 6000 0.5 350 08:19 21.08.2019
3308 Haze 30 1010 66 0 1.5 350 07:39 21.08.2019
3309 Haze 31 1007 58 10000 4.1 290 07:20 21.08.2019
3310 Haze 30 1008 66 10000 1 270 06:46 21.08.2019
3311 Haze 30 1008 66 10000 1.5 250 06:20 21.08.2019
3312 Mist 29 1010 74 10000 0.5 10 05:31 21.08.2019
3313 Haze 28 1010 74 10000 1.5 30 04:59 21.08.2019
3314 Haze 26 1011 69 10000 0.5 360 02:55 21.08.2019
3315 Mist 25 1011 88 10000 1 60 01:42 21.08.2019
3316 Mist 24 1010 94 6000 0.5 100 00:43 21.08.2019
3317 Mist 23 1009 94 10000 0.5 170 00:22 21.08.2019
3318 Mist 23 1010 100 4000 0.5 10 23:55 20.08.2019
3319 Mist 23 1010 94 4800 0.5 10 23:36 20.08.2019
3320 Mist 23 1009 100 10000 5.07 152.636 23:18 20.08.2019
3321 Mist 23 1010 100 4000 0.5 140 22:54 20.08.2019
3322 Mist 23 1010 100 2400 0.5 10 22:36 20.08.2019
3323 Mist 23 1009 106 9000 1.5 30 22:18 20.08.2019
3324 Mist 23 1010 100 3200 5.07 152.636 21:56 20.08.2019
3325 Mist 23 1010 100 3200 0.5 80 21:37 20.08.2019
3326 Mist 23 1009 106 10000 0.5 20 21:18 20.08.2019
3327 Mist 23 1010 100 4000 0.5 360 20:42 20.08.2019
3328 Mist 23 1010 83 10000 0.5 110 20:23 20.08.2019
3329 Mist 24 1010 94 4000 1 60 19:41 20.08.2019
3330 Mist 24 1009 106 9000 0.5 30 19:22 20.08.2019
3331 Mist 24 1010 94 4000 0.5 110 18:59 20.08.2019
3332 Clear 23 1009 100 10000 1 10 18:40 20.08.2019
3333 Mist 24 1009 100 10000 1 10 18:19 20.08.2019
3334 Mist 24 1009 100 10000 1 10 17:58 20.08.2019
3335 Mist 24 1009 100 10000 0.5 20 17:39 20.08.2019
3336 Mist 25 1009 100 10000 0.5 20 17:20 20.08.2019
3337 Mist 25 1009 100 10000 0.5 20 17:20 20.08.2019
3338 Mist 25 1009 100 10000 0.5 60 16:46 20.08.2019
3339 Mist 25 1009 100 10000 0.5 60 16:26 20.08.2019
3340 Mist 25 1009 100 9000 0.5 40 15:57 20.08.2019
3341 Mist 25 1009 100 6000 0.5 330 15:38 20.08.2019
3342 Haze 26 1009 94 10000 1.76 6.94 15:18 20.08.2019
3343 Haze 26 1009 94 10000 0.5 10 14:43 20.08.2019
3344 Haze 26 1009 94 10000 0.5 10 14:22 20.08.2019
3345 Haze 27 1009 88 10000 1.76 6.94 13:57 20.08.2019
3346 Haze 27 1009 88 10000 1.76 6.94 13:57 20.08.2019
3347 Haze 27 1009 83 10000 0.5 40 13:39 20.08.2019
3348 Haze 28 1009 78 10000 0.5 40 13:20 20.08.2019
3349 Haze 28 1008 74 10000 0.5 30 12:51 20.08.2019
3350 Haze 28 1008 74 10000 0.5 30 12:31 20.08.2019
3351 Haze 29 1009 66 10000 1 320 11:59 20.08.2019
3352 Haze 30 1009 74 10000 1 30 11:40 20.08.2019
3353 Haze 31 1008 62 10000 1 240 11:20 20.08.2019
3354 Haze 31 1008 62 10000 1 240 10:57 20.08.2019
3355 Haze 31 1008 58 10000 1 240 10:38 20.08.2019
3356 Haze 31 1008 52 10000 2.1 200 10:20 20.08.2019
3357 Haze 31 1008 52 10000 2.1 210 09:43 20.08.2019
3358 Haze 31 1008 52 10000 2.1 210 09:25 20.08.2019
3359 Haze 32 1010 62 10000 1.5 10 08:57 20.08.2019
3360 Haze 31 1009 48 10000 2.6 210 08:39 20.08.2019
3361 Haze 32 1009 48 10000 2.6 210 08:20 20.08.2019
3362 Dust 32 1009 52 10000 2.1 210 07:56 20.08.2019
3363 Dust 32 1009 52 10000 2.1 210 07:37 20.08.2019
3364 Haze 31 1009 46 10000 1 190 07:18 20.08.2019
3365 Haze 31 1010 52 10000 1 300 06:28 20.08.2019
3366 Haze 30 1010 58 10000 1.5 340 05:49 20.08.2019
3367 Haze 30 1010 58 10000 1.5 340 05:30 20.08.2019
3368 Haze 28 1011 61 10000 2.1 340 04:18 20.08.2019
3369 Fog 26 1011 69 10000 1.5 360 02:44 20.08.2019
3370 Haze 25 1011 78 10000 2.1 10 01:39 20.08.2019
3371 Haze 23 1012 88 10000 1.5 20 00:57 20.08.2019
3372 Mist 22 1012 88 10000 1 40 00:39 20.08.2019
3373 Mist 22 1012 88 10000 1 40 00:39 20.08.2019
3374 Mist 22 1012 94 10000 1 20 00:19 20.08.2019
3375 Mist 21 1012 100 10000 1.5 20 23:39 19.08.2019
3376 Mist 21 1011 100 10000 1.5 30 23:18 19.08.2019
3377 Mist 21 1011 100 10000 1.5 30 23:18 19.08.2019
3378 Mist 21 1011 100 10000 1.5 30 22:54 19.08.2019
3379 Mist 21 1011 100 10000 1.5 30 22:36 19.08.2019
3380 Mist 21 1011 100 10000 1.5 30 22:36 19.08.2019
3381 Mist 21 1011 100 10000 1.5 10 22:18 19.08.2019
3382 Mist 21 1011 100 10000 1.5 10 21:55 19.08.2019
3383 Mist 21 1011 100 10000 1.5 30 21:36 19.08.2019
3384 Mist 22 1011 100 10000 1.5 20 21:18 19.08.2019
3385 Mist 22 1011 106 10000 2.1 40 20:39 19.08.2019
3386 Mist 22 1011 106 10000 2.1 40 20:39 19.08.2019
3387 Mist 22 1013 94 9000 3.1 40 20:20 19.08.2019
3388 Mist 22 1013 94 9000 3.1 40 19:58 19.08.2019
3389 Mist 22 1012 94 9000 2.6 40 19:39 19.08.2019
3390 Mist 22 1010 88 10000 1.5 360 19:19 19.08.2019
3391 Mist 23 1011 94 10000 1 20 18:45 19.08.2019
3392 Mist 23 1011 94 10000 1 20 18:27 19.08.2019
3393 Mist 23 1011 100 10000 1.5 30 17:59 19.08.2019
3394 Mist 23 1011 100 10000 1.5 20 17:41 19.08.2019
3395 Mist 23 1011 100 10000 1.5 20 17:20 19.08.2019
3396 Mist 23 1011 100 10000 1.5 20 16:58 19.08.2019
3397 Mist 23 1011 100 10000 1.5 20 16:37 19.08.2019
3398 Clouds 23 1011 100 10000 1 20 16:19 19.08.2019
3399 Clear 24 1012 94 10000 1.5 50 15:55 19.08.2019
3400 Clear 24 1012 94 10000 1 70 15:36 19.08.2019
3401 Mist 25 1012 83 10000 0.5 160 15:18 19.08.2019
3402 Mist 25 1012 88 10000 0.5 300 14:40 19.08.2019
3403 Mist 25 1012 88 10000 0.5 300 14:21 19.08.2019
3404 Mist 25 1011 88 10000 4.41 324.98 13:57 19.08.2019
3405 Mist 25 1011 88 10000 4.41 324.98 13:57 19.08.2019
3406 Mist 26 1012 74 10000 0.5 270 13:37 19.08.2019
3407 Mist 26 1009 78 10000 0.5 40 13:19 19.08.2019
3408 Haze 27 1011 69 10000 0.5 360 12:44 19.08.2019
3409 Haze 27 1011 69 10000 0.5 360 12:24 19.08.2019
3410 Haze 29 1011 69 10000 1 20 11:59 19.08.2019
3411 Haze 29 1011 69 10000 1 360 11:37 19.08.2019
3412 Haze 30 1010 54 10000 1 240 11:19 19.08.2019
3413 Haze 30 1010 48 10000 1 360 10:40 19.08.2019
3414 Haze 30 1008 52 10000 1 340 10:19 19.08.2019
3415 Haze 31 1010 51 10000 1 360 09:59 19.08.2019
3416 Haze 30 1010 54 10000 2.1 350 09:41 19.08.2019
3417 Haze 30 1010 54 10000 2.1 350 09:21 19.08.2019
3418 Haze 31 1010 54 10000 2.1 30 08:54 19.08.2019
3419 Haze 31 1010 54 10000 2.1 360 08:36 19.08.2019
3420 Haze 31 1008 45 10000 1 280 08:18 19.08.2019
3421 Haze 30 1011 54 10000 1.5 60 07:42 19.08.2019
3422 Haze 30 1011 54 10000 1.5 60 07:23 19.08.2019
3423 Clear 29 1012 58 10000 1 10 06:42 19.08.2019
3424 Haze 29 1012 58 10000 2.1 340 05:54 19.08.2019
3425 Haze 27 1012 65 10000 1 50 04:35 19.08.2019
3426 Haze 26 1011 74 10000 1 30 03:58 19.08.2019
3427 Mist 25 1012 83 10000 1 30 03:18 19.08.2019
3428 Mist 23 1011 94 10000 1.5 360 01:45 19.08.2019
3429 Mist 21 1012 94 4000 0.5 70 00:59 19.08.2019
3430 Mist 21 1012 100 1200 0.5 160 00:37 19.08.2019
3431 Fog 20 1010 106 10000 1 10 00:18 19.08.2019
3432 Mist 20 1012 100 800 1 50 23:39 18.08.2019
3433 Mist 20 1012 100 800 1 50 23:20 18.08.2019
3434 Mist 20 1011 100 1600 0.5 330 22:40 18.08.2019
3435 Mist 20 1011 100 1600 0.5 330 22:21 18.08.2019
3436 Mist 20 1011 94 2800 0.5 60 21:57 18.08.2019
3437 Mist 20 1011 94 3200 1.5 20 21:39 18.08.2019
3438 Mist 20 1011 100 4000 0.5 20 21:20 18.08.2019
3439 Mist 20 1011 100 4000 0.5 20 20:55 18.08.2019
3440 Mist 20 1011 100 3200 0.5 360 20:36 18.08.2019
3441 Mist 20 1009 106 10000 0.5 20 20:18 18.08.2019
3442 Mist 21 1009 106 10000 2.08 33.476 19:41 18.08.2019
3443 Mist 21 1011 100 6000 2.08 33.476 19:23 18.08.2019
3444 Mist 21 1010 100 4800 0.5 30 18:56 18.08.2019
3445 Mist 21 1010 100 4800 0.5 30 18:56 18.08.2019
3446 Mist 21 1010 94 8000 1 140 18:38 18.08.2019
3447 Mist 21 1010 100 8000 0.5 70 18:20 18.08.2019
3448 Mist 21 1010 100 8000 0.5 70 17:54 18.08.2019
3449 Mist 21 1010 100 8000 1 100 17:36 18.08.2019
3450 Mist 21 1009 100 10000 0.5 160 17:18 18.08.2019
3451 Mist 22 1010 100 9000 0.5 60 16:42 18.08.2019
3452 Mist 22 1008 88 10000 0.5 160 16:23 18.08.2019
3453 Mist 23 1010 100 10000 0.5 210 15:59 18.08.2019
3454 Mist 23 1010 88 10000 1 140 15:39 18.08.2019
3455 Mist 23 1008 100 10000 0.5 10 15:20 18.08.2019
3456 Mist 23 1008 100 10000 0.5 10 15:20 18.08.2019
3457 Clouds 23 1010 88 10000 1 140 14:57 18.08.2019
3458 Clouds 24 1009 88 10000 1 170 14:38 18.08.2019
3459 Clouds 24 1009 88 10000 1 150 14:19 18.08.2019
3460 Clouds 24 1009 88 10000 1 150 13:55 18.08.2019
3461 Clouds 24 1009 88 10000 0.5 210 13:36 18.08.2019
3462 Clouds 24 1007 83 10000 0.5 140 13:18 18.08.2019
3463 Clear 25 1008 78 10000 0.5 280 12:40 18.08.2019
3464 Clear 26 1006 78 10000 1 180 12:22 18.08.2019
3465 Clear 27 1006 65 10000 0.5 30 11:54 18.08.2019
3466 Clear 28 1007 69 10000 2.1 300 11:36 18.08.2019
3467 Clear 28 1006 61 10000 0.5 70 11:18 18.08.2019
3468 Clear 29 1008 65 10000 2.1 280 10:41 18.08.2019
3469 Clear 29 1008 54 10000 2.1 220 10:19 18.08.2019
3470 Haze 29 1006 48 10000 0.5 250 09:48 18.08.2019
3471 Haze 29 1008 54 10000 3.1 230 09:21 18.08.2019
3472 Clear 29 1006 48 10000 1.5 210 08:54 18.08.2019
3473 Clouds 29 1008 54 10000 0.5 210 08:36 18.08.2019
3474 Haze 30 1006 54 10000 1.5 210 08:18 18.08.2019
3475 Clear 29 1008 51 10000 1 290 07:41 18.08.2019
3476 Clear 29 1008 51 10000 1 290 07:23 18.08.2019
3477 Clouds 28 1007 61 10000 2.1 200 05:46 18.08.2019
3478 Haze 27 1007 61 10000 2.1 200 04:51 18.08.2019
3479 Haze 26 1009 61 10000 1 330 03:22 18.08.2019
3480 Haze 25 1007 83 10000 1.5 190 02:45 18.08.2019
3481 Mist 23 1008 83 10000 1 220 02:18 18.08.2019
3482 Mist 23 1008 83 10000 0.5 190 01:30 18.08.2019
3483 Mist 21 1007 100 10000 0.5 130 00:44 18.08.2019
3484 Mist 21 1008 100 4800 1 50 00:24 18.08.2019
3485 Mist 21 1007 100 4000 0.5 70 23:58 17.08.2019
3486 Mist 21 1007 100 4000 0.5 70 23:58 17.08.2019
3487 Mist 21 1007 100 2800 0.5 40 23:39 17.08.2019
3488 Mist 20 1006 106 8000 0.5 200 23:21 17.08.2019
3489 Mist 21 1007 100 2400 0.5 70 22:59 17.08.2019
3490 Mist 20 1006 100 4000 1 330 22:41 17.08.2019
3491 Mist 20 1007 100 4800 0.5 220 22:23 17.08.2019
3492 Mist 20 1006 94 4000 0.5 60 21:55 17.08.2019
3493 Mist 20 1006 94 3200 0.5 340 21:37 17.08.2019
3494 Mist 20 1005 106 10000 0.5 190 21:19 17.08.2019
3495 Mist 20 1006 100 8000 0.5 130 20:39 17.08.2019
3496 Mist 20 1005 106 10000 0.5 130 20:20 17.08.2019
3497 Mist 21 1006 100 9000 1.5 140 19:56 17.08.2019
3498 Mist 21 1006 94 10000 1 140 19:38 17.08.2019
3499 Mist 21 1006 100 8000 0.5 120 19:19 17.08.2019
3500 Mist 21 1006 100 9000 0.5 160 18:39 17.08.2019
3501 Mist 21 1005 106 10000 1 120 18:19 17.08.2019
3502 Mist 21 1006 100 9000 0.5 160 18:19 17.08.2019
3503 Mist 21 1005 106 10000 1 120 18:19 17.08.2019
3504 Mist 21 1006 100 9000 0.5 160 17:56 17.08.2019
3505 Mist 21 1006 94 10000 1 130 17:37 17.08.2019
3506 Mist 22 1005 94 10000 0.5 80 17:19 17.08.2019
3507 Mist 22 1004 106 10000 0.5 160 16:43 17.08.2019
3508 Mist 22 1005 94 10000 0.5 100 16:25 17.08.2019
3509 Mist 22 1005 94 10000 1 220 15:58 17.08.2019
3510 Mist 22 1005 94 10000 2.1 200 15:39 17.08.2019
3511 Mist 23 1003 106 9000 1 180 15:20 17.08.2019
3512 Mist 23 1003 106 10000 0.5 180 14:41 17.08.2019
3513 Mist 23 1003 106 10000 0.5 190 14:22 17.08.2019
3514 Mist 24 1002 94 10000 1 180 13:47 17.08.2019
3515 Mist 24 1003 83 10000 2.1 210 13:22 17.08.2019
3516 Mist 25 1003 78 10000 1.5 210 12:57 17.08.2019
3517 Mist 25 1003 78 10000 1.5 210 12:57 17.08.2019
3518 Mist 26 1003 69 10000 1.5 220 12:39 17.08.2019
3519 Mist 26 1001 88 10000 1 190 12:18 17.08.2019
3520 Mist 27 1001 88 10000 0.5 180 11:43 17.08.2019
3521 Mist 27 1002 61 10000 2.6 230 11:21 17.08.2019
3522 Mist 27 1002 61 10000 2.6 230 10:55 17.08.2019
3523 Mist 27 1002 58 10000 3.6 240 10:37 17.08.2019
3524 Mist 27 1000 78 10000 2.1 190 10:18 17.08.2019
3525 Rain 27 1000 78 10000 1.5 250 09:43 17.08.2019
3526 Rain 27 1001 58 10000 2.1 230 09:25 17.08.2019
3527 Mist 27 1000 78 10000 2.6 180 08:53 17.08.2019
3528 Mist 27 1001 58 10000 2.6 260 08:25 17.08.2019
3529 Thunderstorm 27 1000 74 10000 2.6 170 07:46 17.08.2019
3530 Thunderstorm 27 1000 78 10000 2.6 170 07:21 17.08.2019
3531 Rain 27 1002 65 10000 2.6 300 06:41 17.08.2019
3532 Haze 27 1002 61 10000 4.1 220 05:30 17.08.2019
3533 Mist 27 1002 69 10000 1.5 250 04:28 17.08.2019
3534 Haze 26 1002 69 10000 2.1 220 02:53 17.08.2019
3535 Mist 26 1001 78 10000 2.6 180 01:41 17.08.2019
3536 Mist 25 1001 88 10000 2.1 180 01:22 17.08.2019
3537 Mist 25 1001 88 10000 1 200 00:48 17.08.2019
3538 Mist 24 1002 83 10000 2.1 200 00:27 17.08.2019
3539 Mist 24 1000 106 9000 1 170 23:48 16.08.2019
3540 Mist 24 1001 88 10000 1.5 200 23:25 16.08.2019
3541 Mist 24 1000 100 10000 1 220 22:44 16.08.2019
3542 Mist 24 1001 88 10000 1 180 22:20 16.08.2019
3543 Mist 24 1001 94 6000 1.5 190 21:59 16.08.2019
3544 Mist 24 1001 94 4000 1.5 180 21:39 16.08.2019
3545 Mist 24 1000 94 10000 0.5 140 21:19 16.08.2019
3546 Mist 24 1000 88 10000 0.5 180 20:43 16.08.2019
3547 Mist 24 1001 88 10000 1 240 20:22 16.08.2019
3548 Mist 24 1001 100 6000 1 200 19:59 16.08.2019
3549 Mist 25 1001 94 8000 1.5 190 19:39 16.08.2019
3550 Mist 25 1001 94 10000 1.5 180 19:20 16.08.2019
3551 Mist 25 1001 94 10000 1.5 190 18:42 16.08.2019
3552 Mist 25 1000 94 10000 0.5 180 18:23 16.08.2019
3553 Mist 25 1000 94 10000 0.5 170 17:49 16.08.2019
3554 Mist 25 1001 83 10000 3.1 200 17:31 16.08.2019
3555 Mist 25 1000 88 8000 2.1 220 16:59 16.08.2019
3556 Mist 25 1000 88 6000 1.5 210 16:41 16.08.2019
3557 Mist 25 1000 88 6000 1.5 210 16:21 16.08.2019
3558 Clear 25 1000 88 6000 1 220 15:56 16.08.2019
3559 Clear 25 1000 94 10000 1.5 180 15:38 16.08.2019
3560 Clear 25 998 83 10000 4.1 240 15:19 16.08.2019
3561 Clear 25 999 88 10000 2.1 180 14:56 16.08.2019
3562 Clear 25 999 88 10000 2.1 200 14:38 16.08.2019
3563 Clouds 25 998 88 10000 1 190 14:18 16.08.2019
3564 Clear 26 999 88 10000 1 160 13:40 16.08.2019
3565 Clear 26 997 83 10000 1 220 13:22 16.08.2019
3566 Clear 27 998 83 10000 3.1 230 12:42 16.08.2019
3567 Clear 27 996 78 10000 1 190 12:23 16.08.2019
3568 Clear 28 998 78 10000 2.6 220 11:59 16.08.2019
3569 Clear 28 996 78 10000 1.5 190 11:40 16.08.2019
3570 Clear 28 997 74 10000 2.1 240 11:22 16.08.2019
3571 Clouds 29 995 70 10000 1.5 180 10:43 16.08.2019
3572 Clouds 29 995 78 10000 1.5 180 10:21 16.08.2019
3573 Clouds 29 996 66 10000 3.1 250 09:39 16.08.2019
3574 Clouds 29 995 70 10000 2.1 200 09:21 16.08.2019
3575 Clouds 30 996 62 10000 2.6 240 08:59 16.08.2019
3576 Clouds 29 996 70 10000 3.1 260 08:39 16.08.2019
3577 Clouds 29 994 70 10000 2.1 210 08:20 16.08.2019
3578 Clouds 30 994 70 10000 2.6 200 07:49 16.08.2019
3579 Clouds 30 996 70 10000 4.6 230 07:28 16.08.2019
3580 Clouds 29 995 74 10000 4.1 230 06:55 16.08.2019
3581 Clouds 29 994 83 10000 1.5 290 06:19 16.08.2019
3582 Clouds 28 995 74 10000 2.6 230 05:34 16.08.2019
3583 Haze 27 994 83 10000 4.8 241.828 03:20 16.08.2019
3584 Mist 25 994 83 10000 4.8 241.828 01:53 16.08.2019
3585 Clouds 24 995 88 10000 1 120 01:27 16.08.2019
3586 Rain 24 994 106 10000 0.5 140 00:50 16.08.2019
3587 Rain 24 993 88 10000 3.1 314.112 00:24 16.08.2019
3588 Rain 24 993 88 10000 3.1 314.112 00:24 16.08.2019
3589 Rain 24 993 88 10000 3.1 314.112 23:59 15.08.2019
3590 Mist 24 995 100 6000 0.5 150 23:41 15.08.2019
3591 Mist 24 993 106 10000 0.5 150 23:19 15.08.2019
3592 Mist 24 993 106 10000 1 170 22:41 15.08.2019
3593 Mist 24 993 112 10000 0.5 120 22:23 15.08.2019
3594 Mist 24 994 100 1600 1 340 21:59 15.08.2019
3595 Mist 24 993 100 1600 1 350 21:39 15.08.2019
3596 Mist 24 992 112 10000 0.5 220 21:20 15.08.2019
3597 Mist 24 993 100 3200 0.5 320 20:58 15.08.2019
3598 Mist 24 993 100 3200 0.5 320 20:58 15.08.2019
3599 Mist 24 994 94 10000 0.5 130 20:40 15.08.2019
3600 Mist 24 992 112 10000 1 200 20:21 15.08.2019
3601 Mist 23 992 88 10000 3.9 314.325 19:40 15.08.2019
3602 Mist 23 991 112 10000 0.5 180 19:22 15.08.2019
3603 Mist 24 991 88 10000 3.9 314.325 18:57 15.08.2019
3604 Mist 24 991 88 10000 3.9 314.325 18:39 15.08.2019
3605 Fog 24 991 112 10000 5.3 350.347 18:21 15.08.2019
3606 Fog 24 993 94 10000 0.5 100 17:54 15.08.2019
3607 Fog 24 993 94 10000 0.5 100 17:54 15.08.2019
3608 Mist 24 993 94 10000 0.5 80 17:36 15.08.2019
3609 Mist 24 992 112 10000 0.5 260 17:18 15.08.2019
3610 Mist 24 993 100 10000 5.3 350.347 16:42 15.08.2019
3611 Mist 24 993 100 10000 5.3 350.347 16:23 15.08.2019
3612 Rain 24 991 88 10000 5.3 350.347 15:55 15.08.2019
3613 Rain 24 993 100 2800 1 320 15:36 15.08.2019
3614 Rain 24 991 112 4800 1 350 15:18 15.08.2019
3615 Mist 25 993 100 2800 1 310 14:41 15.08.2019
3616 Mist 25 993 100 2800 1 310 14:22 15.08.2019
3617 Rain 25 991 88 10000 5.48 355.964 13:57 15.08.2019
3618 Clouds 25 992 100 10000 1.5 250 13:38 15.08.2019
3619 Rain 25 991 106 10000 0.5 40 13:19 15.08.2019
3620 Rain 25 991 106 10000 0.5 40 13:19 15.08.2019
3621 Rain 25 991 88 10000 5.9 354.084 12:40 15.08.2019
3622 Rain 25 991 112 10000 0.5 50 12:22 15.08.2019
3623 Rain 25 991 112 10000 0.5 50 12:22 15.08.2019
3624 Rain 25 991 88 10000 7.95 13.748 11:59 15.08.2019
3625 Rain 25 991 88 10000 7.95 13.748 11:39 15.08.2019
3626 Rain 25 991 88 10000 7.95 13.748 11:20 15.08.2019
3627 Rain 25 991 88 6000 7.95 13.748 10:59 15.08.2019
3628 Rain 25 993 94 10000 2.6 20 10:37 15.08.2019
3629 Rain 25 991 106 10000 0.5 20 10:19 15.08.2019
3630 Rain 25 992 112 10000 1 40 09:44 15.08.2019
3631 Rain 25 993 100 6000 2.1 250 09:22 15.08.2019
3632 Rain 25 994 94 10000 2.1 30 08:54 15.08.2019
3633 Rain 25 992 88 10000 5 27.037 08:36 15.08.2019
3634 Rain 25 992 112 10000 1.5 20 08:18 15.08.2019
3635 Rain 26 993 94 1400 5 27.037 07:40 15.08.2019
3636 Rain 26 993 88 7000 3.6 360 07:21 15.08.2019
3637 Rain 25 993 94 800 5 27.037 06:52 15.08.2019
3638 Rain 25 993 94 800 5 27.037 06:31 15.08.2019
3639 Rain 25 994 94 1400 1.5 40 05:39 15.08.2019
3640 Rain 25 994 112 10000 0.5 60 05:19 15.08.2019
3641 Rain 25 994 94 2800 3.65 41.512 04:27 15.08.2019
3642 Rain 26 996 78 10000 1.5 50 03:26 15.08.2019
3643 Rain 26 997 83 10000 1.5 20 02:35 15.08.2019
3644 Rain 26 995 100 10000 1 340 01:45 15.08.2019
3645 Rain 26 997 83 10000 1.5 30 00:59 15.08.2019
3646 Rain 26 997 83 10000 2.1 10 00:37 15.08.2019
3647 Rain 27 996 78 10000 2.1 40 00:19 15.08.2019
3648 Rain 27 996 78 10000 2.1 40 00:19 15.08.2019
3649 Rain 27 997 83 10000 1.5 20 23:56 14.08.2019
3650 Rain 27 995 65 10000 5.39 78.331 23:37 14.08.2019
3651 Rain 27 995 74 10000 0.5 360 23:19 14.08.2019
3652 Rain 27 995 62 10000 5.39 78.331 22:42 14.08.2019
3653 Rain 27 995 62 10000 5.39 78.331 22:23 14.08.2019
3654 Haze 27 997 83 10000 2.1 40 21:57 14.08.2019
3655 Haze 27 998 83 10000 1.5 70 21:39 14.08.2019
3656 Haze 27 998 83 10000 1.5 70 21:21 14.08.2019
3657 Haze 27 998 78 10000 1.5 50 20:57 14.08.2019
3658 Clouds 28 998 78 10000 1.5 40 20:39 14.08.2019
3659 Clouds 28 996 66 10000 3.96 57.744 20:19 14.08.2019
3660 Haze 27 997 78 10000 0.5 340 19:54 14.08.2019
3661 Haze 27 998 78 10000 3.1 50 19:36 14.08.2019
3662 Haze 28 998 78 10000 3.1 50 19:18 14.08.2019
3663 Haze 28 998 78 10000 3.1 50 19:18 14.08.2019
3664 Clouds 28 997 69 10000 1.5 30 18:41 14.08.2019
3665 Clouds 28 997 74 10000 0.5 30 18:23 14.08.2019
3666 Clouds 28 999 83 10000 1.5 20 17:59 14.08.2019
3667 Clouds 28 999 83 10000 1.5 20 17:59 14.08.2019
3668 Clouds 28 999 83 10000 2.1 350 17:40 14.08.2019
3669 Clouds 28 999 83 10000 2.1 350 17:21 14.08.2019
3670 Mist 28 999 83 10000 2.1 40 16:56 14.08.2019
3671 Mist 29 999 78 10000 2.6 40 16:38 14.08.2019
3672 Haze 29 1000 83 10000 2.1 50 16:19 14.08.2019
3673 Mist 29 1000 83 10000 2.1 40 15:43 14.08.2019
3674 Mist 29 1000 83 10000 2.1 40 15:43 14.08.2019
3675 Mist 29 999 70 10000 1 320 15:19 14.08.2019
3676 Mist 29 999 70 10000 1 320 15:19 14.08.2019
3677 Mist 29 999 70 10000 1 320 15:19 14.08.2019
3678 Mist 29 1000 83 10000 2.1 30 14:56 14.08.2019
3679 Mist 29 1000 78 10000 1.5 40 14:38 14.08.2019
3680 Mist 29 999 70 10000 0.5 30 14:18 14.08.2019
3681 Thunderstorm 29 999 66 10000 1 30 13:44 14.08.2019
3682 Thunderstorm 29 1000 79 10000 2.6 50 13:24 14.08.2019
3683 Rain 30 1000 89 10000 2.1 40 12:57 14.08.2019
3684 Rain 30 999 89 10000 1.5 30 12:39 14.08.2019
3685 Rain 30 999 89 10000 1.5 30 12:39 14.08.2019
3686 Rain 30 999 55 10000 1 340 12:21 14.08.2019
3687 Rain 31 999 88 10000 1 30 11:56 14.08.2019
3688 Rain 31 999 79 10000 1.5 360 11:37 14.08.2019
3689 Rain 31 998 66 10000 1 40 11:19 14.08.2019
3690 Haze 33 998 56 10000 1.5 40 10:42 14.08.2019
3691 Haze 33 1000 75 10000 1 60 10:24 14.08.2019
3692 Haze 34 998 59 10000 0.5 20 09:56 14.08.2019
3693 Haze 34 1000 63 10000 2.1 50 09:37 14.08.2019
3694 Haze 34 998 56 10000 2.1 10 09:19 14.08.2019
3695 Haze 34 1000 63 10000 1.5 50 08:37 14.08.2019
3696 Haze 34 999 63 10000 1 40 08:19 14.08.2019
3697 Haze 34 999 59 10000 1 40 07:50 14.08.2019
3698 Haze 34 1001 66 10000 1.5 30 07:31 14.08.2019
3699 Haze 34 999 59 10000 1 10 06:45 14.08.2019
3700 Haze 33 1000 59 10000 1.5 360 05:52 14.08.2019
3701 Haze 33 1002 62 10000 1 100 04:54 14.08.2019
3702 Haze 31 1003 74 10000 1.5 50 03:37 14.08.2019
3703 Clear 30 1004 70 10000 0.5 300 02:32 14.08.2019
3704 Mist 28 1003 88 10000 1.5 50 01:38 14.08.2019
3705 Mist 27 1004 88 10000 1.5 50 00:54 14.08.2019
3706 Mist 25 1002 106 10000 1 40 23:50 13.08.2019
3707 Mist 25 1004 100 10000 0.5 360 23:25 13.08.2019
3708 Mist 25 1004 94 10000 0.5 10 22:58 13.08.2019
3709 Mist 25 1004 100 10000 1 50 22:39 13.08.2019
3710 Mist 25 1004 100 10000 1 50 22:21 13.08.2019
3711 Mist 25 1004 100 10000 2.1 40 21:57 13.08.2019
3712 Mist 26 1004 100 8000 1 10 21:37 13.08.2019
3713 Mist 26 1004 100 10000 0.55 27.822 21:18 13.08.2019
3714 Mist 26 1003 106 10000 1 30 20:45 13.08.2019
3715 Mist 26 1003 106 10000 1 20 20:20 13.08.2019
3716 Mist 26 1004 100 10000 1 320 19:58 13.08.2019
3717 Mist 26 1004 100 10000 0.5 40 19:40 13.08.2019
3718 Mist 26 1004 100 10000 0.5 40 19:21 13.08.2019
3719 Rain 26 1003 106 10000 1 40 18:42 13.08.2019
3720 Rain 26 1003 106 10000 1 40 18:42 13.08.2019
3721 Rain 26 1003 106 10000 1 30 18:23 13.08.2019
3722 Rain 27 1004 94 10000 0.5 10 17:58 13.08.2019
3723 Mist 27 1004 100 10000 0.5 340 17:39 13.08.2019
3724 Rain 27 1003 100 10000 1 30 17:20 13.08.2019
3725 Rain 27 1004 94 10000 0.37 321.003 16:56 13.08.2019
3726 Rain 27 1004 94 10000 0.5 30 16:37 13.08.2019
3727 Rain 27 1004 100 2400 0.5 280 16:19 13.08.2019
3728 Rain 28 1002 88 3600 1.5 250 15:39 13.08.2019
3729 Rain 28 1003 94 6000 2.6 30 15:20 13.08.2019
3730 Rain 28 1004 100 3200 1.15 326.006 14:57 13.08.2019
3731 Rain 28 1004 100 3200 1.15 326.006 14:57 13.08.2019
3732 Rain 28 1004 100 2400 0.5 60 14:38 13.08.2019
3733 Rain 28 1004 100 2400 0.5 60 14:38 13.08.2019
3734 Rain 28 1002 100 10000 1 30 14:18 13.08.2019
3735 Clouds 29 1004 100 4800 1.15 326.006 13:41 13.08.2019
3736 Clouds 29 1004 100 4800 0.61 305.897 13:21 13.08.2019
3737 Haze 30 1003 94 4800 0.5 190 12:58 13.08.2019
3738 Haze 31 1003 89 8000 0.5 40 12:39 13.08.2019
3739 Mist 31 1003 79 10000 0.5 320 12:21 13.08.2019
3740 Clear 32 1003 89 10000 0.5 360 11:56 13.08.2019
3741 Clouds 33 1003 74 10000 1 310 11:37 13.08.2019
3742 Haze 33 1001 66 10000 0.5 20 11:18 13.08.2019
3743 Haze 33 1001 66 10000 0.5 20 11:18 13.08.2019
3744 Haze 33 1003 74 10000 1.5 360 10:55 13.08.2019
3745 Haze 34 1003 74 10000 2.1 330 10:36 13.08.2019
3746 Haze 34 1003 74 10000 2.1 320 10:18 13.08.2019
3747 Haze 34 1003 74 10000 2.1 330 09:41 13.08.2019
3748 Haze 34 1001 56 10000 1 260 09:22 13.08.2019
3749 Haze 34 1004 56 10000 1 210 08:42 13.08.2019
3750 Haze 33 1002 53 10000 1 260 08:22 13.08.2019
3751 Haze 33 1003 70 10000 1.5 50 07:56 13.08.2019
3752 Haze 33 1004 74 10000 0.5 270 07:32 13.08.2019
3753 Haze 33 1002 56 10000 0.5 260 06:46 13.08.2019
3754 Haze 32 1003 56 10000 0.5 220 06:23 13.08.2019
3755 Haze 32 1005 79 10000 1 30 05:33 13.08.2019
3756 Haze 28 1005 100 4800 1 350 02:37 13.08.2019
3757 Haze 27 1005 100 6000 1 330 01:55 13.08.2019
3758 Mist 26 1004 100 10000 0.5 10 00:54 13.08.2019
3759 Mist 25 1005 100 4000 1 350 00:35 13.08.2019
3760 Mist 25 1005 100 6000 1 170 23:48 12.08.2019
3761 Mist 25 1005 100 6000 1 170 23:24 12.08.2019
3762 Mist 25 1004 94 4000 1 220 22:57 12.08.2019
3763 Mist 25 1004 94 6000 1.5 220 22:38 12.08.2019
3764 Rain 25 1002 94 10000 1.5 220 22:19 12.08.2019
3765 Drizzle 25 1002 88 10000 4.16 144.218 21:55 12.08.2019
3766 Drizzle 26 1003 94 10000 2.1 240 21:36 12.08.2019
3767 Drizzle 26 1002 88 9000 4.6 240 21:18 12.08.2019
3768 Mist 26 1003 94 10000 1 250 20:42 12.08.2019
3769 Mist 26 1003 94 10000 1 250 20:21 12.08.2019
3770 Mist 26 1003 94 10000 1 160 19:59 12.08.2019
3771 Mist 26 1001 94 10000 4.45 147.036 19:39 12.08.2019
3772 Mist 26 1001 94 10000 2.6 130 19:21 12.08.2019
3773 Rain 26 1003 94 6000 0.5 300 18:59 12.08.2019
3774 Rain 26 1003 94 6000 1.5 110 18:40 12.08.2019
3775 Rain 26 1003 94 9000 1 70 18:21 12.08.2019
3776 Rain 26 1003 94 9000 1 70 17:56 12.08.2019
3777 Rain 26 1003 100 6000 1.5 70 17:38 12.08.2019
3778 Rain 26 1003 100 6000 1.5 70 17:20 12.08.2019
3779 Rain 26 1003 100 9000 0.5 350 16:55 12.08.2019
3780 Rain 26 1003 100 6000 1 20 16:36 12.08.2019
3781 Mist 27 1003 94 10000 1 70 16:18 12.08.2019
3782 Mist 27 1001 94 6000 2.88 166.446 15:42 12.08.2019
3783 Mist 27 1001 94 6000 2.88 166.446 15:41 12.08.2019
3784 Mist 27 1001 94 6000 4.07 172.884 15:22 12.08.2019
3785 Rain 27 1002 94 3200 4.07 172.884 14:58 12.08.2019
3786 Rain 27 1002 100 2000 6.2 170 14:39 12.08.2019
3787 Rain 27 1002 100 2000 6.2 170 14:39 12.08.2019
3788 Rain 27 1002 100 2000 6.2 170 14:21 12.08.2019
3789 Rain 27 1003 100 10000 1 110 13:55 12.08.2019
3790 Rain 27 1003 100 10000 1 110 13:55 12.08.2019
3791 Rain 27 1003 100 10000 1 110 13:55 12.08.2019
3792 Rain 27 1002 100 4000 2.1 110 13:37 12.08.2019
3793 Rain 27 1002 112 10000 1 350 13:19 12.08.2019
3794 Mist 28 1002 106 10000 0.5 20 12:43 12.08.2019
3795 Rain 28 1001 106 10000 0.5 10 12:19 12.08.2019
3796 -273 0 0 0 0 0 12:19 12.08.2019
3797 -273 0 0 0 0 0 11:44 12.08.2019
3798 Rain 28 1000 88 10000 4.72 165.001 11:26 12.08.2019
3799 Rain 28 1000 83 4000 3.1 120 11:26 12.08.2019
3800 Rain 28 1002 83 10000 1 150 10:57 12.08.2019
3801 Mist 28 1000 94 9000 4.72 165.001 10:38 12.08.2019
3802 Mist 28 1000 89 10000 4.1 150 10:20 12.08.2019
3803 Mist 28 1001 83 10000 2.1 150 09:54 12.08.2019
3804 Rain 28 1000 88 9000 4.72 165.001 09:36 12.08.2019
3805 Rain 28 1000 88 9000 4.72 165.001 09:36 12.08.2019
3806 Rain 28 999 89 10000 4.6 140 09:18 12.08.2019
3807 Rain 28 999 89 10000 4.6 140 09:18 12.08.2019
3808 Rain 27 1000 94 3600 1.5 30 08:40 12.08.2019
3809 Rain 28 1000 94 2800 4.43 158.797 08:21 12.08.2019
3810 Rain 28 1000 94 2800 4.43 158.797 07:56 12.08.2019
3811 Rain 28 1000 94 9000 1.5 270 07:34 12.08.2019
3812 Mist 28 1000 100 1400 4.1 170 06:53 12.08.2019
3813 Rain 28 1002 83 10000 0.5 20 05:46 12.08.2019
3814 Rain 26 1001 94 2000 7.12 136.298 03:30 12.08.2019
3815 Rain 25 1000 94 3600 2.1 120 02:42 12.08.2019
3816 Rain 25 1000 100 2500 3.6 130 01:23 12.08.2019
3817 Rain 25 1002 100 3200 1.5 20 00:58 12.08.2019
3818 Rain 25 1002 100 3200 1.5 20 00:58 12.08.2019
3819 Rain 25 1002 100 3200 1.5 20 00:58 12.08.2019
3820 Rain 25 1000 94 2400 8.44 152.278 00:40 12.08.2019
3821 Rain 25 1000 94 2400 8.44 152.278 00:40 12.08.2019
3822 Rain 25 1000 100 3000 3.6 130 00:20 12.08.2019
3823 Rain 25 1000 94 4400 10.21 144.263 23:56 11.08.2019
3824 Rain 25 1000 88 3600 2.1 200 23:38 11.08.2019
3825 Rain 25 1000 100 1400 1.5 230 23:19 11.08.2019
3826 Rain 26 1001 94 10000 1 260 22:40 11.08.2019
3827 Rain 26 999 94 5000 2.6 290 22:20 11.08.2019
3828 Rain 26 998 78 10000 10.21 144.263 21:59 11.08.2019
3829 Rain 26 1001 94 10000 1 350 21:41 11.08.2019
3830 Rain 26 1000 94 2000 1.5 310 21:22 11.08.2019
3831 Rain 26 1000 94 2400 1 50 20:58 11.08.2019
3832 Rain 26 1000 94 4800 1.5 80 20:40 11.08.2019
3833 Rain 25 1002 100 10000 0.5 160 20:22 11.08.2019
3834 Rain 25 998 94 6000 6.2 120 19:45 11.08.2019
3835 Rain 25 1000 94 10000 2.1 90 19:22 11.08.2019
3836 Rain 25 999 94 6000 1.5 70 18:56 11.08.2019
3837 Rain 25 999 94 6000 1.5 60 18:37 11.08.2019
3838 Rain 25 1000 88 1600 9.57 125.94 18:18 11.08.2019
3839 Rain 26 999 83 3200 9.57 125.94 17:41 11.08.2019
3840 Rain 26 1000 83 10000 1.5 30 17:20 11.08.2019
3841 Rain 27 1002 94 9000 2.6 120 16:58 11.08.2019
3842 Rain 27 999 78 6000 9.57 125.94 16:38 11.08.2019
3843 Rain 27 999 83 6000 6.2 110 16:20 11.08.2019
3844 Rain 30 1001 52 10000 1 210 15:44 11.08.2019
3845 Rain 30 1000 55 10000 3.6 110 15:26 11.08.2019
3846 Rain 30 1000 55 10000 3.6 110 15:26 11.08.2019
3847 Rain 31 1001 55 10000 2.6 100 14:59 11.08.2019
3848 Rain 31 1001 55 10000 2.6 100 14:59 11.08.2019
3849 Rain 31 1001 55 10000 3.1 110 14:40 11.08.2019
3850 Clouds 31 1001 55 10000 0.5 130 14:21 11.08.2019
3851 Clouds 31 1001 55 10000 0.5 290 13:46 11.08.2019
3852 Clouds 31 1001 55 10000 0.5 290 13:46 11.08.2019
3853 Clouds 31 1001 58 10000 2.6 100 13:26 11.08.2019
3854 Rain 32 999 52 10000 2.1 90 12:58 11.08.2019
3855 Rain 32 999 52 10000 2.1 90 12:58 11.08.2019
3856 Rain 32 1001 55 10000 1 80 12:38 11.08.2019
3857 Rain 32 1000 62 10000 0.5 50 12:19 11.08.2019
3858 Rain 33 1001 52 10000 1.5 100 11:40 11.08.2019
3859 Rain 33 1001 52 10000 1.5 100 11:40 11.08.2019
3860 Rain 33 1000 49 10000 0.5 290 11:22 11.08.2019
3861 Rain 34 1001 49 10000 2.1 110 10:56 11.08.2019
3862 Rain 34 1001 49 10000 2.1 140 10:37 11.08.2019
3863 Rain 35 1000 46 10000 2.1 80 10:19 11.08.2019
3864 Clouds 35 1000 39 10000 2.6 160 09:43 11.08.2019
3865 Clear 35 1000 46 10000 4.1 90 09:24 11.08.2019
3866 Clouds 35 1000 49 10000 3.1 120 08:56 11.08.2019
3867 Clear 35 1001 47 10000 4.1 120 08:36 11.08.2019
3868 Clouds 35 1001 47 10000 4.1 130 08:18 11.08.2019
3869 Clouds 35 1002 49 10000 4.1 120 07:32 11.08.2019
3870 Clouds 35 1002 52 10000 3.1 110 06:51 11.08.2019
3871 Clouds 34 1002 52 10000 1.5 110 06:31 11.08.2019
3872 Clouds 32 1003 55 10000 2.1 340 04:44 11.08.2019
3873 Clear 30 1004 62 10000 1.5 20 02:50 11.08.2019
3874 Haze 29 1005 74 10000 3.6 50 01:57 11.08.2019
3875 Haze 28 1005 78 10000 3.6 50 01:30 11.08.2019
3876 Clear 27 1006 83 10000 3.6 50 00:56 11.08.2019
3877 Clear 27 1006 83 10000 3.6 50 00:56 11.08.2019
3878 Haze 27 1006 78 10000 3.1 50 00:34 11.08.2019
3879 Clear 26 1005 78 10000 1.5 340 23:49 10.08.2019
3880 Clear 26 1006 94 6000 1 20 23:29 10.08.2019
3881 Clear 26 1006 94 10000 0.5 280 22:54 10.08.2019
3882 Clouds 26 1006 88 10000 0.5 10 22:36 10.08.2019
3883 Clear 26 1005 78 10000 1 20 22:18 10.08.2019
3884 Fog 27 1005 69 10000 1.5 40 21:40 10.08.2019
3885 Clear 27 1005 74 10000 1 20 21:21 10.08.2019
3886 Clear 27 1006 83 10000 2.1 40 20:57 10.08.2019
3887 Fog 26 1006 94 10000 2.1 30 20:39 10.08.2019
3888 Haze 27 1007 88 10000 1.5 50 20:19 10.08.2019
3889 Clear 27 1006 78 10000 1 20 19:43 10.08.2019
3890 Clear 27 1007 88 10000 2.6 40 19:24 10.08.2019
3891 Clear 27 1007 88 10000 2.6 40 19:24 10.08.2019
3892 Clear 27 1007 94 10000 2.6 50 18:42 10.08.2019
3893 Clear 28 1006 78 10000 1 30 18:24 10.08.2019
3894 Clear 28 1007 88 10000 3.1 50 17:56 10.08.2019
3895 Clear 28 1007 88 10000 3.1 50 17:56 10.08.2019
3896 Clear 28 1007 88 10000 2.1 60 17:37 10.08.2019
3897 Clear 28 1006 94 10000 0.5 140 17:18 10.08.2019
3898 Clear 29 1006 94 10000 0.5 180 16:42 10.08.2019
3899 Clear 29 1006 83 10000 0.5 20 16:20 10.08.2019
3900 Clear 29 1006 88 10000 0.5 150 15:44 10.08.2019
3901 Clear 30 1006 88 10000 0.5 220 15:21 10.08.2019
3902 Clear 30 1006 89 10000 4.9 131.9 14:44 10.08.2019
3903 Clear 31 1006 83 10000 0.5 120 14:19 10.08.2019
3904 Rain 31 1005 79 10000 0.5 110 13:41 10.08.2019
3905 Clouds 32 1005 74 10000 0.5 10 13:19 10.08.2019
3906 Clouds 32 1005 74 10000 1 20 12:44 10.08.2019
3907 Clouds 33 1004 63 10000 1 30 12:24 10.08.2019
3908 Clouds 33 1005 70 10000 2.1 40 11:59 10.08.2019
3909 Clouds 34 1004 66 10000 1.5 40 11:40 10.08.2019
3910 Clouds 34 1004 59 10000 0.5 150 11:21 10.08.2019
3911 Clouds 34 1005 66 10000 2.6 50 10:55 10.08.2019
3912 Clear 35 1005 66 10000 2.1 50 10:36 10.08.2019
3913 Clouds 35 1003 56 10000 1 20 10:18 10.08.2019
3914 Clouds 35 1003 56 10000 1 20 10:18 10.08.2019
3915 Clouds 35 1003 59 10000 1 330 09:40 10.08.2019
3916 Clouds 35 1005 63 10000 1.5 20 09:21 10.08.2019
3917 Clouds 35 1005 63 10000 2.6 60 08:39 10.08.2019
3918 Clouds 36 1004 56 10000 2.1 330 08:20 10.08.2019
3919 Clouds 35 1005 50 10000 1.5 70 07:54 10.08.2019
3920 Clouds 35 1007 44 10000 0.5 70 07:28 10.08.2019
3921 Haze 35 1005 59 10000 2.6 330 06:49 10.08.2019
3922 Haze 35 1007 59 10000 2.1 50 06:25 10.08.2019
3923 Haze 34 1007 66 10000 1 60 05:25 10.08.2019
3924 Haze 33 1008 70 10000 1 30 04:31 10.08.2019
3925 Haze 30 1008 79 10000 1.5 30 02:54 10.08.2019
3926 Haze 30 1008 79 10000 1 30 02:24 10.08.2019
3927 Haze 28 1007 88 10000 1 360 01:42 10.08.2019
3928 Haze 28 1008 83 10000 1 60 01:21 10.08.2019
3929 Mist 26 1007 94 10000 1.5 360 00:48 10.08.2019
3930 Mist 26 1009 94 8000 2.6 30 00:22 10.08.2019
3931 Mist 25 1009 100 4000 1.5 50 23:44 09.08.2019
3932 Mist 25 1009 100 4000 1.5 50 23:24 09.08.2019
3933 Mist 25 1008 100 4000 0.5 50 22:58 09.08.2019
3934 Mist 25 1008 100 4000 0.5 110 22:39 09.08.2019
3935 Mist 26 1006 100 10000 1.5 350 22:20 09.08.2019
3936 Mist 26 1007 106 6000 1 20 21:43 09.08.2019
3937 Mist 26 1008 100 3200 0.5 20 21:24 09.08.2019
3938 Mist 26 1008 100 3200 0.5 20 21:24 09.08.2019
3939 Mist 26 1008 100 3200 0.5 20 21:24 09.08.2019
3940 Mist 26 1008 100 3200 1.89 36.585 20:59 09.08.2019
3941 Mist 26 1008 100 3200 2.47 28.525 20:41 09.08.2019
3942 Mist 26 1008 94 4800 1 350 20:22 09.08.2019
3943 Mist 26 1008 94 2800 0.5 40 19:59 09.08.2019
3944 Mist 26 1008 94 3200 0.5 140 19:41 09.08.2019
3945 Mist 26 1007 112 8000 1 20 19:19 09.08.2019
3946 Mist 26 1009 94 4000 0.5 20 19:19 09.08.2019
3947 Mist 26 1007 112 8000 0.5 30 18:41 09.08.2019
3948 Mist 26 1007 94 10000 2.1 320 18:22 09.08.2019
3949 Mist 27 1009 100 2400 1 20 17:58 09.08.2019
3950 Mist 27 1009 100 3200 0.5 20 17:39 09.08.2019
3951 Mist 27 1009 100 3200 0.5 20 17:21 09.08.2019
3952 Mist 27 1009 106 10000 0.5 10 16:41 09.08.2019
3953 Mist 27 1009 100 4000 1 350 16:41 09.08.2019
3954 Mist 27 1009 106 10000 0.5 10 16:41 09.08.2019
3955 Haze 27 1007 88 10000 1 340 16:22 09.08.2019
3956 Haze 27 1009 100 6000 0.5 110 15:56 09.08.2019
3957 Haze 27 1009 100 6000 1.35 356.376 15:37 09.08.2019
3958 Haze 28 1007 88 10000 2.1 310 15:19 09.08.2019
3959 Haze 28 1008 106 6000 0.5 320 14:44 09.08.2019
3960 Haze 28 1009 94 9000 0.5 310 14:23 09.08.2019
3961 Haze 29 1008 94 10000 2.87 341.976 13:57 09.08.2019
3962 Haze 29 1008 94 10000 0.5 60 13:39 09.08.2019
3963 Haze 29 1007 106 10000 0.5 350 13:19 09.08.2019
3964 Haze 30 1006 94 10000 0.5 350 12:45 09.08.2019
3965 Haze 30 1006 94 10000 0.5 10 12:23 09.08.2019
3966 Haze 31 1008 74 10000 1 260 11:57 09.08.2019
3967 Haze 31 1007 70 10000 1.5 290 11:37 09.08.2019
3968 Haze 31 1006 89 10000 1 350 11:18 09.08.2019
3969 Haze 32 1007 70 10000 2.1 280 10:39 09.08.2019
3970 Haze 32 1007 70 10000 2.1 280 10:21 09.08.2019
3971 Thunderstorm 32 1006 79 10000 1 330 09:43 09.08.2019
3972 Thunderstorm 32 1006 74 10000 0.5 300 09:20 09.08.2019
3973 Haze 33 1007 70 10000 1.5 260 08:55 09.08.2019
3974 Haze 33 1008 66 10000 2.6 230 08:37 09.08.2019
3975 Haze 33 1006 63 10000 4.1 300 08:18 09.08.2019
3976 Haze 33 1007 55 10000 1 100 07:43 09.08.2019
3977 Haze 33 1007 59 10000 0.5 180 07:21 09.08.2019
3978 Haze 33 1008 62 10000 2.6 240 06:52 09.08.2019
3979 Haze 33 1008 62 10000 1 260 06:27 09.08.2019
3980 Haze 32 1007 66 10000 2.1 210 05:46 09.08.2019
3981 Haze 29 1007 70 10000 1.2 134.357 02:33 09.08.2019
3982 Haze 28 1010 88 4800 0.5 50 01:41 09.08.2019
3983 Haze 26 1009 94 4800 0.5 360 00:43 09.08.2019
3984 Mist 26 1008 100 9000 1.75 50.911 00:24 09.08.2019
3985 Mist 25 1010 100 3200 1.75 50.911 23:59 08.08.2019
3986 Mist 25 1008 88 10000 1.75 50.911 23:38 08.08.2019
3987 Mist 25 1008 106 10000 0.5 160 23:19 08.08.2019
3988 Mist 25 1009 94 2000 0.5 340 22:56 08.08.2019
3989 Mist 25 1007 88 10000 1.75 50.911 22:36 08.08.2019
3990 Mist 25 1009 94 1200 0.5 20 22:18 08.08.2019
3991 Mist 25 1008 106 10000 1 190 21:43 08.08.2019
3992 Mist 25 1007 83 10000 0.86 49.557 21:24 08.08.2019
3993 Mist 25 1009 100 2000 0.5 310 20:59 08.08.2019
3994 Mist 25 1009 100 1600 0.51 56.403 20:41 08.08.2019
3995 Mist 25 1008 100 10000 1 180 20:20 08.08.2019
3996 Mist 25 1008 100 10000 1 180 19:49 08.08.2019
3997 Mist 25 1009 100 2400 0.5 110 19:29 08.08.2019
3998 Mist 26 1010 100 3200 0.5 90 18:59 08.08.2019
3999 Mist 26 1010 94 4000 0.51 56.403 18:40 08.08.2019
4000 Mist 26 1010 94 3200 0.5 60 18:19 08.08.2019
4001 Fog 26 1008 83 10000 0.64 271.891 17:42 08.08.2019
4002 Fog 26 1008 83 10000 0.64 271.891 17:24 08.08.2019
4003 Fog 26 1010 94 4800 1 160 16:58 08.08.2019
4004 Fog 26 1010 94 4800 0.5 100 16:40 08.08.2019
4005 Fog 26 1008 83 10000 0.64 271.891 16:22 08.08.2019
4006 Fog 27 1011 106 9000 0.5 250 15:57 08.08.2019
4007 Mist 27 1011 100 9000 0.64 271.891 15:38 08.08.2019
4008 Fog 27 1009 88 8000 1.5 320 15:20 08.08.2019
4009 Fog 27 1011 94 6000 0.5 160 14:38 08.08.2019
4010 Haze 27 1009 100 10000 1 310 14:19 08.08.2019
4011 Clear 27 1010 88 10000 2.83 314.571 13:42 08.08.2019
4012 Clear 27 1010 88 10000 1.72 308.738 13:23 08.08.2019
4013 Mist 29 1009 88 8000 0.5 270 12:58 08.08.2019
4014 Mist 29 1009 83 10000 1 140 12:38 08.08.2019
4015 Mist 29 1007 79 10000 1 190 12:18 08.08.2019
4016 Haze 30 1007 74 10000 0.5 180 11:42 08.08.2019
4017 Haze 30 1009 74 10000 1.5 300 11:23 08.08.2019
4018 Haze 30 1009 74 10000 3.1 290 10:41 08.08.2019
4019 Haze 30 1007 74 10000 1 210 10:22 08.08.2019
4020 Haze 30 1007 74 10000 1 210 10:22 08.08.2019
4021 Haze 31 1009 79 10000 2.1 310 09:57 08.08.2019
4022 Haze 31 1009 70 10000 1.5 280 09:39 08.08.2019
4023 Rain 31 1006 59 10000 1 190 09:19 08.08.2019
4024 Rain 32 1009 70 10000 2.1 220 08:40 08.08.2019
4025 Thunderstorm 32 1009 70 10000 1 270 08:20 08.08.2019
4026 Thunderstorm 32 1009 70 10000 1.5 290 07:42 08.08.2019
4027 Thunderstorm 32 1007 59 10000 3.1 180 07:21 08.08.2019
4028 Mist 32 1009 70 10000 2.1 300 06:56 08.08.2019
4029 Haze 32 1010 74 9000 2.1 320 06:38 08.08.2019
4030 Haze 32 1010 70 9000 1.5 300 05:54 08.08.2019
4031 Haze 31 1010 74 6000 1 220 05:20 08.08.2019
4032 Mist 30 1009 79 8000 1.5 200 03:54 08.08.2019
4033 Mist 29 1010 74 4800 1 200 02:58 08.08.2019
4034 Haze 27 1008 83 9000 2.77 177.725 01:39 08.08.2019
4035 Mist 26 1009 112 6000 0.5 50 00:45 08.08.2019
4036 Mist 25 1008 94 4800 3.35 170.892 00:18 08.08.2019
4037 Mist 25 1008 106 4000 0.5 360 23:22 07.08.2019
4038 Mist 25 1009 94 800 0.5 350 22:59 07.08.2019
4039 Mist 25 1009 94 800 0.5 350 22:59 07.08.2019
4040 Mist 25 1009 94 2000 0.5 140 22:40 07.08.2019
4041 Mist 25 1008 106 4000 0.5 20 22:20 07.08.2019
4042 Mist 25 1009 94 2000 0.5 60 21:56 07.08.2019
4043 Mist 25 1007 88 8000 3.35 170.892 21:38 07.08.2019
4044 Mist 25 1008 106 4000 0.5 340 21:19 07.08.2019
4045 Mist 25 1009 100 2400 0.5 350 20:55 07.08.2019
4046 Mist 25 1007 88 6000 1.91 202.974 20:36 07.08.2019
4047 Haze 26 1008 106 4800 0.5 340 20:18 07.08.2019
4048 Mist 26 1007 106 6000 0.5 360 19:40 07.08.2019
4049 Haze 26 1009 100 3200 0.5 90 19:22 07.08.2019
4050 Haze 26 1009 100 3200 0.5 90 18:55 07.08.2019
4051 Haze 26 1007 83 6000 1.91 202.974 18:37 07.08.2019
4052 Mist 26 1008 106 4000 1 360 18:19 07.08.2019
4053 Haze 26 1008 112 6000 0.5 350 17:41 07.08.2019
4054 Haze 26 1006 83 8000 2.7 219.282 17:23 07.08.2019
4055 Haze 26 1006 83 8000 2.7 219.282 16:58 07.08.2019
4056 Haze 26 1006 83 8000 2.7 219.282 16:58 07.08.2019
4057 Mist 26 1008 100 2400 1 160 16:39 07.08.2019
4058 Mist 26 1008 100 3200 2.7 219.282 16:21 07.08.2019
4059 Mist 26 1008 100 3200 2.7 219.282 15:58 07.08.2019
4060 Mist 26 1008 100 3200 0.5 70 15:40 07.08.2019
4061 Mist 26 1006 88 10000 1.5 340 15:19 07.08.2019
4062 Mist 27 1008 100 4000 0.5 170 14:49 07.08.2019
4063 Mist 27 1008 100 4000 0.5 170 14:29 07.08.2019
4064 Mist 27 1008 100 4800 0.5 200 13:56 07.08.2019
4065 Haze 27 1007 100 6000 1 120 13:38 07.08.2019
4066 Haze 27 1006 112 10000 0.5 300 13:18 07.08.2019
4067 Haze 28 1007 94 6000 1.5 140 12:55 07.08.2019
4068 Haze 28 1007 94 6000 3.23 232.262 12:36 07.08.2019
4069 Haze 29 1007 88 9000 0.5 160 12:18 07.08.2019
4070 Haze 29 1006 88 10000 3.72 236.037 11:43 07.08.2019
4071 Haze 30 1005 88 10000 1.5 330 11:21 07.08.2019
4072 Haze 30 1006 83 10000 0.5 170 10:57 07.08.2019
4073 Haze 30 1006 78 10000 0.5 200 10:39 07.08.2019
4074 Haze 30 1006 78 10000 1 200 10:18 07.08.2019
4075 Haze 30 1005 88 10000 1 330 09:45 07.08.2019
4076 Haze 30 1006 78 10000 0.5 220 09:22 07.08.2019
4077 Haze 29 1006 78 10000 0.5 200 08:57 07.08.2019
4078 Haze 29 1007 78 10000 1 200 08:38 07.08.2019
4079 Haze 28 1006 74 10000 0.5 190 08:20 07.08.2019
4080 Haze 27 1007 78 10000 1.5 230 07:41 07.08.2019
4081 Haze 27 1006 100 10000 1 170 07:20 07.08.2019
4082 Clouds 27 1007 83 10000 1 190 06:31 07.08.2019
4083 Rain 27 1007 88 10000 1.5 170 05:54 07.08.2019
4084 Rain 27 1007 94 9000 1.5 170 04:57 07.08.2019
4085 Rain 25 1007 94 9000 0.5 130 03:21 07.08.2019
4086 Rain 25 1006 94 10000 1.5 230 02:49 07.08.2019
4087 Rain 24 1006 94 10000 2.85 5.163 01:58 07.08.2019
4088 Rain 25 1004 94 4800 2.85 5.163 01:39 07.08.2019
4089 Rain 24 1004 94 3600 3.76 323.051 00:43 07.08.2019
4090 Rain 24 1004 94 10000 2.1 340 00:22 07.08.2019
4091 Rain 24 1006 94 8000 1.5 60 23:41 06.08.2019
4092 Rain 25 1003 106 6000 2.1 240 23:21 06.08.2019
4093 Rain 25 1006 88 10000 1 100 22:56 06.08.2019
4094 Rain 25 1003 88 6000 7.36 20.988 22:37 06.08.2019
4095 Rain 25 1004 83 10000 1.5 10 22:18 06.08.2019
4096 Rain 25 1006 69 10000 2.6 40 21:42 06.08.2019
4097 Rain 25 1006 69 10000 2.6 40 21:24 06.08.2019
4098 Rain 26 1003 88 8000 4.06 5.196 20:54 06.08.2019
4099 Rain 26 1006 69 10000 3.6 50 20:36 06.08.2019
4100 Rain 26 1004 74 10000 3.1 360 20:18 06.08.2019
4101 Rain 26 1003 62 10000 4.06 5.196 19:42 06.08.2019
4102 Rain 26 1004 106 9000 1 40 19:23 06.08.2019
4103 Rain 28 1005 94 10000 1 20 18:46 06.08.2019
4104 Rain 27 1006 78 10000 1.5 30 18:26 06.08.2019
4105 Haze 28 1007 74 10000 2.1 50 17:59 06.08.2019
4106 Haze 28 1006 74 10000 2.6 360 17:39 06.08.2019
4107 Haze 28 1006 74 10000 2.6 360 17:39 06.08.2019
4108 Haze 28 1006 74 10000 2.6 360 17:20 06.08.2019
4109 Fog 29 1007 74 10000 1.5 40 16:55 06.08.2019
4110 Haze 29 1007 78 10000 2.1 30 16:37 06.08.2019
4111 Haze 29 1005 58 10000 0.5 320 16:19 06.08.2019
4112 Haze 29 1007 74 10000 1.5 40 15:56 06.08.2019
4113 Haze 29 1007 74 10000 1 80 15:38 06.08.2019
4114 Haze 29 1006 58 10000 1.5 350 15:18 06.08.2019
4115 Haze 30 1007 66 10000 1 60 14:41 06.08.2019
4116 Haze 30 1007 66 10000 1 60 14:22 06.08.2019
4117 Haze 31 1007 62 10000 1.5 120 13:57 06.08.2019
4118 Haze 31 1007 58 10000 2.1 100 13:38 06.08.2019
4119 Haze 31 1006 58 10000 1.5 30 13:19 06.08.2019
4120 Haze 32 1006 55 10000 1.5 30 12:42 06.08.2019
4121 Haze 33 1006 74 10000 1.5 60 12:24 06.08.2019
4122 Haze 33 1006 66 10000 1.5 50 11:59 06.08.2019
4123 Haze 33 1006 66 10000 1.5 50 11:59 06.08.2019
4124 Haze 34 1005 52 10000 2.1 30 11:40 06.08.2019
4125 Haze 34 1005 59 10000 1.5 30 11:18 06.08.2019
4126 Haze 34 1006 63 10000 1.5 20 10:41 06.08.2019
4127 Haze 34 1006 63 10000 1.5 20 10:22 06.08.2019
4128 Haze 34 1006 63 10000 2.6 20 09:47 06.08.2019
4129 Haze 34 1006 63 10000 2.6 20 09:24 06.08.2019
4130 Haze 35 1006 63 10000 2.6 20 08:56 06.08.2019
4131 Haze 35 1007 63 10000 2.1 360 08:37 06.08.2019
4132 Haze 35 1005 47 10000 1.5 40 08:19 06.08.2019
4133 Haze 35 1007 59 10000 2.6 20 07:32 06.08.2019
4134 Haze 35 1008 47 10000 2.1 40 06:45 06.08.2019
4135 Haze 35 1008 47 10000 2.1 40 06:26 06.08.2019
4136 Haze 34 1006 49 10000 1.5 40 05:46 06.08.2019
4137 Haze 31 1010 74 10000 2.1 40 02:59 06.08.2019
4138 Haze 29 1010 83 6000 1 360 01:36 06.08.2019
4139 Haze 28 1011 83 6000 1.5 50 00:59 06.08.2019
4140 Mist 28 1011 88 6000 1 40 00:26 06.08.2019
4141 Mist 27 1009 100 8000 1.5 30 23:21 05.08.2019
4142 Mist 27 1010 100 4000 2.1 50 22:59 05.08.2019
4143 Mist 27 1010 94 4000 3.1 40 22:40 05.08.2019
4144 Mist 27 1009 100 9000 0.5 360 22:22 05.08.2019
4145 Mist 27 1008 106 8000 1.5 30 21:43 05.08.2019
4146 Mist 27 1009 100 8000 0.5 40 21:21 05.08.2019
4147 Mist 27 1010 94 4800 0.5 90 20:58 05.08.2019
4148 Mist 27 1009 94 4800 0.5 80 20:40 05.08.2019
4149 Mist 27 1009 100 8000 2.74 119.968 20:22 05.08.2019
4150 Mist 27 1009 94 4800 1 50 19:57 05.08.2019
4151 Mist 28 1011 106 4800 1 10 19:38 05.08.2019
4152 Mist 28 1010 88 6000 2.1 40 19:19 05.08.2019
4153 Mist 28 1010 94 3200 1.5 40 18:42 05.08.2019
4154 Mist 28 1009 88 10000 0.5 330 18:20 05.08.2019
4155 Mist 28 1009 88 10000 1.5 30 17:50 05.08.2019
4156 Mist 28 1010 94 4800 1 20 17:30 05.08.2019
4157 Mist 29 1010 94 6000 1.5 30 16:59 05.08.2019
4158 Mist 29 1010 94 6000 1.5 30 16:59 05.08.2019
4159 Mist 29 1010 94 4000 1.5 50 16:41 05.08.2019
4160 Mist 29 1010 94 4000 1.5 50 16:22 05.08.2019
4161 Haze 29 1009 89 10000 1 40 15:41 05.08.2019
4162 Haze 29 1009 89 10000 0.5 330 15:20 05.08.2019
4163 Haze 29 1009 89 10000 1 50 14:42 05.08.2019
4164 Haze 29 1011 83 8000 0.5 210 14:22 05.08.2019
4165 Haze 30 1008 79 10000 0.5 340 13:48 05.08.2019
4166 Haze 30 1010 79 6000 0.5 120 13:24 05.08.2019
4167 -273 0 0 0 0 0 12:52 05.08.2019
4168 Haze 31 1009 66 10000 0.5 190 12:52 05.08.2019
4169 Haze 32 1009 79 8000 1.5 40 12:22 05.08.2019
4170 Haze 33 1009 70 10000 1.5 20 11:59 05.08.2019
4171 Haze 33 1009 70 10000 1 10 11:40 05.08.2019
4172 Haze 33 1009 70 10000 1 10 11:22 05.08.2019
4173 Haze 35 1009 63 10000 1.5 360 10:44 05.08.2019
4174 Haze 35 1009 63 10000 1.5 360 10:26 05.08.2019
4175 Haze 35 1009 59 10000 1.5 310 09:55 05.08.2019
4176 Haze 35 1009 59 10000 1.5 310 09:36 05.08.2019
4177 Haze 35 1007 44 10000 1 340 09:18 05.08.2019
4178 Haze 36 1008 44 10000 1 330 08:41 05.08.2019
4179 Haze 35 1008 44 10000 1 330 08:20 05.08.2019
4180 Haze 35 1008 47 10000 1.5 270 07:47 05.08.2019
4181 Haze 35 1011 56 10000 1 290 07:27 05.08.2019
4182 Haze 35 1011 56 10000 1.5 20 06:41 05.08.2019
4183 Haze 34 1012 59 10000 1.5 360 05:53 05.08.2019
4184 Haze 34 1010 53 10000 1 320 05:20 05.08.2019
4185 Haze 33 1012 62 10000 1 70 04:28 05.08.2019
4186 Haze 31 1012 74 10000 1 350 03:38 05.08.2019
4187 Mist 29 1013 83 10000 1.5 40 02:37 05.08.2019
4188 Mist 28 1013 88 6000 0.5 10 01:36 05.08.2019
4189 Mist 26 1012 100 8000 1.5 20 00:43 05.08.2019
4190 Mist 26 1013 94 2800 0.5 330 00:24 05.08.2019
4191 Mist 25 1013 100 400 1 10 23:59 04.08.2019
4192 Mist 25 1011 94 6000 2.15 358.989 23:40 04.08.2019
4193 Mist 25 1011 112 4000 1 10 23:20 04.08.2019
4194 Mist 25 1013 100 0 1 50 22:56 04.08.2019
4195 Mist 25 1012 94 0 1 50 22:37 04.08.2019
4196 Mist 25 1011 112 3200 0.5 200 22:19 04.08.2019
4197 Mist 25 1010 112 4800 0.5 360 21:43 04.08.2019
4198 Mist 25 1012 94 1200 0.5 100 21:20 04.08.2019
4199 Mist 26 1010 106 4000 1 50 20:46 04.08.2019
4200 Mist 25 1010 106 4800 0.5 20 20:21 04.08.2019
4201 Mist 25 1012 100 800 1 70 19:59 04.08.2019
4202 Mist 25 1012 100 800 0.5 110 19:39 04.08.2019
4203 Mist 25 1011 94 400 0.5 10 19:21 04.08.2019
4204 Mist 25 1012 100 2400 1 140 18:42 04.08.2019
4205 Mist 25 1010 106 4800 0.5 330 18:21 04.08.2019
4206 Mist 26 1011 106 6000 0.5 320 17:45 04.08.2019
4207 Mist 26 1012 100 1600 0.5 150 17:26 04.08.2019
4208 Haze 27 1012 100 3200 0.5 120 16:59 04.08.2019
4209 Haze 27 1012 94 4000 0.5 150 16:39 04.08.2019
4210 Haze 27 1011 106 9000 0.5 310 16:20 04.08.2019
4211 Haze 27 1011 100 9000 0.5 10 15:43 04.08.2019
4212 Haze 27 1010 83 4800 2.16 341.85 15:22 04.08.2019
4213 Haze 28 1011 100 10000 0.5 160 14:45 04.08.2019
4214 Haze 27 1012 88 8000 0.5 130 14:26 04.08.2019
4215 Haze 28 1010 88 10000 1 280 13:47 04.08.2019
4216 Haze 29 1012 79 10000 0.5 250 13:28 04.08.2019
4217 Haze 29 1011 74 10000 1 270 12:59 04.08.2019
4218 Haze 29 1009 74 10000 0.5 140 12:40 04.08.2019
4219 Thunderstorm 30 1009 70 10000 0.5 130 12:22 04.08.2019
4220 Haze 31 1011 74 10000 1 250 11:55 04.08.2019
4221 Thunderstorm 31 1011 70 10000 1.5 250 11:36 04.08.2019
4222 Haze 31 1009 74 10000 1 120 11:18 04.08.2019
4223 Haze 33 1011 66 10000 1 270 10:40 04.08.2019
4224 Mist 33 1009 70 10000 0.5 310 10:19 04.08.2019
4225 Haze 34 1012 55 10000 2.1 320 09:42 04.08.2019
4226 Haze 34 1012 55 10000 2.1 320 09:21 04.08.2019
4227 Mist 34 1012 59 10000 1 260 08:42 04.08.2019
4228 Mist 34 1012 59 10000 1 260 08:42 04.08.2019
4229 Mist 33 1009 50 10000 1 230 08:20 04.08.2019
4230 Haze 33 1010 50 10000 1 200 07:48 04.08.2019
4231 Haze 33 1010 59 10000 1.5 210 06:47 04.08.2019
4232 Haze 33 1012 62 10000 0.5 340 06:24 04.08.2019
4233 Fog 31 1012 79 10000 1.5 220 03:44 04.08.2019
4234 Fog 29 1014 78 10000 1 350 02:22 04.08.2019
4235 Haze 26 1011 78 10000 2.23 199.393 01:33 04.08.2019
4236 Fog 25 1012 100 10000 1.5 30 00:44 04.08.2019
4237 Fog 25 1013 88 10000 1 80 00:26 04.08.2019
4238 Fog 24 1012 106 10000 0.5 330 23:56 03.08.2019
4239 Fog 24 1013 100 8000 0.5 360 23:38 03.08.2019
4240 Fog 24 1012 106 10000 0.5 320 23:18 03.08.2019
4241 Mist 24 1011 106 10000 0.5 290 22:42 03.08.2019
4242 Mist 24 1010 100 7000 1.5 330 22:20 03.08.2019
4243 Mist 24 1012 100 9000 1 360 21:40 03.08.2019
4244 Mist 24 1012 100 9000 1 360 21:22 03.08.2019
4245 Mist 24 1011 106 10000 1 30 20:46 03.08.2019
4246 Mist 24 1012 94 800 1.43 343.209 20:26 03.08.2019
4247 Mist 24 1012 100 10000 1 20 19:57 03.08.2019
4248 Mist 25 1012 100 1200 1 310 19:39 03.08.2019
4249 Mist 25 1012 100 1200 1 310 19:21 03.08.2019
4250 Mist 25 1011 106 10000 0.5 150 18:46 03.08.2019
4251 Mist 25 1013 94 10000 1 40 18:26 03.08.2019
4252 Mist 25 1012 100 10000 0.5 340 17:46 03.08.2019
4253 Mist 25 1013 94 10000 1.5 350 17:20 03.08.2019
4254 Fog 25 1013 94 10000 0.5 310 16:39 03.08.2019
4255 Fog 25 1013 94 10000 0.5 310 16:39 03.08.2019
4256 Fog 25 1012 100 10000 0.5 30 16:21 03.08.2019
4257 Fog 25 1013 94 10000 1 30 15:55 03.08.2019
4258 Mist 26 1013 94 10000 1 40 15:37 03.08.2019
4259 Mist 26 1012 100 10000 0.5 310 15:18 03.08.2019
4260 Mist 26 1013 88 10000 0.5 240 14:36 03.08.2019
4261 Rain 26 1011 106 10000 0.5 340 14:18 03.08.2019
4262 Rain 27 1013 83 10000 1 360 13:43 03.08.2019
4263 Rain 27 1013 83 10000 1 360 13:23 03.08.2019
4264 Rain 28 1011 88 10000 2.83 320.034 12:55 03.08.2019
4265 Rain 28 1010 78 4800 2.1 50 12:36 03.08.2019
4266 Rain 29 1011 88 10000 1 160 12:18 03.08.2019
4267 Thunderstorm 30 1011 74 10000 1.5 50 11:38 03.08.2019
4268 Thunderstorm 31 1009 79 10000 1 340 11:19 03.08.2019
4269 Rain 33 1010 79 10000 2.6 340 10:38 03.08.2019
4270 Thunderstorm 33 1010 79 10000 2.6 340 10:19 03.08.2019
4271 Rain 33 1010 79 10000 2.6 340 10:19 03.08.2019
4272 Thunderstorm 35 1011 63 10000 1.5 320 09:37 03.08.2019
4273 Thunderstorm 35 1009 63 10000 1 180 09:18 03.08.2019
4274 Thunderstorm 35 1009 53 10000 1.5 200 08:43 03.08.2019
4275 Haze 35 1012 63 10000 1.5 310 07:40 03.08.2019
4276 Haze 34 1010 56 10000 1 350 06:48 03.08.2019
4277 Haze 34 1011 56 10000 1.5 280 06:18 03.08.2019
4278 Haze 29 1013 83 10000 0.5 60 02:59 03.08.2019
4279 Haze 29 1013 84 10000 0.5 50 02:23 03.08.2019
4280 Fog 26 1013 94 400 1.5 360 00:58 03.08.2019
4281 Fog 26 1013 94 0 1 50 00:31 03.08.2019
4282 Fog 25 1012 106 10000 1.5 30 23:42 02.08.2019
4283 Fog 25 1012 106 9000 1.5 30 23:20 02.08.2019
4284 Fog 25 1013 100 0 1.1 68.587 22:57 02.08.2019
4285 Fog 25 1013 100 0 0.5 80 22:39 02.08.2019
4286 Fog 25 1012 106 10000 1 10 22:20 02.08.2019
4287 Fog 25 1013 100 0 0.5 10 21:55 02.08.2019
4288 Fog 25 1013 100 0 0.5 360 21:36 02.08.2019
4289 Fog 25 1011 100 10000 0.5 290 21:18 02.08.2019
4290 Mist 25 1012 106 10000 0.5 20 20:41 02.08.2019
4291 Fog 25 1012 112 10000 0.5 40 20:21 02.08.2019
4292 Mist 26 1012 112 10000 0.5 50 19:49 02.08.2019
4293 Mist 26 1013 100 1600 1 110 19:29 02.08.2019
4294 Mist 26 1011 106 10000 0.5 360 18:45 02.08.2019
4295 Mist 26 1013 94 4000 0.67 315.304 18:27 02.08.2019
4296 Mist 26 1012 106 10000 1 10 17:48 02.08.2019
4297 Mist 26 1013 100 4800 0.5 110 17:26 02.08.2019
4298 Mist 26 1014 100 6000 1 160 16:59 02.08.2019
4299 Mist 26 1013 100 6000 1 160 16:39 02.08.2019
4300 Mist 26 1012 100 10000 0.5 330 16:20 02.08.2019
4301 Mist 27 1012 100 10000 0.5 330 15:45 02.08.2019
4302 Mist 27 1012 94 10000 0.5 330 15:20 02.08.2019
4303 Haze 27 1012 88 10000 0.5 220 14:47 02.08.2019
4304 Haze 28 1011 88 10000 1 230 14:19 02.08.2019
4305 Haze 28 1013 94 10000 4 319.444 13:50 02.08.2019
4306 Haze 28 1012 88 10000 0.5 200 13:29 02.08.2019
4307 Haze 30 1010 79 10000 0.5 10 12:47 02.08.2019
4308 Haze 31 1012 79 10000 1 280 12:24 02.08.2019
4309 Haze 32 1012 74 10000 1.5 280 11:58 02.08.2019
4310 Haze 32 1011 74 10000 1 270 11:39 02.08.2019
4311 Haze 32 1009 59 10000 0.5 360 11:21 02.08.2019
4312 Fog 33 1009 59 10000 1 270 10:43 02.08.2019
4313 Fog 33 1011 66 10000 2.1 310 10:23 02.08.2019
4314 Haze 33 1011 62 10000 1.5 330 09:52 02.08.2019
4315 Haze 34 1011 66 10000 1.5 20 09:29 02.08.2019
4316 Haze 34 1012 59 10000 1 270 08:53 02.08.2019
4317 Haze 34 1012 59 10000 1 320 08:25 02.08.2019
4318 Haze 33 1012 62 10000 2.1 320 07:52 02.08.2019
4319 Haze 33 1012 59 10000 1 320 07:34 02.08.2019
4320 Haze 33 1012 59 10000 1 30 06:58 02.08.2019
4321 Haze 32 1012 59 10000 0.5 20 06:27 02.08.2019
4322 Fog 32 1013 66 10000 1 50 05:38 02.08.2019
4323 Haze 30 1014 74 10000 1.5 310 03:31 02.08.2019
4324 Haze 28 1015 78 10000 1 340 02:37 02.08.2019
4325 Fog 25 1015 94 2000 0.5 120 00:54 02.08.2019
4326 Fog 25 1014 112 400 0.5 320 00:20 02.08.2019
4327 Mist 25 1013 112 10000 0.5 190 23:43 01.08.2019
4328 Mist 25 1015 100 4800 1.19 163.796 23:19 01.08.2019
4329 Rain 24 1013 94 10000 1.19 163.796 22:41 01.08.2019
4330 Rain 24 1013 94 10000 1.19 163.796 22:21 01.08.2019
4331 Mist 24 1014 100 1200 1.5 170 21:54 01.08.2019
4332 Mist 24 1014 100 2800 1 130 21:36 01.08.2019
4333 Mist 25 1013 112 9000 1.21 156.292 21:18 01.08.2019
4334 Mist 25 1014 100 3200 1 170 20:41 01.08.2019
4335 Mist 25 1014 100 3200 1 170 20:22 01.08.2019
4336 Mist 25 1013 106 10000 0.5 170 19:44 01.08.2019
4337 Mist 25 1013 106 10000 0.5 140 19:22 01.08.2019
4338 Mist 26 1013 106 10000 0.5 160 18:46 01.08.2019
4339 Mist 26 1013 106 9000 0.5 110 18:25 01.08.2019
4340 Mist 26 1014 100 2400 0.5 170 17:57 01.08.2019
4341 Mist 25 1014 100 4000 0.5 140 17:39 01.08.2019
4342 Mist 25 1012 106 9000 0.5 320 17:20 01.08.2019
4343 Fog 25 1012 106 10000 1 270 16:44 01.08.2019
4344 Fog 25 1012 112 10000 0.5 10 16:21 01.08.2019
4345 Fog 26 1012 112 10000 0.5 310 15:45 01.08.2019
4346 Fog 26 1012 94 8000 1.5 280 15:20 01.08.2019
4347 Mist 26 1012 106 10000 0.5 300 14:44 01.08.2019
4348 Mist 27 1014 94 6000 0.5 250 14:21 01.08.2019
4349 Mist 27 1014 94 9000 1 240 13:58 01.08.2019
4350 Mist 28 1013 94 10000 1 230 13:40 01.08.2019
4351 Mist 28 1013 94 10000 1 230 13:21 01.08.2019
4352 Haze 28 1011 94 10000 1 180 12:49 01.08.2019
4353 Haze 28 1013 94 10000 1 250 12:28 01.08.2019
4354 Haze 29 1012 94 10000 1.5 220 11:55 01.08.2019
4355 Haze 30 1010 79 10000 4.33 236.856 11:36 01.08.2019
4356 Haze 30 1010 74 10000 0.5 230 11:18 01.08.2019
4357 Haze 30 1010 70 10000 1 280 10:41 01.08.2019
4358 Haze 30 1012 83 10000 2.1 240 10:41 01.08.2019
4359 Haze 30 1012 83 10000 2.1 240 10:22 01.08.2019
4360 Rain 30 1011 79 10000 1.5 270 09:48 01.08.2019
4361 Haze 30 1011 79 10000 4.58 232.762 09:23 01.08.2019
4362 Haze 30 1011 70 10000 2.1 280 08:49 01.08.2019
4363 Haze 30 1011 66 10000 0.5 350 08:21 01.08.2019
4364 Haze 30 1013 88 10000 2.1 240 07:53 01.08.2019
4365 Haze 30 1013 88 10000 1.5 230 07:29 01.08.2019
4366 Haze 30 1011 70 10000 0.5 40 06:50 01.08.2019
4367 Haze 30 1011 74 10000 4.77 227.142 06:31 01.08.2019
4368 Haze 29 1014 69 10000 1.5 280 05:31 01.08.2019
4369 Rain 26 1013 88 2800 6.88 157.956 02:36 01.08.2019
4370 Mist 25 1014 106 10000 1.5 160 00:55 01.08.2019
4371 Mist 25 1013 94 10000 2.1 130 00:27 01.08.2019
4372 Rain 24 1013 100 10000 1.5 160 23:57 31.07.2019
4373 Rain 24 1012 100 10000 4.25 190.804 23:39 31.07.2019
4374 Rain 24 1011 94 10000 2.1 170 23:19 31.07.2019
4375 Rain 24 1012 106 10000 4.25 190.804 22:44 31.07.2019
4376 Rain 24 1012 94 10000 4.25 190.804 22:24 31.07.2019
4377 Rain 24 1012 94 6000 4.25 190.804 21:41 31.07.2019
4378 Rain 24 1013 106 10000 1 310 21:22 31.07.2019
4379 Rain 25 1012 106 4800 1 160 20:49 31.07.2019
4380 Rain 25 1013 100 4800 1 180 20:24 31.07.2019
4381 Thunderstorm 25 1011 106 2400 1 60 19:49 31.07.2019
4382 Thunderstorm 25 1012 94 1400 4.8 206.597 19:31 31.07.2019
4383 Rain 25 1011 94 600 4.8 206.597 18:57 31.07.2019
4384 Rain 25 1011 94 1000 4.8 206.597 18:37 31.07.2019
4385 Rain 25 1011 106 2400 0.5 160 18:18 31.07.2019
4386 Rain 26 1011 94 4400 3.2 201.592 17:44 31.07.2019
4387 Rain 26 1011 112 8000 3.2 201.592 17:20 31.07.2019
4388 Rain 26 1011 106 8000 1 160 16:48 31.07.2019
4389 Rain 26 1011 94 10000 3.2 201.592 16:21 31.07.2019
4390 Rain 26 1012 100 3200 1.5 200 15:54 31.07.2019
4391 Rain 26 1011 94 3000 3.2 201.592 15:36 31.07.2019
4392 Rain 26 1011 112 10000 0.5 290 15:18 31.07.2019
4393 Rain 27 1010 88 10000 3.6 200.179 14:42 31.07.2019
4394 Rain 27 1010 88 10000 3.6 200.179 14:42 31.07.2019
4395 Rain 27 1011 106 10000 0.5 150 14:19 31.07.2019
4396 Mist 27 1010 106 4800 1 40 13:45 31.07.2019
4397 Mist 27 1009 88 10000 3.1 186.428 13:27 31.07.2019
4398 Mist 27 1009 106 10000 0.5 30 12:57 31.07.2019
4399 Mist 27 1011 100 4000 1 140 12:38 31.07.2019
4400 Mist 27 1009 106 10000 1.5 30 12:18 31.07.2019
4401 Mist 27 1010 100 4000 1 150 11:39 31.07.2019
4402 Mist 27 1008 112 10000 1 350 11:20 31.07.2019
4403 Mist 27 1010 100 10000 1 160 10:42 31.07.2019
4404 Rain 27 1008 106 10000 1 10 10:21 31.07.2019
4405 Rain 27 1008 88 10000 4.46 218.192 09:56 31.07.2019
4406 Rain 27 1008 88 4400 4.46 218.192 09:38 31.07.2019
4407 Rain 27 1008 112 10000 0.5 200 09:18 31.07.2019
4408 Rain 26 1008 112 10000 0.5 310 08:41 31.07.2019
4409 Rain 27 1008 94 4800 4.85 188.478 08:21 31.07.2019
4410 Rain 27 1009 83 10000 4.85 188.478 07:35 31.07.2019
4411 Rain 26 1011 88 10000 2.1 180 06:35 31.07.2019
4412 Rain 25 1010 100 10000 2.1 140 04:52 31.07.2019
4413 Rain 25 1009 94 1000 8.08 184.096 03:24 31.07.2019
4414 Rain 27 1008 94 8000 2.1 220 23:58 30.07.2019
4415 Haze 27 1008 94 6000 3.1 190 23:40 30.07.2019
4416 Haze 27 1008 106 10000 1.5 180 23:19 30.07.2019
4417 Rain 27 1008 106 10000 2.1 190 22:45 30.07.2019
4418 Rain 27 1007 88 10000 8.16 187.424 22:25 30.07.2019
4419 Rain 27 1008 94 4000 2.6 190 21:40 30.07.2019
4420 Rain 27 1009 88 10000 2.1 220 21:20 30.07.2019
4421 Thunderstorm 27 1008 94 2400 2.6 200 20:59 30.07.2019
4422 Rain 27 1008 100 2400 3.1 200 20:41 30.07.2019
4423 Rain 27 1008 100 2400 3.1 200 20:23 30.07.2019
4424 Thunderstorm 27 1008 100 2800 2.6 210 19:56 30.07.2019
4425 Rain 27 1007 88 8000 7.63 188.325 19:36 30.07.2019
4426 Rain 27 1007 94 10000 4.1 200 18:49 30.07.2019
4427 Rain 27 1007 100 10000 4.6 200 18:27 30.07.2019
4428 Mist 27 1007 88 4800 7.23 190.951 17:59 30.07.2019
4429 Rain 28 1007 83 10000 1.5 230 17:41 30.07.2019
4430 Haze 28 1007 100 10000 0.5 170 17:19 30.07.2019
4431 Mist 28 1007 88 10000 1 210 16:46 30.07.2019
4432 Rain 28 1007 88 10000 4.6 210 16:20 30.07.2019
4433 Thunderstorm 28 1007 88 10000 4.6 210 15:44 30.07.2019
4434 Haze 28 1008 83 10000 2.1 190 15:23 30.07.2019
4435 Thunderstorm 28 1006 94 10000 1 180 14:46 30.07.2019
4436 Thunderstorm 28 1008 88 10000 2.6 240 14:27 30.07.2019
4437 Rain 28 1007 88 10000 1.5 200 13:59 30.07.2019
4438 Rain 28 1006 88 10000 1 160 13:40 30.07.2019
4439 Rain 28 1006 88 10000 4.6 210 13:22 30.07.2019
4440 Haze 29 1006 83 10000 1.5 180 12:46 30.07.2019
4441 Haze 29 1007 94 10000 3.1 220 12:28 30.07.2019
4442 Haze 29 1007 94 10000 3.6 220 11:58 30.07.2019
4443 Rain 29 1007 83 10000 2.6 210 11:38 30.07.2019
4444 Rain 29 1005 83 10000 2.1 180 11:18 30.07.2019
4445 Haze 29 1006 88 10000 2.1 210 10:39 30.07.2019
4446 Haze 29 1005 79 10000 2.1 180 10:20 30.07.2019
4447 Clouds 29 1006 83 10000 2.1 190 09:48 30.07.2019
4448 Clouds 30 1005 74 10000 8.3 194.127 09:29 30.07.2019
4449 Rain 30 1006 79 10000 1.5 160 08:43 30.07.2019
4450 Rain 30 1005 74 10000 2.6 170 08:20 30.07.2019
4451 Clouds 30 1006 79 10000 2.6 190 07:46 30.07.2019
4452 Haze 31 1006 70 10000 3.1 180 07:23 30.07.2019
4453 Haze 31 1006 70 10000 3.6 190 06:46 30.07.2019
4454 Haze 31 1006 70 10000 3.6 190 06:46 30.07.2019
4455 Rain 30 1006 74 10000 2.1 170 05:47 30.07.2019
4456 Rain 30 1007 79 10000 3.1 220 05:25 30.07.2019
4457 Haze 27 1008 94 10000 2.6 200 01:38 30.07.2019
4458 Rain 26 1007 83 10000 2.6 200 00:36 30.07.2019
4459 Rain 26 1008 94 10000 0.5 170 00:18 30.07.2019
4460 Rain 26 1008 100 10000 0.5 170 23:43 29.07.2019
4461 Rain 26 1009 83 10000 2.1 120 23:24 29.07.2019
4462 Rain 26 1009 100 4000 2.6 220 22:56 29.07.2019
4463 Clouds 26 1009 100 10000 3.1 210 22:38 29.07.2019
4464 Rain 26 1008 94 10000 1 170 22:18 29.07.2019
4465 Clouds 26 1008 94 10000 1 160 21:42 29.07.2019
4466 Clouds 26 1007 74 10000 7.17 181.998 21:23 29.07.2019
4467 Clouds 26 1007 78 10000 2.6 170 20:58 29.07.2019
4468 Rain 27 1009 88 10000 3.1 200 20:39 29.07.2019
4469 Rain 27 1008 88 10000 1 180 20:19 29.07.2019
4470 Clouds 27 1008 88 10000 1.5 180 19:47 29.07.2019
4471 Clouds 27 1009 83 10000 2.1 200 19:23 29.07.2019
4472 Haze 27 1009 83 10000 2.6 200 18:58 29.07.2019
4473 Haze 27 1009 83 10000 1.5 190 18:38 29.07.2019
4474 Haze 27 1008 83 10000 3.1 200 18:19 29.07.2019
4475 Haze 27 1008 88 10000 1 180 17:47 29.07.2019
4476 Haze 27 1009 83 10000 3.1 200 17:28 29.07.2019
4477 Haze 27 1009 88 10000 2.1 200 16:55 29.07.2019
4478 Haze 27 1009 88 10000 2.1 210 16:37 29.07.2019
4479 Haze 27 1009 106 10000 0.5 260 16:18 29.07.2019
4480 Haze 27 1009 100 10000 0.5 160 15:43 29.07.2019
4481 Haze 27 1009 100 10000 0.5 160 15:43 29.07.2019
4482 Haze 27 1010 88 10000 1.5 200 15:24 29.07.2019
4483 Clouds 28 1011 88 10000 2.1 150 14:42 29.07.2019
4484 Clouds 28 1009 88 10000 1 180 14:21 29.07.2019
4485 Haze 28 1008 88 10000 1.5 180 13:46 29.07.2019
4486 Haze 28 1009 88 10000 3.1 220 13:24 29.07.2019
4487 Haze 28 1007 74 10000 6.59 178.488 12:57 29.07.2019
4488 Haze 29 1007 70 10000 1.5 190 12:38 29.07.2019
4489 Haze 29 1008 79 10000 1 180 12:19 29.07.2019
4490 Haze 30 1009 83 10000 3.1 210 11:40 29.07.2019
4491 Haze 30 1007 74 10000 1.5 170 11:19 29.07.2019
4492 Haze 30 1007 74 10000 2.6 180 10:42 29.07.2019
4493 Haze 30 1009 78 10000 4.1 220 10:21 29.07.2019
4494 Haze 30 1007 70 10000 5.7 200 10:21 29.07.2019
4495 Haze 30 1009 78 10000 4.1 220 10:21 29.07.2019
4496 Haze 30 1007 74 10000 3.1 170 09:44 29.07.2019
4497 Haze 30 1009 78 10000 3.1 210 09:21 29.07.2019
4498 Haze 30 1008 79 10000 1 180 08:43 29.07.2019
4499 Haze 30 1008 79 10000 1 180 08:24 29.07.2019
4500 Haze 30 1009 79 10000 1 190 07:46 29.07.2019
4501 Haze 30 1010 78 10000 4.6 210 07:27 29.07.2019
4502 Haze 29 1009 70 10000 7.61 189.586 06:37 29.07.2019
4503 Haze 29 1009 70 10000 1.5 180 05:32 29.07.2019
4504 Clouds 27 1010 100 10000 0.5 170 02:49 29.07.2019
4505 Clouds 27 1010 106 10000 0.5 160 01:48 29.07.2019
4506 Clouds 27 1011 88 10000 2.6 180 01:27 29.07.2019
4507 Clouds 26 1011 83 10000 2.6 190 00:56 29.07.2019
4508 Clouds 26 1010 106 10000 0.5 160 00:23 29.07.2019
4509 Clouds 26 1011 88 10000 2.6 180 23:41 28.07.2019
4510 Clouds 26 1011 88 10000 2.6 180 23:22 28.07.2019
4511 Clouds 26 1011 94 10000 0.5 170 23:22 28.07.2019
4512 Clouds 25 1011 88 10000 2.1 210 22:43 28.07.2019
4513 Clouds 26 1011 88 10000 2.1 210 22:24 28.07.2019
4514 Clouds 26 1011 88 10000 1.5 190 21:50 28.07.2019
4515 Clouds 26 1009 88 10000 4.49 202.77 21:20 28.07.2019
4516 Clouds 26 1009 106 6000 0.5 190 20:49 28.07.2019
4517 Clouds 26 1011 100 10000 1.5 200 20:30 28.07.2019
4518 Rain 25 1011 94 10000 0.5 100 19:57 28.07.2019
4519 Rain 25 1011 100 10000 1 220 19:38 28.07.2019
4520 Clouds 25 1009 106 4800 5.53 192.438 19:20 28.07.2019
4521 Rain 26 1009 94 10000 1.5 240 18:44 28.07.2019
4522 Rain 26 1009 94 10000 1.5 240 18:25 28.07.2019
4523 Rain 26 1009 106 10000 0.5 110 17:43 28.07.2019
4524 Rain 26 1009 106 10000 5.58 188.478 17:22 28.07.2019
4525 Rain 26 1011 94 10000 2.6 210 16:59 28.07.2019
4526 Clouds 26 1010 106 10000 0.5 90 16:40 28.07.2019
4527 Clouds 27 1009 88 10000 5.58 188.478 16:22 28.07.2019
4528 Rain 26 1011 106 10000 3.1 160 15:43 28.07.2019
4529 Rain 26 1011 88 10000 1.5 130 15:22 28.07.2019
4530 Rain 26 1010 100 8000 1 180 14:38 28.07.2019
4531 Clouds 26 1009 106 10000 1 220 14:19 28.07.2019
4532 Clouds 25 1010 100 10000 1.5 240 13:55 28.07.2019
4533 Clouds 26 1008 88 10000 7.07 181.216 13:36 28.07.2019
4534 Clouds 26 1009 112 10000 0.5 200 13:18 28.07.2019
4535 Clouds 26 1009 94 10000 2.1 210 12:40 28.07.2019
4536 Rain 26 1008 106 10000 1.5 190 12:22 28.07.2019
4537 Rain 26 1008 112 10000 1.5 180 11:48 28.07.2019
4538 Rain 26 1008 94 10000 2.1 200 11:27 28.07.2019
4539 Rain 26 1007 88 4400 1.5 250 10:41 28.07.2019
4540 Rain 26 1007 88 4400 1.5 250 10:22 28.07.2019
4541 Rain 26 1008 112 6000 1 200 09:47 28.07.2019
4542 Rain 27 1009 94 2000 0.5 140 09:29 28.07.2019
4543 Rain 27 1009 94 8000 2.1 120 08:52 28.07.2019
4544 Rain 27 1009 94 10000 1.5 180 08:30 28.07.2019
4545 Rain 27 1009 88 10000 2.6 180 07:59 28.07.2019
4546 Rain 27 1009 94 10000 2.1 200 07:37 28.07.2019
4547 Rain 26 1010 106 10000 0.5 180 06:45 28.07.2019
4548 Rain 26 1008 112 6000 0.5 250 05:44 28.07.2019
4549 Rain 26 1008 88 10000 7.71 179.339 03:31 28.07.2019
4550 Rain 26 1008 88 10000 7.4 166.679 02:24 28.07.2019
4551 Rain 26 1007 100 7000 3.6 210 01:20 28.07.2019
4552 Rain 26 1007 100 4800 1 150 00:45 28.07.2019
4553 Rain 26 1007 106 6000 0.5 270 00:19 28.07.2019
4554 Rain 26 1007 100 4800 0.5 160 23:46 27.07.2019
4555 Rain 26 1007 100 4000 2.1 180 23:20 27.07.2019
4556 Rain 26 1006 88 10000 6.84 156.066 22:41 27.07.2019
4557 Rain 26 1007 106 4000 0.5 240 22:41 27.07.2019
4558 Rain 26 1007 106 3200 1 230 22:20 27.07.2019
4559 Rain 26 1008 94 6000 1 120 21:41 27.07.2019
4560 Rain 26 1007 106 2000 0.5 240 21:20 27.07.2019
4561 Rain 26 1006 88 10000 2.6 160 20:51 27.07.2019
4562 Rain 26 1006 83 10000 2.6 200 20:25 27.07.2019
4563 Rain 27 1006 94 10000 2.6 190 19:48 27.07.2019
4564 Thunderstorm 26 1008 100 6000 1 190 19:27 27.07.2019
4565 Rain 27 1006 88 4000 4.1 160 18:55 27.07.2019
4566 Rain 27 1008 100 6000 0.5 130 18:36 27.07.2019
4567 Rain 26 1008 100 6000 0.5 50 17:57 27.07.2019
4568 Rain 26 1008 100 6000 0.5 50 17:57 27.07.2019
4569 Rain 26 1008 100 8000 0.5 150 17:36 27.07.2019
4570 Rain 26 1007 106 10000 0.5 240 17:18 27.07.2019
4571 Rain 27 1007 106 10000 0.5 240 16:46 27.07.2019
4572 Rain 27 1008 94 9000 0.5 350 16:28 27.07.2019
4573 Rain 27 1006 79 10000 4.76 167.215 15:53 27.07.2019
4574 Clear 27 1008 94 10000 0.5 120 15:22 27.07.2019
4575 Clouds 28 1006 94 10000 1 180 14:51 27.07.2019
4576 Clear 28 1007 88 10000 4.83 161.708 14:32 27.07.2019
4577 Rain 28 1007 88 10000 1 220 13:56 27.07.2019
4578 Rain 28 1007 94 10000 1 220 13:38 27.07.2019
4579 Rain 28 1005 88 10000 2.1 180 13:19 27.07.2019
4580 Rain 29 1007 79 10000 1.5 280 12:41 27.07.2019
4581 Rain 30 1005 84 10000 1 190 12:21 27.07.2019
4582 Rain 31 1005 79 10000 2.6 180 11:42 27.07.2019
4583 Rain 31 1005 79 10000 2.6 180 11:42 27.07.2019
4584 Rain 31 1005 74 10000 1.5 180 11:24 27.07.2019
4585 Haze 31 1004 70 10000 3.1 180 10:42 27.07.2019
4586 Haze 32 1004 66 10000 2.6 190 10:23 27.07.2019
4587 Haze 32 1004 56 10000 2.1 210 09:45 27.07.2019
4588 Haze 32 1006 62 10000 1.5 240 09:24 27.07.2019
4589 Haze 32 1006 70 10000 1 20 08:53 27.07.2019
4590 Haze 33 1006 59 10000 2.1 170 08:53 27.07.2019
4591 Haze 32 1006 62 10000 0.5 260 08:34 27.07.2019
4592 Haze 32 1006 66 10000 1 270 07:58 27.07.2019
4593 Haze 32 1006 70 10000 1 240 07:40 27.07.2019
4594 Haze 32 1005 56 10000 1.5 180 07:20 27.07.2019
4595 Haze 32 1005 56 10000 1.5 180 07:20 27.07.2019
4596 Haze 32 1005 59 10000 2.1 230 06:49 27.07.2019
4597 Haze 31 1005 66 10000 2.1 210 06:21 27.07.2019
4598 Haze 30 1007 74 10000 1.5 190 05:35 27.07.2019
4599 Haze 30 1006 79 10000 1.5 210 04:41 27.07.2019
4600 Mist 29 1007 74 9000 1.5 310 03:40 27.07.2019
4601 Mist 27 1006 100 10000 1 330 02:43 27.07.2019
4602 Mist 26 1007 94 6000 1 360 01:57 27.07.2019
4603 Mist 26 1007 94 6000 0.5 70 01:32 27.07.2019
4604 Mist 25 1007 94 6000 1.5 60 00:38 27.07.2019
4605 Mist 25 1005 100 5000 1.5 170 00:18 27.07.2019
4606 Mist 25 1005 106 4800 0.5 320 23:41 26.07.2019
4607 Mist 25 1005 100 3600 3.34 170.394 23:23 26.07.2019
4608 Mist 25 1005 100 6000 0.5 360 22:42 26.07.2019
4609 Mist 25 1005 100 3600 3.34 170.394 22:24 26.07.2019
4610 Mist 25 1004 100 3600 3.34 170.394 21:51 26.07.2019
4611 Rain 25 1006 100 4000 1.5 50 21:20 26.07.2019
4612 Rain 25 1004 100 3200 1 360 20:51 26.07.2019
4613 Rain 25 1004 100 6000 1.37 112.244 20:32 26.07.2019
4614 Rain 25 1004 106 3200 1 350 19:45 26.07.2019
4615 Rain 25 1004 100 4800 1.37 112.244 19:26 26.07.2019
4616 Rain 25 1004 100 6000 1.37 112.244 18:59 26.07.2019
4617 Rain 25 1004 100 6000 1.37 112.244 18:41 26.07.2019
4618 Rain 25 1005 106 3200 1 30 18:20 26.07.2019
4619 Rain 25 1005 100 4000 0.5 40 17:48 26.07.2019
4620 Rain 25 1005 100 3200 1.5 320 17:20 26.07.2019
4621 Rain 25 1004 94 4800 1.6 179.641 16:59 26.07.2019
4622 Rain 26 1005 106 4000 0.5 310 16:41 26.07.2019
4623 Rain 26 1004 94 4800 1.6 179.641 16:21 26.07.2019
4624 Rain 26 1004 94 6000 1.6 179.641 15:59 26.07.2019
4625 Rain 25 1006 100 800 0.5 10 15:40 26.07.2019
4626 Rain 25 1005 106 3200 1 330 15:20 26.07.2019
4627 Rain 26 1005 106 1600 1 350 14:44 26.07.2019
4628 Rain 26 1006 94 4800 0.5 200 14:23 26.07.2019
4629 Rain 26 1004 112 4800 0.5 40 13:47 26.07.2019
4630 Rain 26 1003 100 5000 2.1 40 13:27 26.07.2019
4631 Rain 26 1003 106 9000 0.5 240 12:49 26.07.2019
4632 Rain 26 1005 94 8000 0.5 100 12:23 26.07.2019
4633 Rain 26 1005 100 9000 1 30 11:56 26.07.2019
4634 Rain 26 1004 100 9000 0.5 20 11:36 26.07.2019
4635 Rain 26 1003 106 10000 0.5 320 11:18 26.07.2019
4636 Rain 26 1004 94 6000 1.5 320 10:39 26.07.2019
4637 Rain 26 1003 106 10000 0.5 170 10:19 26.07.2019
4638 Rain 27 1003 106 10000 1 180 09:50 26.07.2019
4639 Rain 26 1005 94 6000 1.5 250 09:27 26.07.2019
4640 Rain 26 1005 94 10000 2.1 210 08:41 26.07.2019
4641 Rain 26 1003 106 10000 1 180 08:21 26.07.2019
4642 Rain 25 1003 88 10000 1.6 194.08 07:40 26.07.2019
4643 Rain 25 1003 88 10000 1.6 194.08 07:21 26.07.2019
4644 Rain 25 1004 106 10000 1 180 06:21 26.07.2019
4645 Rain 24 1005 100 6000 0.5 100 04:30 26.07.2019
4646 Rain 24 1004 106 2000 0.5 150 03:51 26.07.2019
4647 Rain 25 1004 100 400 1 170 01:46 26.07.2019
4648 Rain 25 1004 106 1200 1 270 01:18 26.07.2019
4649 Rain 25 1003 100 2400 3.1 270 00:28 26.07.2019
4650 Rain 26 1003 100 6000 2.1 180 23:44 25.07.2019
4651 Rain 26 1003 100 4800 2.1 170 23:20 25.07.2019
4652 Mist 25 1003 100 4800 3.1 170 22:41 25.07.2019
4653 Mist 25 1003 100 6000 2.6 180 22:21 25.07.2019
4654 Rain 25 1003 100 4800 3.1 170 21:47 25.07.2019
4655 Rain 25 1002 88 8000 2.6 180 21:23 25.07.2019
4656 Mist 25 1004 100 1600 3.6 210 20:51 25.07.2019
4657 Mist 26 1002 94 9000 5.33 174.136 20:33 25.07.2019
4658 Rain 26 1002 94 4800 2.6 190 19:57 25.07.2019
4659 Rain 26 1002 94 10000 3.6 190 19:39 25.07.2019
4660 Rain 26 1003 106 2000 0.5 170 19:21 25.07.2019
4661 Rain 26 1004 100 1200 2.1 190 18:41 25.07.2019
4662 Rain 26 1004 106 2800 0.5 190 18:22 25.07.2019
4663 Rain 26 1004 106 2000 0.5 180 17:48 25.07.2019
4664 Rain 26 1005 100 800 2.6 200 17:30 25.07.2019
4665 Mist 26 1006 100 1200 2.1 210 16:56 25.07.2019
4666 Mist 26 1004 88 6000 5.05 169.729 16:37 25.07.2019
4667 Mist 26 1005 106 4800 0.5 150 16:19 25.07.2019
4668 Mist 26 1005 106 4800 0.5 170 15:42 25.07.2019
4669 Mist 26 1005 106 3200 0.5 100 15:19 25.07.2019
4670 Mist 26 1005 106 4800 0.5 170 14:42 25.07.2019
4671 Mist 26 1004 94 8000 3.52 173.859 14:22 25.07.2019
4672 Mist 26 1004 106 8000 3.52 173.859 13:44 25.07.2019
4673 Mist 26 1003 94 8000 3.03 177.37 13:26 25.07.2019
4674 Mist 26 1003 94 8000 3.03 177.37 13:26 25.07.2019
4675 Rain 26 1003 94 9000 3.03 177.37 12:55 25.07.2019
4676 Rain 26 1003 88 10000 2.72 187.535 12:28 25.07.2019
4677 Rain 26 1004 106 4000 0.5 180 11:45 25.07.2019
4678 Rain 27 1003 88 3000 2.72 187.535 11:24 25.07.2019
4679 Rain 27 1005 83 10000 0.5 210 10:55 25.07.2019
4680 Rain 27 1005 83 10000 0.5 210 10:55 25.07.2019
4681 Rain 27 1005 88 10000 1.5 180 10:36 25.07.2019
4682 Rain 27 1003 100 10000 0.5 280 10:18 25.07.2019
4683 Rain 27 1003 88 4800 2.72 187.535 09:40 25.07.2019
4684 Rain 27 1003 83 10000 1.5 160 08:59 25.07.2019
4685 Rain 27 1004 94 10000 1.5 180 08:40 25.07.2019
4686 Mist 27 1006 106 6000 1 260 07:55 25.07.2019
4687 Mist 27 1006 106 4000 1 190 07:30 25.07.2019
4688 Rain 27 1004 94 6000 5.29 191.784 06:42 25.07.2019
4689 Rain 27 1004 94 10000 1 280 06:42 25.07.2019
4690 Rain 26 1004 88 10000 1.5 160 05:37 25.07.2019
4691 Mist 27 1004 88 10000 5.88 187.334 04:57 25.07.2019
4692 Mist 27 1006 83 10000 1 120 04:19 25.07.2019
4693 Rain 26 1007 106 6000 2.6 110 01:31 25.07.2019
4694 Rain 26 1004 94 6000 4.29 166.197 00:45 25.07.2019
4695 Rain 26 1005 106 2400 0.5 170 00:19 25.07.2019
4696 Rain 25 1005 106 2000 4.35 169.904 23:44 24.07.2019
4697 Rain 26 1004 94 6000 4.35 169.904 23:25 24.07.2019
4698 Rain 26 1004 106 1600 0.5 10 22:47 24.07.2019
4699 Rain 26 1004 94 4400 4.35 169.904 22:25 24.07.2019
4700 Mist 26 1004 94 8000 4.35 169.904 21:59 24.07.2019
4701 Rain 26 1004 106 2400 0.5 340 21:41 24.07.2019
4702 Rain 26 1004 106 4000 0.5 40 21:20 24.07.2019
4703 Rain 26 1004 106 4000 0.5 40 21:20 24.07.2019
4704 Rain 26 1004 106 3200 0.5 40 20:48 24.07.2019
4705 Rain 26 1005 88 9000 4.39 166.214 20:29 24.07.2019
4706 Mist 26 1005 88 8000 1 30 19:59 24.07.2019
4707 Mist 26 1004 112 6000 0.5 10 19:41 24.07.2019
4708 Mist 26 1005 112 8000 0.5 330 19:20 24.07.2019
4709 Mist 26 1006 88 9000 1 130 18:44 24.07.2019
4710 Mist 26 1004 94 6000 2.1 290 18:24 24.07.2019
4711 Mist 26 1005 106 8000 0.5 330 17:48 24.07.2019
4712 Mist 26 1004 88 10000 3.78 170.473 17:24 24.07.2019
4713 Mist 26 1006 94 10000 0.5 30 16:59 24.07.2019
4714 Mist 26 1006 94 10000 0.5 120 16:39 24.07.2019
4715 Mist 26 1005 100 9000 1 330 16:20 24.07.2019
4716 Mist 26 1004 83 10000 3.78 170.473 15:38 24.07.2019
4717 Mist 26 1005 100 9000 0.5 50 15:19 24.07.2019
4718 Mist 27 1005 94 10000 0.5 130 14:46 24.07.2019
4719 Mist 27 1004 94 10000 0.5 50 14:21 24.07.2019
4720 Mist 27 1005 88 10000 0.5 90 13:40 24.07.2019
4721 Mist 27 1004 94 10000 0.5 200 13:22 24.07.2019
4722 Mist 27 1006 106 4800 1 270 12:54 24.07.2019
4723 Mist 27 1006 106 6000 0.5 30 12:35 24.07.2019
4724 Mist 27 1006 106 4800 1 280 11:55 24.07.2019
4725 Mist 28 1006 106 4800 1 250 11:37 24.07.2019
4726 Mist 28 1004 88 10000 1.5 180 11:18 24.07.2019
4727 Rain 28 1006 100 4800 1 220 10:41 24.07.2019
4728 Rain 28 1006 100 4800 1 220 10:23 24.07.2019
4729 Rain 28 1004 88 10000 1.5 200 09:44 24.07.2019
4730 Haze 28 1004 88 10000 1.5 180 09:22 24.07.2019
4731 Haze 28 1004 88 10000 2.1 210 08:44 24.07.2019
4732 Haze 28 1004 78 8000 5.55 194.317 08:22 24.07.2019
4733 Haze 27 1004 88 10000 0.5 160 07:46 24.07.2019
4734 Mist 27 1004 94 10000 1.5 260 07:20 24.07.2019
4735 Rain 27 1003 88 10000 1.5 160 06:28 24.07.2019
4736 Haze 27 1005 106 9000 1.5 200 05:22 24.07.2019
4737 Mist 26 1005 100 10000 1 180 01:50 24.07.2019
4738 Rain 26 1004 88 10000 2.1 170 00:58 24.07.2019
4739 Rain 26 1006 112 10000 1.5 180 00:39 24.07.2019
4740 Mist 25 1006 112 10000 1 170 23:54 23.07.2019
4741 Drizzle 25 1005 106 9000 0.5 210 23:27 23.07.2019
4742 Rain 25 1005 106 4000 0.5 210 22:59 23.07.2019
4743 Rain 25 1003 100 6000 3.1 190 22:38 23.07.2019
4744 Rain 26 1003 78 10000 1.5 170 22:19 23.07.2019
4745 Rain 26 1003 100 10000 0.5 180 21:45 23.07.2019
4746 Rain 26 1005 112 6000 0.5 220 21:26 23.07.2019
4747 Rain 26 1003 94 10000 1 180 20:49 23.07.2019
4748 Rain 26 1005 100 10000 0.5 210 20:29 23.07.2019
4749 Rain 26 1004 94 10000 0.5 170 19:44 23.07.2019
4750 Rain 26 1004 94 10000 0.5 170 19:44 23.07.2019
4751 Rain 27 1003 78 10000 4.81 172.473 19:24 23.07.2019
4752 Rain 27 1003 78 10000 4.81 172.473 19:24 23.07.2019
4753 Haze 27 1006 88 10000 1.5 180 18:58 23.07.2019
4754 Haze 27 1003 78 10000 4.81 172.473 18:39 23.07.2019
4755 Haze 27 1004 88 10000 0.5 130 18:20 23.07.2019
4756 Haze 27 1004 88 10000 0.5 170 17:42 23.07.2019
4757 Haze 27 1004 88 10000 0.5 170 17:42 23.07.2019
4758 Haze 27 1006 88 10000 0.5 210 17:21 23.07.2019
4759 Haze 27 1004 88 10000 0.5 180 16:44 23.07.2019
4760 Haze 27 1006 88 10000 0.5 230 16:26 23.07.2019
4761 Haze 27 1004 83 10000 1 170 15:51 23.07.2019
4762 Haze 27 1006 88 10000 0.5 210 15:32 23.07.2019
4763 Haze 28 1004 74 10000 4.34 203.932 14:55 23.07.2019
4764 Haze 28 1006 88 10000 1 230 14:36 23.07.2019
4765 Haze 28 1004 83 10000 0.5 150 14:18 23.07.2019
4766 Haze 28 1003 74 10000 0.5 190 13:42 23.07.2019
4767 Haze 29 1003 70 10000 1 170 13:23 23.07.2019
4768 Haze 30 1003 70 10000 1 230 12:54 23.07.2019
4769 Haze 30 1005 70 10000 0.5 250 12:36 23.07.2019
4770 Haze 30 1003 66 10000 2.1 280 12:18 23.07.2019
4771 Haze 31 1005 66 10000 2.1 220 11:41 23.07.2019
4772 Haze 31 1002 62 10000 0.5 230 11:20 23.07.2019
4773 Haze 32 1002 55 10000 2.1 210 10:43 23.07.2019
4774 Haze 32 1003 55 10000 1.5 220 10:22 23.07.2019
4775 Clouds 32 1004 55 10000 1.5 150 09:42 23.07.2019
4776 Clouds 33 1003 52 10000 2.1 230 09:22 23.07.2019
4777 Clouds 32 1003 59 10000 1.5 180 08:44 23.07.2019
4778 Clouds 32 1003 59 10000 0.5 10 08:20 23.07.2019
4779 Clouds 32 1004 62 10000 0.5 40 07:57 23.07.2019
4780 Clouds 32 1006 62 10000 1.5 130 07:37 23.07.2019
4781 Clouds 31 1007 66 10000 1 360 06:50 23.07.2019
4782 Clouds 31 1007 66 10000 1 360 06:31 23.07.2019
4783 Mist 28 1008 83 9000 0.5 90 03:55 23.07.2019
4784 Mist 26 1008 100 2000 0.5 210 01:35 23.07.2019
4785 Drizzle 25 1008 106 1600 1.5 340 00:32 23.07.2019
4786 Mist 25 1008 106 2400 0.5 60 23:56 22.07.2019
4787 Mist 25 1008 106 2000 0.5 250 23:38 22.07.2019
4788 Mist 25 1007 106 3200 3.62 159.983 23:18 22.07.2019
4789 Mist 25 1007 100 4000 0.5 150 22:44 22.07.2019
4790 Mist 24 1007 88 9000 3.62 159.983 22:22 22.07.2019
4791 Mist 24 1007 100 6000 0.5 190 21:43 22.07.2019
4792 Mist 24 1006 88 9000 2.99 168.829 21:23 22.07.2019
4793 Drizzle 25 1006 94 3500 2.6 150 20:51 22.07.2019
4794 Drizzle 24 1008 94 9000 0.5 340 20:33 22.07.2019
4795 Mist 24 1009 112 3200 0.5 230 19:58 22.07.2019
4796 Mist 24 1006 78 10000 3.2 176.524 19:38 22.07.2019
4797 Mist 24 1007 106 4800 0.5 170 19:19 22.07.2019
4798 Mist 24 1007 106 4800 0.5 160 18:46 22.07.2019
4799 Mist 24 1009 106 3200 0.5 160 18:27 22.07.2019
4800 Mist 24 1009 100 4000 0.5 180 17:54 22.07.2019
4801 Mist 25 1009 106 4000 0.5 260 17:35 22.07.2019
4802 Mist 25 1009 112 4000 0.5 230 16:59 22.07.2019
4803 Mist 25 1009 106 4000 1 240 16:38 22.07.2019
4804 Mist 25 1009 106 4000 1 240 16:38 22.07.2019
4805 Mist 25 1006 100 6000 0.5 170 16:20 22.07.2019
4806 Mist 26 1006 100 6000 0.5 150 15:44 22.07.2019
4807 Mist 26 1006 94 6000 0.5 210 15:19 22.07.2019
4808 Mist 26 1006 88 6000 1.5 160 14:44 22.07.2019
4809 Mist 26 1008 94 6000 2.6 240 14:22 22.07.2019
4810 Mist 27 1006 83 8000 0.5 180 13:50 22.07.2019
4811 Mist 27 1008 88 8000 1.5 250 13:30 22.07.2019
4812 Haze 29 1005 74 9000 0.5 200 12:51 22.07.2019
4813 Haze 29 1007 78 8000 1.5 220 12:31 22.07.2019
4814 Haze 30 1007 74 8000 2.1 220 11:55 22.07.2019
4815 Haze 31 1007 70 8000 1.5 220 11:36 22.07.2019
4816 Haze 31 1004 58 10000 1 190 11:18 22.07.2019
4817 Haze 31 1006 62 9000 1.5 210 10:34 22.07.2019
4818 Haze 31 1004 58 8000 2.1 250 09:46 22.07.2019
4819 Haze 31 1007 66 8000 1.5 170 09:26 22.07.2019
4820 Haze 31 1006 59 10000 1 190 08:59 22.07.2019
4821 Haze 31 1007 58 10000 2.1 230 08:37 22.07.2019
4822 Haze 31 1005 55 8000 2.6 170 08:18 22.07.2019
4823 Haze 31 1005 55 6000 1 150 07:46 22.07.2019
4824 Haze 30 1005 62 6000 1 200 07:27 22.07.2019
4825 Mist 27 1008 83 4800 1 190 04:56 22.07.2019
4826 Mist 26 1007 83 4800 3.1 250 02:58 22.07.2019
4827 Mist 25 1009 100 3200 1.5 220 00:58 22.07.2019
4828 Mist 25 1008 100 3200 1.5 230 00:38 22.07.2019
4829 Mist 25 1006 100 4000 4.44 211.373 00:18 22.07.2019
4830 Haze 25 1006 100 4000 0.5 150 23:43 21.07.2019
4831 Mist 25 1008 106 3200 1.5 200 22:57 21.07.2019
4832 Mist 24 1008 106 3200 1.5 200 22:38 21.07.2019
4833 Rain 25 1006 100 4000 0.5 200 22:20 21.07.2019
4834 Drizzle 25 1006 94 4000 1.5 230 21:48 21.07.2019
4835 Drizzle 24 1008 106 400 2.1 190 21:25 21.07.2019
4836 Drizzle 24 1007 106 2400 0.5 200 20:56 21.07.2019
4837 Mist 24 1007 106 2400 1 200 20:38 21.07.2019
4838 Mist 24 1007 88 4800 1.5 260 20:20 21.07.2019
4839 Mist 24 1006 100 8000 0.5 200 19:47 21.07.2019
4840 Mist 24 1007 112 2400 1.5 200 19:26 21.07.2019
4841 Mist 25 1006 100 8000 0.5 170 18:48 21.07.2019
4842 Mist 25 1007 83 6000 1.5 300 18:26 21.07.2019
4843 Mist 25 1005 88 10000 1 230 17:44 21.07.2019
4844 Mist 25 1007 100 3200 2.1 200 17:21 21.07.2019
4845 Haze 25 1007 100 3200 2.1 180 16:59 21.07.2019
4846 Haze 25 1005 83 8000 1 180 16:40 21.07.2019
4847 Haze 25 1005 83 8000 1.5 210 16:20 21.07.2019
4848 Mist 25 1007 94 4800 2.1 180 15:39 21.07.2019
4849 Haze 25 1005 88 10000 0.5 110 15:19 21.07.2019
4850 Mist 25 1004 83 10000 6.79 239.816 14:42 21.07.2019
4851 Mist 25 1004 83 10000 6.79 239.816 14:23 21.07.2019
4852 Mist 26 1006 83 10000 2.1 240 13:53 21.07.2019
4853 Mist 26 1006 88 8000 1.5 190 13:32 21.07.2019
4854 Mist 26 1004 83 10000 1.5 170 12:46 21.07.2019
4855 Mist 26 1005 88 10000 2.6 200 12:28 21.07.2019
4856 Haze 26 1005 88 10000 2.6 200 11:55 21.07.2019
4857 Haze 26 1004 94 10000 2.6 200 11:37 21.07.2019
4858 Haze 26 1002 83 10000 3.1 190 11:18 21.07.2019
4859 Haze 27 1004 100 10000 2.6 210 10:41 21.07.2019
4860 Haze 27 1004 100 10000 2.6 210 10:22 21.07.2019
4861 Haze 27 1002 88 10000 2.6 180 09:42 21.07.2019
4862 Haze 27 1003 88 10000 3.1 200 09:24 21.07.2019
4863 Haze 27 1001 94 10000 1 160 08:45 21.07.2019
4864 Haze 27 1001 94 10000 1 160 08:45 21.07.2019
4865 Haze 27 1001 78 9000 1.5 230 08:26 21.07.2019
4866 Mist 26 1001 88 9000 1.5 220 07:38 21.07.2019
4867 Rain 26 1001 100 10000 1 180 06:52 21.07.2019
4868 Rain 26 1001 88 9000 4.51 236.765 05:43 21.07.2019
4869 Mist 24 1002 112 10000 1.5 230 02:52 21.07.2019
4870 Rain 24 1000 100 8000 2.6 290 01:19 21.07.2019
4871 Rain 24 1000 94 6000 1 340 00:39 21.07.2019
4872 Rain 24 999 94 6000 3.6 320 00:18 21.07.2019
4873 Rain 24 998 100 3000 4.04 319.591 23:39 20.07.2019
4874 Rain 24 998 100 4000 2.1 320 23:19 20.07.2019
4875 Rain 24 998 100 4800 4.04 319.591 22:42 20.07.2019
4876 Rain 24 998 100 5000 1.5 330 22:21 20.07.2019
4877 Rain 24 998 100 4500 2.1 360 21:45 20.07.2019
4878 Rain 24 999 94 4000 2.1 310 21:25 20.07.2019
4879 Rain 24 997 94 6000 2.86 353.116 20:45 20.07.2019
4880 Rain 24 997 94 6000 2.86 353.116 20:24 20.07.2019
4881 Rain 25 997 88 4800 2.86 353.116 19:59 20.07.2019
4882 Rain 25 998 94 4800 1.5 30 19:38 20.07.2019
4883 Rain 25 998 106 10000 1 340 19:19 20.07.2019
4884 Rain 26 998 83 10000 2.86 353.116 18:40 20.07.2019
4885 Rain 26 998 100 9000 1 30 18:19 20.07.2019
4886 Rain 26 998 88 10000 1 10 17:48 20.07.2019
4887 Rain 27 998 78 10000 1 340 17:20 20.07.2019
4888 Rain 27 998 78 10000 1 340 17:20 20.07.2019
4889 Haze 28 998 74 10000 1 40 16:43 20.07.2019
4890 Haze 28 1000 74 10000 2.1 10 16:24 20.07.2019
4891 Rain 28 1001 66 10000 2.1 80 15:56 20.07.2019
4892 Rain 28 1001 66 10000 1.5 50 15:37 20.07.2019
4893 Rain 28 999 74 10000 0.5 10 15:18 20.07.2019
4894 Rain 28 999 66 10000 1 350 14:43 20.07.2019
4895 Rain 28 999 69 10000 2.6 100 14:20 20.07.2019
4896 Haze 28 1001 66 10000 1 330 13:38 20.07.2019
4897 Haze 28 999 66 10000 1.5 30 13:19 20.07.2019
4898 Rain 29 999 66 10000 2.1 10 12:52 20.07.2019
4899 Rain 28 998 62 10000 0.5 200 12:20 20.07.2019
4900 Haze 29 998 74 10000 10.26 79.796 11:55 20.07.2019
4901 Rain 29 1000 62 10000 3.6 80 11:23 20.07.2019
4902 Rain 30 1000 62 10000 2.1 60 10:55 20.07.2019
4903 Haze 30 1000 62 10000 3.1 20 10:26 20.07.2019
4904 Haze 30 1000 58 10000 2.6 100 09:55 20.07.2019
4905 Haze 31 1001 58 10000 2.6 110 09:37 20.07.2019
4906 Haze 31 999 58 10000 1.5 350 09:18 20.07.2019
4907 Haze 31 1001 58 10000 1.5 80 08:38 20.07.2019
4908 Haze 31 999 62 10000 1.5 10 08:19 20.07.2019
4909 Rain 30 1000 62 10000 1 360 07:18 20.07.2019
4910 Rain 30 1002 55 10000 1.5 110 06:31 20.07.2019
4911 Rain 28 1000 66 10000 2.1 70 04:31 20.07.2019
4912 Rain 26 1002 78 4800 1.5 70 02:36 20.07.2019
4913 Rain 27 1003 69 10000 1 30 01:21 20.07.2019
4914 Rain 27 1004 65 10000 1.5 350 00:45 20.07.2019
4915 Rain 27 1004 65 10000 2.1 20 00:18 20.07.2019
4916 Rain 27 1005 65 10000 2.6 50 23:43 19.07.2019
4917 Rain 27 1004 69 10000 1.5 10 23:22 19.07.2019
4918 Rain 27 1003 65 10000 1.5 60 22:44 19.07.2019
4919 Rain 27 1003 65 10000 1.5 60 22:25 19.07.2019
4920 Haze 27 1004 74 10000 1.5 10 21:47 19.07.2019
4921 Haze 27 1006 69 10000 3.1 80 21:29 19.07.2019
4922 Rain 27 1004 83 10000 1 360 20:50 19.07.2019
4923 Clouds 27 1006 78 10000 1.5 340 20:31 19.07.2019
4924 Clouds 27 1007 78 10000 1 360 19:55 19.07.2019
4925 Clouds 27 1007 78 10000 0.5 80 19:34 19.07.2019
4926 Clouds 27 1005 88 10000 1 40 18:43 19.07.2019
4927 Haze 27 1005 88 10000 0.5 300 18:22 19.07.2019
4928 Mist 27 1007 83 10000 1 360 17:55 19.07.2019
4929 Haze 27 1008 74 10000 0.5 30 17:29 19.07.2019
4930 Haze 27 1006 88 10000 1 30 16:49 19.07.2019
4931 Haze 27 1008 74 10000 0.5 110 16:29 19.07.2019
4932 Haze 27 1006 83 10000 0.5 40 15:55 19.07.2019
4933 Haze 27 1008 74 10000 1 90 15:36 19.07.2019
4934 Haze 28 1006 88 10000 1 40 15:18 19.07.2019
4935 Haze 28 1006 83 10000 0.5 360 14:43 19.07.2019
4936 Haze 28 1006 83 10000 1 330 14:23 19.07.2019
4937 Rain 28 1006 83 10000 0.5 20 13:46 19.07.2019
4938 Rain 28 1008 70 10000 2.6 150 13:26 19.07.2019
4939 Haze 29 1005 74 10000 2.1 120 12:56 19.07.2019
4940 Haze 29 1005 78 10000 1.88 131.094 12:36 19.07.2019
4941 Rain 29 1006 66 10000 4.1 180 12:18 19.07.2019
4942 Rain 30 1006 66 10000 2.6 190 11:43 19.07.2019
4943 Rain 30 1005 62 10000 3.1 170 11:18 19.07.2019
4944 Haze 31 1005 62 10000 2.1 180 10:47 19.07.2019
4945 Haze 32 1007 70 10000 4.1 130 10:22 19.07.2019
4946 Clouds 32 1004 52 10000 3.1 160 09:58 19.07.2019
4947 Fog 33 1007 44 10000 2.6 120 09:40 19.07.2019
4948 Fog 33 1006 58 800 4.6 120 09:21 19.07.2019
4949 Haze 33 1005 46 10000 2.6 170 08:48 19.07.2019
4950 Mist 34 1007 44 10000 3.1 140 07:55 19.07.2019
4951 Fog 34 1007 44 10000 3.1 160 07:29 19.07.2019
4952 Haze 33 1007 46 10000 1.5 50 05:57 19.07.2019
4953 Haze 27 1006 69 10000 1.5 10 02:23 19.07.2019
4954 Haze 25 1007 83 6000 1 20 01:20 19.07.2019
4955 Haze 24 1009 100 2000 0.5 330 00:42 19.07.2019
4956 Haze 23 1010 100 2400 0.5 50 23:57 18.07.2019
4957 Haze 22 1010 100 2800 1.2 88.952 23:39 18.07.2019
4958 Mist 22 1008 100 6000 0.5 50 23:19 18.07.2019
4959 Mist 22 1008 100 6000 0.5 50 23:19 18.07.2019
4960 Mist 22 1009 100 3200 0.5 260 22:40 18.07.2019
4961 Mist 22 1008 100 6000 1.2 88.952 22:19 18.07.2019
4962 Mist 22 1008 100 6000 0.5 30 21:44 18.07.2019
4963 Mist 22 1009 100 3200 0.5 230 21:26 18.07.2019
4964 Mist 23 1007 100 8000 0.5 140 20:51 18.07.2019
4965 Mist 23 1009 100 3200 0.5 350 20:29 18.07.2019
4966 Mist 23 1009 94 3200 0.5 320 19:57 18.07.2019
4967 Mist 23 1009 88 3200 0.5 290 19:38 18.07.2019
4968 Mist 23 1008 94 10000 0.5 180 19:18 18.07.2019
4969 Mist 24 1010 88 4000 0.5 240 18:41 18.07.2019
4970 Mist 24 1008 100 10000 0.5 160 18:20 18.07.2019
4971 Mist 24 1008 100 8000 1 190 17:43 18.07.2019
4972 Mist 24 1010 83 6000 1 250 17:24 18.07.2019
4973 Mist 24 1010 83 6000 0.5 240 16:57 18.07.2019
4974 Mist 25 1010 78 8000 0.5 220 16:31 18.07.2019
4975 Haze 25 1009 74 4800 1 350 15:59 18.07.2019
4976 Haze 25 1010 69 9000 0.5 210 15:39 18.07.2019
4977 Haze 26 1008 83 10000 1.5 170 15:21 18.07.2019
4978 Haze 27 1010 69 10000 1 220 14:45 18.07.2019
4979 Haze 27 1010 69 10000 1 220 14:45 18.07.2019
4980 Haze 27 1007 58 10000 1.5 290 14:26 18.07.2019
4981 Haze 28 1007 69 10000 1 160 13:48 18.07.2019
4982 Haze 29 1007 65 10000 1 170 13:23 18.07.2019
4983 Haze 30 1009 66 6000 1.5 210 12:50 18.07.2019
4984 Haze 31 1006 55 10000 2.1 240 12:22 18.07.2019
4985 Haze 30 1006 55 10000 1 210 12:22 18.07.2019
4986 Haze 31 1006 55 10000 2.1 240 11:58 18.07.2019
4987 Haze 31 1008 66 4800 0.5 170 11:39 18.07.2019
4988 Haze 31 1006 62 8000 3.1 280 11:20 18.07.2019
4989 Haze 31 1008 58 6000 1 190 10:41 18.07.2019
4990 Haze 31 1006 49 10000 2.1 180 09:50 18.07.2019
4991 Haze 32 1006 46 10000 1.5 220 09:26 18.07.2019
4992 Haze 32 1006 43 10000 2.1 210 08:52 18.07.2019
4993 Haze 32 1006 49 10000 1.5 190 08:25 18.07.2019
4994 Haze 31 1007 52 10000 2.6 220 07:56 18.07.2019
4995 Haze 31 1007 52 10000 2.1 210 07:35 18.07.2019
4996 Haze 31 1010 55 4800 1.5 260 06:46 18.07.2019
4997 Haze 30 1010 52 4800 0.5 210 06:19 18.07.2019
4998 Haze 27 1011 65 2800 1.5 80 03:29 18.07.2019
4999 Haze 25 1010 94 4000 1.5 330 01:52 18.07.2019
5000 Haze 24 1010 94 4000 1.5 330 01:33 18.07.2019
5001 Haze 23 1011 106 3200 1 340 23:57 17.07.2019
5002 Haze 23 1010 94 2200 3.23 198.002 23:21 17.07.2019
5003 Haze 23 1012 100 400 0.5 60 22:59 17.07.2019
5004 Haze 23 1012 106 1600 0.5 10 22:40 17.07.2019
5005 Haze 23 1011 106 3200 0.5 30 22:21 17.07.2019
5006 Haze 23 1012 100 1200 0.5 230 21:56 17.07.2019
5007 Haze 23 1009 88 8000 3.23 198.002 21:36 17.07.2019
5008 Mist 23 1009 88 8000 1.56 300.151 21:18 17.07.2019
5009 Haze 23 1012 106 2400 2.66 330.389 20:41 17.07.2019
5010 Haze 23 1010 83 8000 2.66 330.389 20:21 17.07.2019
5011 Haze 23 1010 100 3200 1 30 19:59 17.07.2019
5012 Rain 23 1012 94 800 0.5 60 19:39 17.07.2019
5013 Rain 24 1010 83 9000 2.66 330.389 19:18 17.07.2019
5014 Haze 24 1012 94 2000 1 130 18:42 17.07.2019
5015 Haze 24 1010 78 9000 2.5 328.679 18:20 17.07.2019
5016 Haze 24 1010 78 9000 2.5 328.679 17:51 17.07.2019
5017 Haze 24 1010 78 9000 2.5 328.679 17:27 17.07.2019
5018 Haze 24 1011 94 4000 1 340 16:56 17.07.2019
5019 Haze 25 1011 94 4000 0.5 20 16:38 17.07.2019
5020 Mist 25 1011 94 4800 0.5 30 16:18 17.07.2019
5021 Mist 25 1011 94 4800 0.5 30 15:50 17.07.2019
5022 Haze 25 1011 88 4800 0.5 330 15:25 17.07.2019
5023 Haze 25 1010 88 4800 0.5 360 14:54 17.07.2019
5024 Haze 25 1010 88 6000 1 360 14:36 17.07.2019
5025 Haze 26 1011 83 6000 0.5 120 14:18 17.07.2019
5026 Haze 25 1010 83 6000 1 340 13:41 17.07.2019
5027 Haze 26 1010 83 6000 1 340 13:21 17.07.2019
5028 Haze 26 1010 74 6000 0.5 340 12:40 17.07.2019
5029 Haze 27 1010 74 6000 0.5 340 12:21 17.07.2019
5030 Haze 28 1009 69 6000 1 330 11:45 17.07.2019
5031 Haze 28 1009 66 8000 1 40 11:21 17.07.2019
5032 Haze 29 1009 66 8000 1 20 10:51 17.07.2019
5033 Haze 29 1009 66 8000 1 20 10:30 17.07.2019
5034 Haze 29 1009 66 6000 1.5 350 09:58 17.07.2019
5035 Haze 29 1009 66 6000 1.5 340 09:40 17.07.2019
5036 Haze 29 1010 58 9000 1.5 330 09:20 17.07.2019
5037 Haze 29 1010 62 9000 1 200 08:42 17.07.2019
5038 Haze 29 1013 69 3200 0.5 260 08:22 17.07.2019
5039 Haze 28 1011 74 8000 3.47 280.185 07:50 17.07.2019
5040 Rain 28 1011 58 10000 1 200 07:24 17.07.2019
5041 Haze 28 1011 61 9000 1.5 220 06:55 17.07.2019
5042 Haze 28 1011 58 9000 1.5 270 06:29 17.07.2019
5043 Haze 28 1012 58 8000 1 280 05:48 17.07.2019
5044 Haze 28 1012 58 8000 1 280 05:28 17.07.2019
5045 Haze 28 1012 65 8000 0.5 320 04:37 17.07.2019
5046 Haze 26 1012 83 10000 2.1 340 02:56 17.07.2019
5047 Haze 24 1012 88 10000 1 330 01:59 17.07.2019
5048 Haze 24 1012 94 10000 1 330 01:26 17.07.2019
5049 Mist 23 1012 106 10000 1 340 00:48 17.07.2019
5050 Mist 23 1012 106 10000 1 340 00:24 17.07.2019
5051 Mist 22 1012 106 9000 0.5 30 23:58 16.07.2019
5052 Mist 22 1012 106 8000 0.5 350 23:31 16.07.2019
5053 Mist 22 1013 106 6000 1 20 22:59 16.07.2019
5054 Mist 22 1012 88 4800 1.22 184.744 22:40 16.07.2019
5055 Mist 22 1012 106 4800 0.5 20 22:20 16.07.2019
5056 Mist 22 1012 106 4800 0.5 360 21:45 16.07.2019
5057 Mist 22 1012 100 1400 2.1 320 21:21 16.07.2019
5058 Mist 22 1012 100 1400 2.1 320 20:58 16.07.2019
5059 Mist 23 1012 100 6000 0.78 256.94 20:38 16.07.2019
5060 Haze 23 1012 100 6000 0.78 256.94 20:20 16.07.2019
5061 Haze 23 1012 100 6000 0.5 330 19:47 16.07.2019
5062 Haze 23 1012 100 6000 0.5 330 19:27 16.07.2019
5063 Haze 23 1012 100 8000 0.5 340 18:47 16.07.2019
5064 Mist 23 1012 100 8000 0.5 340 18:21 16.07.2019
5065 Mist 23 1012 100 6000 0.5 210 17:58 16.07.2019
5066 Mist 23 1012 100 6000 0.5 210 17:58 16.07.2019
5067 Mist 23 1012 94 6000 0.5 10 17:39 16.07.2019
5068 Haze 23 1012 94 6000 1 20 17:20 16.07.2019
5069 Haze 23 1012 94 8000 0.5 20 16:42 16.07.2019
5070 Mist 24 1012 94 8000 0.5 20 16:20 16.07.2019
5071 Mist 24 1011 88 10000 0.5 40 15:41 16.07.2019
5072 Mist 24 1011 88 10000 0.5 40 15:21 16.07.2019
5073 Mist 24 1011 88 9000 1 10 14:58 16.07.2019
5074 Mist 24 1011 83 9000 0.5 350 14:39 16.07.2019
5075 Mist 25 1011 83 10000 1 330 14:20 16.07.2019
5076 Mist 25 1010 83 10000 0.5 10 13:45 16.07.2019
5077 Mist 25 1010 83 10000 0.5 10 13:24 16.07.2019
5078 Mist 26 1010 69 10000 2.22 265.809 12:45 16.07.2019
5079 Mist 26 1010 74 10000 1 40 12:21 16.07.2019
5080 Mist 27 1009 69 10000 1 340 11:58 16.07.2019
5081 Mist 27 1009 61 10000 0.5 50 11:40 16.07.2019
5082 Mist 27 1009 61 10000 0.5 50 11:40 16.07.2019
5083 Mist 27 1009 61 10000 0.5 50 11:22 16.07.2019
5084 Mist 28 1009 58 10000 0.5 280 10:45 16.07.2019
5085 Mist 28 1009 58 10000 0.5 280 10:45 16.07.2019
5086 Mist 28 1009 58 10000 1 340 10:22 16.07.2019
5087 Mist 28 1009 58 10000 1 340 09:56 16.07.2019
5088 Mist 28 1009 58 10000 1 340 09:56 16.07.2019
5089 Mist 28 1009 58 10000 1.5 310 09:36 16.07.2019
5090 Mist 28 1009 54 10000 1.5 280 09:18 16.07.2019
5091 Mist 29 1009 55 10000 1.5 210 08:42 16.07.2019
5092 Haze 28 1009 55 10000 1.5 210 08:19 16.07.2019
5093 Haze 28 1010 58 10000 1.5 270 07:41 16.07.2019
5094 Haze 28 1010 55 10000 1 250 07:23 16.07.2019
5095 Haze 28 1010 69 10000 1.5 250 06:47 16.07.2019
5096 Rain 28 1011 58 10000 1.5 260 06:22 16.07.2019
5097 Rain 27 1010 61 10000 1.5 230 05:32 16.07.2019
5098 Mist 26 1011 74 10000 1.5 340 04:57 16.07.2019
5099 Mist 25 1011 83 10000 1.5 340 03:54 16.07.2019
5100 Mist 24 1012 94 10000 1 10 03:18 16.07.2019
5101 Mist 23 1012 100 10000 1.5 350 02:30 16.07.2019
5102 Mist 23 1012 78 6000 1 170 01:41 16.07.2019
5103 Mist 22 1011 88 10000 3.72 141.643 00:41 16.07.2019
5104 Mist 22 1011 94 10000 4.52 138.806 00:19 16.07.2019
5105 Mist 22 1010 94 10000 4.52 138.806 23:44 15.07.2019
5106 Mist 22 1010 94 10000 4.52 138.806 23:25 15.07.2019
5107 Mist 22 1010 94 10000 4.52 138.806 22:47 15.07.2019
5108 Rain 22 1011 100 10000 0.5 30 22:22 15.07.2019
5109 Rain 21 1009 94 10000 4.52 138.806 21:58 15.07.2019
5110 Mist 22 1010 100 6000 1 10 21:39 15.07.2019
5111 Mist 22 1010 100 6000 1 10 21:19 15.07.2019
5112 Rain 22 1010 100 8000 0.5 350 20:54 15.07.2019
5113 Rain 22 1010 100 9000 1 340 20:36 15.07.2019
5114 Rain 22 1009 88 10000 5.09 156.812 20:18 15.07.2019
5115 Rain 22 1009 88 10000 5.09 156.812 19:39 15.07.2019
5116 Rain 22 1009 88 10000 5.09 156.812 19:19 15.07.2019
5117 Mist 22 1010 100 6000 0.5 30 18:49 15.07.2019
5118 Mist 22 1010 100 6000 0.5 30 18:23 15.07.2019
5119 Mist 22 1009 88 10000 1.85 138.744 17:58 15.07.2019
5120 Rain 22 1010 100 6000 0.5 10 17:40 15.07.2019
5121 Mist 22 1009 88 9000 1.85 138.744 17:22 15.07.2019
5122 Mist 22 1009 88 9000 1.85 138.744 16:58 15.07.2019
5123 Rain 22 1009 94 4800 1.85 138.744 16:37 15.07.2019
5124 Rain 22 1009 94 6000 1.85 138.744 16:18 15.07.2019
5125 Rain 23 1009 83 10000 1.85 138.744 15:41 15.07.2019
5126 Rain 23 1009 83 10000 1.85 138.744 15:41 15.07.2019
5127 Thunderstorm 23 1009 100 9000 0.5 30 15:23 15.07.2019
5128 Thunderstorm 23 1009 106 6000 1 30 14:59 15.07.2019
5129 Thunderstorm 23 1009 106 10000 1 30 14:38 15.07.2019
5130 Rain 23 1009 106 10000 1 30 14:19 15.07.2019
5131 Rain 22 1007 88 10000 1.93 75.697 13:47 15.07.2019
5132 Mist 23 1008 100 10000 1 30 13:19 15.07.2019
5133 Rain 23 1008 100 10000 0.5 40 12:47 15.07.2019
5134 Rain 23 1008 100 10000 0.5 40 12:27 15.07.2019
5135 Mist 24 1007 100 10000 1 20 11:57 15.07.2019
5136 Mist 23 1007 94 10000 0.5 40 11:38 15.07.2019
5137 Rain 24 1007 106 3200 1 170 11:18 15.07.2019
5138 Rain 23 1006 88 10000 2.1 30 10:40 15.07.2019
5139 Rain 23 1006 88 10000 2.1 30 10:40 15.07.2019
5140 Rain 23 1006 88 10000 2.1 30 10:40 15.07.2019
5141 Rain 24 1006 88 10000 2.1 30 10:22 15.07.2019
5142 Rain 24 1007 83 10000 1 180 09:42 15.07.2019
5143 Thunderstorm 24 1006 73 10000 2.6 40 09:20 15.07.2019
5144 Rain 25 1006 78 10000 4.37 237.794 08:46 15.07.2019
5145 Rain 25 1006 78 10000 4.37 237.794 08:25 15.07.2019
5146 Rain 26 1006 69 10000 1 340 07:52 15.07.2019
5147 Rain 26 1006 69 10000 1 340 07:30 15.07.2019
5148 Rain 27 1006 65 10000 4.37 237.794 06:40 15.07.2019
5149 Rain 27 1007 83 9000 2.6 330 06:20 15.07.2019
5150 Haze 27 1007 69 8000 1.5 340 05:42 15.07.2019
5151 Haze 26 1007 74 8000 1 30 04:45 15.07.2019
5152 Haze 26 1007 74 8000 1 30 04:23 15.07.2019
5153 Mist 25 1007 73 10000 1.5 340 02:51 15.07.2019
5154 Mist 24 1007 78 10000 1.5 330 01:55 15.07.2019
5155 Mist 24 1007 83 10000 0.5 350 01:33 15.07.2019
5156 Haze 23 1007 88 10000 1.5 340 00:53 15.07.2019
5157 Haze 23 1007 94 10000 1 30 00:53 15.07.2019
5158 Haze 23 1007 94 10000 1 30 00:28 15.07.2019
5159 Mist 22 1006 94 10000 1 30 23:58 14.07.2019
5160 Haze 22 1006 78 9000 3.17 163.809 23:39 14.07.2019
5161 Mist 22 1006 100 10000 0.5 20 23:19 14.07.2019
5162 Mist 22 1006 100 10000 0.5 20 22:57 14.07.2019
5163 Mist 22 1005 88 8000 3.17 163.809 22:37 14.07.2019
5164 Haze 22 1006 100 10000 0.5 10 22:18 14.07.2019
5165 Haze 22 1006 100 10000 0.5 340 21:42 14.07.2019
5166 Haze 22 1005 100 10000 0.5 360 21:19 14.07.2019
5167 Haze 22 1005 100 10000 0.5 360 20:57 14.07.2019
5168 Haze 22 1005 100 10000 0.5 160 20:37 14.07.2019
5169 Haze 22 1005 100 9000 2.75 186.632 20:19 14.07.2019
5170 Haze 22 1005 100 9000 2.75 186.632 20:19 14.07.2019
5171 Haze 22 1005 100 10000 0.5 50 19:44 14.07.2019
5172 Mist 22 1005 100 10000 0.5 50 19:25 14.07.2019
5173 Mist 22 1005 106 10000 1 30 18:57 14.07.2019
5174 Mist 22 1005 94 10000 0.5 80 18:38 14.07.2019
5175 Haze 23 1005 94 10000 1 30 18:20 14.07.2019
5176 Haze 23 1005 100 9000 1 40 17:47 14.07.2019
5177 Haze 23 1005 100 10000 0.5 30 17:21 14.07.2019
5178 Haze 23 1005 100 8000 0.5 20 16:47 14.07.2019
5179 Haze 23 1005 100 8000 0.5 20 16:24 14.07.2019
5180 Haze 24 1005 100 10000 0.5 30 15:54 14.07.2019
5181 Haze 24 1005 94 10000 0.5 330 15:29 14.07.2019
5182 Haze 25 1004 100 10000 0.5 320 14:50 14.07.2019
5183 Haze 25 1004 100 10000 1 30 14:22 14.07.2019
5184 Haze 25 1004 100 10000 1 30 13:57 14.07.2019
5185 Haze 25 1003 94 10000 1 30 13:37 14.07.2019
5186 Haze 26 1003 94 10000 1 40 13:19 14.07.2019
5187 Haze 26 1002 88 10000 0.5 30 12:42 14.07.2019
5188 Haze 27 1002 94 10000 1.5 30 12:22 14.07.2019
5189 Haze 27 1002 83 10000 1.5 20 11:52 14.07.2019
5190 Haze 27 1002 83 10000 1.5 20 11:27 14.07.2019
5191 Haze 29 1001 65 10000 2.6 40 10:50 14.07.2019
5192 Haze 29 1001 65 10000 2.6 40 10:26 14.07.2019
5193 Haze 29 1001 58 10000 1.5 320 09:56 14.07.2019
5194 Haze 29 1000 55 10000 1 340 09:37 14.07.2019
5195 Haze 29 1000 55 10000 2.1 330 09:19 14.07.2019
5196 Haze 30 1001 48 10000 2.6 330 08:41 14.07.2019
5197 Haze 29 1001 48 10000 2.1 350 07:56 14.07.2019
5198 Haze 30 1001 48 10000 1.5 10 07:35 14.07.2019
5199 Haze 30 1001 45 10000 2.1 230 06:29 14.07.2019
5200 Haze 29 1002 58 10000 2.1 190 05:44 14.07.2019
5201 Haze 26 1002 69 6000 1.5 190 03:46 14.07.2019
5202 Haze 26 1002 69 6000 1.5 190 03:27 14.07.2019
5203 Mist 24 1002 83 4000 2.1 200 02:39 14.07.2019
5204 Mist 23 1002 83 4000 1 250 02:20 14.07.2019
5205 Mist 23 1002 83 3200 0.5 330 01:31 14.07.2019
5206 Mist 22 1002 94 2800 2.16 185.004 00:55 14.07.2019
5207 Mist 21 1002 100 2400 0.5 210 00:37 14.07.2019
5208 Mist 21 1002 100 2400 0.5 110 00:18 14.07.2019
5209 Mist 21 1002 100 2400 0.5 190 23:42 13.07.2019
5210 Fog 20 1001 94 600 0.5 330 23:22 13.07.2019
5211 Mist 21 1001 100 3200 0.5 120 22:43 13.07.2019
5212 Mist 21 1001 100 3200 0.5 120 22:22 13.07.2019
5213 Fog 20 1001 100 3200 0.5 150 21:49 13.07.2019
5214 Fog 21 1001 100 3200 0.5 150 21:22 13.07.2019
5215 Mist 21 1001 94 4000 0.5 180 20:53 13.07.2019
5216 Mist 21 1001 100 4000 0.5 150 20:34 13.07.2019
5217 Mist 21 1001 100 4800 0.5 140 19:54 13.07.2019
5218 Mist 21 1001 100 4800 0.5 150 19:31 13.07.2019
5219 Mist 21 1001 94 4800 0.5 150 18:59 13.07.2019
5220 Mist 21 1001 94 6000 0.5 160 18:39 13.07.2019
5221 Mist 21 1001 100 4000 0.5 190 18:19 13.07.2019
5222 Mist 22 1001 94 3200 1.5 180 17:37 13.07.2019
5223 Mist 22 1001 94 4000 1 180 17:19 13.07.2019
5224 Mist 22 1001 94 4800 1.5 170 16:44 13.07.2019
5225 Mist 22 1001 94 4800 1.5 170 16:25 13.07.2019
5226 Mist 23 1001 88 4800 0.5 180 15:48 13.07.2019
5227 Mist 23 1001 88 4800 0.5 180 15:24 13.07.2019
5228 -273 0 0 0 0 0 14:56 13.07.2019
5229 Mist 24 1001 88 6000 2.1 210 14:37 13.07.2019
5230 Mist 25 1000 73 9000 0.5 180 14:18 13.07.2019
5231 Mist 25 1000 65 10000 0.5 50 13:42 13.07.2019
5232 Haze 26 1000 65 9000 1 10 13:19 13.07.2019
5233 Haze 26 999 65 10000 0.5 220 12:40 13.07.2019
5234 Haze 27 999 65 10000 2.6 340 12:22 13.07.2019
5235 Haze 27 999 65 10000 2.6 340 11:57 13.07.2019
5236 Haze 27 999 58 10000 1.5 180 11:20 13.07.2019
5237 Haze 27 999 54 10000 2.1 170 10:55 13.07.2019
5238 Haze 28 999 54 10000 2.1 170 10:37 13.07.2019
5239 Haze 28 999 58 10000 1.5 170 10:18 13.07.2019
5240 Haze 27 999 51 10000 2.6 180 09:41 13.07.2019
5241 Haze 28 999 51 10000 2.6 180 09:21 13.07.2019
5242 Haze 28 999 51 10000 2.1 180 08:45 13.07.2019
5243 Haze 28 999 51 10000 2.1 180 08:26 13.07.2019
5244 Haze 28 1000 54 10000 3.1 180 07:30 13.07.2019
5245 Haze 28 1001 54 10000 2.1 210 06:50 13.07.2019
5246 Haze 27 1001 54 10000 2.1 210 06:22 13.07.2019
5247 Haze 27 1001 58 10000 2.6 210 05:33 13.07.2019
5248 Haze 26 1002 58 8000 2.1 240 04:24 13.07.2019
5249 Mist 25 1002 69 9000 2.1 240 03:57 13.07.2019
5250 Mist 25 1002 69 9000 1.5 240 03:38 13.07.2019
5251 Haze 23 1003 73 8000 5.66 171.021 02:18 13.07.2019
5252 Haze 23 1004 83 10000 0.5 290 01:41 13.07.2019
5253 Haze 22 1004 83 10000 0.5 290 01:19 13.07.2019
5254 Haze 22 1004 83 10000 0.5 290 00:51 13.07.2019
5255 Rain 22 1003 83 4800 1.5 150 00:19 13.07.2019
5256 Haze 22 1004 94 3200 0.5 190 23:46 12.07.2019
5257 Haze 22 1004 94 3200 0.5 190 23:28 12.07.2019
5258 Haze 22 1003 83 9000 4.6 164.539 22:46 12.07.2019
5259 Mist 22 1004 94 10000 0.5 360 22:24 12.07.2019
5260 Mist 22 1004 94 10000 0.5 130 21:43 12.07.2019
5261 Mist 22 1004 94 10000 0.5 130 21:22 12.07.2019
5262 Mist 22 1004 88 10000 0.5 190 20:56 12.07.2019
5263 Mist 22 1004 78 10000 5.1 181.045 20:38 12.07.2019
5264 Haze 22 1004 88 10000 0.5 150 20:19 12.07.2019
5265 Haze 22 1005 88 10000 0.5 160 19:42 12.07.2019
5266 Haze 22 1005 88 10000 0.5 160 19:23 12.07.2019
5267 Mist 22 1005 88 10000 0.5 140 18:44 12.07.2019
5268 Mist 22 1005 88 10000 0.5 140 18:21 12.07.2019
5269 Mist 22 1005 88 10000 0.5 120 17:51 12.07.2019
5270 Mist 22 1005 88 10000 0.5 140 17:28 12.07.2019
5271 Haze 22 1005 78 10000 1 170 16:48 12.07.2019
5272 Haze 22 1005 78 10000 1 170 16:22 12.07.2019
5273 Haze 23 1005 73 10000 1.5 170 15:43 12.07.2019
5274 Haze 23 1005 73 10000 1.5 170 15:22 12.07.2019
5275 Haze 23 1005 78 10000 3.55 218.076 14:58 12.07.2019
5276 Haze 23 1005 78 10000 0.5 130 14:39 12.07.2019
5277 Haze 24 1005 69 10000 0.5 120 14:20 12.07.2019
5278 Haze 24 1005 69 10000 0.5 170 13:42 12.07.2019
5279 Haze 24 1005 65 10000 1 210 13:20 12.07.2019
5280 Haze 25 1005 61 10000 2.6 220 12:41 12.07.2019
5281 Haze 26 1004 61 10000 2.1 260 12:21 12.07.2019
5282 Haze 26 1004 57 10000 1.5 210 11:45 12.07.2019
5283 Haze 26 1004 57 10000 1.5 210 11:23 12.07.2019
5284 Haze 26 1004 57 10000 1.5 260 10:44 12.07.2019
5285 Haze 26 1004 57 10000 1.5 260 10:25 12.07.2019
5286 Haze 27 1004 48 10000 1.5 220 09:55 12.07.2019
5287 Haze 27 1004 51 10000 2.1 250 09:36 12.07.2019
5288 Haze 27 1004 54 10000 1.5 220 09:18 12.07.2019
5289 Haze 27 1004 57 10000 2.6 200 08:42 12.07.2019
5290 -273 0 0 0 0 0 08:42 12.07.2019
5291 Haze 27 1004 51 10000 1 240 08:20 12.07.2019
5292 Haze 27 1005 51 10000 2.1 300 07:46 12.07.2019
5293 Haze 27 1005 51 10000 3.1 210 07:27 12.07.2019
5294 Haze 27 1005 51 10000 0.5 270 06:29 12.07.2019
5295 Haze 26 1006 61 10000 2.1 200 05:48 12.07.2019
5296 Haze 23 1007 73 10000 3.84 244.088 03:23 12.07.2019
5297 Haze 22 1008 88 10000 1 200 01:45 12.07.2019
5298 Haze 21 1008 88 10000 1 200 01:26 12.07.2019
5299 Haze 21 1007 88 10000 0.5 160 00:30 12.07.2019
5300 Mist 20 1007 94 10000 0.5 130 23:50 11.07.2019
5301 Mist 20 1007 94 10000 0.5 130 23:26 11.07.2019
5302 Mist 20 1007 94 10000 0.5 180 22:59 11.07.2019
5303 Clouds 20 1007 94 10000 1.8 258.596 22:39 11.07.2019
5304 Mist 20 1007 94 10000 1.8 258.596 22:21 11.07.2019
5305 Mist 20 1006 77 10000 1.8 258.596 21:42 11.07.2019
5306 Mist 20 1006 77 10000 1.8 258.596 21:42 11.07.2019
5307 Mist 20 1006 94 10000 1 30 21:19 11.07.2019
5308 Mist 20 1006 94 10000 1 30 20:55 11.07.2019
5309 Mist 20 1006 100 10000 2.87 321.013 20:37 11.07.2019
5310 Mist 20 1006 77 10000 2.87 321.013 20:18 11.07.2019
5311 Mist 20 1006 100 10000 0.5 150 19:44 11.07.2019
5312 Mist 20 1006 100 10000 0.5 150 19:24 11.07.2019
5313 Mist 20 1006 94 10000 2.87 321.013 18:49 11.07.2019
5314 Mist 20 1006 94 10000 2.87 321.013 18:31 11.07.2019
5315 Mist 21 1006 94 10000 0.5 360 17:55 11.07.2019
5316 Mist 21 1006 94 10000 0.5 360 17:37 11.07.2019
5317 Mist 21 1006 88 10000 0.5 220 17:19 11.07.2019
5318 Mist 21 1006 83 10000 2.85 350.008 16:43 11.07.2019
5319 Mist 21 1006 73 10000 2.85 350.008 16:21 11.07.2019
5320 Mist 21 1006 88 10000 0.5 360 15:44 11.07.2019
5321 Mist 21 1006 88 10000 0.5 360 15:44 11.07.2019
5322 Mist 21 1006 88 10000 0.5 360 15:24 11.07.2019
5323 Haze 21 1006 88 10000 0.5 30 14:58 11.07.2019
5324 Haze 21 1006 73 8000 4.37 359.476 14:38 11.07.2019
5325 Rain 21 1006 73 10000 4.37 359.476 14:19 11.07.2019
5326 Drizzle 21 1005 78 10000 4.37 359.476 13:42 11.07.2019
5327 Rain 22 1005 94 10000 0.5 60 13:23 11.07.2019
5328 Rain 22 1005 78 10000 2.1 30 12:39 11.07.2019
5329 Drizzle 22 1005 78 10000 1.5 30 12:19 11.07.2019
5330 Drizzle 23 1004 78 10000 1.5 350 11:50 11.07.2019
5331 Drizzle 23 1004 78 10000 1.5 350 11:30 11.07.2019
5332 Rain 23 1004 78 10000 1.5 10 10:54 11.07.2019
5333 Haze 23 1004 78 9000 1.5 340 10:20 11.07.2019
5334 Haze 23 1004 78 9000 1.5 340 10:20 11.07.2019
5335 Haze 23 1004 78 9000 1.5 340 10:20 11.07.2019
5336 Haze 23 1004 78 9000 1.5 340 09:56 11.07.2019
5337 Mist 24 1004 69 10000 1.5 350 09:36 11.07.2019
5338 Mist 24 1004 69 10000 1.5 350 09:36 11.07.2019
5339 Mist 24 1004 65 10000 3.1 40 09:18 11.07.2019
5340 Haze 24 1004 65 10000 1 20 08:42 11.07.2019
5341 Haze 24 1003 65 10000 1.5 340 08:20 11.07.2019
5342 Clouds 24 1004 61 10000 2.1 20 07:45 11.07.2019
5343 Clouds 24 1004 61 10000 1 20 07:23 11.07.2019
5344 Haze 24 1004 61 10000 1 30 06:19 11.07.2019
5345 Clouds 24 1004 61 10000 1 20 05:32 11.07.2019
5346 Rain 23 1004 69 10000 1 40 04:56 11.07.2019
5347 Rain 22 1004 73 10000 0.5 60 03:57 11.07.2019
5348 Rain 22 1004 88 10000 0.5 20 02:25 11.07.2019
5349 Rain 20 1004 106 10000 8.26 3.782 00:35 11.07.2019
5350 Rain 20 1004 100 10000 0.5 60 23:51 10.07.2019
5351 Rain 20 1004 100 10000 0.5 40 23:27 10.07.2019
5352 Rain 20 1005 94 6000 9.06 13.157 22:57 10.07.2019
5353 Rain 20 1004 106 6000 0.5 100 22:26 10.07.2019
5354 Rain 20 1004 83 10000 9.06 13.157 21:57 10.07.2019
5355 Rain 20 1004 83 10000 9.06 13.157 21:38 10.07.2019
5356 Rain 20 1004 106 10000 0.5 90 21:20 10.07.2019
5357 Rain 20 1004 106 10000 0.5 360 20:46 10.07.2019
5358 Rain 20 1004 106 10000 0.5 360 20:26 10.07.2019
5359 Rain 20 1004 88 10000 1.5 30 19:57 10.07.2019
5360 Rain 20 1005 106 10000 0.5 60 19:38 10.07.2019
5361 Rain 20 1005 88 10000 1.5 40 19:20 10.07.2019
5362 Rain 20 1005 106 10000 0.5 20 18:46 10.07.2019
5363 Rain 20 1005 106 10000 0.5 20 18:23 10.07.2019
5364 Rain 20 1006 106 10000 0.5 10 17:46 10.07.2019
5365 Rain 20 1006 106 10000 0.5 10 17:27 10.07.2019
5366 Rain 19 1006 88 10000 5.15 39.332 16:46 10.07.2019
5367 Rain 19 1006 88 6000 2.1 50 16:21 10.07.2019
5368 Rain 19 1007 106 3200 1 30 15:47 10.07.2019
5369 Rain 19 1007 106 3200 1 30 15:25 10.07.2019
5370 Rain 19 1007 88 3600 4.73 61.435 14:48 10.07.2019
5371 Rain 19 1007 88 3600 4.73 61.435 14:28 10.07.2019
5372 Rain 20 1007 106 10000 0.5 230 13:56 10.07.2019
5373 Rain 20 1007 106 9000 1 30 13:24 10.07.2019
5374 Rain 20 1007 106 9000 1 30 12:59 10.07.2019
5375 Rain 20 1006 77 9000 5.58 59.082 12:39 10.07.2019
5376 Rain 21 1006 77 9000 1.5 40 12:20 10.07.2019
5377 Rain 21 1007 77 10000 1.5 20 11:47 10.07.2019
5378 Rain 22 1007 77 10000 1.5 30 11:21 10.07.2019
5379 Rain 22 1007 77 10000 1.5 30 10:56 10.07.2019
5380 Rain 23 1007 68 10000 1.5 40 10:23 10.07.2019
5381 Haze 24 1006 60 9000 3.1 50 09:45 10.07.2019
5382 Rain 25 1006 57 10000 3.1 50 09:21 10.07.2019
5383 Rain 25 1006 57 10000 3.1 50 08:55 10.07.2019
5384 Rain 25 1007 57 10000 2.1 20 08:37 10.07.2019
5385 Rain 25 1006 53 10000 3.1 50 08:18 10.07.2019
5386 Rain 25 1007 50 9000 4.1 40 07:42 10.07.2019
5387 Rain 25 1006 54 10000 4.1 30 07:21 10.07.2019
5388 Rain 25 1007 50 10000 3.6 50 06:31 10.07.2019
5389 Rain 25 1007 50 10000 3.6 90 05:39 10.07.2019
5390 Haze 25 1008 57 10000 3.6 30 04:30 10.07.2019
5391 Haze 21 1010 64 10000 2.1 30 01:25 10.07.2019
5392 Haze 21 1008 64 10000 1.5 20 00:42 10.07.2019
5393 Haze 20 1008 68 10000 1 30 23:42 09.07.2019
5394 Haze 20 1008 68 10000 1 30 23:22 09.07.2019
5395 Haze 20 1008 68 10000 2.6 30 22:43 09.07.2019
5396 Haze 20 1008 68 10000 2.6 30 22:25 09.07.2019
5397 Clouds 20 1007 68 10000 2.1 10 21:59 09.07.2019
5398 Haze 20 1007 68 10000 1 10 21:41 09.07.2019
5399 Haze 20 1007 68 10000 1 10 21:23 09.07.2019
5400 Clear 21 1008 68 10000 0.5 30 20:43 09.07.2019
5401 Clear 21 1008 68 10000 0.5 30 20:25 09.07.2019
5402 Haze 21 1007 68 10000 1 30 19:43 09.07.2019
5403 Clear 22 1007 68 10000 1 30 19:24 09.07.2019
5404 Haze 22 1007 64 10000 0.5 30 18:49 09.07.2019
5405 Clear 22 1007 64 10000 0.5 30 18:27 09.07.2019
5406 Clear 22 1007 56 10000 2.6 70 17:57 09.07.2019
5407 Clear 23 1008 60 10000 1 40 17:39 09.07.2019
5408 Clouds 23 1008 60 10000 1.5 30 17:20 09.07.2019
5409 Clouds 23 1008 60 10000 1.5 30 16:50 09.07.2019
5410 Clouds 24 1008 56 10000 1.5 20 16:25 09.07.2019
5411 Clouds 24 1008 56 10000 1.5 350 15:51 09.07.2019
5412 Clouds 24 1007 56 10000 1 30 15:33 09.07.2019
5413 Clouds 25 1007 50 10000 1.5 40 14:58 09.07.2019
5414 Clouds 25 1007 50 10000 2.1 340 14:39 09.07.2019
5415 Clouds 25 1007 50 10000 2.1 40 14:19 09.07.2019
5416 Clouds 25 1006 50 10000 1 330 13:45 09.07.2019
5417 Clouds 26 1006 50 10000 1 330 13:27 09.07.2019
5418 Clouds 26 1006 50 10000 1 330 13:27 09.07.2019
5419 Clouds 27 1005 47 10000 1 40 12:41 09.07.2019
5420 Clouds 27 1005 44 10000 3.1 20 12:22 09.07.2019
5421 Clouds 27 1005 44 10000 3.1 20 12:22 09.07.2019
5422 Clouds 27 1005 44 10000 3.1 20 11:58 09.07.2019
5423 Clouds 28 1005 42 10000 1.5 10 11:39 09.07.2019
5424 Clouds 28 1005 42 10000 1.5 10 11:20 09.07.2019
5425 Clouds 28 1005 45 10000 2.6 30 10:50 09.07.2019
5426 Clouds 28 1005 45 10000 2.6 30 10:31 09.07.2019
5427 Clouds 29 1005 45 10000 2.1 60 09:42 09.07.2019
5428 Clouds 29 1005 45 10000 1.5 10 09:22 09.07.2019
5429 Clouds 29 1005 45 10000 1.5 10 09:22 09.07.2019
5430 Clouds 29 1005 45 10000 1.5 10 08:55 09.07.2019
5431 Clouds 29 1005 45 10000 2.1 30 08:35 09.07.2019
5432 Haze 28 1004 45 10000 1 200 03:58 05.07.2019
5433 Haze 28 1004 45 10000 1.5 170 03:38 05.07.2019
5434 Haze 28 1004 45 10000 1.5 170 03:38 05.07.2019
5435 Haze 26 1004 50 10000 1 20 03:19 05.07.2019
5436 Haze 26 1004 50 10000 1 20 03:19 05.07.2019
5437 Haze 26 1004 50 10000 2.1 340 02:44 05.07.2019
5438 Mist 22 1005 56 10000 1 40 01:39 05.07.2019
5439 Mist 21 1005 64 10000 1.5 40 01:19 05.07.2019
5440 Mist 20 1005 72 10000 1 40 00:46 05.07.2019
5441 Mist 19 1005 72 10000 0.5 170 23:53 04.07.2019
5442 Mist 19 1005 82 10000 0.5 150 23:21 04.07.2019
5443 Mist 19 1005 82 10000 0.5 130 22:44 04.07.2019
5444 Mist 19 1005 82 10000 0.5 130 22:24 04.07.2019
5445 Mist 19 1005 82 10000 0.5 110 21:57 04.07.2019
5446 Mist 19 1005 77 10000 1 40 21:39 04.07.2019
5447 Mist 20 1005 77 10000 1 40 21:20 04.07.2019
5448 Mist 20 1005 77 10000 0.55 107.51 20:40 04.07.2019
5449 Haze 20 1005 72 10000 0.5 120 20:22 04.07.2019
5450 Haze 20 1005 72 10000 0.5 120 19:56 04.07.2019
5451 Haze 20 1005 72 10000 0.55 107.51 19:38 04.07.2019
5452 Mist 20 1006 72 10000 0.5 170 19:20 04.07.2019
5453 Mist 21 1005 73 10000 0.55 107.51 18:42 04.07.2019
5454 Mist 21 1006 68 10000 1 150 18:24 04.07.2019
5455 Mist 21 1006 60 10000 0.5 150 17:46 04.07.2019
5456 Mist 22 1006 64 10000 0.5 160 17:19 04.07.2019
5457 Mist 22 1006 56 10000 1 140 15:58 04.07.2019
5458 Mist 23 1006 53 10000 0.5 150 15:40 04.07.2019
5459 Mist 23 1006 53 10000 0.5 150 15:22 04.07.2019
5460 Haze 23 1006 53 10000 1.5 170 14:55 04.07.2019
5461 Haze 24 1005 50 10000 1 190 14:37 04.07.2019
5462 Haze 25 1005 50 10000 0.5 180 14:18 04.07.2019
5463 Haze 25 1005 50 10000 0.5 180 14:18 04.07.2019
5464 Haze 25 1004 39 10000 0.5 200 13:42 04.07.2019
5465 Haze 27 1004 42 10000 2.1 230 13:23 04.07.2019
5466 Haze 27 1004 42 10000 2.1 230 12:55 04.07.2019
5467 Haze 27 1005 42 10000 1 300 12:36 04.07.2019
5468 Haze 29 1004 40 10000 1 250 12:18 04.07.2019
5469 Haze 29 1004 40 10000 2.6 230 11:39 04.07.2019
5470 Haze 29 1004 40 10000 2.6 230 11:39 04.07.2019
5471 Haze 30 1004 40 10000 3.1 260 11:19 04.07.2019
5472 Haze 31 1003 38 10000 2.1 230 10:40 04.07.2019
5473 Clear 32 1003 38 10000 1.5 240 10:20 04.07.2019
5474 Clear 32 1003 32 10000 1 220 09:44 04.07.2019
5475 Haze 32 1003 32 10000 1 220 09:25 04.07.2019
5476 Haze 32 1004 36 10000 2.6 250 08:56 04.07.2019
5477 Haze 32 1004 29 10000 1 180 08:23 04.07.2019
5478 Haze 32 1004 33 10000 1.5 180 07:44 04.07.2019
5479 Haze 31 1004 33 10000 1.5 180 07:22 04.07.2019
5480 Haze 30 1005 38 10000 1.5 150 06:45 04.07.2019
5481 Haze 30 1005 40 10000 2.1 220 05:51 04.07.2019
5482 Haze 30 1005 40 10000 2.1 220 05:32 04.07.2019
5483 Haze 24 1007 73 9000 1.5 270 02:42 04.07.2019
5484 Haze 21 1008 78 10000 1 220 01:41 04.07.2019
5485 Haze 21 1008 78 10000 0.5 150 01:19 04.07.2019
5486 Mist 19 1007 88 6000 1.62 329.522 23:56 03.07.2019
5487 Mist 19 1007 88 6000 1.62 329.522 23:36 03.07.2019
5488 Mist 19 1007 100 10000 0.5 170 23:18 03.07.2019
5489 Mist 19 1007 88 4800 1.62 329.522 22:39 03.07.2019
5490 Mist 19 1007 100 9000 0.5 160 22:21 03.07.2019
5491 Mist 18 1007 100 9000 0.5 150 21:56 03.07.2019
5492 Mist 18 1007 93 10000 0.5 160 21:37 03.07.2019
5493 Mist 18 1007 93 10000 0.5 160 21:37 03.07.2019
5494 Haze 19 1007 100 4000 0.5 150 21:19 03.07.2019
5495 Haze 19 1007 93 10000 0.5 170 20:41 03.07.2019
5496 Fog 19 1007 100 10000 0.5 170 20:23 03.07.2019
5497 Fog 19 1007 100 10000 0.5 130 19:50 03.07.2019
5498 Fog 19 1007 100 10000 0.5 130 19:31 03.07.2019
5499 Mist 20 1007 93 10000 0.5 170 18:47 03.07.2019
5500 Mist 20 1007 93 10000 0.5 170 18:25 03.07.2019
5501 Mist 20 1007 93 10000 0.5 160 17:55 03.07.2019
5502 Mist 20 1007 88 10000 0.5 170 17:36 03.07.2019
5503 Mist 21 1007 88 10000 0.5 150 17:18 03.07.2019
5504 Haze 21 1008 93 8000 1 190 16:43 03.07.2019
5505 Haze 22 1007 83 10000 1 140 16:20 03.07.2019
5506 Mist 22 1007 78 10000 0.5 270 15:47 03.07.2019
5507 Mist 22 1007 78 10000 0.5 270 15:29 03.07.2019
5508 Haze 23 1007 78 10000 0.5 170 14:52 03.07.2019
5509 Haze 23 1006 69 10000 0.5 170 14:24 03.07.2019
5510 Haze 24 1006 64 10000 1 180 13:57 03.07.2019
5511 Haze 24 1006 61 10000 0.5 180 13:32 03.07.2019
5512 Haze 26 1006 51 10000 0.5 40 12:54 03.07.2019
5513 Haze 26 1006 51 10000 1 340 12:21 03.07.2019
5514 Haze 26 1006 51 10000 1 340 11:58 03.07.2019
5515 Haze 26 1006 54 10000 2.1 290 11:39 03.07.2019
5516 Haze 27 1005 54 10000 1 310 11:20 03.07.2019
5517 Haze 27 1005 54 10000 1 280 10:41 03.07.2019
5518 Haze 27 1005 54 10000 1 280 10:22 03.07.2019
5519 Haze 28 1005 51 10000 2.1 260 09:42 03.07.2019
5520 Haze 28 1006 51 10000 1.5 270 09:21 03.07.2019
5521 Haze 28 1006 51 10000 1.5 270 08:53 03.07.2019
5522 Haze 28 1006 51 10000 1.5 210 08:32 03.07.2019
5523 Haze 28 1006 51 10000 1.5 210 08:32 03.07.2019
5524 Haze 28 1006 51 10000 1.5 280 07:53 03.07.2019
5525 Haze 28 1006 51 10000 1.5 280 07:35 03.07.2019
5526 Haze 27 1007 51 10000 1 280 06:48 03.07.2019
5527 Haze 27 1007 57 10000 1 210 05:44 03.07.2019
5528 Haze 26 1008 61 10000 1.5 250 05:19 03.07.2019
5529 Haze 25 1009 61 8000 1 200 03:30 03.07.2019
5530 Mist 23 1011 73 10000 1.5 320 02:37 03.07.2019
5531 Mist 22 1011 73 9000 0.5 210 01:22 03.07.2019
5532 Mist 21 1011 83 4800 0.5 50 00:55 03.07.2019
5533 Mist 20 1009 83 10000 2 205.311 00:36 03.07.2019
5534 Mist 20 1012 100 2400 0.5 20 23:46 02.07.2019
5535 Mist 19 1010 83 10000 1.5 240 23:20 02.07.2019
5536 Mist 19 1010 93 9000 0.5 180 22:59 02.07.2019
5537 Mist 19 1010 83 10000 2.34 204.162 22:40 02.07.2019
5538 Mist 19 1010 83 10000 2.34 204.162 22:22 02.07.2019
5539 Mist 20 1012 93 3200 2.34 204.162 21:47 02.07.2019
5540 Mist 20 1009 88 10000 3.02 206.956 21:26 02.07.2019
5541 Mist 20 1010 93 10000 0.5 160 20:59 02.07.2019
5542 Mist 19 1011 93 2000 0.5 100 20:41 02.07.2019
5543 Mist 19 1011 93 3200 1 310 20:22 02.07.2019
5544 Mist 20 1011 93 4000 0.5 190 19:44 02.07.2019
5545 Mist 20 1009 88 10000 1 150 19:24 02.07.2019
5546 Mist 20 1009 88 10000 1 150 19:24 02.07.2019
5547 Mist 20 1011 93 4800 1 140 18:59 02.07.2019
5548 Mist 20 1011 88 8000 0.5 150 18:37 02.07.2019
5549 Mist 20 1009 94 5000 0.5 180 18:18 02.07.2019
5550 Mist 21 1009 82 10000 1 180 17:37 02.07.2019
5551 Mist 21 1009 77 10000 1 180 17:19 02.07.2019
5552 Mist 21 1009 77 10000 1 180 17:19 02.07.2019
5553 Mist 21 1009 77 10000 1.5 180 16:44 02.07.2019
5554 Mist 21 1009 77 10000 1.5 180 16:25 02.07.2019
5555 Mist 22 1009 69 10000 1.5 170 15:40 02.07.2019
5556 Haze 23 1009 64 10000 0.5 260 15:22 02.07.2019
5557 Haze 23 1009 64 8000 3.08 269.163 14:47 02.07.2019
5558 Mist 23 1009 61 10000 2.1 180 14:27 02.07.2019
5559 Haze 24 1011 78 10000 0.5 190 13:44 02.07.2019
5560 Haze 24 1008 65 10000 1.5 320 13:20 02.07.2019
5561 Haze 26 1008 54 10000 1 280 12:45 02.07.2019
5562 -273 0 0 0 0 0 12:24 02.07.2019
5563 Haze 28 1007 48 10000 1 240 11:55 02.07.2019
5564 Haze 28 1007 48 10000 1 240 11:37 02.07.2019
5565 Haze 28 1007 48 10000 1.5 250 11:18 02.07.2019
5566 Haze 28 1007 48 10000 2.1 240 10:39 02.07.2019
5567 Haze 29 1007 48 10000 1.5 240 10:21 02.07.2019
5568 Haze 29 1009 54 10000 2.6 280 09:42 02.07.2019
5569 Haze 29 1007 40 10000 1.5 270 09:19 02.07.2019
5570 Haze 29 1009 45 10000 2.6 220 08:40 02.07.2019
5571 Haze 29 1008 51 10000 5.47 234.848 08:20 02.07.2019
5572 Haze 29 1010 42 10000 3.1 270 07:50 02.07.2019
5573 Haze 28 1008 54 10000 3.6 260 07:20 02.07.2019
5574 Haze 28 1008 48 10000 1.5 230 06:42 02.07.2019
5575 Rain 27 1008 48 10000 0.5 120 05:58 02.07.2019
5576 Haze 24 1009 69 9000 1 160 03:26 02.07.2019
5577 Mist 21 1008 78 10000 1.69 263.874 00:48 02.07.2019
5578 Mist 19 1008 83 10000 2.19 268.953 23:44 01.07.2019
5579 Mist 19 1008 83 10000 2.19 268.953 23:19 01.07.2019
5580 Mist 20 1008 93 8000 0.5 170 22:44 01.07.2019
5581 Mist 20 1008 93 9000 1 170 22:26 01.07.2019
5582 Mist 20 1008 93 10000 1 160 21:46 01.07.2019
5583 Mist 20 1008 93 10000 1 160 21:25 01.07.2019
5584 Mist 20 1008 93 10000 0.5 180 20:51 01.07.2019
5585 Mist 20 1007 82 10000 1 160 20:21 01.07.2019
5586 Mist 20 1007 82 10000 1 160 19:57 01.07.2019
5587 Mist 20 1007 83 10000 3.63 250.371 19:38 01.07.2019
5588 Mist 20 1007 83 10000 3.63 250.371 19:38 01.07.2019
5589 Mist 20 1007 83 10000 3.63 250.371 19:20 01.07.2019
5590 Mist 20 1007 82 10000 1 130 18:50 01.07.2019
5591 Mist 20 1007 82 10000 1 160 18:28 01.07.2019
5592 Mist 20 1007 82 10000 1.5 150 17:48 01.07.2019
5593 Mist 20 1007 82 10000 1.5 150 17:28 01.07.2019
5594 Haze 20 1008 94 4800 1 190 16:58 01.07.2019
5595 Haze 21 1008 94 4800 1.5 190 16:40 01.07.2019
5596 Haze 21 1007 73 10000 1 180 16:22 01.07.2019
5597 Haze 22 1008 83 10000 0.5 230 15:44 01.07.2019
5598 Haze 22 1007 68 10000 0.5 190 15:23 01.07.2019
5599 Haze 22 1006 64 10000 0.5 150 14:44 01.07.2019
5600 Haze 22 1006 64 10000 0.5 150 14:22 01.07.2019
5601 Haze 24 1006 60 10000 0.5 180 13:48 01.07.2019
5602 Haze 24 1005 57 10000 1.5 230 13:24 01.07.2019
5603 Haze 25 1006 53 10000 3.6 240 12:58 01.07.2019
5604 Haze 25 1007 64 10000 2.1 230 12:38 01.07.2019
5605 Haze 26 1005 50 10000 2.1 220 12:20 01.07.2019
5606 Haze 26 1004 51 10000 2.1 210 11:45 01.07.2019
5607 Haze 27 1004 48 10000 3.1 250 11:23 01.07.2019
5608 Haze 28 1004 48 10000 3.1 260 10:48 01.07.2019
5609 Haze 28 1004 48 10000 1.5 220 10:25 01.07.2019
5610 Haze 28 1006 54 10000 2.1 260 09:59 01.07.2019
5611 Haze 28 1006 57 10000 3.1 240 09:40 01.07.2019
5612 Haze 28 1004 45 10000 2.1 180 09:21 01.07.2019
5613 Haze 28 1006 51 10000 3.6 230 08:38 01.07.2019
5614 Haze 28 1006 51 10000 3.6 230 08:38 01.07.2019
5615 Haze 28 1005 45 10000 2.6 180 08:19 01.07.2019
5616 Haze 28 1005 48 10000 1 190 07:28 01.07.2019
5617 Mist 27 1006 45 10000 2.1 190 06:30 01.07.2019
5618 Mist 23 1005 78 4800 2.1 200 02:21 01.07.2019
5619 Mist 21 1006 88 4800 1 270 00:49 01.07.2019
5620 Mist 21 1006 88 4000 0.5 180 00:29 01.07.2019
5621 Mist 20 1006 83 4800 1 220 23:56 30.06.2019
5622 Mist 20 1004 94 4800 0.5 170 23:21 30.06.2019
5623 Mist 20 1004 94 4800 1 160 22:52 30.06.2019
5624 Mist 20 1004 94 4800 1 150 22:21 30.06.2019
5625 Mist 20 1003 83 10000 1.66 320.186 21:42 30.06.2019
5626 Mist 20 1003 88 4800 0.5 170 21:20 30.06.2019
5627 Mist 21 1005 93 2000 1 150 20:56 30.06.2019
5628 Mist 21 1005 100 2400 0.5 150 20:38 30.06.2019
5629 Mist 21 1003 94 4800 0.5 160 20:19 30.06.2019
5630 Mist 21 1003 83 4800 0.5 160 19:44 30.06.2019
5631 Mist 21 1004 83 4800 2.6 240 19:24 30.06.2019
5632 Mist 22 1003 88 6000 1 160 18:26 30.06.2019
5633 Mist 22 1005 94 2000 1 220 17:59 30.06.2019
5634 Mist 22 1005 94 2400 2.1 220 17:39 30.06.2019
5635 Mist 22 1003 88 4800 0.5 160 17:18 30.06.2019
5636 Mist 22 1003 88 4800 0.5 160 16:48 30.06.2019
5637 Mist 22 1003 88 6000 0.5 160 16:26 30.06.2019
5638 Mist 23 1004 94 2800 2.6 210 15:38 30.06.2019
5639 Mist 23 1003 83 6000 0.5 160 15:19 30.06.2019
5640 Mist 24 1002 83 6000 0.5 160 14:51 30.06.2019
5641 Mist 24 1002 83 10000 4.65 248.21 14:30 30.06.2019
5642 Mist 24 1002 78 6000 1.5 250 13:48 30.06.2019
5643 Mist 24 1002 83 10000 5.08 261.284 13:29 30.06.2019
5644 Mist 25 1002 78 9656 3.6 250 12:53 30.06.2019
5645 Mist 25 1003 83 6000 2.6 220 12:28 30.06.2019
5646 Mist 25 1001 83 10000 6.82 237.566 11:58 30.06.2019
5647 Mist 26 1003 83 6000 2.6 230 11:39 30.06.2019
5648 Haze 26 1001 65 10000 1.5 250 11:19 30.06.2019
5649 Haze 26 1000 65 10000 1.5 240 10:45 30.06.2019
5650 Haze 26 1000 61 10000 3.1 210 10:20 30.06.2019
5651 Haze 27 1000 69 10000 2.1 210 09:57 30.06.2019
5652 Haze 27 1002 74 10000 4.1 240 09:37 30.06.2019
5653 Haze 27 1000 61 10000 2.6 200 09:19 30.06.2019
5654 Haze 27 1000 69 10000 6.51 224.159 08:40 30.06.2019
5655 Haze 27 1000 58 10000 2.6 210 08:20 30.06.2019
5656 Haze 27 1001 61 10000 2.1 230 07:41 30.06.2019
5657 Haze 27 1000 54 10000 2.6 170 07:21 30.06.2019
5658 Haze 27 1002 65 10000 3.1 220 06:31 30.06.2019
5659 Mist 24 1000 73 6000 2.1 180 03:27 30.06.2019
5660 Mist 23 1000 88 4800 1.5 190 01:50 30.06.2019
5661 Mist 21 1001 94 3200 1 190 00:39 30.06.2019
5662 Mist 21 999 94 10000 1 180 00:19 30.06.2019
5663 Mist 20 998 88 6000 4.05 294.099 23:39 29.06.2019
5664 Mist 20 998 88 6000 4.05 294.099 23:39 29.06.2019
5665 Mist 20 999 100 8000 0.5 160 23:20 29.06.2019
5666 Haze 20 1000 100 1200 1 140 22:42 29.06.2019
5667 Mist 20 998 106 6000 0.5 140 22:22 29.06.2019
5668 Haze 20 998 100 9000 1 170 21:54 29.06.2019
5669 Haze 20 998 100 9000 1 130 21:24 29.06.2019
5670 Haze 20 997 100 8000 0.5 160 20:46 29.06.2019
5671 Haze 21 998 93 8000 0.5 260 20:28 29.06.2019
5672 Mist 20 997 100 8000 0.5 160 19:55 29.06.2019
5673 Mist 20 999 94 2000 0.5 170 19:36 29.06.2019
5674 Mist 21 997 100 8000 0.5 200 19:18 29.06.2019
5675 Mist 21 997 78 10000 3.34 312.217 18:44 29.06.2019
5676 Mist 21 997 100 9000 4.23 302.426 18:22 29.06.2019
5677 Mist 21 998 94 4000 0.5 150 17:37 29.06.2019
5678 Mist 21 997 100 10000 0.5 110 17:19 29.06.2019
5679 Fog 22 998 94 6000 4.23 302.426 16:42 29.06.2019
5680 Mist 22 998 94 4800 1 360 15:59 29.06.2019
5681 Mist 23 998 94 8000 0.5 360 15:31 29.06.2019
5682 Rain 23 996 69 10000 3.7 300.449 14:46 29.06.2019
5683 Rain 23 996 69 10000 3.7 300.449 14:27 29.06.2019
5684 Rain 23 996 69 10000 3.7 300.449 14:27 29.06.2019
5685 Rain 23 996 69 10000 3.7 300.449 14:27 29.06.2019
5686 Haze 24 996 83 10000 0.5 30 13:54 29.06.2019
5687 Haze 24 997 83 10000 1.5 10 13:27 29.06.2019
5688 Haze 25 997 78 10000 1 20 12:59 29.06.2019
5689 Haze 25 997 78 10000 1.5 360 12:38 29.06.2019
5690 Mist 26 995 65 10000 0.5 310 12:20 29.06.2019
5691 Mist 26 997 73 10000 0.5 40 11:42 29.06.2019
5692 Mist 26 996 69 10000 1.5 130 11:23 29.06.2019
5693 Drizzle 26 995 57 10000 1.5 210 10:49 29.06.2019
5694 Mist 26 995 58 10000 1 180 10:21 29.06.2019
5695 Mist 26 996 65 10000 2.1 160 09:55 29.06.2019
5696 Mist 25 996 57 10000 1.5 260 08:55 29.06.2019
5697 Mist 26 997 69 10000 1 180 08:30 29.06.2019
5698 Rain 26 998 65 10000 2.1 110 07:45 29.06.2019
5699 Haze 25 997 69 10000 2.6 330 06:49 29.06.2019
5700 Haze 25 998 73 10000 1.5 350 06:25 29.06.2019
5701 Haze 21 1000 88 10000 1.5 360 03:55 29.06.2019
5702 Rain 20 1000 88 8000 0.81 206.787 01:42 29.06.2019
5703 Rain 20 1000 88 8000 0.81 206.787 01:42 29.06.2019
5704 Rain 20 1000 83 4800 0.56 214.604 00:32 29.06.2019
5705 Rain 20 1000 83 4800 4.45 240.236 23:38 28.06.2019
5706 Rain 20 1000 100 10000 0.5 140 23:20 28.06.2019
5707 Rain 20 1001 100 10000 0.5 160 22:46 28.06.2019
5708 Rain 20 1000 88 6000 4.45 240.236 21:59 28.06.2019
5709 Rain 20 1000 88 4800 4.05 224.029 21:27 28.06.2019
5710 Mist 20 1002 88 10000 2.8 234.125 20:55 28.06.2019
5711 Rain 20 1002 88 6000 1 150 20:37 28.06.2019
5712 Rain 20 1003 94 6000 1 150 20:18 28.06.2019
5713 Rain 20 1001 83 9000 2.8 234.125 19:37 28.06.2019
5714 Rain 21 1001 82 10000 1 130 19:19 28.06.2019
5715 Rain 21 1001 68 10000 2.8 234.125 18:41 28.06.2019
5716 Rain 22 1001 68 10000 0.5 120 18:21 28.06.2019
5717 Rain 22 1001 60 10000 1.98 246.084 17:38 28.06.2019
5718 Rain 22 1002 56 10000 1.5 260 17:18 28.06.2019
5719 Rain 23 1002 53 10000 1.98 246.084 16:41 28.06.2019
5720 Haze 23 1002 65 10000 1 230 16:18 28.06.2019
5721 Haze 23 1003 78 10000 2.1 240 15:39 28.06.2019
5722 Rain 23 1002 69 10000 1 210 15:18 28.06.2019
5723 Rain 23 1001 53 10000 2.29 236.95 14:39 28.06.2019
5724 Rain 24 1001 69 10000 1.5 180 14:21 28.06.2019
5725 Haze 24 1003 83 10000 1 250 13:45 28.06.2019
5726 Haze 25 1000 65 10000 2.1 260 13:25 28.06.2019
5727 Haze 25 1000 65 10000 3.1 260 12:50 28.06.2019
5728 Haze 25 1002 78 10000 1 270 12:31 28.06.2019
5729 Haze 26 1000 61 10000 0.5 270 11:29 28.06.2019
5730 Haze 27 1000 62 9000 0.5 330 10:47 28.06.2019
5731 Haze 29 1002 61 10000 2.1 260 10:23 28.06.2019
5732 Haze 28 1000 58 6000 0.5 270 10:00 28.06.2019
5733 Haze 28 1003 65 10000 2.1 250 09:41 28.06.2019
5734 Haze 28 1000 58 6000 2.1 300 09:22 28.06.2019
5735 Haze 28 1002 65 10000 3.1 230 08:42 28.06.2019
5736 Haze 27 1001 65 10000 2.1 230 08:23 28.06.2019
5737 Haze 27 1002 58 10000 2.6 250 07:42 28.06.2019
5738 Mist 27 1001 62 6000 2.6 260 06:49 28.06.2019
5739 Rain 25 1004 73 4000 1.5 220 03:35 28.06.2019
5740 Mist 23 1002 83 9000 0.5 10 00:46 28.06.2019
5741 Mist 23 1002 83 4000 2.6 230 00:18 28.06.2019
5742 Mist 22 1003 94 3200 0.5 270 23:41 27.06.2019
5743 Mist 22 1002 94 6000 0.5 360 23:22 27.06.2019
5744 Mist 22 1002 94 6000 1 30 22:43 27.06.2019
5745 Mist 22 1003 100 2400 0.5 40 22:24 27.06.2019
5746 Mist 22 1001 78 10000 1.5 170 21:57 27.06.2019
5747 Mist 23 1003 100 2800 1 320 21:38 27.06.2019
5748 Mist 22 1002 94 9000 0.5 50 21:19 27.06.2019
5749 Mist 23 1003 94 4000 1 120 20:45 27.06.2019
5750 Mist 23 1002 94 10000 0.5 170 20:26 27.06.2019
5751 Mist 23 1003 94 2400 1 40 19:46 27.06.2019
5752 Mist 23 1003 78 10000 1 230 19:27 27.06.2019
5753 Mist 23 1003 94 4000 1 120 18:44 27.06.2019
5754 Mist 23 1003 78 10000 1 310 18:26 27.06.2019
5755 Haze 23 1002 94 10000 0.5 170 17:47 27.06.2019
5756 Rain 23 1001 94 10000 0.5 160 17:23 27.06.2019
5757 Haze 23 1001 88 10000 0.5 160 16:55 27.06.2019
5758 Haze 23 1003 88 9000 1 280 16:36 27.06.2019
5759 Haze 23 1001 83 10000 0.5 120 16:18 27.06.2019
5760 Haze 24 1002 78 10000 1 110 15:44 27.06.2019
5761 Haze 24 1002 78 10000 1 110 15:44 27.06.2019
5762 Mist 24 1001 78 10000 0.5 180 15:18 27.06.2019
5763 Mist 24 1002 78 10000 0.5 130 14:42 27.06.2019
5764 Haze 25 1000 69 10000 2.65 282.508 14:24 27.06.2019
5765 Haze 25 1000 69 10000 0.5 140 13:46 27.06.2019
5766 Haze 26 1002 73 10000 2.1 230 13:27 27.06.2019
5767 Haze 27 999 65 10000 1 180 12:51 27.06.2019
5768 Haze 27 1001 73 10000 2.6 220 12:33 27.06.2019
5769 Haze 27 999 66 10000 1.5 190 11:55 27.06.2019
5770 Haze 28 1001 69 10000 1.5 240 11:36 27.06.2019
5771 Haze 28 999 62 10000 1.5 280 11:18 27.06.2019
5772 Haze 28 1000 69 10000 2.1 300 10:42 27.06.2019
5773 Haze 29 998 62 10000 2.1 200 10:20 27.06.2019
5774 Haze 29 998 55 10000 2.1 180 09:50 27.06.2019
5775 Mist 30 998 52 10000 2.6 190 09:21 27.06.2019
5776 Mist 30 1000 52 10000 2.1 230 08:51 27.06.2019
5777 Mist 30 1000 52 10000 2.1 230 08:30 27.06.2019
5778 Haze 30 998 46 10000 1 280 07:48 27.06.2019
5779 Haze 30 998 48 10000 0.5 210 07:24 27.06.2019
5780 Haze 29 1000 51 10000 1.5 310 06:37 27.06.2019
5781 Haze 26 1000 74 10000 1.5 350 03:52 27.06.2019
5782 Mist 24 1003 73 10000 2.1 260 02:43 27.06.2019
5783 Mist 23 1002 100 10000 1 350 01:45 27.06.2019
5784 Rain 22 1002 100 10000 1.5 360 00:53 27.06.2019
5785 Rain 22 1003 83 10000 0.5 320 00:27 27.06.2019
5786 Rain 21 1001 106 6000 1 30 23:51 26.06.2019
5787 Rain 21 1002 106 9000 0.5 50 23:23 26.06.2019
5788 Drizzle 21 1003 88 10000 1 120 22:59 26.06.2019
5789 Drizzle 22 1003 100 3200 1 180 22:40 26.06.2019
5790 Drizzle 22 1003 100 3200 1 180 22:40 26.06.2019
5791 Drizzle 21 1002 94 10000 0.5 30 22:19 26.06.2019
5792 Rain 22 1001 88 10000 0.75 356.476 21:42 26.06.2019
5793 Rain 22 1002 94 10000 0.5 30 21:21 26.06.2019
5794 Mist 22 1003 88 4000 0.5 140 20:57 26.06.2019
5795 Mist 22 1004 88 3200 0.5 90 20:37 26.06.2019
5796 Rain 22 1002 106 10000 0.5 40 20:19 26.06.2019
5797 Rain 22 1004 88 3200 1 360 19:43 26.06.2019
5798 Mist 22 1003 106 10000 0.5 40 19:23 26.06.2019
5799 Rain 21 1004 94 6000 0.5 280 18:46 26.06.2019
5800 Rain 22 1003 100 10000 0.5 140 18:23 26.06.2019
5801 Rain 22 1003 83 4800 1.5 83.821 17:58 26.06.2019
5802 Rain 22 1005 94 6000 1 150 17:38 26.06.2019
5803 Rain 23 1004 69 10000 0.5 160 17:19 26.06.2019
5804 Rain 23 1004 69 10000 1 180 16:46 26.06.2019
5805 Rain 23 1004 69 10000 1.5 160 16:22 26.06.2019
5806 Rain 24 1006 88 10000 1 300 15:37 26.06.2019
5807 Rain 24 1005 64 10000 2.41 207.584 15:19 26.06.2019
5808 Haze 25 1007 83 10000 0.5 90 14:38 26.06.2019
5809 Haze 25 1006 61 10000 1 120 14:19 26.06.2019
5810 Haze 25 1007 73 10000 0.5 200 13:42 26.06.2019
5811 Haze 25 1006 57 10000 2.1 170 13:20 26.06.2019
5812 Haze 26 1007 73 10000 1 60 12:41 26.06.2019
5813 Haze 26 1006 57 10000 1 190 12:22 26.06.2019
5814 Rain 27 1007 69 10000 1.5 50 11:45 26.06.2019
5815 Rain 27 1006 57 10000 1.5 180 11:19 26.06.2019
5816 Rain 27 1007 69 10000 2.1 30 10:41 26.06.2019
5817 Rain 27 1005 51 10000 1 270 10:22 26.06.2019
5818 Haze 28 1008 61 10000 2.1 20 09:42 26.06.2019
5819 Haze 28 1007 48 10000 2.6 170 09:18 26.06.2019
5820 Haze 28 1009 61 10000 1 10 08:41 26.06.2019
5821 Haze 28 1008 48 10000 3.1 190 08:19 26.06.2019
5822 Haze 27 1008 58 10000 1.5 210 07:45 26.06.2019
5823 Haze 27 1011 54 10000 1.5 120 06:38 26.06.2019
5824 Haze 27 1009 65 10000 1.5 170 06:20 26.06.2019
5825 Haze 21 1013 93 10000 1.5 340 00:59 26.06.2019
5826 Mist 20 1012 82 10000 0.5 20 00:20 26.06.2019
5827 Mist 19 1013 93 6000 1 70 23:43 25.06.2019
5828 Mist 19 1012 93 10000 1.5 10 23:24 25.06.2019
5829 Mist 19 1013 100 3200 1.5 20 22:56 25.06.2019
5830 Mist 19 1013 100 4000 0.5 60 22:37 25.06.2019
5831 Mist 19 1012 93 10000 0.5 160 22:19 25.06.2019
5832 Haze 19 1013 82 10000 0.5 10 21:40 25.06.2019
5833 Haze 20 1013 100 6000 1 10 21:21 25.06.2019
5834 Haze 20 1013 93 10000 1 130 20:43 25.06.2019
5835 Haze 20 1013 93 10000 1 130 20:43 25.06.2019
5836 Haze 20 1012 93 10000 0.5 20 20:20 25.06.2019
5837 Haze 20 1012 93 10000 0.5 20 20:20 25.06.2019
5838 Haze 20 1012 88 10000 0.5 60 19:45 25.06.2019
5839 Haze 21 1012 82 10000 0.5 70 19:23 25.06.2019
5840 Haze 21 1014 93 10000 0.5 100 18:44 25.06.2019
5841 Haze 21 1014 93 10000 0.5 100 18:44 25.06.2019
5842 Haze 21 1013 77 10000 0.5 160 18:26 25.06.2019
5843 -273 0 0 0 0 0 17:53 25.06.2019
5844 -273 0 0 0 0 0 17:53 25.06.2019
5845 -273 0 0 0 0 0 17:53 25.06.2019
5846 -273 0 0 0 0 0 17:52 25.06.2019
5847 -273 0 0 0 0 0 17:29 25.06.2019
5848 -273 0 0 0 0 0 17:29 25.06.2019
5849 -273 0 0 0 0 0 17:29 25.06.2019
5850 -273 0 0 0 0 0 17:29 25.06.2019
5851 Haze 22 1013 73 10000 0.5 70 16:57 25.06.2019
5852 Haze 22 1015 88 10000 0.5 130 16:38 25.06.2019
5853 Haze 22 1014 64 10000 0.5 130 16:19 25.06.2019
5854 Haze 23 1015 77 10000 1 120 15:40 25.06.2019
5855 Haze 24 1014 60 10000 1 180 15:21 25.06.2019
5856 Haze 24 1014 57 10000 0.5 200 14:51 25.06.2019
5857 Haze 24 1014 57 10000 0.5 200 14:51 25.06.2019
5858 Haze 24 1015 73 10000 1 130 14:32 25.06.2019
5859 Haze 25 1015 60 10000 1 210 13:43 25.06.2019
5860 Haze 26 1013 48 10000 0.5 260 13:24 25.06.2019
5861 Haze 28 1014 57 10000 1 230 12:43 25.06.2019
5862 Haze 28 1012 42 10000 1.5 340 12:24 25.06.2019
5863 Haze 30 1012 38 10000 2.1 320 11:47 25.06.2019
5864 Haze 31 1012 45 10000 2.1 300 11:26 25.06.2019
5865 Haze 31 1011 29 10000 1.5 180 10:59 25.06.2019
5866 Haze 31 1011 29 10000 1.5 180 10:58 25.06.2019
5867 Haze 31 1013 27 10000 1 180 10:37 25.06.2019
5868 Haze 31 1014 45 10000 1.5 330 10:19 25.06.2019
5869 Haze 31 1014 42 10000 2.1 300 09:39 25.06.2019
5870 Haze 31 1012 31 10000 2.6 210 09:21 25.06.2019
5871 Haze 31 1014 42 10000 3.1 250 08:54 25.06.2019
5872 Haze 31 1014 37 10000 2.1 320 08:31 25.06.2019
5873 Haze 31 1012 33 10000 2.1 190 07:44 25.06.2019
5874 Haze 31 1013 38 10000 2.1 230 07:25 25.06.2019
5875 Haze 30 1015 45 10000 2.1 240 06:44 25.06.2019
5876 Haze 30 1015 42 10000 1.5 170 05:56 25.06.2019
5877 Haze 24 1017 73 8000 0.5 70 02:43 25.06.2019
5878 Mist 20 1018 82 4800 0.5 350 00:39 25.06.2019
5879 Mist 18 1016 77 10000 0.5 70 00:19 25.06.2019
5880 Mist 18 1016 88 10000 0.5 130 23:51 24.06.2019
5881 Mist 18 1017 100 1600 2.68 196.227 23:32 24.06.2019
5882 Mist 17 1016 93 10000 1 140 22:46 24.06.2019
5883 Mist 18 1016 88 10000 1 170 22:20 24.06.2019
5884 Mist 18 1016 88 10000 0.5 160 21:54 24.06.2019
5885 Mist 18 1017 93 2000 0.5 60 21:36 24.06.2019
5886 Mist 18 1015 88 10000 0.5 170 21:18 24.06.2019
5887 Mist 19 1017 93 3200 0.5 260 20:42 24.06.2019
5888 Mist 19 1015 82 10000 1 140 20:22 24.06.2019
5889 Mist 19 1015 82 10000 1 170 19:48 24.06.2019
5890 Mist 19 1016 77 10000 0.5 130 19:26 24.06.2019
5891 Haze 19 1015 77 10000 1.5 160 18:54 24.06.2019
5892 Haze 19 1016 88 10000 1 130 18:31 24.06.2019
5893 Haze 20 1016 88 10000 0.5 130 17:59 24.06.2019
5894 Haze 20 1016 88 10000 0.5 170 17:37 24.06.2019
5895 Haze 20 1016 93 10000 0.5 160 16:56 24.06.2019
5896 Haze 21 1016 82 10000 1 130 16:37 24.06.2019
5897 Clear 21 1014 73 10000 1 180 16:19 24.06.2019
5898 Clear 21 1016 82 10000 1 150 15:40 24.06.2019
5899 Clear 22 1014 64 10000 0.5 130 15:21 24.06.2019
5900 Clear 23 1015 73 10000 0.5 210 14:35 24.06.2019
5901 Haze 24 1013 57 10000 0.5 130 13:56 24.06.2019
5902 Haze 24 1014 56 10000 1.5 230 13:31 24.06.2019
5903 Haze 26 1012 47 10000 1 190 12:45 24.06.2019
5904 Haze 26 1011 42 10000 1 200 12:26 24.06.2019
5905 Haze 28 1013 42 10000 1.5 230 11:59 24.06.2019
5906 Haze 28 1013 42 10000 1.5 230 11:59 24.06.2019
5907 Haze 28 1013 50 10000 3.1 290 11:40 24.06.2019
5908 Haze 29 1011 39 10000 2.1 260 11:20 24.06.2019
5909 Haze 29 1011 39 10000 2.1 280 10:47 24.06.2019
5910 Haze 29 1012 51 10000 2.1 300 10:27 24.06.2019
5911 Haze 29 1010 42 10000 1.5 190 09:49 24.06.2019
5912 Haze 29 1010 38 10000 2.1 200 09:22 24.06.2019
5913 Haze 30 1010 38 10000 1.5 200 08:52 24.06.2019
5914 Haze 30 1011 40 10000 1.5 200 08:25 24.06.2019
5915 Clear 30 1013 45 10000 1 250 07:45 24.06.2019
5916 Clouds 30 1011 37 10000 1.5 360 07:26 24.06.2019
5917 Clear 29 1013 48 10000 1.5 200 06:39 24.06.2019
5918 Haze 29 1011 37 10000 1.5 150 06:19 24.06.2019
5919 Haze 27 1013 47 10000 2.6 210 04:59 24.06.2019
5920 Haze 27 1012 51 10000 2.1 210 04:23 24.06.2019
5921 Haze 25 1012 57 10000 1.5 270 02:55 24.06.2019
5922 Haze 24 1014 60 10000 1 180 01:59 24.06.2019
5923 Haze 23 1014 64 10000 1 140 01:41 24.06.2019
5924 Haze 23 1012 64 10000 1.5 330 01:21 24.06.2019
5925 Clouds 21 1013 82 10000 1 360 00:39 24.06.2019
5926 Clouds 20 1013 82 10000 1 50 00:18 24.06.2019
5927 Clear 19 1013 93 10000 0.5 20 23:43 23.06.2019
5928 Clouds 19 1012 77 10000 1.32 286.487 23:21 23.06.2019
5929 Clouds 19 1012 100 10000 0.5 10 22:42 23.06.2019
5930 Clouds 19 1011 72 10000 1 30 22:20 23.06.2019
5931 Clear 20 1012 93 10000 1 340 21:44 23.06.2019
5932 Clouds 20 1011 77 10000 1 20 21:25 23.06.2019
5933 Clouds 20 1012 88 10000 0.5 70 20:57 23.06.2019
5934 Clouds 20 1011 88 10000 0.5 60 20:38 23.06.2019
5935 Clouds 20 1010 77 10000 1 30 20:19 23.06.2019
5936 Clouds 20 1011 82 10000 0.5 110 19:43 23.06.2019
5937 Clouds 20 1010 82 10000 2.1 40 19:20 23.06.2019
5938 Clouds 20 1010 82 10000 2.1 40 19:20 23.06.2019
5939 Clouds 21 1010 82 10000 2.1 20 18:47 23.06.2019
5940 Clouds 21 1009 88 10000 1 30 18:20 23.06.2019
5941 Clear 21 1009 88 10000 0.5 360 17:45 23.06.2019
5942 Clear 21 1009 88 10000 0.5 50 17:25 23.06.2019
5943 Clouds 21 1009 82 10000 0.5 20 16:46 23.06.2019
5944 Clouds 21 1011 73 10000 1 160 16:25 23.06.2019
5945 Clear 22 1009 77 10000 0.5 140 15:55 23.06.2019
5946 Clouds 22 1011 68 10000 1 140 15:37 23.06.2019
5947 Clear 22 1009 77 10000 0.5 70 15:18 23.06.2019
5948 Clear 23 1010 64 10000 1 180 14:38 23.06.2019
5949 Clear 24 1008 73 10000 0.5 340 14:20 23.06.2019
5950 Clear 24 1009 57 10000 1 220 13:43 23.06.2019
5951 Clear 25 1008 60 10000 0.5 10 13:21 23.06.2019
5952 Clear 25 1009 53 10000 1.5 210 12:59 23.06.2019
5953 Clear 26 1009 50 10000 2.6 290 12:40 23.06.2019
5954 Clear 27 1007 57 10000 1 340 12:19 23.06.2019
5955 Clouds 28 1009 50 10000 4.1 280 11:46 23.06.2019
5956 Clouds 28 1009 50 10000 4.1 280 11:27 23.06.2019
5957 Clouds 29 1007 48 10000 0.5 340 10:49 23.06.2019
5958 Clouds 29 1007 45 10000 0.5 360 10:21 23.06.2019
5959 Clear 29 1008 42 10000 2.6 290 09:57 23.06.2019
5960 Clouds 29 1006 35 10000 0.5 140 09:22 23.06.2019
5961 Clouds 29 1007 37 10000 0.5 20 08:47 23.06.2019
5962 Clouds 29 1006 39 10000 5.76 265.89 08:28 23.06.2019
5963 Clouds 28 1007 35 10000 1 10 07:56 23.06.2019
5964 Clouds 29 1009 44 10000 2.1 340 07:38 23.06.2019
5965 Clouds 29 1007 39 10000 2.1 270 07:18 23.06.2019
5966 Clear 28 1007 37 10000 1.5 350 06:43 23.06.2019
5967 Clear 27 1008 42 10000 2.1 330 04:53 23.06.2019
5968 Clear 24 1011 53 10000 1.5 60 02:32 23.06.2019
5969 Clear 22 1011 64 10000 1.5 50 01:39 23.06.2019
5970 Clear 20 1008 64 10000 1.5 10 00:47 23.06.2019
5971 Clear 20 1010 72 10000 1 10 00:26 23.06.2019
5972 Clear 18 1010 87 10000 1 70 23:42 22.06.2019
5973 Clear 18 1010 87 10000 1 70 23:24 22.06.2019
5974 Clouds 17 1008 82 10000 1 350 22:46 22.06.2019
5975 Clear 18 1009 82 10000 0.5 360 22:24 22.06.2019
5976 Clear 18 1009 72 10000 1.5 60 21:42 22.06.2019
5977 Clear 18 1008 77 10000 1.5 20 21:20 22.06.2019
5978 Clear 18 1008 77 10000 1.5 30 20:54 22.06.2019
5979 Clear 18 1008 72 10000 1 30 20:27 22.06.2019
5980 Clear 19 1008 72 10000 1 30 19:58 22.06.2019
5981 Clear 19 1009 77 10000 2.6 30 19:39 22.06.2019
5982 Clear 20 1007 68 10000 1 30 19:19 22.06.2019
5983 Clear 20 1009 68 10000 3.1 40 18:41 22.06.2019
5984 Clear 21 1007 63 10000 0.5 20 18:19 22.06.2019
5985 Clear 21 1009 72 10000 2.6 30 17:40 22.06.2019
5986 Clear 21 1008 60 10000 0.5 50 17:22 22.06.2019
5987 Clear 22 1009 68 10000 2.6 40 16:40 22.06.2019
5988 Clear 22 1007 60 10000 0.5 40 16:22 22.06.2019
5989 Clear 23 1008 60 10000 3.1 40 15:42 22.06.2019
5990 Clouds 23 1008 53 10000 0.5 310 15:24 22.06.2019
5991 Clear 24 1007 49 10000 0.5 20 14:50 22.06.2019
5992 Clouds 24 1008 60 10000 2.1 50 14:29 22.06.2019
5993 Clear 25 1007 53 10000 1 80 13:44 22.06.2019
5994 Clouds 25 1006 44 10000 0.5 60 13:26 22.06.2019
5995 Clouds 26 1005 53 10000 1 30 12:54 22.06.2019
5996 Clear 27 1007 50 10000 1.5 10 12:36 22.06.2019
5997 Clear 27 1006 44 10000 1.5 20 11:59 22.06.2019
5998 Clear 28 1006 42 10000 3.6 20 11:36 22.06.2019
5999 Clouds 28 1004 39 10000 1 20 10:54 22.06.2019
6000 Clouds 29 1004 30 10000 1 290 10:22 22.06.2019
6001 Clear 29 1004 30 10000 1.5 320 09:55 22.06.2019
6002 Clouds 29 1005 35 10000 2.6 330 09:23 22.06.2019
6003 Clouds 29 1005 35 10000 1.5 340 08:44 22.06.2019
6004 Clear 29 1005 35 10000 1.5 330 08:25 22.06.2019
6005 Clear 29 1007 44 10000 2.1 320 07:35 22.06.2019
6006 Clear 28 1005 39 10000 2.6 330 06:56 22.06.2019
6007 Clear 27 1006 42 10000 2.1 350 05:23 22.06.2019
6008 Clear 22 1009 60 10000 3.1 50 02:33 22.06.2019
6009 Clear 20 1007 60 10000 2.1 350 01:22 22.06.2019
6010 Haze 19 1009 72 10000 1.5 30 00:41 22.06.2019
6011 Haze 19 1007 77 10000 1.5 30 00:22 22.06.2019
6012 Haze 17 1007 87 10000 1.5 20 23:44 21.06.2019
6013 Haze 17 1007 87 10000 1.5 20 23:22 21.06.2019
6014 Haze 17 1007 87 10000 1.5 20 22:50 21.06.2019
6015 Haze 17 1007 87 10000 1 10 22:24 21.06.2019
6016 Haze 17 1009 87 10000 1.5 360 21:41 21.06.2019
6017 Haze 17 1009 87 10000 1.5 360 21:41 21.06.2019
6018 Haze 17 1007 82 10000 1 30 21:22 21.06.2019
6019 Haze 18 1008 82 10000 1 20 20:54 21.06.2019
6020 Haze 18 1007 82 10000 1 30 20:28 21.06.2019
6021 Haze 18 1008 82 10000 2.6 50 19:59 21.06.2019
6022 Haze 18 1009 87 10000 2.1 40 19:31 21.06.2019
6023 Mist 19 1009 82 10000 1.5 10 18:48 21.06.2019
6024 Mist 19 1008 77 10000 1 320 18:28 21.06.2019
6025 Mist 20 1008 68 10000 2.1 20 17:46 21.06.2019
6026 Mist 20 1009 88 10000 2.1 40 17:27 21.06.2019
6027 Mist 20 1009 88 10000 2.6 20 16:40 21.06.2019
6028 Mist 20 1008 68 10000 0.5 60 16:21 21.06.2019
6029 Mist 20 1008 88 10000 1.5 20 15:39 21.06.2019
6030 Mist 20 1007 82 10000 1 20 15:20 21.06.2019
6031 Haze 20 1007 88 10000 1.5 330 14:47 21.06.2019
6032 Haze 20 1006 88 10000 4.14 315.92 14:28 21.06.2019
6033 Rain 21 1005 83 10000 4.14 315.92 13:46 21.06.2019
6034 Rain 21 1006 77 10000 2.1 280 13:27 21.06.2019
6035 Rain 22 1005 88 10000 1 350 12:54 21.06.2019
6036 Haze 22 1005 83 10000 2.1 360 12:24 21.06.2019
6037 Mist 23 1004 69 10000 1.5 250 11:59 21.06.2019
6038 Mist 23 1006 69 10000 3.6 40 11:40 21.06.2019
6039 Mist 24 1005 83 10000 2.1 360 11:22 21.06.2019
6040 Mist 24 1005 78 10000 0.5 20 10:47 21.06.2019
6041 Mist 25 1005 69 10000 1 30 10:21 21.06.2019
6042 -273 0 0 0 0 0 10:21 21.06.2019
6043 Haze 25 1004 60 10000 1.5 50 09:55 21.06.2019
6044 Haze 25 1006 69 10000 1.5 280 09:36 21.06.2019
6045 Haze 25 1006 73 10000 1.5 290 09:18 21.06.2019
6046 Haze 26 1006 65 10000 2.6 230 08:41 21.06.2019
6047 Haze 26 1004 51 10000 0.5 360 08:20 21.06.2019
6048 Haze 25 1004 51 10000 1.5 170 07:46 21.06.2019
6049 Haze 25 1004 54 10000 1.5 170 07:23 21.06.2019
6050 Haze 25 1007 65 10000 1 240 06:38 21.06.2019
6051 Haze 24 1005 47 10000 2.1 310 06:18 21.06.2019
6052 Mist 23 1006 69 10000 1.5 200 04:53 21.06.2019
6053 Mist 23 1006 78 10000 0.5 320 03:49 21.06.2019
6054 Mist 23 1006 73 10000 1.5 230 03:30 21.06.2019
6055 Haze 22 1008 83 6000 1 330 02:42 21.06.2019
6056 Mist 21 1008 83 6000 1 270 01:32 21.06.2019
6057 Mist 20 1006 88 9000 2.28 231.635 00:48 21.06.2019
6058 Mist 20 1006 83 10000 0.59 295.134 23:59 20.06.2019
6059 Mist 20 1006 83 10000 0.59 295.134 23:40 20.06.2019
6060 Mist 20 1006 94 10000 0.5 160 23:20 20.06.2019
6061 Mist 19 1006 100 9000 1 170 22:44 20.06.2019
6062 Mist 19 1006 93 10000 1 170 22:23 20.06.2019
6063 Mist 19 1007 93 3200 1 170 21:56 20.06.2019
6064 Mist 18 1007 100 2800 0.5 170 21:38 20.06.2019
6065 Mist 19 1006 93 9000 0.5 130 21:19 20.06.2019
6066 Mist 19 1008 93 3200 0.5 70 20:42 20.06.2019
6067 Mist 19 1006 93 9000 0.5 190 20:23 20.06.2019
6068 Mist 19 1006 77 10000 1.84 296.05 19:46 20.06.2019
6069 Mist 19 1006 93 9000 0.5 110 19:19 20.06.2019
6070 Mist 19 1006 88 10000 1.84 296.05 18:58 20.06.2019
6071 Mist 20 1008 88 8000 1.84 296.05 18:40 20.06.2019
6072 Mist 20 1007 100 10000 0.5 90 18:21 20.06.2019
6073 Mist 20 1007 94 10000 0.5 50 17:47 20.06.2019
6074 Mist 20 1007 83 10000 2.65 267.575 17:29 20.06.2019
6075 Mist 20 1007 88 10000 0.5 190 16:44 20.06.2019
6076 Mist 21 1007 83 10000 1 180 16:20 20.06.2019
6077 Mist 21 1009 94 4800 0.5 270 15:56 20.06.2019
6078 Mist 21 1009 100 6000 1 210 15:38 20.06.2019
6079 Mist 21 1007 78 10000 1 170 15:18 20.06.2019
6080 Haze 22 1009 94 10000 0.5 230 14:43 20.06.2019
6081 Haze 22 1006 73 10000 1 170 14:21 20.06.2019
6082 Haze 22 1008 88 10000 1.5 310 13:40 20.06.2019
6083 Haze 23 1006 64 10000 0.5 210 13:19 20.06.2019
6084 Haze 24 1006 61 10000 1.5 200 12:44 20.06.2019
6085 Haze 24 1005 61 10000 2.1 270 12:23 20.06.2019
6086 Haze 25 1005 57 10000 2.1 280 11:45 20.06.2019
6087 Haze 25 1005 57 10000 1 290 11:24 20.06.2019
6088 Haze 26 1004 54 10000 1 240 10:48 20.06.2019
6089 Haze 26 1004 54 10000 1.5 280 10:25 20.06.2019
6090 Clouds 27 1007 65 10000 1.5 260 09:59 20.06.2019
6091 Haze 27 1007 65 10000 1.5 250 09:40 20.06.2019
6092 Haze 27 1005 51 9000 1.5 190 09:21 20.06.2019
6093 Haze 27 1005 51 10000 2.6 200 08:45 20.06.2019
6094 Haze 27 1007 61 10000 2.1 290 08:27 20.06.2019
6095 Haze 27 1005 51 10000 2.6 180 07:53 20.06.2019
6096 Haze 27 1008 57 10000 2.1 210 07:28 20.06.2019
6097 Haze 26 1007 54 10000 1.5 260 06:27 20.06.2019
6098 Haze 24 1007 57 10000 1 280 04:53 20.06.2019
6099 Mist 22 1009 83 10000 1.5 250 02:29 20.06.2019
6100 Mist 20 1009 94 6000 0.5 180 00:34 20.06.2019
6101 Mist 19 1008 100 6000 1 340 23:49 19.06.2019
6102 Mist 19 1009 100 2000 0.69 298.009 23:30 19.06.2019
6103 Mist 20 1007 100 4800 0.5 330 22:49 19.06.2019
6104 Mist 20 1007 100 4800 0.5 50 22:25 19.06.2019
6105 Mist 20 1009 100 2000 0.5 180 21:58 19.06.2019
6106 Mist 20 1009 100 3200 0.5 120 21:40 19.06.2019
6107 Mist 20 1007 100 4800 0.5 110 21:21 19.06.2019
6108 Mist 20 1009 94 4000 0.5 190 20:42 19.06.2019
6109 Mist 20 1007 94 4800 1.5 180 20:21 19.06.2019
6110 Mist 20 1007 94 4800 1 120 19:46 19.06.2019
6111 Mist 20 1009 94 3200 1 30 19:28 19.06.2019
6112 Mist 20 1007 94 6000 0.5 140 18:57 19.06.2019
6113 Mist 20 1008 88 6000 0.5 350 18:26 19.06.2019
6114 Mist 20 1007 100 6000 0.5 170 17:53 19.06.2019
6115 Mist 20 1009 88 9000 1 250 17:27 19.06.2019
6116 Mist 20 1009 94 4800 0.5 150 16:56 19.06.2019
6117 Haze 20 1009 94 6000 0.5 130 16:37 19.06.2019
6118 Mist 20 1008 88 6000 1 190 16:19 19.06.2019
6119 Mist 20 1008 88 6000 2.24 296.873 15:45 19.06.2019
6120 Mist 21 1007 88 6000 1 220 15:24 19.06.2019
6121 Mist 20 1007 83 10000 3.36 275.952 15:24 19.06.2019
6122 Haze 21 1007 83 10000 3.36 275.952 14:44 19.06.2019
6123 Haze 21 1007 83 10000 3.36 275.952 14:26 19.06.2019
6124 Haze 21 1006 83 9000 1 290 13:48 19.06.2019
6125 Haze 21 1006 83 10000 3.71 268.686 13:29 19.06.2019
6126 Haze 22 1008 94 6000 1 260 12:59 19.06.2019
6127 Haze 22 1008 94 9000 2.1 290 12:41 19.06.2019
6128 Haze 23 1006 83 10000 0.5 330 12:19 19.06.2019
6129 Haze 23 1008 88 10000 1.5 270 11:43 19.06.2019
6130 Haze 23 1008 88 10000 1.5 270 11:43 19.06.2019
6131 Haze 23 1006 73 10000 0.5 350 11:21 19.06.2019
6132 Haze 24 1006 73 10000 1 330 10:49 19.06.2019
6133 Haze 24 1006 73 10000 0.5 320 10:28 19.06.2019
6134 Haze 24 1006 73 10000 1 350 09:56 19.06.2019
6135 Haze 24 1008 83 10000 2.1 310 09:38 19.06.2019
6136 Haze 24 1008 83 10000 2.1 310 09:38 19.06.2019
6137 Mist 25 1006 73 10000 1.5 330 09:18 19.06.2019
6138 Mist 25 1008 73 10000 1 280 08:43 19.06.2019
6139 Mist 25 1006 73 10000 1 360 08:25 19.06.2019
6140 Mist 25 1006 69 10000 1 40 07:44 19.06.2019
6141 Mist 25 1006 69 10000 1 20 07:23 19.06.2019
6142 Haze 24 1008 69 10000 2.1 240 06:42 19.06.2019
6143 Haze 24 1007 65 10000 0.5 340 06:19 19.06.2019
6144 Haze 24 1009 73 10000 1 210 05:32 19.06.2019
6145 Mist 22 1009 78 8000 0.5 10 03:54 19.06.2019
6146 Mist 20 1008 88 8000 1 180 02:51 19.06.2019
6147 Mist 20 1010 94 4000 0.5 220 01:41 19.06.2019
6148 Mist 20 1008 106 4800 2.38 200.251 00:55 19.06.2019
6149 Mist 20 1010 100 2800 1 190 00:36 19.06.2019
6150 Mist 19 1010 100 3200 0.5 200 00:18 19.06.2019
6151 Mist 19 1010 100 1600 1 220 23:42 18.06.2019
6152 Mist 19 1009 100 3200 0.5 170 23:23 18.06.2019
6153 Mist 20 1008 88 10000 1.5 190.189 22:41 18.06.2019
6154 Mist 20 1009 106 4000 1.5 170 22:22 18.06.2019
6155 Mist 20 1010 93 4000 1.5 220 21:44 18.06.2019
6156 Mist 20 1009 106 2400 1 140 21:23 18.06.2019
6157 Mist 20 1009 106 2400 1 140 21:23 18.06.2019
6158 Mist 19 1008 100 3200 1 180 20:59 18.06.2019
6159 Mist 19 1010 93 2400 1.5 240 20:40 18.06.2019
6160 Haze 19 1008 100 2800 0.5 130 20:21 18.06.2019
6161 Haze 19 1010 93 2400 1.5 200 19:39 18.06.2019
6162 Mist 19 1008 100 2800 0.5 170 19:21 18.06.2019
6163 Mist 19 1008 100 2800 0.5 100 18:51 18.06.2019
6164 Rain 19 1008 106 2400 0.5 160 18:25 18.06.2019
6165 Mist 20 1009 106 2400 0.5 160 17:48 18.06.2019
6166 Mist 20 1009 106 2000 1 170 17:22 18.06.2019
6167 Mist 19 1008 88 6000 3.35 212.42 16:58 18.06.2019
6168 Rain 20 1010 100 1600 1 200 16:39 18.06.2019
6169 Haze 20 1009 106 2400 0.5 330 16:21 18.06.2019
6170 Mist 20 1008 88 9000 3.35 212.42 15:41 18.06.2019
6171 Mist 20 1009 88 8000 2.86 225.694 15:22 18.06.2019
6172 Mist 20 1009 88 8000 2.86 225.694 14:56 18.06.2019
6173 Rain 20 1009 94 6000 2.86 225.694 14:37 18.06.2019
6174 Rain 20 1009 106 2000 0.5 240 14:18 18.06.2019
6175 Rain 20 1009 106 2000 0.5 240 14:18 18.06.2019
6176 Rain 20 1008 83 6000 2.86 225.694 13:43 18.06.2019
6177 Rain 21 1009 113 2400 1 350 13:22 18.06.2019
6178 Rain 21 1009 78 10000 1.54 221.245 12:45 18.06.2019
6179 Rain 21 1009 78 10000 4.26 232.664 12:27 18.06.2019
6180 Rain 22 1009 100 6000 1 330 11:49 18.06.2019
6181 Mist 22 1009 94 9000 1 360 11:23 18.06.2019
6182 Mist 22 1011 94 2000 2.1 360 10:58 18.06.2019
6183 Rain 22 1009 73 10000 3.6 230 10:38 18.06.2019
6184 Rain 22 1009 73 10000 3.6 230 10:20 18.06.2019
6185 Rain 22 1009 73 10000 4.26 232.664 09:51 18.06.2019
6186 Rain 22 1009 94 8000 1.5 340 09:24 18.06.2019
6187 Haze 22 1009 78 8000 7.06 214.501 08:47 18.06.2019
6188 Rain 22 1009 83 10000 1.5 340 08:21 18.06.2019
6189 Rain 22 1009 83 10000 1.5 340 08:21 18.06.2019
6190 Haze 23 1011 94 2800 1.5 60 07:41 18.06.2019
6191 Haze 23 1010 78 10000 1 30 07:23 18.06.2019
6192 Haze 23 1012 83 4800 1.5 20 06:44 18.06.2019
6193 Haze 23 1011 73 10000 1 220 05:21 18.06.2019
6194 Haze 19 1012 88 10000 1 190 02:53 18.06.2019
6195 Mist 18 1012 100 4800 0.5 360 01:55 18.06.2019
6196 Haze 18 1013 106 4800 0.5 190 01:25 18.06.2019
6197 Rain 17 1014 106 2800 0.5 20 00:55 18.06.2019
6198 Thunderstorm 18 1013 106 1600 1 170 00:27 18.06.2019
6199 Rain 18 1012 88 2600 1.5 290 23:41 17.06.2019
6200 Thunderstorm 18 1011 88 8000 4.1 40 23:20 17.06.2019
6201 Thunderstorm 18 1013 93 6000 1 300 22:56 17.06.2019
6202 Thunderstorm 18 1012 82 2400 3.33 169.841 22:37 17.06.2019
6203 Thunderstorm 18 1012 106 10000 1 170 22:19 17.06.2019
6204 Rain 18 1013 93 6000 1 110 21:42 17.06.2019
6205 Haze 18 1012 100 2400 0.5 170 21:21 17.06.2019
6206 Haze 18 1013 93 6000 0.5 130 20:37 17.06.2019
6207 Mist 18 1012 77 10000 1 160 20:19 17.06.2019
6208 Mist 18 1011 88 9000 2.62 163.123 19:42 17.06.2019
6209 Rain 18 1011 82 8000 2.62 163.123 19:23 17.06.2019
6210 Mist 18 1012 77 10000 0.5 100 18:58 17.06.2019
6211 Mist 18 1013 88 10000 0.5 210 18:38 17.06.2019
6212 Haze 19 1012 77 10000 1 160 18:18 17.06.2019
6213 Haze 19 1012 77 10000 1 160 17:46 17.06.2019
6214 Haze 19 1012 77 10000 1 160 17:28 17.06.2019
6215 Haze 19 1012 72 10000 1 170 16:48 17.06.2019
6216 Haze 19 1012 72 10000 1 170 16:29 17.06.2019
6217 Haze 19 1012 72 10000 1 130 15:58 17.06.2019
6218 Haze 19 1014 88 10000 0.5 170 15:39 17.06.2019
6219 Haze 20 1012 68 10000 0.5 170 15:19 17.06.2019
6220 Haze 21 1012 60 10000 0.5 170 14:52 17.06.2019
6221 Haze 21 1012 60 10000 0.5 170 14:32 17.06.2019
6222 Haze 21 1011 60 10000 0.5 180 13:56 17.06.2019
6223 Haze 22 1011 60 10000 1 170 13:38 17.06.2019
6224 Haze 23 1011 56 10000 2.88 233.118 13:19 17.06.2019
6225 Haze 23 1011 50 10000 0.5 230 12:33 17.06.2019
6226 Haze 24 1011 47 10000 1.5 240 11:58 17.06.2019
6227 Haze 24 1011 47 10000 1.5 270 11:38 17.06.2019
6228 Haze 25 1010 44 10000 2.6 200 11:18 17.06.2019
6229 Haze 25 1012 57 10000 2.6 270 10:44 17.06.2019
6230 Haze 25 1011 47 10000 3.1 210 10:25 17.06.2019
6231 Haze 25 1011 47 10000 3.1 210 09:55 17.06.2019
6232 Haze 25 1011 47 10000 1 230 09:30 17.06.2019
6233 Haze 26 1011 44 10000 2.1 220 08:43 17.06.2019
6234 Haze 25 1011 44 10000 2.1 190 08:23 17.06.2019
6235 Haze 25 1011 47 10000 2.1 200 07:47 17.06.2019
6236 Haze 25 1011 47 10000 2.1 200 07:28 17.06.2019
6237 Haze 25 1012 47 10000 3.1 170 06:46 17.06.2019
6238 Haze 24 1012 53 10000 2.6 200 05:50 17.06.2019
6239 Haze 23 1012 60 10000 1.5 220 04:52 17.06.2019
6240 Haze 22 1012 60 10000 2.1 190 03:50 17.06.2019
6241 Haze 21 1012 64 9000 2.1 210 03:20 17.06.2019
6242 Haze 21 1012 68 9000 2.1 250 02:41 17.06.2019
6243 Haze 20 1012 68 8000 1.5 210 01:56 17.06.2019
6244 Haze 20 1012 68 6000 1.5 150 01:34 17.06.2019
6245 Mist 19 1012 82 6000 2.1 200 00:45 17.06.2019
6246 Mist 18 1012 88 10000 0.5 190 00:23 17.06.2019
6247 Mist 18 1012 88 10000 1 170 23:43 16.06.2019
6248 Mist 18 1012 88 10000 1 170 23:23 16.06.2019
6249 Mist 18 1011 93 10000 1 160 22:57 16.06.2019
6250 Mist 18 1011 88 10000 0.5 170 22:39 16.06.2019
6251 Mist 18 1011 88 10000 0.5 160 22:19 16.06.2019
6252 Mist 18 1011 88 10000 0.5 160 22:19 16.06.2019
6253 Rain 18 1011 88 10000 0.5 160 21:55 16.06.2019
6254 Rain 18 1010 77 10000 4.9 194.735 21:37 16.06.2019
6255 Rain 18 1011 77 10000 4.34 223.208 21:19 16.06.2019
6256 Rain 18 1011 93 10000 0.5 180 20:37 16.06.2019
6257 Haze 18 1011 93 10000 1 160 20:19 16.06.2019
6258 Haze 18 1011 93 10000 1 160 20:19 16.06.2019
6259 Haze 18 1011 88 10000 1 170 19:43 16.06.2019
6260 Haze 18 1010 88 10000 1 180 19:22 16.06.2019
6261 Haze 18 1010 88 10000 1 180 18:59 16.06.2019
6262 Haze 18 1010 88 10000 1 170 18:41 16.06.2019
6263 Haze 19 1010 82 10000 1 150 18:21 16.06.2019
6264 Haze 19 1010 82 10000 1 150 18:21 16.06.2019
6265 Haze 19 1010 77 10000 1 160 17:48 16.06.2019
6266 Haze 19 1011 82 10000 1 90 17:24 16.06.2019
6267 Haze 19 1011 82 10000 1 90 17:24 16.06.2019
6268 Haze 19 1011 72 10000 0.5 20 16:57 16.06.2019
6269 Haze 19 1011 72 10000 0.5 20 16:57 16.06.2019
6270 Haze 19 1009 77 10000 1 170 16:39 16.06.2019
6271 Haze 20 1009 72 10000 0.5 120 16:21 16.06.2019
6272 Haze 20 1009 77 10000 1 130 15:44 16.06.2019
6273 Haze 20 1009 77 10000 1 130 15:24 16.06.2019
6274 Haze 21 1008 68 10000 1 170 14:45 16.06.2019
6275 Haze 21 1008 68 10000 1 170 14:24 16.06.2019
6276 Haze 21 1008 64 10000 1 180 13:56 16.06.2019
6277 Haze 21 1008 64 10000 1 180 13:56 16.06.2019
6278 Haze 22 1008 64 10000 1 190 13:38 16.06.2019
6279 Haze 23 1007 60 10000 1 250 13:20 16.06.2019
6280 Haze 23 1007 53 10000 0.5 180 12:41 16.06.2019
6281 Haze 24 1007 50 10000 1 240 12:20 16.06.2019
6282 Haze 24 1007 50 10000 2.6 270 11:46 16.06.2019
6283 Haze 24 1007 50 10000 2.6 270 11:46 16.06.2019
6284 Haze 25 1006 47 10000 1.5 250 11:20 16.06.2019
6285 Haze 25 1006 47 10000 1.5 250 10:54 16.06.2019
6286 Haze 25 1006 47 10000 2.1 250 10:36 16.06.2019
6287 Haze 26 1006 37 10000 1.5 210 10:18 16.06.2019
6288 Haze 26 1006 39 10000 1 100 09:37 16.06.2019
6289 Haze 27 1006 37 10000 1 150 09:19 16.06.2019
6290 Haze 27 1006 41 10000 1 270 08:40 16.06.2019
6291 Haze 26 1006 42 10000 2.1 210 08:19 16.06.2019
6292 Haze 26 1006 44 10000 1.5 220 07:44 16.06.2019
6293 Haze 26 1006 41 10000 2.1 210 06:59 16.06.2019
6294 Haze 26 1006 44 10000 1 180 06:39 16.06.2019
6295 Haze 25 1006 41 10000 1 350 05:50 16.06.2019
6296 Haze 25 1006 47 10000 1.5 340 04:54 16.06.2019
6297 Haze 24 1006 50 10000 2.1 30 03:57 16.06.2019
6298 Haze 23 1006 50 10000 2.1 360 03:32 16.06.2019
6299 Haze 22 1006 60 10000 2.1 360 02:31 16.06.2019
6300 Haze 20 1006 72 10000 1.5 10 01:44 16.06.2019
6301 Haze 20 1006 72 10000 1.5 10 01:26 16.06.2019
6302 Haze 18 1005 88 10000 1.5 30 00:40 16.06.2019
6303 Haze 17 1005 87 10000 1 30 00:21 16.06.2019
6304 Mist 16 1005 100 10000 1 350 23:44 15.06.2019
6305 Fog 16 1005 100 10000 1 350 23:25 15.06.2019
6306 Mist 15 1005 93 10000 0.5 30 22:50 15.06.2019
6307 Mist 16 1005 93 10000 0.5 30 22:27 15.06.2019
6308 Mist 16 1004 100 10000 0.5 120 21:52 15.06.2019
6309 Mist 16 1004 100 10000 0.5 120 21:30 15.06.2019
6310 Haze 16 1003 93 10000 0.5 70 20:59 15.06.2019
6311 Mist 16 1003 100 10000 0.5 360 20:41 15.06.2019
6312 Fog 16 1003 100 10000 0.5 360 20:22 15.06.2019
6313 Fog 16 1003 93 10000 0.5 70 19:42 15.06.2019
6314 Mist 17 1003 93 10000 0.5 70 19:23 15.06.2019
6315 Haze 17 1003 93 10000 0.5 230 18:40 15.06.2019
6316 Haze 17 1003 93 10000 0.5 340 18:21 15.06.2019
6317 Haze 18 1003 88 10000 0.5 60 17:43 15.06.2019
6318 Haze 18 1003 88 10000 0.5 60 17:43 15.06.2019
6319 Haze 18 1002 88 10000 0.5 20 17:23 15.06.2019
6320 Haze 18 1002 82 10000 0.5 10 16:48 15.06.2019
6321 Haze 19 1002 82 10000 0.5 20 16:20 15.06.2019
6322 Haze 18 1002 72 10000 1 360 15:44 15.06.2019
6323 Haze 18 1002 72 10000 1 360 15:23 15.06.2019
6324 Rain 19 1000 68 10000 7.55 304.021 14:43 15.06.2019
6325 Haze 19 1000 68 10000 0.5 30 14:19 15.06.2019
6326 Haze 19 1000 68 10000 0.5 30 13:58 15.06.2019
6327 Haze 19 1000 68 10000 0.5 360 13:39 15.06.2019
6328 Haze 20 999 60 10000 0.5 260 13:18 15.06.2019
6329 Haze 20 999 53 10000 0.5 120 12:47 15.06.2019
6330 Rain 20 999 53 10000 0.5 120 12:25 15.06.2019
6331 Thunderstorm 23 998 56 10000 2.1 10 11:51 15.06.2019
6332 Thunderstorm 23 998 56 10000 2.1 10 11:32 15.06.2019
6333 Haze 25 996 39 10000 1.5 250 10:47 15.06.2019
6334 Haze 25 996 39 10000 1.5 250 10:26 15.06.2019
6335 Haze 26 996 39 10000 2.1 320 09:58 15.06.2019
6336 Haze 26 996 42 10000 1.5 280 09:39 15.06.2019
6337 Clouds 27 996 42 10000 3.6 220 09:19 15.06.2019
6338 Clouds 27 996 42 10000 2.1 240 08:43 15.06.2019
6339 Clouds 27 996 42 10000 2.1 240 08:24 15.06.2019
6340 Haze 26 997 42 10000 1.5 310 07:27 15.06.2019
6341 Haze 26 998 50 10000 1.5 240 06:49 15.06.2019
6342 Haze 26 998 50 10000 1.5 240 06:29 15.06.2019
6343 Haze 25 999 54 10000 2.1 220 05:40 15.06.2019
6344 Haze 24 999 57 10000 1 330 04:59 15.06.2019
6345 Haze 24 999 57 10000 1 330 04:59 15.06.2019
6346 Haze 24 1002 64 10000 1.5 20 04:29 15.06.2019
6347 Haze 23 1000 57 10000 1.5 280 03:33 15.06.2019
6348 Haze 23 1000 57 10000 1.5 280 03:33 15.06.2019
6349 Haze 22 1001 64 10000 1.5 10 02:37 15.06.2019
6350 Haze 21 1001 64 10000 0.5 20 01:57 15.06.2019
6351 Haze 20 1002 72 10000 0.5 20 01:24 15.06.2019
6352 Haze 19 1002 82 10000 0.5 140 00:42 15.06.2019
6353 Haze 18 1001 88 10000 0.5 20 00:23 15.06.2019
6354 Haze 17 1001 93 10000 0.5 180 23:49 14.06.2019
6355 Mist 17 1001 93 10000 0.5 120 23:20 14.06.2019
6356 Mist 17 1001 93 10000 0.5 120 23:20 14.06.2019
6357 Mist 17 1001 93 10000 0.5 150 22:41 14.06.2019
6358 Mist 17 1001 93 10000 0.5 150 22:41 14.06.2019
6359 Mist 17 1001 93 10000 0.5 50 22:21 14.06.2019
6360 Haze 17 1001 93 10000 0.5 130 21:48 14.06.2019
6361 Haze 17 1001 93 10000 0.5 130 21:28 14.06.2019
6362 Mist 17 1001 93 10000 0.5 180 20:55 14.06.2019
6363 Mist 17 1001 93 10000 1 170 20:36 14.06.2019
6364 Haze 18 1001 93 6000 0.5 160 20:18 14.06.2019
6365 Haze 18 1002 93 10000 0.5 170 19:39 14.06.2019
6366 Haze 18 1002 93 10000 0.5 20 19:21 14.06.2019
6367 Haze 18 1002 88 10000 0.5 220 18:54 14.06.2019
6368 Haze 18 1002 88 10000 0.5 220 18:36 14.06.2019
6369 Haze 18 1003 82 10000 4.08 306.836 18:18 14.06.2019
6370 Haze 19 1003 82 10000 4.08 306.836 17:44 14.06.2019
6371 Haze 19 1003 82 10000 0.5 150 17:23 14.06.2019
6372 Haze 20 1003 82 10000 0.5 150 16:48 14.06.2019
6373 Haze 20 1003 72 10000 0.5 160 16:23 14.06.2019
6374 Haze 20 1003 72 10000 0.5 160 15:59 14.06.2019
6375 Haze 20 1004 77 10000 0.5 100 15:39 14.06.2019
6376 Haze 21 1003 73 10000 4.49 313.131 15:19 14.06.2019
6377 Haze 22 1003 68 10000 0.5 110 14:43 14.06.2019
6378 Haze 22 1003 68 10000 0.5 110 14:25 14.06.2019
6379 Haze 23 1003 57 10000 1 170 13:46 14.06.2019
6380 Haze 23 1003 57 10000 1 170 13:27 14.06.2019
6381 Haze 24 1003 50 10000 1.5 350 12:55 14.06.2019
6382 Haze 24 1002 57 10000 0.5 150 12:36 14.06.2019
6383 Haze 25 1002 50 10000 0.5 270 12:18 14.06.2019
6384 Haze 26 1002 50 10000 1 310 11:42 14.06.2019
6385 Haze 27 1002 45 10000 1 300 11:23 14.06.2019
6386 Haze 27 1002 42 10000 1.5 290 10:47 14.06.2019
6387 Haze 27 1003 37 10000 1 250 10:21 14.06.2019
6388 Haze 28 1003 37 10000 1 10 09:52 14.06.2019
6389 Haze 28 1003 37 10000 1 10 09:33 14.06.2019
6390 Haze 27 1003 39 10000 0.5 320 08:48 14.06.2019
6391 Haze 27 1004 39 10000 1 190 08:21 14.06.2019
6392 Haze 27 1004 39 10000 1 190 07:55 14.06.2019
6393 Haze 26 1004 45 10000 0.5 160 07:23 14.06.2019
6394 Haze 26 1004 45 10000 0.5 160 06:52 14.06.2019
6395 Haze 26 1005 47 10000 1 190 06:52 14.06.2019
6396 Haze 25 1005 50 10000 1 170 06:18 14.06.2019
6397 -273 0 0 0 0 0 05:35 14.06.2019
6398 Haze 24 1006 60 10000 1 270 04:51 14.06.2019
6399 Haze 23 1007 64 10000 1 340 04:19 14.06.2019
6400 Haze 22 1007 64 10000 1 350 03:26 14.06.2019
6401 Haze 21 1007 72 10000 0.5 60 02:58 14.06.2019
6402 Haze 20 1007 77 10000 1 350 02:35 14.06.2019
6403 Haze 19 1007 77 10000 0.5 80 01:35 14.06.2019
6404 Mist 18 1007 88 10000 1 40 00:36 14.06.2019
6405 Mist 18 1007 88 10000 0.5 330 00:18 14.06.2019
6406 Mist 18 1007 88 10000 0.5 170 23:48 13.06.2019
6407 Mist 18 1007 88 10000 0.5 170 23:24 13.06.2019
6408 Mist 18 1007 88 10000 0.5 20 22:40 13.06.2019
6409 Mist 18 1007 88 10000 0.5 160 22:22 13.06.2019
6410 Mist 18 1007 88 10000 0.5 160 21:41 13.06.2019
6411 Mist 18 1007 88 10000 1.57 301.978 21:20 13.06.2019
6412 Mist 18 1007 88 10000 1.57 301.978 20:59 13.06.2019
6413 Mist 18 1007 82 10000 0.5 160 20:40 13.06.2019
6414 Mist 19 1007 82 10000 0.5 140 20:19 13.06.2019
6415 Mist 19 1008 82 10000 0.5 140 19:42 13.06.2019
6416 Mist 19 1008 82 10000 0.5 140 19:42 13.06.2019
6417 Haze 19 1008 82 10000 0.5 140 19:22 13.06.2019
6418 Haze 19 1008 82 10000 0.5 140 18:58 13.06.2019
6419 Haze 19 1008 77 10000 0.5 150 18:40 13.06.2019
6420 Haze 20 1008 77 10000 0.5 130 18:21 13.06.2019
6421 Haze 20 1008 82 10000 0.5 20 17:43 13.06.2019
6422 Haze 20 1008 72 10000 0.5 150 17:20 13.06.2019
6423 Haze 20 1008 72 10000 0.5 150 16:53 13.06.2019
6424 Haze 21 1009 72 10000 0.5 160 16:22 13.06.2019
6425 Haze 21 1009 72 10000 0.5 160 15:59 13.06.2019
6426 Haze 21 1009 68 10000 0.5 150 15:39 13.06.2019
6427 Haze 21 1008 64 10000 0.5 180 15:19 13.06.2019
6428 Haze 22 1008 57 10000 4.69 316.479 14:47 13.06.2019
6429 Haze 22 1008 57 10000 4.69 316.479 14:27 13.06.2019
6430 Haze 23 1008 53 10000 1 190 13:47 13.06.2019
6431 Haze 25 1008 44 10000 1 310 13:22 13.06.2019
6432 Haze 25 1008 44 10000 1 310 12:58 13.06.2019
6433 Haze 25 1008 47 10000 0.5 310 12:38 13.06.2019
6434 Haze 27 1007 44 10000 1.5 300 12:19 13.06.2019
6435 Haze 27 1007 45 10000 1 300 11:43 13.06.2019
6436 Haze 27 1007 45 10000 1 300 11:24 13.06.2019
6437 Haze 28 1007 42 10000 1 310 10:47 13.06.2019
6438 Haze 28 1007 42 10000 1 310 10:28 13.06.2019
6439 Haze 28 1007 37 10000 1 310 09:50 13.06.2019
6440 Haze 28 1007 37 10000 2.1 200 09:25 13.06.2019
6441 Haze 28 1007 37 10000 1 190 08:50 13.06.2019
6442 Haze 28 1007 37 10000 1 190 08:30 13.06.2019
6443 Haze 28 1008 33 10000 1.5 350 07:59 13.06.2019
6444 Haze 28 1008 35 10000 0.5 10 07:31 13.06.2019
6445 Haze 28 1009 37 10000 2.1 180 06:52 13.06.2019
6446 Haze 27 1009 37 10000 2.1 180 06:24 13.06.2019
6447 Haze 27 1009 42 10000 1 250 05:57 13.06.2019
6448 Haze 27 1010 42 10000 0.5 270 05:38 13.06.2019
6449 Haze 26 1010 47 10000 1.5 230 05:18 13.06.2019
6450 Haze 25 1011 53 10000 1.5 200 03:36 13.06.2019
6451 Haze 21 1012 72 10000 0.5 60 01:43 13.06.2019
6452 Haze 18 1012 77 10000 0.5 40 00:29 13.06.2019
6453 Mist 15 1012 93 10000 0.5 140 23:26 12.06.2019
6454 Mist 15 1011 100 10000 0.5 150 22:47 12.06.2019
6455 Mist 15 1011 100 10000 0.5 150 22:28 12.06.2019
6456 Mist 15 1011 100 10000 1.45 221.97 21:59 12.06.2019
6457 Mist 15 1011 93 10000 0.5 160 21:40 12.06.2019
6458 Mist 15 1011 93 10000 0.5 160 21:40 12.06.2019
6459 Haze 16 1011 93 9000 0.5 180 21:22 12.06.2019
6460 Haze 16 1011 93 10000 0.5 130 20:48 12.06.2019
6461 Haze 16 1011 93 10000 0.5 130 20:29 12.06.2019
6462 Haze 17 1011 93 10000 0.5 20 19:57 12.06.2019
6463 Haze 17 1011 87 10000 1.81 305.431 19:37 12.06.2019
6464 Haze 17 1011 87 10000 1.81 305.431 19:37 12.06.2019
6465 Haze 17 1011 93 10000 1.81 305.431 19:18 12.06.2019
6466 Haze 17 1011 93 10000 0.5 170 18:40 12.06.2019
6467 Haze 17 1011 93 10000 0.5 170 18:22 12.06.2019
6468 Haze 18 1011 82 10000 0.5 150 17:45 12.06.2019
6469 Haze 18 1011 82 10000 1 160 17:21 12.06.2019
6470 Haze 18 1011 82 10000 1 140 16:43 12.06.2019
6471 Haze 19 1011 82 10000 1 140 16:24 12.06.2019
6472 -273 0 0 0 0 0 15:57 12.06.2019
6473 Haze 20 1011 72 10000 0.5 140 15:32 12.06.2019
6474 Haze 21 1010 68 10000 0.5 160 14:50 12.06.2019
6475 Haze 21 1010 68 10000 0.5 160 14:30 12.06.2019
6476 Haze 22 1010 64 10000 1 170 13:55 12.06.2019
6477 Haze 22 1009 64 10000 0.5 190 13:37 12.06.2019
6478 Haze 23 1009 53 10000 0.5 200 13:18 12.06.2019
6479 Haze 23 1009 50 10000 1.5 290 12:40 12.06.2019
6480 Haze 24 1009 50 10000 2.6 260 12:19 12.06.2019
6481 Haze 25 1008 50 10000 2.6 270 11:47 12.06.2019
6482 Haze 25 1008 50 10000 2.6 270 11:29 12.06.2019
6483 Haze 25 1008 50 10000 2.1 270 10:54 12.06.2019
6484 Haze 26 1008 50 10000 2.6 280 10:35 12.06.2019
6485 Haze 26 1008 50 10000 2.1 270 09:59 12.06.2019
6486 Haze 26 1008 47 10000 2.6 260 09:40 12.06.2019
6487 Haze 26 1008 47 10000 3.1 270 09:18 12.06.2019
6488 Haze 26 1008 45 10000 1 210 08:26 12.06.2019
6489 Haze 26 1009 42 10000 1.5 270 07:52 12.06.2019
6490 Haze 26 1012 50 10000 2.6 240 06:55 12.06.2019
6491 Haze 26 1010 61 10000 4.1 250 06:29 12.06.2019
6492 Haze 25 1010 50 10000 2.1 200 05:24 12.06.2019
6493 Mist 19 1011 68 10000 1 360 02:19 12.06.2019
6494 Haze 17 1011 82 10000 1 30 00:41 12.06.2019
6495 Mist 15 1011 100 10000 0.5 360 23:53 11.06.2019
6496 Mist 15 1011 100 10000 0.5 360 23:34 11.06.2019
6497 Mist 14 1011 100 10000 0.5 110 22:45 11.06.2019
6498 Rain 15 1010 87 10000 2.21 359.275 22:24 11.06.2019
6499 Rain 15 1010 87 10000 2.21 359.275 21:58 11.06.2019
6500 Haze 14 1010 100 10000 0.5 70 21:40 11.06.2019
6501 Haze 15 1010 100 10000 1 20 21:21 11.06.2019
6502 Haze 15 1010 93 10000 0.5 220 20:50 11.06.2019
6503 Haze 15 1010 93 10000 0.5 220 20:27 11.06.2019
6504 Fog 15 1010 93 400 0.5 180 19:58 11.06.2019
6505 Fog 15 1011 93 10000 0.5 350 19:39 11.06.2019
6506 Fog 15 1011 93 10000 0.5 350 19:39 11.06.2019
6507 Fog 16 1009 82 10000 2.71 331.091 19:18 11.06.2019
6508 Fog 17 1009 72 10000 3.59 305.922 18:23 11.06.2019
6509 Fog 17 1009 72 10000 3.59 305.922 18:22 11.06.2019
6510 Fog 17 1010 82 400 0.5 140 17:42 11.06.2019
6511 Haze 17 1010 82 800 0.5 40 17:23 11.06.2019
6512 Haze 17 1010 82 800 0.5 40 16:58 11.06.2019
6513 Haze 18 1009 68 8000 3.59 305.922 16:40 11.06.2019
6514 Fog 18 1009 77 400 0.5 170 16:22 11.06.2019
6515 Fog 18 1009 72 0 0.5 140 15:42 11.06.2019
6516 Fog 19 1009 72 0 0.5 140 15:23 11.06.2019
6517 Mist 19 1008 72 800 0.5 30 14:49 11.06.2019
6518 Haze 20 1008 63 4000 0.5 350 14:22 11.06.2019
6519 Haze 20 1008 63 4000 0.5 350 13:52 11.06.2019
6520 Haze 21 1008 60 10000 0.5 40 13:24 11.06.2019
6521 Clear 20 1008 60 10000 0.5 40 13:24 11.06.2019
6522 Haze 22 1007 52 10000 0.5 350 12:58 11.06.2019
6523 Haze 22 1007 52 10000 1 30 12:40 11.06.2019
6524 Haze 24 1007 46 10000 1 30 12:19 11.06.2019
6525 Haze 24 1007 44 10000 0.5 310 11:40 11.06.2019
6526 Clear 24 1007 41 10000 1 290 11:19 11.06.2019
6527 Clear 24 1007 36 10000 1 300 10:46 11.06.2019
6528 Clear 24 1007 36 10000 1 300 10:46 11.06.2019
6529 Clear 24 1007 36 10000 1 300 10:46 11.06.2019
6530 Clear 24 1007 36 10000 1 300 10:25 11.06.2019
6531 Clear 25 1007 41 10000 2.1 280 09:49 11.06.2019
6532 Clear 24 1007 41 10000 2.1 280 09:24 11.06.2019
6533 Clouds 24 1008 36 10000 1.5 330 08:45 11.06.2019
6534 Clouds 24 1008 36 10000 1.5 330 08:26 11.06.2019
6535 Clear 24 1008 38 10000 2.1 330 07:38 11.06.2019
6536 Clouds 24 1008 38 10000 1 320 06:56 11.06.2019
6537 Clouds 23 1010 46 10000 1.5 50 06:34 11.06.2019
6538 Clouds 22 1009 43 10000 1.5 360 04:55 11.06.2019
6539 Clear 21 1009 52 10000 2.1 350 03:42 11.06.2019
6540 Clouds 18 1010 63 10000 1.5 360 01:40 11.06.2019
6541 Clouds 17 1010 72 10000 1 30 00:46 11.06.2019
6542 Haze 15 1009 87 10000 1.5 20 23:47 10.06.2019
6543 Haze 15 1009 87 10000 1.5 20 23:25 10.06.2019
6544 Haze 15 1009 82 10000 1.5 30 22:55 10.06.2019
6545 Haze 15 1009 82 10000 1 30 22:37 10.06.2019
6546 Haze 16 1009 77 10000 1 20 22:19 10.06.2019
6547 Haze 16 1009 77 10000 1.5 20 21:40 10.06.2019
6548 Haze 16 1009 77 10000 1.5 20 21:22 10.06.2019
6549 Haze 16 1009 77 10000 1 20 20:46 10.06.2019
6550 Haze 16 1009 77 10000 1 20 20:23 10.06.2019
6551 Haze 16 1009 82 10000 1.5 30 19:54 10.06.2019
6552 Haze 16 1009 82 10000 1.5 30 19:27 10.06.2019
6553 Haze 17 1009 82 10000 1 10 18:59 10.06.2019
6554 Haze 16 1009 82 10000 1 10 18:41 10.06.2019
6555 Clear 17 1009 82 10000 1 10 18:20 10.06.2019
6556 Clouds 17 1009 77 10000 1 330 17:54 10.06.2019
6557 Clouds 17 1009 77 10000 1 330 17:36 10.06.2019
6558 Clouds 17 1009 77 10000 1 360 17:18 10.06.2019
6559 Clouds 18 1009 77 10000 1 30 16:42 10.06.2019
6560 Mist 18 1009 72 10000 1 20 16:22 10.06.2019
6561 Mist 18 1009 72 10000 0.5 10 15:42 10.06.2019
6562 Mist 19 1009 72 10000 1 40 15:23 10.06.2019
6563 Mist 19 1008 77 10000 0.5 30 14:49 10.06.2019
6564 Mist 19 1008 77 10000 0.5 30 14:31 10.06.2019
6565 Clear 19 1008 77 10000 0.5 30 13:58 10.06.2019
6566 Clear 20 1007 72 10000 1 30 13:39 10.06.2019
6567 Haze 20 1007 72 8000 0.5 20 13:20 10.06.2019
6568 Clear 21 1007 68 10000 1 40 12:40 10.06.2019
6569 Clear 22 1006 60 10000 1 340 12:22 10.06.2019
6570 Clear 22 1006 53 10000 1.5 10 11:43 10.06.2019
6571 Clouds 22 1006 56 10000 1.5 10 11:19 10.06.2019
6572 Clouds 22 1006 56 10000 1.5 10 11:19 10.06.2019
6573 Clouds 22 1006 60 10000 1.5 340 10:42 10.06.2019
6574 Clouds 22 1006 60 10000 0.5 20 10:20 10.06.2019
6575 Clouds 22 1006 60 10000 0.5 20 09:55 10.06.2019
6576 Clouds 22 1007 64 10000 1 30 09:32 10.06.2019
6577 Clouds 21 1007 64 10000 2.1 330 08:50 10.06.2019
6578 Clouds 21 1007 64 10000 2.1 330 08:27 10.06.2019
6579 Clouds 21 1007 68 10000 2.1 20 07:46 10.06.2019
6580 Clouds 20 1008 82 10000 1.5 40 06:26 10.06.2019
6581 Clouds 19 1008 77 10000 1 30 03:46 10.06.2019
6582 Rain 16 1008 88 10000 1 360 01:56 10.06.2019
6583 Rain 16 1008 88 10000 1 360 01:23 10.06.2019
6584 Rain 16 1007 93 10000 0.5 40 00:47 10.06.2019
6585 Rain 16 1007 93 3000 2.93 174.946 23:49 09.06.2019
6586 Rain 16 1007 93 3000 2.93 174.946 23:25 09.06.2019
6587 Rain 16 1006 93 6000 2.93 174.946 22:48 09.06.2019
6588 Rain 16 1007 93 10000 1 20 22:27 09.06.2019
6589 Rain 16 1006 93 10000 2.93 174.946 21:59 09.06.2019
6590 Rain 16 1006 93 10000 2.1 50 21:37 09.06.2019
6591 Rain 16 1006 93 6000 1.5 50 21:19 09.06.2019
6592 Rain 16 1006 87 10000 1.5 90 20:42 09.06.2019
6593 Rain 16 1006 93 10000 0.5 20 20:22 09.06.2019
6594 Rain 16 1006 93 10000 2.61 220.659 19:45 09.06.2019
6595 Rain 17 1005 93 4800 2.1 60 19:19 09.06.2019
6596 Rain 17 1005 88 2400 1.95 282.577 18:45 09.06.2019
6597 Rain 17 1006 82 10000 0.5 150 18:26 09.06.2019
6598 Rain 18 1006 82 10000 0.5 340 17:57 09.06.2019
6599 Rain 18 1005 77 10000 1.5 90 17:38 09.06.2019
6600 Rain 18 1006 82 10000 1 40 16:59 09.06.2019
6601 Rain 18 1006 82 10000 1.5 30 16:40 09.06.2019
6602 Thunderstorm 18 1005 82 10000 4.19 277.372 16:20 09.06.2019
6603 Thunderstorm 18 1005 82 10000 4.19 277.372 16:20 09.06.2019
6604 Rain 19 1005 72 3000 1.5 50 15:50 09.06.2019
6605 Rain 19 1005 72 3000 1.5 50 15:29 09.06.2019
6606 Thunderstorm 19 1006 88 10000 1.5 30 14:56 09.06.2019
6607 Thunderstorm 19 1006 82 8000 1.5 20 14:38 09.06.2019
6608 Thunderstorm 20 1006 68 10000 2.1 20 14:19 09.06.2019
6609 Thunderstorm 20 1003 69 10000 3.41 307.707 13:48 09.06.2019
6610 Haze 21 1005 68 10000 2.6 30 12:57 09.06.2019
6611 Haze 22 1004 64 10000 2.6 10 12:35 09.06.2019
6612 Haze 23 1003 56 10000 2.1 10 11:58 09.06.2019
6613 Haze 23 1003 65 10000 1 320 11:36 09.06.2019
6614 Haze 24 1002 61 10000 1.5 330 11:18 09.06.2019
6615 Haze 24 1002 57 10000 1 310 10:43 09.06.2019
6616 Haze 24 1002 57 10000 1 310 10:43 09.06.2019
6617 Haze 24 1002 54 10000 1 280 10:20 09.06.2019
6618 Haze 25 1003 54 10000 1.5 280 09:39 09.06.2019
6619 Haze 25 1003 54 10000 1.5 280 09:20 09.06.2019
6620 Haze 25 1003 54 10000 1.5 280 08:45 09.06.2019
6621 Haze 25 1003 54 10000 1 230 07:57 09.06.2019
6622 Haze 25 1004 44 10000 2.1 220 06:48 09.06.2019
6623 Haze 25 1004 44 10000 2.1 220 06:29 09.06.2019
6624 Haze 23 1006 69 10000 1.5 250 03:25 09.06.2019
6625 Mist 21 1007 73 10000 1.5 330 01:37 09.06.2019
6626 Mist 20 1007 82 10000 1.5 330 01:19 09.06.2019
6627 Mist 19 1007 88 10000 0.5 30 00:31 09.06.2019
6628 Mist 18 1007 93 10000 1 10 23:41 08.06.2019
6629 Mist 18 1007 93 10000 1 10 23:23 08.06.2019
6630 Mist 18 1007 100 9000 0.5 360 22:55 08.06.2019
6631 Mist 18 1007 100 8000 0.5 30 22:36 08.06.2019
6632 Haze 18 1006 72 9000 1.29 197.819 22:18 08.06.2019
6633 Mist 19 1007 93 6000 0.5 220 21:41 08.06.2019
6634 Haze 19 1007 93 10000 0.5 160 21:23 08.06.2019
6635 Haze 19 1007 93 6000 0.5 190 20:45 08.06.2019
6636 Haze 19 1007 93 10000 0.5 350 20:25 08.06.2019
6637 Haze 19 1007 93 10000 0.5 350 19:56 08.06.2019
6638 Haze 19 1007 93 10000 2.65 237.784 19:37 08.06.2019
6639 Haze 19 1007 68 10000 2.64 223.434 19:19 08.06.2019
6640 Haze 18 1007 93 10000 0.5 170 18:41 08.06.2019
6641 Haze 19 1007 93 10000 0.5 170 18:22 08.06.2019
6642 Haze 19 1007 88 10000 0.5 160 17:44 08.06.2019
6643 Haze 19 1007 88 10000 0.5 160 17:22 08.06.2019
6644 Haze 19 1007 88 10000 0.5 40 16:47 08.06.2019
6645 Haze 19 1007 88 10000 0.5 40 16:28 08.06.2019
6646 Clouds 20 1006 64 10000 1.61 201.709 15:49 08.06.2019
6647 Haze 20 1006 64 10000 1.61 201.709 15:31 08.06.2019
6648 Haze 21 1007 56 10000 1.22 249.229 14:47 08.06.2019
6649 Haze 21 1007 56 10000 1.22 249.229 14:28 08.06.2019
6650 Haze 22 1007 69 10000 1 180 13:44 08.06.2019
6651 Clouds 23 1006 60 10000 1.5 270 12:52 08.06.2019
6652 Clouds 23 1006 60 10000 1.5 270 12:32 08.06.2019
6653 Clouds 23 1006 60 10000 1.5 270 12:32 08.06.2019
6654 Clouds 25 1006 53 10000 1.5 280 11:44 08.06.2019
6655 Clouds 25 1006 53 10000 1.5 280 11:44 08.06.2019
6656 Clouds 25 1006 53 10000 1.5 280 11:25 08.06.2019
6657 Clouds 25 1006 47 10000 0.5 300 10:46 08.06.2019
6658 Clouds 25 1006 47 10000 0.5 300 10:24 08.06.2019
6659 Clouds 26 1006 42 10000 0.5 190 09:52 08.06.2019
6660 Clouds 26 1006 42 10000 0.5 190 09:25 08.06.2019
6661 Clouds 27 1006 42 10000 1.5 210 08:38 08.06.2019
6662 Clouds 26 1007 50 10000 2.6 220 08:18 08.06.2019
6663 Clouds 26 1007 44 10000 1 210 06:51 08.06.2019
6664 Clouds 25 1008 50 10000 1 340 05:53 08.06.2019
6665 Clear 23 1009 60 10000 2.1 340 03:33 08.06.2019
6666 Clear 20 1010 68 10000 2.1 340 01:59 08.06.2019
6667 Clear 17 1010 87 10000 2.1 20 00:29 08.06.2019
6668 Mist 15 1010 100 10000 1 20 23:47 07.06.2019
6669 Mist 15 1010 100 10000 1 10 23:20 07.06.2019
6670 Clouds 15 1009 100 10000 1 20 22:47 07.06.2019
6671 Mist 15 1009 106 10000 1 20 22:25 07.06.2019
6672 Mist 15 1009 106 10000 1 20 21:54 07.06.2019
6673 Mist 15 1009 106 10000 1 20 21:54 07.06.2019
6674 Mist 15 1009 100 10000 1 20 21:31 07.06.2019
6675 Clouds 16 1008 100 10000 1.5 20 20:57 07.06.2019
6676 Clear 16 1008 100 10000 1 40 20:37 07.06.2019
6677 Clear 16 1008 100 10000 1 30 19:50 07.06.2019
6678 Clear 16 1008 106 10000 0.5 340 19:24 07.06.2019
6679 Clear 16 1008 106 10000 0.5 340 18:58 07.06.2019
6680 Clear 17 1008 100 10000 0.5 50 18:29 07.06.2019
6681 Clear 18 1008 100 10000 0.5 50 18:29 07.06.2019
6682 Clear 18 1008 100 10000 0.5 50 17:49 07.06.2019
6683 Clear 18 1008 100 10000 0.5 50 17:28 07.06.2019
6684 Clear 19 1008 93 10000 0.5 360 16:58 07.06.2019
6685 Clear 19 1008 93 10000 0.5 190 16:39 07.06.2019
6686 Clouds 20 1007 88 10000 0.5 120 15:52 07.06.2019
6687 Haze 20 1007 88 10000 0.5 330 15:23 07.06.2019
6688 Haze 20 1007 88 10000 0.5 170 15:23 07.06.2019
6689 Rain 20 1007 82 10000 0.5 70 14:47 07.06.2019
6690 Rain 20 1007 82 10000 0.5 70 14:26 07.06.2019
6691 Clouds 21 1006 77 10000 0.5 170 13:45 07.06.2019
6692 Clouds 21 1006 77 10000 0.5 170 13:25 07.06.2019
6693 Clouds 22 1006 77 10000 0.5 170 13:25 07.06.2019
6694 Clouds 23 1005 64 10000 0.5 350 12:48 07.06.2019
6695 Clouds 23 1004 56 10000 1 30 12:22 07.06.2019
6696 Clouds 23 1004 56 10000 2.1 30 11:49 07.06.2019
6697 Clouds 23 1004 56 10000 2.1 30 11:29 07.06.2019
6698 Haze 24 1003 60 10000 1.5 40 10:49 07.06.2019
6699 Haze 24 1003 60 10000 1.5 40 10:28 07.06.2019
6700 Haze 23 1003 60 10000 1.5 50 09:53 07.06.2019
6701 Haze 23 1003 60 10000 1.5 50 09:53 07.06.2019
6702 Haze 23 1003 64 10000 1.5 50 09:30 07.06.2019
6703 Rain 23 1003 64 10000 3.1 20 08:56 07.06.2019
6704 Haze 22 1003 68 10000 1.5 50 08:33 07.06.2019
6705 Haze 22 1003 68 10000 1.5 10 07:57 07.06.2019
6706 Haze 22 1003 77 10000 1 30 07:38 07.06.2019
6707 Rain 21 1003 77 10000 2.1 40 07:20 07.06.2019
6708 Rain 21 1002 73 10000 1.5 50 06:41 07.06.2019
6709 Rain 20 1002 82 10000 2.1 10 06:18 07.06.2019
6710 Rain 19 1002 82 10000 2.1 20 04:27 07.06.2019
6711 Rain 18 1001 93 10000 1 50 01:46 07.06.2019
6712 Rain 18 1001 93 10000 1 50 01:27 07.06.2019
6713 Rain 17 1001 100 10000 1.5 340 00:26 07.06.2019
6714 Rain 17 1000 88 8000 2.1 60 23:43 06.06.2019
6715 Rain 17 1001 88 6000 2.1 70 23:22 06.06.2019
6716 Rain 17 1001 106 4000 1.5 30 22:40 06.06.2019
6717 Rain 17 1002 88 1600 2.1 30 22:21 06.06.2019
6718 Rain 17 1002 106 4000 2.1 20 21:57 06.06.2019
6719 Rain 17 1001 88 1400 2.6 40 21:39 06.06.2019
6720 Rain 17 1002 88 1800 4.6 30 21:20 06.06.2019
6721 Rain 17 1002 88 1400 1.5 30 20:46 06.06.2019
6722 Rain 18 1001 106 4800 0.5 20 20:24 06.06.2019
6723 Rain 18 1002 93 4000 1.5 40 19:39 06.06.2019
6724 Rain 18 1002 93 4800 2.6 60 19:20 06.06.2019
6725 Rain 18 1003 100 6000 1.5 20 18:56 06.06.2019
6726 Rain 18 1004 100 4000 1 30 18:32 06.06.2019
6727 Rain 18 1004 100 6000 1 20 17:58 06.06.2019
6728 Rain 18 1004 88 4000 1.5 60 17:40 06.06.2019
6729 Rain 19 1005 100 10000 1 10 17:20 06.06.2019
6730 Rain 19 1006 93 10000 1 360 16:43 06.06.2019
6731 Rain 19 1007 100 9000 1 20 16:22 06.06.2019
6732 Rain 19 1007 100 4000 1.5 30 15:47 06.06.2019
6733 Rain 19 1007 100 4000 1.5 30 15:26 06.06.2019
6734 Rain 19 1008 106 2400 1 30 14:46 06.06.2019
6735 Rain 19 1008 106 2400 1 30 14:46 06.06.2019